{
  "fields": [{"id":"_id","type":"int"},{"id":"data_ora","type":"text"},{"id":"id_station","type":"text"},{"id":"denominazione","type":"text"},{"id":"temperatura","type":"text"},{"id":"cod_validazione_temperatura","type":"text"},{"id":"umidita","type":"text"},{"id":"cod_validazione_umidita_rel","type":"text"},{"id":"precipitazione","type":"text"},{"id":"cod_validazione_precipitazione","type":"text"},{"id":"velocita_vento","type":"text"},{"id":"cod_validazione_velocita_vento","type":"text"},{"id":"direzione_vento","type":"text"},{"id":"cod_validazione_direzione_vento","type":"text"},{"id":"rad_solare_globale","type":"text"},{"id":"cod_validazione_rad_solare_globale","type":"text"},{"id":"pressione_atmosferica","type":"text"},{"id":"cod_validazione_pressione_atmosferica","type":"text"},{"id":"Latitude","type":"text"},{"id":"Longitude","type":"text"}],
  "records": [
    [1,"2024-01-01 00:00:00","20","manfredonia_liceo","9.19","1","95.77","1","0.0","1","null","6","null","6","null","6","1010.81","1","41.627894","15.907547"],
    [2,"2024-01-01 01:00:00","20","manfredonia_liceo","9.52","1","96.63","1","0.0","1","null","6","null","6","null","6","1010.47","1","41.627894","15.907547"],
    [3,"2024-01-01 02:00:00","20","manfredonia_liceo","9.3","1","98.55","1","0.0","1","null","6","null","6","null","6","1010.02","1","41.627894","15.907547"],
    [4,"2024-01-01 03:00:00","20","manfredonia_liceo","9.17","1","97.96","1","0.0","1","null","6","null","6","null","6","1009.86","1","41.627894","15.907547"],
    [5,"2024-01-01 04:00:00","20","manfredonia_liceo","9.45","1","94.59","1","0.0","1","null","6","null","6","null","6","1009.43","1","41.627894","15.907547"],
    [6,"2024-01-01 05:00:00","20","manfredonia_liceo","9.23","1","94.25","1","0.0","1","null","6","null","6","null","6","1008.85","1","41.627894","15.907547"],
    [7,"2024-01-01 06:00:00","20","manfredonia_liceo","8.5","1","96.16","1","0.0","1","null","6","null","6","null","6","1008.49","1","41.627894","15.907547"],
    [8,"2024-01-01 07:00:00","20","manfredonia_liceo","8.41","1","97.95","1","0.0","1","null","6","null","6","null","6","1008.38","1","41.627894","15.907547"],
    [9,"2024-01-01 08:00:00","20","manfredonia_liceo","10.12","1","93.33","1","0.0","1","null","6","null","6","null","6","1008.42","1","41.627894","15.907547"],
    [10,"2024-01-01 09:00:00","20","manfredonia_liceo","10.67","1","91.18","1","0.0","1","null","6","null","6","null","6","1008.53","1","41.627894","15.907547"],
    [11,"2024-01-01 10:00:00","20","manfredonia_liceo","13.32","1","83.09","1","0.0","1","null","6","null","6","null","6","1008.67","1","41.627894","15.907547"],
    [12,"2024-01-01 11:00:00","20","manfredonia_liceo","14.79","1","75.07","1","0.0","1","null","6","null","6","null","6","1008.99","1","41.627894","15.907547"],
    [13,"2024-01-01 12:00:00","20","manfredonia_liceo","15.97","1","69.06","1","0.0","1","null","6","null","6","null","6","1008.54","1","41.627894","15.907547"],
    [14,"2024-01-01 13:00:00","20","manfredonia_liceo","16.72","1","65.12","1","0.0","1","null","6","null","6","null","6","1008.16","1","41.627894","15.907547"],
    [15,"2024-01-01 14:00:00","20","manfredonia_liceo","16.6","1","63.72","1","0.0","1","null","6","null","6","null","6","1007.92","1","41.627894","15.907547"],
    [16,"2024-01-01 15:00:00","20","manfredonia_liceo","14.94","1","76.1","1","0.4","1","null","6","null","6","null","6","1008.06","1","41.627894","15.907547"],
    [17,"2024-01-01 16:00:00","20","manfredonia_liceo","13.93","1","90.13","1","0.2","1","null","6","null","6","null","6","1008.17","1","41.627894","15.907547"],
    [18,"2024-01-01 17:00:00","20","manfredonia_liceo","13.64","1","89.98","1","0.0","1","null","6","null","6","null","6","1008.18","1","41.627894","15.907547"],
    [19,"2024-01-01 18:00:00","20","manfredonia_liceo","13.52","1","86.83","1","0.0","1","null","6","null","6","null","6","1008.29","1","41.627894","15.907547"],
    [20,"2024-01-01 19:00:00","20","manfredonia_liceo","13.35","1","87.91","1","0.0","1","null","6","null","6","null","6","1008.42","1","41.627894","15.907547"],
    [21,"2024-01-01 20:00:00","20","manfredonia_liceo","12.54","1","89.86","1","0.0","1","null","6","null","6","null","6","1008.57","1","41.627894","15.907547"],
    [22,"2024-01-01 21:00:00","20","manfredonia_liceo","12.19","1","89.14","1","0.0","1","null","6","null","6","null","6","1008.79","1","41.627894","15.907547"],
    [23,"2024-01-01 22:00:00","20","manfredonia_liceo","11.79","1","88.16","1","0.0","1","null","6","null","6","null","6","1008.73","1","41.627894","15.907547"],
    [24,"2024-01-01 23:00:00","20","manfredonia_liceo","10.7","1","89.1","1","0.0","1","null","6","null","6","null","6","1008.85","1","41.627894","15.907547"],
    [25,"2024-01-02 00:00:00","20","manfredonia_liceo","10.37","1","84.65","1","0.0","1","null","6","null","6","null","6","1009.16","1","41.627894","15.907547"],
    [26,"2024-01-02 01:00:00","20","manfredonia_liceo","10.46","1","80.48","1","0.0","1","null","6","null","6","null","6","1009.16","1","41.627894","15.907547"],
    [27,"2024-01-02 02:00:00","20","manfredonia_liceo","11.55","1","74.72","1","0.0","1","null","6","null","6","null","6","1009.14","1","41.627894","15.907547"],
    [28,"2024-01-02 03:00:00","20","manfredonia_liceo","12.0","1","72.9","1","0.0","1","null","6","null","6","null","6","1009.4","1","41.627894","15.907547"],
    [29,"2024-01-02 04:00:00","20","manfredonia_liceo","10.64","1","80.87","1","0.0","1","null","6","null","6","null","6","1009.55","1","41.627894","15.907547"],
    [30,"2024-01-02 05:00:00","20","manfredonia_liceo","10.49","1","86.15","1","0.0","1","null","6","null","6","null","6","1009.85","1","41.627894","15.907547"],
    [31,"2024-01-02 06:00:00","20","manfredonia_liceo","11.76","1","79.93","1","0.0","1","null","6","null","6","null","6","1010.14","1","41.627894","15.907547"],
    [32,"2024-01-02 07:00:00","20","manfredonia_liceo","11.23","1","84.63","1","0.0","1","null","6","null","6","null","6","1010.31","1","41.627894","15.907547"],
    [33,"2024-01-02 08:00:00","20","manfredonia_liceo","10.82","1","86.74","1","0.0","1","null","6","null","6","null","6","1010.86","1","41.627894","15.907547"],
    [34,"2024-01-02 09:00:00","20","manfredonia_liceo","11.28","1","85.56","1","0.0","1","null","6","null","6","null","6","1011.44","1","41.627894","15.907547"],
    [35,"2024-01-02 10:00:00","20","manfredonia_liceo","12.89","1","79.64","1","0.0","1","null","6","null","6","null","6","1011.78","1","41.627894","15.907547"],
    [36,"2024-01-02 11:00:00","20","manfredonia_liceo","15.06","1","68.39","1","0.0","1","null","6","null","6","null","6","1012.04","1","41.627894","15.907547"],
    [37,"2024-01-02 12:00:00","20","manfredonia_liceo","14.45","1","62.65","1","0.0","1","null","6","null","6","null","6","1011.84","1","41.627894","15.907547"],
    [38,"2024-01-02 13:00:00","20","manfredonia_liceo","15.03","1","57.52","1","0.0","1","null","6","null","6","null","6","1011.28","1","41.627894","15.907547"],
    [39,"2024-01-02 14:00:00","20","manfredonia_liceo","17.84","1","47.5","1","0.0","1","null","6","null","6","null","6","1010.62","1","41.627894","15.907547"],
    [40,"2024-01-02 15:00:00","20","manfredonia_liceo","18.59","1","45.93","1","0.0","1","null","6","null","6","null","6","1010.5","1","41.627894","15.907547"],
    [41,"2024-01-02 16:00:00","20","manfredonia_liceo","18.57","1","48.99","1","0.0","1","null","6","null","6","null","6","1010.26","1","41.627894","15.907547"],
    [42,"2024-01-02 17:00:00","20","manfredonia_liceo","14.69","1","71.12","1","0.0","1","null","6","null","6","null","6","1010.54","1","41.627894","15.907547"],
    [43,"2024-01-02 18:00:00","20","manfredonia_liceo","12.11","1","84.52","1","0.0","1","null","6","null","6","null","6","1010.86","1","41.627894","15.907547"],
    [44,"2024-01-02 19:00:00","20","manfredonia_liceo","10.79","1","85.24","1","0.0","1","null","6","null","6","null","6","1011.06","1","41.627894","15.907547"],
    [45,"2024-01-02 20:00:00","20","manfredonia_liceo","9.95","1","84.77","1","0.0","1","null","6","null","6","null","6","1011.35","1","41.627894","15.907547"],
    [46,"2024-01-02 21:00:00","20","manfredonia_liceo","9.6","1","82.0","1","0.0","1","null","6","null","6","null","6","1011.09","1","41.627894","15.907547"],
    [47,"2024-01-02 22:00:00","20","manfredonia_liceo","8.6","1","85.63","1","0.0","1","null","6","null","6","null","6","1010.88","1","41.627894","15.907547"],
    [48,"2024-01-02 23:00:00","20","manfredonia_liceo","8.73","1","84.34","1","0.0","1","null","6","null","6","null","6","1010.5","1","41.627894","15.907547"],
    [49,"2024-01-03 00:00:00","20","manfredonia_liceo","8.91","1","84.13","1","0.0","1","null","6","null","6","null","6","1010.23","1","41.627894","15.907547"],
    [50,"2024-01-03 01:00:00","20","manfredonia_liceo","10.96","1","75.32","1","0.0","1","null","6","null","6","null","6","1009.43","1","41.627894","15.907547"],
    [51,"2024-01-03 02:00:00","20","manfredonia_liceo","11.38","1","73.95","1","0.0","1","null","6","null","6","null","6","1009.25","1","41.627894","15.907547"],
    [52,"2024-01-03 03:00:00","20","manfredonia_liceo","11.96","1","70.72","1","0.0","1","null","6","null","6","null","6","1009.02","1","41.627894","15.907547"],
    [53,"2024-01-03 04:00:00","20","manfredonia_liceo","12.32","1","73.45","1","0.0","1","null","6","null","6","null","6","1008.48","1","41.627894","15.907547"],
    [54,"2024-01-03 05:00:00","20","manfredonia_liceo","12.02","1","76.68","1","0.0","1","null","6","null","6","null","6","1008.23","1","41.627894","15.907547"],
    [55,"2024-01-03 06:00:00","20","manfredonia_liceo","12.17","1","74.54","1","0.0","1","null","6","null","6","null","6","1008.05","1","41.627894","15.907547"],
    [56,"2024-01-03 07:00:00","20","manfredonia_liceo","12.16","1","72.99","1","0.0","1","null","6","null","6","null","6","1007.38","1","41.627894","15.907547"],
    [57,"2024-01-03 08:00:00","20","manfredonia_liceo","13.13","1","66.14","1","0.0","1","null","6","null","6","null","6","1007.27","1","41.627894","15.907547"],
    [58,"2024-01-03 09:00:00","20","manfredonia_liceo","13.27","1","67.02","1","0.0","1","null","6","null","6","null","6","1007.43","1","41.627894","15.907547"],
    [59,"2024-01-03 10:00:00","20","manfredonia_liceo","13.9","1","68.07","1","0.0","1","null","6","null","6","null","6","1007.52","1","41.627894","15.907547"],
    [60,"2024-01-03 11:00:00","20","manfredonia_liceo","15.61","1","60.57","1","0.0","1","null","6","null","6","null","6","1007.22","1","41.627894","15.907547"],
    [61,"2024-01-03 12:00:00","20","manfredonia_liceo","16.79","1","55.4","1","0.0","1","null","6","null","6","null","6","1006.76","1","41.627894","15.907547"],
    [62,"2024-01-03 13:00:00","20","manfredonia_liceo","17.26","1","53.87","1","0.0","1","null","6","null","6","null","6","1006.11","1","41.627894","15.907547"],
    [63,"2024-01-03 14:00:00","20","manfredonia_liceo","18.29","1","50.53","1","0.0","1","null","6","null","6","null","6","1005.57","1","41.627894","15.907547"],
    [64,"2024-01-03 15:00:00","20","manfredonia_liceo","18.29","1","50.37","1","0.0","1","null","6","null","6","null","6","1005.16","1","41.627894","15.907547"],
    [65,"2024-01-03 16:00:00","20","manfredonia_liceo","17.76","1","54.07","1","0.0","1","null","6","null","6","null","6","1005.22","1","41.627894","15.907547"],
    [66,"2024-01-03 17:00:00","20","manfredonia_liceo","16.33","1","59.58","1","0.0","1","null","6","null","6","null","6","1005.04","1","41.627894","15.907547"],
    [67,"2024-01-03 18:00:00","20","manfredonia_liceo","14.87","1","64.04","1","0.0","1","null","6","null","6","null","6","1005.45","1","41.627894","15.907547"],
    [68,"2024-01-03 19:00:00","20","manfredonia_liceo","14.37","1","65.46","1","0.0","1","null","6","null","6","null","6","1005.63","1","41.627894","15.907547"],
    [69,"2024-01-03 20:00:00","20","manfredonia_liceo","14.33","1","65.58","1","0.0","1","null","6","null","6","null","6","1005.53","1","41.627894","15.907547"],
    [70,"2024-01-03 21:00:00","20","manfredonia_liceo","13.32","1","69.34","1","0.0","1","null","6","null","6","null","6","1005.52","1","41.627894","15.907547"],
    [71,"2024-01-03 22:00:00","20","manfredonia_liceo","11.35","1","78.5","1","0.0","1","null","6","null","6","null","6","1005.0","1","41.627894","15.907547"],
    [72,"2024-01-03 23:00:00","20","manfredonia_liceo","11.15","1","78.03","1","0.0","1","null","6","null","6","null","6","1004.94","1","41.627894","15.907547"],
    [73,"2024-01-04 00:00:00","20","manfredonia_liceo","13.16","1","68.53","1","0.0","1","null","6","null","6","null","6","1004.92","1","41.627894","15.907547"],
    [74,"2024-01-04 01:00:00","20","manfredonia_liceo","12.48","1","72.69","1","0.0","1","null","6","null","6","null","6","1004.68","1","41.627894","15.907547"],
    [75,"2024-01-04 02:00:00","20","manfredonia_liceo","11.8","1","76.51","1","0.0","1","null","6","null","6","null","6","1004.05","1","41.627894","15.907547"],
    [76,"2024-01-04 03:00:00","20","manfredonia_liceo","10.34","1","85.56","1","0.0","1","null","6","null","6","null","6","1004.32","1","41.627894","15.907547"],
    [77,"2024-01-04 04:00:00","20","manfredonia_liceo","11.63","1","82.21","1","0.0","1","null","6","null","6","null","6","1003.98","1","41.627894","15.907547"],
    [78,"2024-01-04 05:00:00","20","manfredonia_liceo","13.12","1","78.49","1","0.0","1","null","6","null","6","null","6","1003.59","1","41.627894","15.907547"],
    [79,"2024-01-04 06:00:00","20","manfredonia_liceo","13.11","1","77.57","1","0.0","1","null","6","null","6","null","6","1003.56","1","41.627894","15.907547"],
    [80,"2024-01-04 07:00:00","20","manfredonia_liceo","13.25","1","73.98","1","0.0","1","null","6","null","6","null","6","1003.98","1","41.627894","15.907547"],
    [81,"2024-01-04 08:00:00","20","manfredonia_liceo","13.27","1","71.75","1","0.0","1","null","6","null","6","null","6","1004.03","1","41.627894","15.907547"],
    [82,"2024-01-04 09:00:00","20","manfredonia_liceo","14.31","1","69.65","1","0.0","1","null","6","null","6","null","6","1004.08","1","41.627894","15.907547"],
    [83,"2024-01-04 10:00:00","20","manfredonia_liceo","16.59","1","61.37","1","0.0","1","null","6","null","6","null","6","1004.66","1","41.627894","15.907547"],
    [84,"2024-01-04 11:00:00","20","manfredonia_liceo","17.47","1","59.01","1","0.0","1","null","6","null","6","null","6","1005.13","1","41.627894","15.907547"],
    [85,"2024-01-04 12:00:00","20","manfredonia_liceo","17.65","1","55.86","1","0.0","1","null","6","null","6","null","6","1005.05","1","41.627894","15.907547"],
    [86,"2024-01-04 13:00:00","20","manfredonia_liceo","18.87","1","49.13","1","0.0","1","null","6","null","6","null","6","1004.59","1","41.627894","15.907547"],
    [87,"2024-01-04 14:00:00","20","manfredonia_liceo","21.0","1","42.76","1","0.0","1","null","6","null","6","null","6","1004.06","1","41.627894","15.907547"],
    [88,"2024-01-04 15:00:00","20","manfredonia_liceo","21.16","1","43.63","1","0.0","1","null","6","null","6","null","6","1004.1","1","41.627894","15.907547"],
    [89,"2024-01-04 16:00:00","20","manfredonia_liceo","20.94","1","45.11","1","0.0","1","null","6","null","6","null","6","1004.74","1","41.627894","15.907547"],
    [90,"2024-01-04 17:00:00","20","manfredonia_liceo","18.4","1","51.77","1","0.0","1","null","6","null","6","null","6","1005.37","1","41.627894","15.907547"],
    [91,"2024-01-04 18:00:00","20","manfredonia_liceo","15.53","1","62.43","1","0.0","1","null","6","null","6","null","6","1006.18","1","41.627894","15.907547"],
    [92,"2024-01-04 19:00:00","20","manfredonia_liceo","14.44","1","65.25","1","0.0","1","null","6","null","6","null","6","1006.9","1","41.627894","15.907547"],
    [93,"2024-01-04 20:00:00","20","manfredonia_liceo","12.62","1","71.88","1","0.0","1","null","6","null","6","null","6","1007.45","1","41.627894","15.907547"],
    [94,"2024-01-04 21:00:00","20","manfredonia_liceo","11.49","1","73.91","1","0.0","1","null","6","null","6","null","6","1008.23","1","41.627894","15.907547"],
    [95,"2024-01-04 22:00:00","20","manfredonia_liceo","10.96","1","75.1","1","0.0","1","null","6","null","6","null","6","1008.42","1","41.627894","15.907547"],
    [96,"2024-01-04 23:00:00","20","manfredonia_liceo","10.26","1","77.6","1","0.0","1","null","6","null","6","null","6","1008.51","1","41.627894","15.907547"],
    [97,"2024-01-05 00:00:00","20","manfredonia_liceo","9.98","1","78.91","1","0.0","1","null","6","null","6","null","6","1008.79","1","41.627894","15.907547"],
    [98,"2024-01-05 01:00:00","20","manfredonia_liceo","9.3","1","85.01","1","0.0","1","null","6","null","6","null","6","1008.6","1","41.627894","15.907547"],
    [99,"2024-01-05 02:00:00","20","manfredonia_liceo","9.19","1","86.53","1","0.0","1","null","6","null","6","null","6","1008.48","1","41.627894","15.907547"],
    [100,"2024-01-05 03:00:00","20","manfredonia_liceo","9.15","1","88.59","1","0.0","1","null","6","null","6","null","6","1008.79","1","41.627894","15.907547"],
    [101,"2024-01-05 04:00:00","20","manfredonia_liceo","8.58","1","91.13","1","0.0","1","null","6","null","6","null","6","1008.58","1","41.627894","15.907547"],
    [102,"2024-01-05 05:00:00","20","manfredonia_liceo","8.69","1","92.74","1","0.0","1","null","6","null","6","null","6","1007.81","1","41.627894","15.907547"],
    [103,"2024-01-05 06:00:00","20","manfredonia_liceo","9.83","1","88.32","1","0.0","1","null","6","null","6","null","6","1007.3","1","41.627894","15.907547"],
    [104,"2024-01-05 07:00:00","20","manfredonia_liceo","10.4","1","84.86","1","0.0","1","null","6","null","6","null","6","1007.02","1","41.627894","15.907547"],
    [105,"2024-01-05 08:00:00","20","manfredonia_liceo","9.92","1","86.61","1","0.0","1","null","6","null","6","null","6","1007.33","1","41.627894","15.907547"],
    [106,"2024-01-05 09:00:00","20","manfredonia_liceo","10.69","1","87.45","1","0.0","1","null","6","null","6","null","6","1007.16","1","41.627894","15.907547"],
    [107,"2024-01-05 10:00:00","20","manfredonia_liceo","11.79","1","85.3","1","0.0","1","null","6","null","6","null","6","1007.03","1","41.627894","15.907547"],
    [108,"2024-01-05 11:00:00","20","manfredonia_liceo","14.4","1","70.86","1","0.0","1","null","6","null","6","null","6","1007.06","1","41.627894","15.907547"],
    [109,"2024-01-05 12:00:00","20","manfredonia_liceo","15.11","1","64.52","1","0.0","1","null","6","null","6","null","6","1006.26","1","41.627894","15.907547"],
    [110,"2024-01-05 13:00:00","20","manfredonia_liceo","15.76","1","58.43","1","0.0","1","null","6","null","6","null","6","1005.4","1","41.627894","15.907547"],
    [111,"2024-01-05 14:00:00","20","manfredonia_liceo","16.87","1","55.67","1","0.0","1","null","6","null","6","null","6","1004.6","1","41.627894","15.907547"],
    [112,"2024-01-05 15:00:00","20","manfredonia_liceo","15.4","1","60.62","1","0.0","1","null","6","null","6","null","6","1004.01","1","41.627894","15.907547"],
    [113,"2024-01-05 16:00:00","20","manfredonia_liceo","14.58","1","62.59","1","0.0","1","null","6","null","6","null","6","1003.7","1","41.627894","15.907547"],
    [114,"2024-01-05 17:00:00","20","manfredonia_liceo","14.15","1","62.27","1","0.0","1","null","6","null","6","null","6","1003.43","1","41.627894","15.907547"],
    [115,"2024-01-05 18:00:00","20","manfredonia_liceo","14.02","1","63.12","1","0.0","1","null","6","null","6","null","6","1003.3","1","41.627894","15.907547"],
    [116,"2024-01-05 19:00:00","20","manfredonia_liceo","14.01","1","66.04","1","0.0","1","null","6","null","6","null","6","1003.3","1","41.627894","15.907547"],
    [117,"2024-01-05 20:00:00","20","manfredonia_liceo","13.93","1","72.8","1","0.0","1","null","6","null","6","null","6","1003.36","1","41.627894","15.907547"],
    [118,"2024-01-05 21:00:00","20","manfredonia_liceo","13.01","1","74.58","1","0.0","1","null","6","null","6","null","6","1003.06","1","41.627894","15.907547"],
    [119,"2024-01-05 22:00:00","20","manfredonia_liceo","12.8","1","75.91","1","0.0","1","null","6","null","6","null","6","1002.27","1","41.627894","15.907547"],
    [120,"2024-01-05 23:00:00","20","manfredonia_liceo","13.14","1","80.86","1","0.0","1","null","6","null","6","null","6","1001.64","1","41.627894","15.907547"],
    [121,"2024-01-06 00:00:00","20","manfredonia_liceo","12.79","1","86.43","1","0.0","1","null","6","null","6","null","6","1001.15","1","41.627894","15.907547"],
    [122,"2024-01-06 01:00:00","20","manfredonia_liceo","12.69","1","88.97","1","0.0","1","null","6","null","6","null","6","1000.5","1","41.627894","15.907547"],
    [123,"2024-01-06 02:00:00","20","manfredonia_liceo","12.19","1","91.85","1","0.0","1","null","6","null","6","null","6","1000.13","1","41.627894","15.907547"],
    [124,"2024-01-06 03:00:00","20","manfredonia_liceo","12.49","1","92.68","1","0.0","1","null","6","null","6","null","6","999.71","1","41.627894","15.907547"],
    [125,"2024-01-06 04:00:00","20","manfredonia_liceo","11.92","1","92.12","1","0.0","1","null","6","null","6","null","6","999.05","1","41.627894","15.907547"],
    [126,"2024-01-06 05:00:00","20","manfredonia_liceo","11.62","1","92.51","1","0.0","1","null","6","null","6","null","6","998.62","1","41.627894","15.907547"],
    [127,"2024-01-06 06:00:00","20","manfredonia_liceo","11.57","1","92.23","1","0.0","1","null","6","null","6","null","6","998.47","1","41.627894","15.907547"],
    [128,"2024-01-06 07:00:00","20","manfredonia_liceo","12.29","1","85.19","1","0.0","1","null","6","null","6","null","6","998.1","1","41.627894","15.907547"],
    [129,"2024-01-06 08:00:00","20","manfredonia_liceo","12.42","1","82.84","1","0.0","1","null","6","null","6","null","6","998.09","1","41.627894","15.907547"],
    [130,"2024-01-06 09:00:00","20","manfredonia_liceo","12.81","1","79.75","1","0.0","1","null","6","null","6","null","6","997.67","1","41.627894","15.907547"],
    [131,"2024-01-06 10:00:00","20","manfredonia_liceo","14.14","1","76.7","1","0.0","1","null","6","null","6","null","6","997.19","1","41.627894","15.907547"],
    [132,"2024-01-06 11:00:00","20","manfredonia_liceo","15.01","1","76.66","1","0.0","1","null","6","null","6","null","6","996.72","1","41.627894","15.907547"],
    [133,"2024-01-06 12:00:00","20","manfredonia_liceo","15.17","1","83.82","1","0.4","1","null","6","null","6","null","6","995.94","1","41.627894","15.907547"],
    [134,"2024-01-06 13:00:00","20","manfredonia_liceo","15.17","1","91.83","1","0.4","1","null","6","null","6","null","6","993.99","1","41.627894","15.907547"],
    [135,"2024-01-06 14:00:00","20","manfredonia_liceo","16.37","1","82.73","1","2.6","1","null","6","null","6","null","6","992.26","1","41.627894","15.907547"],
    [136,"2024-01-06 15:00:00","20","manfredonia_liceo","14.12","1","95.48","1","2.0","1","null","6","null","6","null","6","990.83","1","41.627894","15.907547"],
    [137,"2024-01-06 16:00:00","20","manfredonia_liceo","12.25","1","99.88","1","13.4","1","null","6","null","6","null","6","990.11","1","41.627894","15.907547"],
    [138,"2024-01-06 17:00:00","20","manfredonia_liceo","11.38","1","100.0","1","3.2","1","null","6","null","6","null","6","989.14","1","41.627894","15.907547"],
    [139,"2024-01-06 18:00:00","20","manfredonia_liceo","11.62","1","null","3","0.0","1","null","6","null","6","null","6","988.4","1","41.627894","15.907547"],
    [140,"2024-01-06 19:00:00","20","manfredonia_liceo","10.89","1","null","3","0.0","1","null","6","null","6","null","6","987.67","1","41.627894","15.907547"],
    [141,"2024-01-06 20:00:00","20","manfredonia_liceo","11.23","1","100.0","1","0.2","1","null","6","null","6","null","6","987.81","1","41.627894","15.907547"],
    [142,"2024-01-06 21:00:00","20","manfredonia_liceo","11.52","1","100.0","1","0.6","1","null","6","null","6","null","6","988.04","1","41.627894","15.907547"],
    [143,"2024-01-06 22:00:00","20","manfredonia_liceo","11.34","1","100.0","1","1.0","1","null","6","null","6","null","6","987.23","1","41.627894","15.907547"],
    [144,"2024-01-06 23:00:00","20","manfredonia_liceo","11.15","1","100.0","1","0.2","1","null","6","null","6","null","6","986.76","1","41.627894","15.907547"],
    [145,"2024-01-07 00:00:00","20","manfredonia_liceo","10.98","1","null","3","0.0","1","null","6","null","6","null","6","986.92","1","41.627894","15.907547"],
    [146,"2024-01-07 01:00:00","20","manfredonia_liceo","11.25","1","null","3","0.0","1","null","6","null","6","null","6","986.82","1","41.627894","15.907547"],
    [147,"2024-01-07 02:00:00","20","manfredonia_liceo","11.33","1","null","3","0.0","1","null","6","null","6","null","6","986.91","1","41.627894","15.907547"],
    [148,"2024-01-07 03:00:00","20","manfredonia_liceo","11.06","1","null","3","0.0","1","null","6","null","6","null","6","986.95","1","41.627894","15.907547"],
    [149,"2024-01-07 04:00:00","20","manfredonia_liceo","11.18","1","100.0","1","0.6","1","null","6","null","6","null","6","986.75","1","41.627894","15.907547"],
    [150,"2024-01-07 05:00:00","20","manfredonia_liceo","10.99","1","null","3","0.0","1","null","6","null","6","null","6","986.26","1","41.627894","15.907547"],
    [151,"2024-01-07 06:00:00","20","manfredonia_liceo","10.39","1","null","3","0.0","1","null","6","null","6","null","6","985.95","1","41.627894","15.907547"],
    [152,"2024-01-07 07:00:00","20","manfredonia_liceo","10.45","1","null","3","0.0","1","null","6","null","6","null","6","986.82","1","41.627894","15.907547"],
    [153,"2024-01-07 08:00:00","20","manfredonia_liceo","10.85","1","null","3","0.0","1","null","6","null","6","null","6","987.64","1","41.627894","15.907547"],
    [154,"2024-01-07 09:00:00","20","manfredonia_liceo","10.8","1","null","3","0.0","1","null","6","null","6","null","6","988.43","1","41.627894","15.907547"],
    [155,"2024-01-07 10:00:00","20","manfredonia_liceo","11.31","1","null","3","0.0","1","null","6","null","6","null","6","988.95","1","41.627894","15.907547"],
    [156,"2024-01-07 11:00:00","20","manfredonia_liceo","12.25","1","100.0","1","0.6","1","null","6","null","6","null","6","989.27","1","41.627894","15.907547"],
    [157,"2024-01-07 12:00:00","20","manfredonia_liceo","13.62","1","97.99","1","0.0","1","null","6","null","6","null","6","989.01","1","41.627894","15.907547"],
    [158,"2024-01-07 13:00:00","20","manfredonia_liceo","14.68","1","85.05","1","0.0","1","null","6","null","6","null","6","988.82","1","41.627894","15.907547"],
    [159,"2024-01-07 14:00:00","20","manfredonia_liceo","14.28","1","81.66","1","1.2","1","null","6","null","6","null","6","988.93","1","41.627894","15.907547"],
    [160,"2024-01-07 15:00:00","20","manfredonia_liceo","12.84","1","97.29","1","7.0","1","null","6","null","6","null","6","989.12","1","41.627894","15.907547"],
    [161,"2024-01-07 16:00:00","20","manfredonia_liceo","12.45","1","100.0","1","3.0","1","null","6","null","6","null","6","989.65","1","41.627894","15.907547"],
    [162,"2024-01-07 17:00:00","20","manfredonia_liceo","11.12","1","100.0","1","7.4","1","null","6","null","6","null","6","990.33","1","41.627894","15.907547"],
    [163,"2024-01-07 18:00:00","20","manfredonia_liceo","10.47","1","100.0","1","3.4","1","null","6","null","6","null","6","990.92","1","41.627894","15.907547"],
    [164,"2024-01-07 19:00:00","20","manfredonia_liceo","9.95","1","100.0","1","1.0","1","null","6","null","6","null","6","991.44","1","41.627894","15.907547"],
    [165,"2024-01-07 20:00:00","20","manfredonia_liceo","10.01","1","100.0","1","0.6","1","null","6","null","6","null","6","992.28","1","41.627894","15.907547"],
    [166,"2024-01-07 21:00:00","20","manfredonia_liceo","9.65","1","100.0","1","1.2","1","null","6","null","6","null","6","993.05","1","41.627894","15.907547"],
    [167,"2024-01-07 22:00:00","20","manfredonia_liceo","9.32","1","100.0","1","1.0","1","null","6","null","6","null","6","993.65","1","41.627894","15.907547"],
    [168,"2024-01-07 23:00:00","20","manfredonia_liceo","9.3","1","100.0","1","0.2","1","null","6","null","6","null","6","993.86","1","41.627894","15.907547"],
    [169,"2024-01-08 00:00:00","20","manfredonia_liceo","9.33","1","null","3","0.0","1","null","6","null","6","null","6","994.11","1","41.627894","15.907547"],
    [170,"2024-01-08 01:00:00","20","manfredonia_liceo","9.22","1","null","3","0.0","1","null","6","null","6","null","6","994.14","1","41.627894","15.907547"],
    [171,"2024-01-08 02:00:00","20","manfredonia_liceo","9.17","1","100.0","1","0.0","1","null","6","null","6","null","6","994.14","1","41.627894","15.907547"],
    [172,"2024-01-08 03:00:00","20","manfredonia_liceo","8.97","1","99.36","1","0.0","1","null","6","null","6","null","6","994.41","1","41.627894","15.907547"],
    [173,"2024-01-08 04:00:00","20","manfredonia_liceo","9.07","1","95.31","1","0.0","1","null","6","null","6","null","6","994.51","1","41.627894","15.907547"],
    [174,"2024-01-08 05:00:00","20","manfredonia_liceo","9.18","1","92.77","1","0.0","1","null","6","null","6","null","6","994.75","1","41.627894","15.907547"],
    [175,"2024-01-08 06:00:00","20","manfredonia_liceo","9.5","1","88.79","1","0.0","1","null","6","null","6","null","6","995.18","1","41.627894","15.907547"],
    [176,"2024-01-08 07:00:00","20","manfredonia_liceo","9.08","1","93.99","1","0.0","1","null","6","null","6","null","6","995.39","1","41.627894","15.907547"],
    [177,"2024-01-08 08:00:00","20","manfredonia_liceo","9.09","1","95.32","1","0.0","1","null","6","null","6","null","6","995.98","1","41.627894","15.907547"],
    [178,"2024-01-08 09:00:00","20","manfredonia_liceo","9.23","1","98.12","1","0.0","1","null","6","null","6","null","6","996.53","1","41.627894","15.907547"],
    [179,"2024-01-08 10:00:00","20","manfredonia_liceo","9.83","1","96.65","1","0.0","1","null","6","null","6","null","6","997.31","1","41.627894","15.907547"],
    [180,"2024-01-08 11:00:00","20","manfredonia_liceo","10.83","1","91.73","1","0.0","1","null","6","null","6","null","6","997.73","1","41.627894","15.907547"],
    [181,"2024-01-08 12:00:00","20","manfredonia_liceo","11.98","1","86.38","1","0.0","1","null","6","null","6","null","6","997.8","1","41.627894","15.907547"],
    [182,"2024-01-08 13:00:00","20","manfredonia_liceo","12.41","1","82.81","1","0.0","1","null","6","null","6","null","6","997.57","1","41.627894","15.907547"],
    [183,"2024-01-08 14:00:00","20","manfredonia_liceo","12.8","1","79.88","1","0.0","1","null","6","null","6","null","6","997.79","1","41.627894","15.907547"],
    [184,"2024-01-08 15:00:00","20","manfredonia_liceo","13.6","1","77.01","1","0.0","1","null","6","null","6","null","6","997.81","1","41.627894","15.907547"],
    [185,"2024-01-08 16:00:00","20","manfredonia_liceo","13.23","1","77.26","1","0.0","1","null","6","null","6","null","6","998.3","1","41.627894","15.907547"],
    [186,"2024-01-08 17:00:00","20","manfredonia_liceo","12.11","1","78.39","1","0.0","1","null","6","null","6","null","6","999.09","1","41.627894","15.907547"],
    [187,"2024-01-08 18:00:00","20","manfredonia_liceo","11.22","1","78.44","1","0.0","1","null","6","null","6","null","6","999.76","1","41.627894","15.907547"],
    [188,"2024-01-08 19:00:00","20","manfredonia_liceo","10.2","1","85.82","1","0.0","1","null","6","null","6","null","6","1000.33","1","41.627894","15.907547"],
    [189,"2024-01-08 20:00:00","20","manfredonia_liceo","9.76","1","85.82","1","0.0","1","null","6","null","6","null","6","1001.18","1","41.627894","15.907547"],
    [190,"2024-01-08 21:00:00","20","manfredonia_liceo","10.32","1","83.33","1","1.6","1","null","6","null","6","null","6","1001.87","1","41.627894","15.907547"],
    [191,"2024-01-08 22:00:00","20","manfredonia_liceo","9.95","1","93.71","1","3.8","1","null","6","null","6","null","6","1002.68","1","41.627894","15.907547"],
    [192,"2024-01-08 23:00:00","20","manfredonia_liceo","9.71","1","96.25","1","3.0","1","null","6","null","6","null","6","1003.59","1","41.627894","15.907547"],
    [193,"2024-01-09 00:00:00","20","manfredonia_liceo","9.53","1","99.43","1","2.8","1","null","6","null","6","null","6","1004.19","1","41.627894","15.907547"],
    [194,"2024-01-09 01:00:00","20","manfredonia_liceo","9.62","1","100.0","1","0.4","1","null","6","null","6","null","6","1004.41","1","41.627894","15.907547"],
    [195,"2024-01-09 02:00:00","20","manfredonia_liceo","9.75","1","100.0","1","0.2","1","null","6","null","6","null","6","1005.01","1","41.627894","15.907547"],
    [196,"2024-01-09 03:00:00","20","manfredonia_liceo","9.78","1","100.0","1","3.6","1","null","6","null","6","null","6","1005.88","1","41.627894","15.907547"],
    [197,"2024-01-09 04:00:00","20","manfredonia_liceo","9.39","1","100.0","1","0.4","1","null","6","null","6","null","6","1006.33","1","41.627894","15.907547"],
    [198,"2024-01-09 05:00:00","20","manfredonia_liceo","9.3","1","100.0","1","0.2","1","null","6","null","6","null","6","1006.72","1","41.627894","15.907547"],
    [199,"2024-01-09 06:00:00","20","manfredonia_liceo","9.35","1","100.0","1","0.0","1","null","6","null","6","null","6","1007.3","1","41.627894","15.907547"],
    [200,"2024-01-09 07:00:00","20","manfredonia_liceo","9.31","1","98.61","1","0.2","1","null","6","null","6","null","6","1008.06","1","41.627894","15.907547"],
    [201,"2024-01-09 08:00:00","20","manfredonia_liceo","9.48","1","90.07","1","0.0","1","null","6","null","6","null","6","1008.83","1","41.627894","15.907547"],
    [202,"2024-01-09 09:00:00","20","manfredonia_liceo","9.82","1","76.21","1","0.0","1","null","6","null","6","null","6","1009.57","1","41.627894","15.907547"],
    [203,"2024-01-09 10:00:00","20","manfredonia_liceo","9.96","1","72.41","1","0.0","1","null","6","null","6","null","6","1010.31","1","41.627894","15.907547"],
    [204,"2024-01-09 11:00:00","20","manfredonia_liceo","10.64","1","65.85","1","0.0","1","null","6","null","6","null","6","1011.12","1","41.627894","15.907547"],
    [205,"2024-01-09 12:00:00","20","manfredonia_liceo","11.09","1","62.56","1","0.0","1","null","6","null","6","null","6","1011.37","1","41.627894","15.907547"],
    [206,"2024-01-09 13:00:00","20","manfredonia_liceo","11.41","1","62.6","1","0.0","1","null","6","null","6","null","6","1011.55","1","41.627894","15.907547"],
    [207,"2024-01-09 14:00:00","20","manfredonia_liceo","11.6","1","61.03","1","0.0","1","null","6","null","6","null","6","1011.77","1","41.627894","15.907547"],
    [208,"2024-01-09 15:00:00","20","manfredonia_liceo","12.64","1","57.61","1","0.0","1","null","6","null","6","null","6","1012.08","1","41.627894","15.907547"],
    [209,"2024-01-09 16:00:00","20","manfredonia_liceo","11.69","1","59.91","1","0.0","1","null","6","null","6","null","6","1012.56","1","41.627894","15.907547"],
    [210,"2024-01-09 17:00:00","20","manfredonia_liceo","9.74","1","60.32","1","0.0","1","null","6","null","6","null","6","1013.16","1","41.627894","15.907547"],
    [211,"2024-01-09 18:00:00","20","manfredonia_liceo","8.8","1","62.24","1","0.0","1","null","6","null","6","null","6","1013.83","1","41.627894","15.907547"],
    [212,"2024-01-09 19:00:00","20","manfredonia_liceo","8.73","1","65.05","1","0.0","1","null","6","null","6","null","6","1014.42","1","41.627894","15.907547"],
    [213,"2024-01-09 20:00:00","20","manfredonia_liceo","8.86","1","66.23","1","0.0","1","null","6","null","6","null","6","1015.0","1","41.627894","15.907547"],
    [214,"2024-01-09 21:00:00","20","manfredonia_liceo","8.9","1","66.63","1","0.0","1","null","6","null","6","null","6","1015.51","1","41.627894","15.907547"],
    [215,"2024-01-09 22:00:00","20","manfredonia_liceo","8.93","1","66.33","1","0.0","1","null","6","null","6","null","6","1015.83","1","41.627894","15.907547"],
    [216,"2024-01-09 23:00:00","20","manfredonia_liceo","8.44","1","70.04","1","0.0","1","null","6","null","6","null","6","1016.38","1","41.627894","15.907547"],
    [217,"2024-01-10 00:00:00","20","manfredonia_liceo","7.84","1","72.97","1","0.0","1","null","6","null","6","null","6","1016.48","1","41.627894","15.907547"],
    [218,"2024-01-10 01:00:00","20","manfredonia_liceo","7.96","1","73.74","1","0.0","1","null","6","null","6","null","6","1016.57","1","41.627894","15.907547"],
    [219,"2024-01-10 02:00:00","20","manfredonia_liceo","8.57","1","75.24","1","0.0","1","null","6","null","6","null","6","1016.99","1","41.627894","15.907547"],
    [220,"2024-01-10 03:00:00","20","manfredonia_liceo","8.65","1","79.06","1","0.0","1","null","6","null","6","null","6","1017.51","1","41.627894","15.907547"],
    [221,"2024-01-10 04:00:00","20","manfredonia_liceo","8.51","1","81.58","1","0.0","1","null","6","null","6","null","6","1017.58","1","41.627894","15.907547"],
    [222,"2024-01-10 05:00:00","20","manfredonia_liceo","8.88","1","77.1","1","0.0","1","null","6","null","6","null","6","1017.58","1","41.627894","15.907547"],
    [223,"2024-01-10 06:00:00","20","manfredonia_liceo","8.56","1","81.88","1","0.0","1","null","6","null","6","null","6","1017.87","1","41.627894","15.907547"],
    [224,"2024-01-10 07:00:00","20","manfredonia_liceo","8.57","1","82.28","1","0.0","1","null","6","null","6","null","6","1018.43","1","41.627894","15.907547"],
    [225,"2024-01-10 08:00:00","20","manfredonia_liceo","8.68","1","80.19","1","0.0","1","null","6","null","6","null","6","1018.79","1","41.627894","15.907547"],
    [226,"2024-01-10 09:00:00","20","manfredonia_liceo","8.47","1","82.85","1","0.0","1","null","6","null","6","null","6","1019.27","1","41.627894","15.907547"],
    [227,"2024-01-10 10:00:00","20","manfredonia_liceo","9.32","1","79.83","1","0.0","1","null","6","null","6","null","6","1019.87","1","41.627894","15.907547"],
    [228,"2024-01-10 11:00:00","20","manfredonia_liceo","9.24","1","81.41","1","0.0","1","null","6","null","6","null","6","1020.15","1","41.627894","15.907547"],
    [229,"2024-01-10 12:00:00","20","manfredonia_liceo","10.26","1","78.84","1","0.0","1","null","6","null","6","null","6","1019.81","1","41.627894","15.907547"],
    [230,"2024-01-10 13:00:00","20","manfredonia_liceo","11.04","1","74.3","1","0.0","1","null","6","null","6","null","6","1019.29","1","41.627894","15.907547"],
    [231,"2024-01-10 14:00:00","20","manfredonia_liceo","11.76","1","64.82","1","0.0","1","null","6","null","6","null","6","1019.05","1","41.627894","15.907547"],
    [232,"2024-01-10 15:00:00","20","manfredonia_liceo","12.04","1","65.12","1","0.0","1","null","6","null","6","null","6","1019.01","1","41.627894","15.907547"],
    [233,"2024-01-10 16:00:00","20","manfredonia_liceo","10.74","1","78.49","1","0.0","1","null","6","null","6","null","6","1019.16","1","41.627894","15.907547"],
    [234,"2024-01-10 17:00:00","20","manfredonia_liceo","10.04","1","81.56","1","0.0","1","null","6","null","6","null","6","1019.42","1","41.627894","15.907547"],
    [235,"2024-01-10 18:00:00","20","manfredonia_liceo","9.78","1","73.93","1","0.0","1","null","6","null","6","null","6","1019.1","1","41.627894","15.907547"],
    [236,"2024-01-10 19:00:00","20","manfredonia_liceo","9.76","1","74.28","1","0.0","1","null","6","null","6","null","6","1019.39","1","41.627894","15.907547"],
    [237,"2024-01-10 20:00:00","20","manfredonia_liceo","9.61","1","71.32","1","0.0","1","null","6","null","6","null","6","1019.41","1","41.627894","15.907547"],
    [238,"2024-01-10 21:00:00","20","manfredonia_liceo","9.55","1","70.86","1","0.0","1","null","6","null","6","null","6","1019.41","1","41.627894","15.907547"],
    [239,"2024-01-10 22:00:00","20","manfredonia_liceo","9.29","1","72.38","1","0.0","1","null","6","null","6","null","6","1019.41","1","41.627894","15.907547"],
    [240,"2024-01-10 23:00:00","20","manfredonia_liceo","8.92","1","75.14","1","0.0","1","null","6","null","6","null","6","1019.29","1","41.627894","15.907547"],
    [241,"2024-01-11 00:00:00","20","manfredonia_liceo","9.01","1","73.04","1","0.0","1","null","6","null","6","null","6","1019.05","1","41.627894","15.907547"],
    [242,"2024-01-11 01:00:00","20","manfredonia_liceo","9.09","1","73.69","1","0.0","1","null","6","null","6","null","6","1018.58","1","41.627894","15.907547"],
    [243,"2024-01-11 02:00:00","20","manfredonia_liceo","8.95","1","77.52","1","0.0","1","null","6","null","6","null","6","1018.21","1","41.627894","15.907547"],
    [244,"2024-01-11 03:00:00","20","manfredonia_liceo","8.64","1","81.21","1","0.0","1","null","6","null","6","null","6","1017.95","1","41.627894","15.907547"],
    [245,"2024-01-11 04:00:00","20","manfredonia_liceo","8.44","1","85.78","1","0.0","1","null","6","null","6","null","6","1017.82","1","41.627894","15.907547"],
    [246,"2024-01-11 05:00:00","20","manfredonia_liceo","8.42","1","85.82","1","0.0","1","null","6","null","6","null","6","1017.43","1","41.627894","15.907547"],
    [247,"2024-01-11 06:00:00","20","manfredonia_liceo","8.32","1","85.27","1","0.0","1","null","6","null","6","null","6","1016.91","1","41.627894","15.907547"],
    [248,"2024-01-11 07:00:00","20","manfredonia_liceo","8.03","1","84.72","1","0.0","1","null","6","null","6","null","6","1016.85","1","41.627894","15.907547"],
    [249,"2024-01-11 08:00:00","20","manfredonia_liceo","7.85","1","84.6","1","0.0","1","null","6","null","6","null","6","1017.01","1","41.627894","15.907547"],
    [250,"2024-01-11 09:00:00","20","manfredonia_liceo","8.43","1","83.5","1","0.0","1","null","6","null","6","null","6","1016.89","1","41.627894","15.907547"],
    [251,"2024-01-11 10:00:00","20","manfredonia_liceo","10.02","1","80.16","1","0.0","1","null","6","null","6","null","6","1016.85","1","41.627894","15.907547"],
    [252,"2024-01-11 11:00:00","20","manfredonia_liceo","11.15","1","68.19","1","0.0","1","null","6","null","6","null","6","1016.77","1","41.627894","15.907547"],
    [253,"2024-01-11 12:00:00","20","manfredonia_liceo","11.22","1","70.18","1","0.0","1","null","6","null","6","null","6","1016.14","1","41.627894","15.907547"],
    [254,"2024-01-11 13:00:00","20","manfredonia_liceo","11.02","1","73.61","1","0.0","1","null","6","null","6","null","6","1015.68","1","41.627894","15.907547"],
    [255,"2024-01-11 14:00:00","20","manfredonia_liceo","10.71","1","77.34","1","0.0","1","null","6","null","6","null","6","1015.0","1","41.627894","15.907547"],
    [256,"2024-01-11 15:00:00","20","manfredonia_liceo","10.92","1","76.18","1","0.0","1","null","6","null","6","null","6","1014.24","1","41.627894","15.907547"],
    [257,"2024-01-11 16:00:00","20","manfredonia_liceo","11.35","1","73.92","1","0.0","1","null","6","null","6","null","6","1013.92","1","41.627894","15.907547"],
    [258,"2024-01-11 17:00:00","20","manfredonia_liceo","10.6","1","78.74","1","0.0","1","null","6","null","6","null","6","1013.92","1","41.627894","15.907547"],
    [259,"2024-01-11 18:00:00","20","manfredonia_liceo","9.78","1","78.21","1","0.0","1","null","6","null","6","null","6","1013.61","1","41.627894","15.907547"],
    [260,"2024-01-11 19:00:00","20","manfredonia_liceo","9.11","1","79.72","1","0.0","1","null","6","null","6","null","6","1013.55","1","41.627894","15.907547"],
    [261,"2024-01-11 20:00:00","20","manfredonia_liceo","9.4","1","73.31","1","0.0","1","null","6","null","6","null","6","1013.4","1","41.627894","15.907547"],
    [262,"2024-01-11 21:00:00","20","manfredonia_liceo","10.06","1","67.1","1","0.0","1","null","6","null","6","null","6","1013.19","1","41.627894","15.907547"],
    [263,"2024-01-11 22:00:00","20","manfredonia_liceo","10.26","1","65.49","1","0.0","1","null","6","null","6","null","6","1013.19","1","41.627894","15.907547"],
    [264,"2024-01-11 23:00:00","20","manfredonia_liceo","10.23","1","65.53","1","0.0","1","null","6","null","6","null","6","1013.17","1","41.627894","15.907547"],
    [265,"2024-01-12 00:00:00","20","manfredonia_liceo","10.23","1","67.86","1","0.0","1","null","6","null","6","null","6","1013.09","1","41.627894","15.907547"],
    [266,"2024-01-12 01:00:00","20","manfredonia_liceo","9.8","1","70.7","1","0.0","1","null","6","null","6","null","6","1012.51","1","41.627894","15.907547"],
    [267,"2024-01-12 02:00:00","20","manfredonia_liceo","9.38","1","71.9","1","0.0","1","null","6","null","6","null","6","1012.2","1","41.627894","15.907547"],
    [268,"2024-01-12 03:00:00","20","manfredonia_liceo","8.83","1","78.73","1","0.0","1","null","6","null","6","null","6","1012.09","1","41.627894","15.907547"],
    [269,"2024-01-12 04:00:00","20","manfredonia_liceo","8.25","1","86.49","1","0.0","1","null","6","null","6","null","6","1011.78","1","41.627894","15.907547"],
    [270,"2024-01-12 05:00:00","20","manfredonia_liceo","8.05","1","84.08","1","0.0","1","null","6","null","6","null","6","1011.39","1","41.627894","15.907547"],
    [271,"2024-01-12 06:00:00","20","manfredonia_liceo","8.75","1","69.43","1","0.0","1","null","6","null","6","null","6","1011.16","1","41.627894","15.907547"],
    [272,"2024-01-12 07:00:00","20","manfredonia_liceo","9.46","1","61.47","1","0.0","1","null","6","null","6","null","6","1011.04","1","41.627894","15.907547"],
    [273,"2024-01-12 08:00:00","20","manfredonia_liceo","9.39","1","58.21","1","0.0","1","null","6","null","6","null","6","1011.23","1","41.627894","15.907547"],
    [274,"2024-01-12 09:00:00","20","manfredonia_liceo","9.72","1","55.9","1","0.0","1","null","6","null","6","null","6","1011.39","1","41.627894","15.907547"],
    [275,"2024-01-12 10:00:00","20","manfredonia_liceo","10.79","1","49.35","1","0.0","1","null","6","null","6","null","6","1011.79","1","41.627894","15.907547"],
    [276,"2024-01-12 11:00:00","20","manfredonia_liceo","12.81","1","47.11","1","0.0","1","null","6","null","6","null","6","1012.71","1","41.627894","15.907547"],
    [277,"2024-01-12 12:00:00","20","manfredonia_liceo","11.96","1","49.08","1","0.0","1","null","6","null","6","null","6","1012.71","1","41.627894","15.907547"],
    [278,"2024-01-12 13:00:00","20","manfredonia_liceo","12.22","1","45.75","1","0.0","1","null","6","null","6","null","6","1012.36","1","41.627894","15.907547"],
    [279,"2024-01-12 14:00:00","20","manfredonia_liceo","14.41","1","43.42","1","0.0","1","null","6","null","6","null","6","1012.08","1","41.627894","15.907547"],
    [280,"2024-01-12 15:00:00","20","manfredonia_liceo","14.15","1","46.43","1","0.0","1","null","6","null","6","null","6","1011.9","1","41.627894","15.907547"],
    [281,"2024-01-12 16:00:00","20","manfredonia_liceo","13.52","1","50.11","1","0.0","1","null","6","null","6","null","6","1012.64","1","41.627894","15.907547"],
    [282,"2024-01-12 17:00:00","20","manfredonia_liceo","10.82","1","53.49","1","0.0","1","null","6","null","6","null","6","1013.16","1","41.627894","15.907547"],
    [283,"2024-01-12 18:00:00","20","manfredonia_liceo","9.08","1","56.9","1","0.0","1","null","6","null","6","null","6","1013.53","1","41.627894","15.907547"],
    [284,"2024-01-12 19:00:00","20","manfredonia_liceo","8.66","1","56.4","1","0.0","1","null","6","null","6","null","6","1013.55","1","41.627894","15.907547"],
    [285,"2024-01-12 20:00:00","20","manfredonia_liceo","8.18","1","57.04","1","0.0","1","null","6","null","6","null","6","1013.81","1","41.627894","15.907547"],
    [286,"2024-01-12 21:00:00","20","manfredonia_liceo","8.12","1","54.04","1","0.0","1","null","6","null","6","null","6","1014.12","1","41.627894","15.907547"],
    [287,"2024-01-12 22:00:00","20","manfredonia_liceo","7.96","1","52.27","1","0.0","1","null","6","null","6","null","6","1014.41","1","41.627894","15.907547"],
    [288,"2024-01-12 23:00:00","20","manfredonia_liceo","7.63","1","50.35","1","0.0","1","null","6","null","6","null","6","1014.8","1","41.627894","15.907547"],
    [289,"2024-01-13 00:00:00","20","manfredonia_liceo","7.42","1","50.5","1","0.0","1","null","6","null","6","null","6","1015.01","1","41.627894","15.907547"],
    [290,"2024-01-13 01:00:00","20","manfredonia_liceo","7.02","1","51.28","1","0.0","1","null","6","null","6","null","6","1015.02","1","41.627894","15.907547"],
    [291,"2024-01-13 02:00:00","20","manfredonia_liceo","6.97","1","50.62","1","0.0","1","null","6","null","6","null","6","1015.02","1","41.627894","15.907547"],
    [292,"2024-01-13 03:00:00","20","manfredonia_liceo","7.25","1","53.42","1","0.0","1","null","6","null","6","null","6","1015.23","1","41.627894","15.907547"],
    [293,"2024-01-13 04:00:00","20","manfredonia_liceo","6.54","1","54.96","1","0.0","1","null","6","null","6","null","6","1015.13","1","41.627894","15.907547"],
    [294,"2024-01-13 05:00:00","20","manfredonia_liceo","6.42","1","56.19","1","0.0","1","null","6","null","6","null","6","1014.71","1","41.627894","15.907547"],
    [295,"2024-01-13 06:00:00","20","manfredonia_liceo","6.21","1","56.01","1","0.0","1","null","6","null","6","null","6","1015.01","1","41.627894","15.907547"],
    [296,"2024-01-13 07:00:00","20","manfredonia_liceo","5.87","1","61.14","1","0.0","1","null","6","null","6","null","6","1015.25","1","41.627894","15.907547"],
    [297,"2024-01-13 08:00:00","20","manfredonia_liceo","6.03","1","64.61","1","0.0","1","null","6","null","6","null","6","1015.45","1","41.627894","15.907547"],
    [298,"2024-01-13 09:00:00","20","manfredonia_liceo","5.65","1","74.72","1","0.0","1","null","6","null","6","null","6","1015.76","1","41.627894","15.907547"],
    [299,"2024-01-13 10:00:00","20","manfredonia_liceo","7.01","1","74.38","1","0.0","1","null","6","null","6","null","6","1016.23","1","41.627894","15.907547"],
    [300,"2024-01-13 11:00:00","20","manfredonia_liceo","10.26","1","60.8","1","0.0","1","null","6","null","6","null","6","1016.42","1","41.627894","15.907547"],
    [301,"2024-01-13 12:00:00","20","manfredonia_liceo","10.36","1","57.59","1","0.0","1","null","6","null","6","null","6","1015.96","1","41.627894","15.907547"],
    [302,"2024-01-13 13:00:00","20","manfredonia_liceo","11.2","1","54.32","1","0.0","1","null","6","null","6","null","6","1015.31","1","41.627894","15.907547"],
    [303,"2024-01-13 14:00:00","20","manfredonia_liceo","13.96","1","47.38","1","0.0","1","null","6","null","6","null","6","1014.72","1","41.627894","15.907547"],
    [304,"2024-01-13 15:00:00","20","manfredonia_liceo","14.19","1","43.76","1","0.0","1","null","6","null","6","null","6","1014.29","1","41.627894","15.907547"],
    [305,"2024-01-13 16:00:00","20","manfredonia_liceo","15.68","1","43.23","1","0.0","1","null","6","null","6","null","6","1014.28","1","41.627894","15.907547"],
    [306,"2024-01-13 17:00:00","20","manfredonia_liceo","11.86","1","55.2","1","0.0","1","null","6","null","6","null","6","1014.4","1","41.627894","15.907547"],
    [307,"2024-01-13 18:00:00","20","manfredonia_liceo","9.23","1","62.47","1","0.0","1","null","6","null","6","null","6","1014.65","1","41.627894","15.907547"],
    [308,"2024-01-13 19:00:00","20","manfredonia_liceo","7.66","1","73.06","1","0.0","1","null","6","null","6","null","6","1014.65","1","41.627894","15.907547"],
    [309,"2024-01-13 20:00:00","20","manfredonia_liceo","5.72","1","83.04","1","0.0","1","null","6","null","6","null","6","1014.65","1","41.627894","15.907547"],
    [310,"2024-01-13 21:00:00","20","manfredonia_liceo","5.34","1","83.09","1","0.0","1","null","6","null","6","null","6","1014.65","1","41.627894","15.907547"],
    [311,"2024-01-13 22:00:00","20","manfredonia_liceo","4.99","1","83.38","1","0.0","1","null","6","null","6","null","6","1014.21","1","41.627894","15.907547"],
    [312,"2024-01-13 23:00:00","20","manfredonia_liceo","4.33","1","86.34","1","0.0","1","null","6","null","6","null","6","1013.92","1","41.627894","15.907547"],
    [313,"2024-01-14 00:00:00","20","manfredonia_liceo","3.62","1","90.6","1","0.0","1","null","6","null","6","null","6","1013.69","1","41.627894","15.907547"],
    [314,"2024-01-14 01:00:00","20","manfredonia_liceo","3.6","1","88.83","1","0.0","1","null","6","null","6","null","6","1013.12","1","41.627894","15.907547"],
    [315,"2024-01-14 02:00:00","20","manfredonia_liceo","3.25","1","80.84","1","0.0","1","null","6","null","6","null","6","1012.82","1","41.627894","15.907547"],
    [316,"2024-01-14 03:00:00","20","manfredonia_liceo","2.87","1","77.23","1","0.0","1","null","6","null","6","null","6","1012.26","1","41.627894","15.907547"],
    [317,"2024-01-14 04:00:00","20","manfredonia_liceo","2.02","1","78.38","1","0.0","1","null","6","null","6","null","6","1011.57","1","41.627894","15.907547"],
    [318,"2024-01-14 05:00:00","20","manfredonia_liceo","1.5","1","77.62","1","0.0","1","null","6","null","6","null","6","1011.35","1","41.627894","15.907547"],
    [319,"2024-01-14 06:00:00","20","manfredonia_liceo","1.39","1","76.06","1","0.0","1","null","6","null","6","null","6","1011.08","1","41.627894","15.907547"],
    [320,"2024-01-14 07:00:00","20","manfredonia_liceo","1.44","1","72.28","1","0.0","1","null","6","null","6","null","6","1010.92","1","41.627894","15.907547"],
    [321,"2024-01-14 08:00:00","20","manfredonia_liceo","1.12","1","76.69","1","0.0","1","null","6","null","6","null","6","1010.96","1","41.627894","15.907547"],
    [322,"2024-01-14 09:00:00","20","manfredonia_liceo","2.05","1","77.29","1","0.0","1","null","6","null","6","null","6","1010.92","1","41.627894","15.907547"],
    [323,"2024-01-14 10:00:00","20","manfredonia_liceo","5.57","1","70.8","1","0.0","1","null","6","null","6","null","6","1010.99","1","41.627894","15.907547"],
    [324,"2024-01-14 11:00:00","20","manfredonia_liceo","8.53","1","64.69","1","0.0","1","null","6","null","6","null","6","1010.79","1","41.627894","15.907547"],
    [325,"2024-01-14 12:00:00","20","manfredonia_liceo","8.91","1","62.77","1","0.0","1","null","6","null","6","null","6","1010.25","1","41.627894","15.907547"],
    [326,"2024-01-14 13:00:00","20","manfredonia_liceo","9.78","1","67.35","1","0.0","1","null","6","null","6","null","6","1009.35","1","41.627894","15.907547"],
    [327,"2024-01-14 14:00:00","20","manfredonia_liceo","14.7","1","58.33","1","0.0","1","null","6","null","6","null","6","1008.55","1","41.627894","15.907547"],
    [328,"2024-01-14 15:00:00","20","manfredonia_liceo","15.92","1","54.37","1","0.0","1","null","6","null","6","null","6","1007.81","1","41.627894","15.907547"],
    [329,"2024-01-14 16:00:00","20","manfredonia_liceo","14.69","1","59.71","1","0.0","1","null","6","null","6","null","6","1007.69","1","41.627894","15.907547"],
    [330,"2024-01-14 17:00:00","20","manfredonia_liceo","11.81","1","67.43","1","0.0","1","null","6","null","6","null","6","1007.36","1","41.627894","15.907547"],
    [331,"2024-01-14 18:00:00","20","manfredonia_liceo","9.26","1","78.86","1","0.0","1","null","6","null","6","null","6","1006.86","1","41.627894","15.907547"],
    [332,"2024-01-14 19:00:00","20","manfredonia_liceo","7.89","1","86.36","1","0.0","1","null","6","null","6","null","6","1006.68","1","41.627894","15.907547"],
    [333,"2024-01-14 20:00:00","20","manfredonia_liceo","7.28","1","87.77","1","0.0","1","null","6","null","6","null","6","1006.53","1","41.627894","15.907547"],
    [334,"2024-01-14 21:00:00","20","manfredonia_liceo","7.19","1","87.69","1","0.0","1","null","6","null","6","null","6","1006.03","1","41.627894","15.907547"],
    [335,"2024-01-14 22:00:00","20","manfredonia_liceo","7.6","1","86.14","1","0.0","1","null","6","null","6","null","6","1005.58","1","41.627894","15.907547"],
    [336,"2024-01-14 23:00:00","20","manfredonia_liceo","7.61","1","87.75","1","0.0","1","null","6","null","6","null","6","1005.16","1","41.627894","15.907547"],
    [337,"2024-01-15 00:00:00","20","manfredonia_liceo","7.02","1","89.52","1","0.0","1","null","6","null","6","null","6","1004.67","1","41.627894","15.907547"],
    [338,"2024-01-15 01:00:00","20","manfredonia_liceo","7.27","1","88.46","1","0.0","1","null","6","null","6","null","6","1003.79","1","41.627894","15.907547"],
    [339,"2024-01-15 02:00:00","20","manfredonia_liceo","7.65","1","89.65","1","0.0","1","null","6","null","6","null","6","1003.13","1","41.627894","15.907547"],
    [340,"2024-01-15 03:00:00","20","manfredonia_liceo","7.57","1","92.64","1","0.0","1","null","6","null","6","null","6","1002.57","1","41.627894","15.907547"],
    [341,"2024-01-15 04:00:00","20","manfredonia_liceo","8.06","1","93.2","1","0.0","1","null","6","null","6","null","6","1001.64","1","41.627894","15.907547"],
    [342,"2024-01-15 05:00:00","20","manfredonia_liceo","8.28","1","92.68","1","0.0","1","null","6","null","6","null","6","1000.65","1","41.627894","15.907547"],
    [343,"2024-01-15 06:00:00","20","manfredonia_liceo","8.19","1","92.69","1","0.0","1","null","6","null","6","null","6","999.62","1","41.627894","15.907547"],
    [344,"2024-01-15 07:00:00","20","manfredonia_liceo","8.81","1","90.52","1","0.0","1","null","6","null","6","null","6","999.09","1","41.627894","15.907547"],
    [345,"2024-01-15 08:00:00","20","manfredonia_liceo","9.32","1","86.14","1","0.0","1","null","6","null","6","null","6","998.47","1","41.627894","15.907547"],
    [346,"2024-01-15 09:00:00","20","manfredonia_liceo","9.73","1","85.12","1","0.0","1","null","6","null","6","null","6","998.09","1","41.627894","15.907547"],
    [347,"2024-01-15 10:00:00","20","manfredonia_liceo","12.13","1","72.84","1","0.0","1","null","6","null","6","null","6","997.83","1","41.627894","15.907547"],
    [348,"2024-01-15 11:00:00","20","manfredonia_liceo","13.63","1","67.84","1","0.0","1","null","6","null","6","null","6","997.67","1","41.627894","15.907547"],
    [349,"2024-01-15 12:00:00","20","manfredonia_liceo","14.21","1","68.45","1","0.0","1","null","6","null","6","null","6","996.96","1","41.627894","15.907547"],
    [350,"2024-01-15 13:00:00","20","manfredonia_liceo","14.85","1","70.11","1","0.0","1","null","6","null","6","null","6","995.94","1","41.627894","15.907547"],
    [351,"2024-01-15 14:00:00","20","manfredonia_liceo","15.6","1","68.18","1","0.0","1","null","6","null","6","null","6","995.36","1","41.627894","15.907547"],
    [352,"2024-01-15 15:00:00","20","manfredonia_liceo","16.77","1","63.61","1","0.0","1","null","6","null","6","null","6","994.9","1","41.627894","15.907547"],
    [353,"2024-01-15 16:00:00","20","manfredonia_liceo","16.67","1","63.62","1","0.0","1","null","6","null","6","null","6","994.72","1","41.627894","15.907547"],
    [354,"2024-01-15 17:00:00","20","manfredonia_liceo","15.68","1","67.37","1","0.0","1","null","6","null","6","null","6","994.87","1","41.627894","15.907547"],
    [355,"2024-01-15 18:00:00","20","manfredonia_liceo","13.97","1","69.78","1","0.0","1","null","6","null","6","null","6","995.11","1","41.627894","15.907547"],
    [356,"2024-01-15 19:00:00","20","manfredonia_liceo","12.71","1","75.6","1","0.0","1","null","6","null","6","null","6","995.72","1","41.627894","15.907547"],
    [357,"2024-01-15 20:00:00","20","manfredonia_liceo","11.17","1","81.21","1","0.0","1","null","6","null","6","null","6","995.97","1","41.627894","15.907547"],
    [358,"2024-01-15 21:00:00","20","manfredonia_liceo","9.64","1","85.2","1","0.0","1","null","6","null","6","null","6","995.96","1","41.627894","15.907547"],
    [359,"2024-01-15 22:00:00","20","manfredonia_liceo","8.35","1","90.59","1","0.0","1","null","6","null","6","null","6","995.97","1","41.627894","15.907547"],
    [360,"2024-01-15 23:00:00","20","manfredonia_liceo","9.62","1","84.08","1","0.0","1","null","6","null","6","null","6","996.07","1","41.627894","15.907547"],
    [361,"2024-01-16 00:00:00","20","manfredonia_liceo","12.28","1","70.43","1","0.0","1","null","6","null","6","null","6","996.68","1","41.627894","15.907547"],
    [362,"2024-01-16 01:00:00","20","manfredonia_liceo","12.05","1","71.4","1","0.0","1","null","6","null","6","null","6","997.06","1","41.627894","15.907547"],
    [363,"2024-01-16 02:00:00","20","manfredonia_liceo","11.89","1","67.04","1","0.0","1","null","6","null","6","null","6","997.31","1","41.627894","15.907547"],
    [364,"2024-01-16 03:00:00","20","manfredonia_liceo","12.43","1","63.09","1","0.0","1","null","6","null","6","null","6","997.8","1","41.627894","15.907547"],
    [365,"2024-01-16 04:00:00","20","manfredonia_liceo","10.34","1","74.76","1","0.0","1","null","6","null","6","null","6","998.27","1","41.627894","15.907547"],
    [366,"2024-01-16 05:00:00","20","manfredonia_liceo","8.06","1","82.25","1","0.0","1","null","6","null","6","null","6","998.8","1","41.627894","15.907547"],
    [367,"2024-01-16 06:00:00","20","manfredonia_liceo","7.37","1","82.62","1","0.0","1","null","6","null","6","null","6","999.41","1","41.627894","15.907547"],
    [368,"2024-01-16 07:00:00","20","manfredonia_liceo","7.25","1","81.24","1","0.0","1","null","6","null","6","null","6","1000.22","1","41.627894","15.907547"],
    [369,"2024-01-16 08:00:00","20","manfredonia_liceo","6.9","1","82.1","1","0.0","1","null","6","null","6","null","6","1000.96","1","41.627894","15.907547"],
    [370,"2024-01-16 09:00:00","20","manfredonia_liceo","8.13","1","79.53","1","0.0","1","null","6","null","6","null","6","1002.13","1","41.627894","15.907547"],
    [371,"2024-01-16 10:00:00","20","manfredonia_liceo","11.34","1","72.09","1","0.0","1","null","6","null","6","null","6","1003.08","1","41.627894","15.907547"],
    [372,"2024-01-16 11:00:00","20","manfredonia_liceo","16.62","1","60.75","1","0.0","1","null","6","null","6","null","6","1003.91","1","41.627894","15.907547"],
    [373,"2024-01-16 12:00:00","20","manfredonia_liceo","14.67","1","68.71","1","0.0","1","null","6","null","6","null","6","1004.03","1","41.627894","15.907547"],
    [374,"2024-01-16 13:00:00","20","manfredonia_liceo","15.44","1","61.98","1","0.0","1","null","6","null","6","null","6","1003.89","1","41.627894","15.907547"],
    [375,"2024-01-16 14:00:00","20","manfredonia_liceo","21.15","1","43.97","1","0.0","1","null","6","null","6","null","6","1003.49","1","41.627894","15.907547"],
    [376,"2024-01-16 15:00:00","20","manfredonia_liceo","18.98","1","55.34","1","0.0","1","null","6","null","6","null","6","1003.75","1","41.627894","15.907547"],
    [377,"2024-01-16 16:00:00","20","manfredonia_liceo","17.02","1","56.69","1","0.0","1","null","6","null","6","null","6","1004.03","1","41.627894","15.907547"],
    [378,"2024-01-16 17:00:00","20","manfredonia_liceo","14.3","1","64.45","1","0.0","1","null","6","null","6","null","6","1004.25","1","41.627894","15.907547"],
    [379,"2024-01-16 18:00:00","20","manfredonia_liceo","12.87","1","80.65","1","0.6","1","null","6","null","6","null","6","1005.04","1","41.627894","15.907547"],
    [380,"2024-01-16 19:00:00","20","manfredonia_liceo","12.18","1","88.73","1","0.0","1","null","6","null","6","null","6","1005.57","1","41.627894","15.907547"],
    [381,"2024-01-16 20:00:00","20","manfredonia_liceo","11.89","1","90.95","1","0.0","1","null","6","null","6","null","6","1005.86","1","41.627894","15.907547"],
    [382,"2024-01-16 21:00:00","20","manfredonia_liceo","11.51","1","92.26","1","0.0","1","null","6","null","6","null","6","1005.72","1","41.627894","15.907547"],
    [383,"2024-01-16 22:00:00","20","manfredonia_liceo","10.5","1","91.27","1","0.0","1","null","6","null","6","null","6","1005.86","1","41.627894","15.907547"],
    [384,"2024-01-16 23:00:00","20","manfredonia_liceo","9.67","1","91.83","1","0.0","1","null","6","null","6","null","6","1006.11","1","41.627894","15.907547"],
    [385,"2024-01-17 00:00:00","20","manfredonia_liceo","8.82","1","93.63","1","0.0","1","null","6","null","6","null","6","1006.05","1","41.627894","15.907547"],
    [386,"2024-01-17 01:00:00","20","manfredonia_liceo","8.87","1","92.77","1","0.0","1","null","6","null","6","null","6","1005.66","1","41.627894","15.907547"],
    [387,"2024-01-17 02:00:00","20","manfredonia_liceo","8.72","1","90.88","1","0.0","1","null","6","null","6","null","6","1005.74","1","41.627894","15.907547"],
    [388,"2024-01-17 03:00:00","20","manfredonia_liceo","8.86","1","88.56","1","0.0","1","null","6","null","6","null","6","1005.86","1","41.627894","15.907547"],
    [389,"2024-01-17 04:00:00","20","manfredonia_liceo","7.74","1","92.03","1","0.0","1","null","6","null","6","null","6","1005.55","1","41.627894","15.907547"],
    [390,"2024-01-17 05:00:00","20","manfredonia_liceo","7.58","1","93.87","1","0.0","1","null","6","null","6","null","6","1005.27","1","41.627894","15.907547"],
    [391,"2024-01-17 06:00:00","20","manfredonia_liceo","8.05","1","94.59","1","0.0","1","null","6","null","6","null","6","1005.15","1","41.627894","15.907547"],
    [392,"2024-01-17 07:00:00","20","manfredonia_liceo","10.17","1","91.69","1","0.0","1","null","6","null","6","null","6","1005.28","1","41.627894","15.907547"],
    [393,"2024-01-17 08:00:00","20","manfredonia_liceo","10.49","1","90.19","1","0.0","1","null","6","null","6","null","6","1005.8","1","41.627894","15.907547"],
    [394,"2024-01-17 09:00:00","20","manfredonia_liceo","10.5","1","91.67","1","0.0","1","null","6","null","6","null","6","1005.68","1","41.627894","15.907547"],
    [395,"2024-01-17 10:00:00","20","manfredonia_liceo","12.47","1","89.02","1","0.0","1","null","6","null","6","null","6","1005.53","1","41.627894","15.907547"],
    [396,"2024-01-17 11:00:00","20","manfredonia_liceo","16.03","1","75.43","1","0.0","1","null","6","null","6","null","6","1005.48","1","41.627894","15.907547"],
    [397,"2024-01-17 12:00:00","20","manfredonia_liceo","16.36","1","70.93","1","0.0","1","null","6","null","6","null","6","1004.9","1","41.627894","15.907547"],
    [398,"2024-01-17 13:00:00","20","manfredonia_liceo","16.92","1","69.86","1","0.0","1","null","6","null","6","null","6","1004.11","1","41.627894","15.907547"],
    [399,"2024-01-17 14:00:00","20","manfredonia_liceo","18.03","1","67.37","1","0.0","1","null","6","null","6","null","6","1003.06","1","41.627894","15.907547"],
    [400,"2024-01-17 15:00:00","20","manfredonia_liceo","17.1","1","71.88","1","0.0","1","null","6","null","6","null","6","1002.56","1","41.627894","15.907547"],
    [401,"2024-01-17 16:00:00","20","manfredonia_liceo","16.29","1","76.82","1","0.0","1","null","6","null","6","null","6","1002.12","1","41.627894","15.907547"],
    [402,"2024-01-17 17:00:00","20","manfredonia_liceo","15.23","1","87.65","1","1.2","1","null","6","null","6","null","6","1002.27","1","41.627894","15.907547"],
    [403,"2024-01-17 18:00:00","20","manfredonia_liceo","14.87","1","91.9","1","0.2","1","null","6","null","6","null","6","1002.86","1","41.627894","15.907547"],
    [404,"2024-01-17 19:00:00","20","manfredonia_liceo","14.97","1","86.73","1","0.4","1","null","6","null","6","null","6","1002.72","1","41.627894","15.907547"],
    [405,"2024-01-17 20:00:00","20","manfredonia_liceo","14.86","1","82.92","1","0.0","1","null","6","null","6","null","6","1002.23","1","41.627894","15.907547"],
    [406,"2024-01-17 21:00:00","20","manfredonia_liceo","15.34","1","73.22","1","0.0","1","null","6","null","6","null","6","1001.7","1","41.627894","15.907547"],
    [407,"2024-01-17 22:00:00","20","manfredonia_liceo","14.22","1","76.27","1","0.0","1","null","6","null","6","null","6","1001.31","1","41.627894","15.907547"],
    [408,"2024-01-17 23:00:00","20","manfredonia_liceo","14.78","1","69.66","1","0.0","1","null","6","null","6","null","6","1001.25","1","41.627894","15.907547"],
    [409,"2024-01-18 00:00:00","20","manfredonia_liceo","14.9","1","67.46","1","0.0","1","null","6","null","6","null","6","1000.94","1","41.627894","15.907547"],
    [410,"2024-01-18 01:00:00","20","manfredonia_liceo","14.68","1","68.66","1","0.0","1","null","6","null","6","null","6","1000.97","1","41.627894","15.907547"],
    [411,"2024-01-18 02:00:00","20","manfredonia_liceo","14.65","1","70.25","1","0.0","1","null","6","null","6","null","6","1000.09","1","41.627894","15.907547"],
    [412,"2024-01-18 03:00:00","20","manfredonia_liceo","16.18","1","62.08","1","0.0","1","null","6","null","6","null","6","998.83","1","41.627894","15.907547"],
    [413,"2024-01-18 04:00:00","20","manfredonia_liceo","15.62","1","62.96","1","0.0","1","null","6","null","6","null","6","997.9","1","41.627894","15.907547"],
    [414,"2024-01-18 05:00:00","20","manfredonia_liceo","14.05","1","67.59","1","0.0","1","null","6","null","6","null","6","997.17","1","41.627894","15.907547"],
    [415,"2024-01-18 06:00:00","20","manfredonia_liceo","13.87","1","66.47","1","0.0","1","null","6","null","6","null","6","996.84","1","41.627894","15.907547"],
    [416,"2024-01-18 07:00:00","20","manfredonia_liceo","13.14","1","70.75","1","0.0","1","null","6","null","6","null","6","997.2","1","41.627894","15.907547"],
    [417,"2024-01-18 08:00:00","20","manfredonia_liceo","12.86","1","72.46","1","0.0","1","null","6","null","6","null","6","996.92","1","41.627894","15.907547"],
    [418,"2024-01-18 09:00:00","20","manfredonia_liceo","14.17","1","74.64","1","0.0","1","null","6","null","6","null","6","996.77","1","41.627894","15.907547"],
    [419,"2024-01-18 10:00:00","20","manfredonia_liceo","16.67","1","71.46","1","0.0","1","null","6","null","6","null","6","996.67","1","41.627894","15.907547"],
    [420,"2024-01-18 11:00:00","20","manfredonia_liceo","17.99","1","67.41","1","0.0","1","null","6","null","6","null","6","997.02","1","41.627894","15.907547"],
    [421,"2024-01-18 12:00:00","20","manfredonia_liceo","19.14","1","62.35","1","0.0","1","null","6","null","6","null","6","996.9","1","41.627894","15.907547"],
    [422,"2024-01-18 13:00:00","20","manfredonia_liceo","20.15","1","58.3","1","0.0","1","null","6","null","6","null","6","996.48","1","41.627894","15.907547"],
    [423,"2024-01-18 14:00:00","20","manfredonia_liceo","21.23","1","51.13","1","0.0","1","null","6","null","6","null","6","995.73","1","41.627894","15.907547"],
    [424,"2024-01-18 15:00:00","20","manfredonia_liceo","21.21","1","46.31","1","0.0","1","null","6","null","6","null","6","995.15","1","41.627894","15.907547"],
    [425,"2024-01-18 16:00:00","20","manfredonia_liceo","20.58","1","48.7","1","0.0","1","null","6","null","6","null","6","995.67","1","41.627894","15.907547"],
    [426,"2024-01-18 17:00:00","20","manfredonia_liceo","18.83","1","53.84","1","0.0","1","null","6","null","6","null","6","996.22","1","41.627894","15.907547"],
    [427,"2024-01-18 18:00:00","20","manfredonia_liceo","17.45","1","55.72","1","0.0","1","null","6","null","6","null","6","996.67","1","41.627894","15.907547"],
    [428,"2024-01-18 19:00:00","20","manfredonia_liceo","16.11","1","59.83","1","0.0","1","null","6","null","6","null","6","997.61","1","41.627894","15.907547"],
    [429,"2024-01-18 20:00:00","20","manfredonia_liceo","14.68","1","66.26","1","0.0","1","null","6","null","6","null","6","997.9","1","41.627894","15.907547"],
    [430,"2024-01-18 21:00:00","20","manfredonia_liceo","14.14","1","69.83","1","0.0","1","null","6","null","6","null","6","998.3","1","41.627894","15.907547"],
    [431,"2024-01-18 22:00:00","20","manfredonia_liceo","14.32","1","69.65","1","0.0","1","null","6","null","6","null","6","998.58","1","41.627894","15.907547"],
    [432,"2024-01-18 23:00:00","20","manfredonia_liceo","15.4","1","64.49","1","0.0","1","null","6","null","6","null","6","999.0","1","41.627894","15.907547"],
    [433,"2024-01-19 00:00:00","20","manfredonia_liceo","15.29","1","65.73","1","0.0","1","null","6","null","6","null","6","999.62","1","41.627894","15.907547"],
    [434,"2024-01-19 01:00:00","20","manfredonia_liceo","15.31","1","65.82","1","0.0","1","null","6","null","6","null","6","999.66","1","41.627894","15.907547"],
    [435,"2024-01-19 02:00:00","20","manfredonia_liceo","14.56","1","68.19","1","0.0","1","null","6","null","6","null","6","999.63","1","41.627894","15.907547"],
    [436,"2024-01-19 03:00:00","20","manfredonia_liceo","13.39","1","72.21","1","0.0","1","null","6","null","6","null","6","999.71","1","41.627894","15.907547"],
    [437,"2024-01-19 04:00:00","20","manfredonia_liceo","13.24","1","72.34","1","0.0","1","null","6","null","6","null","6","999.75","1","41.627894","15.907547"],
    [438,"2024-01-19 05:00:00","20","manfredonia_liceo","13.2","1","72.32","1","0.0","1","null","6","null","6","null","6","999.94","1","41.627894","15.907547"],
    [439,"2024-01-19 06:00:00","20","manfredonia_liceo","13.48","1","72.54","1","0.0","1","null","6","null","6","null","6","1000.02","1","41.627894","15.907547"],
    [440,"2024-01-19 07:00:00","20","manfredonia_liceo","14.44","1","71.02","1","0.0","1","null","6","null","6","null","6","1000.7","1","41.627894","15.907547"],
    [441,"2024-01-19 08:00:00","20","manfredonia_liceo","14.51","1","69.51","1","0.0","1","null","6","null","6","null","6","1000.76","1","41.627894","15.907547"],
    [442,"2024-01-19 09:00:00","20","manfredonia_liceo","15.09","1","65.7","1","0.0","1","null","6","null","6","null","6","1000.77","1","41.627894","15.907547"],
    [443,"2024-01-19 10:00:00","20","manfredonia_liceo","16.92","1","61.8","1","0.0","1","null","6","null","6","null","6","1001.1","1","41.627894","15.907547"],
    [444,"2024-01-19 11:00:00","20","manfredonia_liceo","18.79","1","60.23","1","0.0","1","null","6","null","6","null","6","1001.33","1","41.627894","15.907547"],
    [445,"2024-01-19 12:00:00","20","manfredonia_liceo","18.73","1","56.04","1","0.0","1","null","6","null","6","null","6","1001.14","1","41.627894","15.907547"],
    [446,"2024-01-19 13:00:00","20","manfredonia_liceo","19.4","1","52.56","1","0.0","1","null","6","null","6","null","6","1001.14","1","41.627894","15.907547"],
    [447,"2024-01-19 14:00:00","20","manfredonia_liceo","19.98","1","50.7","1","0.0","1","null","6","null","6","null","6","1000.75","1","41.627894","15.907547"],
    [448,"2024-01-19 15:00:00","20","manfredonia_liceo","19.06","1","54.36","1","0.0","1","null","6","null","6","null","6","1001.17","1","41.627894","15.907547"],
    [449,"2024-01-19 16:00:00","20","manfredonia_liceo","18.44","1","56.94","1","0.0","1","null","6","null","6","null","6","1001.14","1","41.627894","15.907547"],
    [450,"2024-01-19 17:00:00","20","manfredonia_liceo","17.89","1","60.02","1","0.0","1","null","6","null","6","null","6","1001.22","1","41.627894","15.907547"],
    [451,"2024-01-19 18:00:00","20","manfredonia_liceo","16.87","1","64.22","1","0.0","1","null","6","null","6","null","6","1001.47","1","41.627894","15.907547"],
    [452,"2024-01-19 19:00:00","20","manfredonia_liceo","16.05","1","66.15","1","0.0","1","null","6","null","6","null","6","1001.71","1","41.627894","15.907547"],
    [453,"2024-01-19 20:00:00","20","manfredonia_liceo","16.32","1","62.5","1","0.0","1","null","6","null","6","null","6","1001.87","1","41.627894","15.907547"],
    [454,"2024-01-19 21:00:00","20","manfredonia_liceo","15.89","1","62.52","1","0.0","1","null","6","null","6","null","6","1002.27","1","41.627894","15.907547"],
    [455,"2024-01-19 22:00:00","20","manfredonia_liceo","14.74","1","76.24","1","0.0","1","null","6","null","6","null","6","1002.97","1","41.627894","15.907547"],
    [456,"2024-01-19 23:00:00","20","manfredonia_liceo","13.74","1","74.79","1","0.0","1","null","6","null","6","null","6","1003.94","1","41.627894","15.907547"],
    [457,"2024-01-20 00:00:00","20","manfredonia_liceo","13.66","1","70.84","1","0.0","1","null","6","null","6","null","6","1005.11","1","41.627894","15.907547"],
    [458,"2024-01-20 01:00:00","20","manfredonia_liceo","13.18","1","73.69","1","0.0","1","null","6","null","6","null","6","1005.67","1","41.627894","15.907547"],
    [459,"2024-01-20 02:00:00","20","manfredonia_liceo","13.07","1","72.38","1","0.0","1","null","6","null","6","null","6","1006.42","1","41.627894","15.907547"],
    [460,"2024-01-20 03:00:00","20","manfredonia_liceo","12.66","1","73.15","1","0.0","1","null","6","null","6","null","6","1007.25","1","41.627894","15.907547"],
    [461,"2024-01-20 04:00:00","20","manfredonia_liceo","10.32","1","72.55","1","0.6","1","null","6","null","6","null","6","1007.9","1","41.627894","15.907547"],
    [462,"2024-01-20 05:00:00","20","manfredonia_liceo","8.77","1","72.4","1","0.0","1","null","6","null","6","null","6","1008.08","1","41.627894","15.907547"],
    [463,"2024-01-20 06:00:00","20","manfredonia_liceo","7.85","1","74.32","1","0.4","1","null","6","null","6","null","6","1009.12","1","41.627894","15.907547"],
    [464,"2024-01-20 07:00:00","20","manfredonia_liceo","7.25","1","74.28","1","0.4","1","null","6","null","6","null","6","1010.08","1","41.627894","15.907547"],
    [465,"2024-01-20 08:00:00","20","manfredonia_liceo","7.08","1","71.45","1","0.0","1","null","6","null","6","null","6","1010.89","1","41.627894","15.907547"],
    [466,"2024-01-20 09:00:00","20","manfredonia_liceo","6.85","1","71.8","1","0.0","1","null","6","null","6","null","6","1011.84","1","41.627894","15.907547"],
    [467,"2024-01-20 10:00:00","20","manfredonia_liceo","6.49","1","71.17","1","1.4","1","null","6","null","6","null","6","1012.77","1","41.627894","15.907547"],
    [468,"2024-01-20 11:00:00","20","manfredonia_liceo","8.13","1","62.36","1","0.0","1","null","6","null","6","null","6","1013.19","1","41.627894","15.907547"],
    [469,"2024-01-20 12:00:00","20","manfredonia_liceo","9.08","1","60.52","1","0.0","1","null","6","null","6","null","6","1013.43","1","41.627894","15.907547"],
    [470,"2024-01-20 13:00:00","20","manfredonia_liceo","9.29","1","63.43","1","0.0","1","null","6","null","6","null","6","1013.57","1","41.627894","15.907547"],
    [471,"2024-01-20 14:00:00","20","manfredonia_liceo","9.47","1","56.26","1","0.0","1","null","6","null","6","null","6","1013.83","1","41.627894","15.907547"],
    [472,"2024-01-20 15:00:00","20","manfredonia_liceo","9.3","1","53.67","1","0.0","1","null","6","null","6","null","6","1013.95","1","41.627894","15.907547"],
    [473,"2024-01-20 16:00:00","20","manfredonia_liceo","8.62","1","61.85","1","0.0","1","null","6","null","6","null","6","1014.59","1","41.627894","15.907547"],
    [474,"2024-01-20 17:00:00","20","manfredonia_liceo","8.02","1","65.98","1","0.0","1","null","6","null","6","null","6","1015.33","1","41.627894","15.907547"],
    [475,"2024-01-20 18:00:00","20","manfredonia_liceo","7.17","1","54.66","1","0.0","1","null","6","null","6","null","6","1016.13","1","41.627894","15.907547"],
    [476,"2024-01-20 19:00:00","20","manfredonia_liceo","7.27","1","45.53","1","0.0","1","null","6","null","6","null","6","1016.53","1","41.627894","15.907547"],
    [477,"2024-01-20 20:00:00","20","manfredonia_liceo","7.2","1","50.87","1","0.0","1","null","6","null","6","null","6","1017.04","1","41.627894","15.907547"],
    [478,"2024-01-20 21:00:00","20","manfredonia_liceo","5.54","1","61.65","1","0.0","1","null","6","null","6","null","6","1017.53","1","41.627894","15.907547"],
    [479,"2024-01-20 22:00:00","20","manfredonia_liceo","5.13","1","58.0","1","0.0","1","null","6","null","6","null","6","1017.58","1","41.627894","15.907547"],
    [480,"2024-01-20 23:00:00","20","manfredonia_liceo","4.83","1","61.5","1","0.0","1","null","6","null","6","null","6","1017.87","1","41.627894","15.907547"],
    [481,"2024-01-21 00:00:00","20","manfredonia_liceo","4.17","1","65.94","1","0.0","1","null","6","null","6","null","6","1018.23","1","41.627894","15.907547"],
    [482,"2024-01-21 01:00:00","20","manfredonia_liceo","3.6","1","67.46","1","0.0","1","null","6","null","6","null","6","1018.37","1","41.627894","15.907547"],
    [483,"2024-01-21 02:00:00","20","manfredonia_liceo","4.26","1","59.92","1","0.0","1","null","6","null","6","null","6","1018.37","1","41.627894","15.907547"],
    [484,"2024-01-21 03:00:00","20","manfredonia_liceo","4.01","1","59.28","1","0.0","1","null","6","null","6","null","6","1018.45","1","41.627894","15.907547"],
    [485,"2024-01-21 04:00:00","20","manfredonia_liceo","3.6","1","61.49","1","0.0","1","null","6","null","6","null","6","1018.49","1","41.627894","15.907547"],
    [486,"2024-01-21 05:00:00","20","manfredonia_liceo","4.22","1","55.61","1","0.0","1","null","6","null","6","null","6","1018.76","1","41.627894","15.907547"],
    [487,"2024-01-21 06:00:00","20","manfredonia_liceo","4.49","1","49.91","1","0.0","1","null","6","null","6","null","6","1018.97","1","41.627894","15.907547"],
    [488,"2024-01-21 07:00:00","20","manfredonia_liceo","6.55","1","37.82","1","0.0","1","null","6","null","6","null","6","1019.49","1","41.627894","15.907547"],
    [489,"2024-01-21 08:00:00","20","manfredonia_liceo","6.83","1","36.18","1","0.0","1","null","6","null","6","null","6","1020.24","1","41.627894","15.907547"],
    [490,"2024-01-21 09:00:00","20","manfredonia_liceo","6.89","1","39.21","1","0.0","1","null","6","null","6","null","6","1021.0","1","41.627894","15.907547"],
    [491,"2024-01-21 10:00:00","20","manfredonia_liceo","9.04","1","35.46","1","0.0","1","null","6","null","6","null","6","1021.73","1","41.627894","15.907547"],
    [492,"2024-01-21 11:00:00","20","manfredonia_liceo","13.84","1","28.54","1","0.0","1","null","6","null","6","null","6","1022.31","1","41.627894","15.907547"],
    [493,"2024-01-21 12:00:00","20","manfredonia_liceo","11.74","1","29.8","1","0.0","1","null","6","null","6","null","6","1022.71","1","41.627894","15.907547"],
    [494,"2024-01-21 13:00:00","20","manfredonia_liceo","11.96","1","29.96","1","0.0","1","null","6","null","6","null","6","1022.58","1","41.627894","15.907547"],
    [495,"2024-01-21 14:00:00","20","manfredonia_liceo","14.72","1","35.83","1","0.0","1","null","6","null","6","null","6","1021.99","1","41.627894","15.907547"],
    [496,"2024-01-21 15:00:00","20","manfredonia_liceo","15.0","1","32.21","1","0.0","1","null","6","null","6","null","6","1021.72","1","41.627894","15.907547"],
    [497,"2024-01-21 16:00:00","20","manfredonia_liceo","14.28","1","27.26","1","0.0","1","null","6","null","6","null","6","1022.22","1","41.627894","15.907547"],
    [498,"2024-01-21 17:00:00","20","manfredonia_liceo","12.22","1","36.04","1","0.0","1","null","6","null","6","null","6","1022.63","1","41.627894","15.907547"],
    [499,"2024-01-21 18:00:00","20","manfredonia_liceo","10.02","1","47.37","1","0.0","1","null","6","null","6","null","6","1023.33","1","41.627894","15.907547"],
    [500,"2024-01-21 19:00:00","20","manfredonia_liceo","9.61","1","46.74","1","0.0","1","null","6","null","6","null","6","1024.0","1","41.627894","15.907547"],
    [501,"2024-01-21 20:00:00","20","manfredonia_liceo","9.5","1","48.03","1","0.0","1","null","6","null","6","null","6","1024.36","1","41.627894","15.907547"],
    [502,"2024-01-21 21:00:00","20","manfredonia_liceo","9.64","1","48.88","1","0.0","1","null","6","null","6","null","6","1024.62","1","41.627894","15.907547"],
    [503,"2024-01-21 22:00:00","20","manfredonia_liceo","9.72","1","48.54","1","0.0","1","null","6","null","6","null","6","1024.94","1","41.627894","15.907547"],
    [504,"2024-01-21 23:00:00","20","manfredonia_liceo","8.76","1","53.13","1","0.0","1","null","6","null","6","null","6","1025.5","1","41.627894","15.907547"],
    [505,"2024-01-22 00:00:00","20","manfredonia_liceo","8.38","1","56.06","1","0.0","1","null","6","null","6","null","6","1025.67","1","41.627894","15.907547"],
    [506,"2024-01-22 01:00:00","20","manfredonia_liceo","8.42","1","59.55","1","0.0","1","null","6","null","6","null","6","1025.77","1","41.627894","15.907547"],
    [507,"2024-01-22 02:00:00","20","manfredonia_liceo","7.62","1","65.98","1","0.0","1","null","6","null","6","null","6","1026.01","1","41.627894","15.907547"],
    [508,"2024-01-22 03:00:00","20","manfredonia_liceo","5.51","1","79.0","1","0.0","1","null","6","null","6","null","6","1026.01","1","41.627894","15.907547"],
    [509,"2024-01-22 04:00:00","20","manfredonia_liceo","6.32","1","79.0","1","0.0","1","null","6","null","6","null","6","1025.84","1","41.627894","15.907547"],
    [510,"2024-01-22 05:00:00","20","manfredonia_liceo","7.36","1","74.29","1","0.0","1","null","6","null","6","null","6","1025.65","1","41.627894","15.907547"],
    [511,"2024-01-22 06:00:00","20","manfredonia_liceo","7.72","1","73.48","1","0.0","1","null","6","null","6","null","6","1025.49","1","41.627894","15.907547"],
    [512,"2024-01-22 07:00:00","20","manfredonia_liceo","7.75","1","74.04","1","0.0","1","null","6","null","6","null","6","1025.62","1","41.627894","15.907547"],
    [513,"2024-01-22 08:00:00","20","manfredonia_liceo","5.7","1","78.81","1","0.0","1","null","6","null","6","null","6","1025.94","1","41.627894","15.907547"],
    [514,"2024-01-22 09:00:00","20","manfredonia_liceo","5.35","1","81.41","1","0.0","1","null","6","null","6","null","6","1026.2","1","41.627894","15.907547"],
    [515,"2024-01-22 10:00:00","20","manfredonia_liceo","8.69","1","71.86","1","0.0","1","null","6","null","6","null","6","1026.66","1","41.627894","15.907547"],
    [516,"2024-01-22 11:00:00","20","manfredonia_liceo","12.29","1","60.16","1","0.0","1","null","6","null","6","null","6","1027.07","1","41.627894","15.907547"],
    [517,"2024-01-22 12:00:00","20","manfredonia_liceo","10.97","1","58.55","1","0.0","1","null","6","null","6","null","6","1026.75","1","41.627894","15.907547"],
    [518,"2024-01-22 13:00:00","20","manfredonia_liceo","12.5","1","48.15","1","0.0","1","null","6","null","6","null","6","1026.15","1","41.627894","15.907547"],
    [519,"2024-01-22 14:00:00","20","manfredonia_liceo","15.64","1","38.89","1","0.0","1","null","6","null","6","null","6","1025.27","1","41.627894","15.907547"],
    [520,"2024-01-22 15:00:00","20","manfredonia_liceo","15.63","1","37.63","1","0.0","1","null","6","null","6","null","6","1024.58","1","41.627894","15.907547"],
    [521,"2024-01-22 16:00:00","20","manfredonia_liceo","16.06","1","36.11","1","0.0","1","null","6","null","6","null","6","1024.1","1","41.627894","15.907547"],
    [522,"2024-01-22 17:00:00","20","manfredonia_liceo","14.01","1","45.05","1","0.0","1","null","6","null","6","null","6","1023.51","1","41.627894","15.907547"],
    [523,"2024-01-22 18:00:00","20","manfredonia_liceo","9.91","1","59.36","1","0.0","1","null","6","null","6","null","6","1023.44","1","41.627894","15.907547"],
    [524,"2024-01-22 19:00:00","20","manfredonia_liceo","7.71","1","65.86","1","0.0","1","null","6","null","6","null","6","1023.44","1","41.627894","15.907547"],
    [525,"2024-01-22 20:00:00","20","manfredonia_liceo","6.78","1","66.51","1","0.0","1","null","6","null","6","null","6","1023.3","1","41.627894","15.907547"],
    [526,"2024-01-22 21:00:00","20","manfredonia_liceo","6.51","1","66.03","1","0.0","1","null","6","null","6","null","6","1022.99","1","41.627894","15.907547"],
    [527,"2024-01-22 22:00:00","20","manfredonia_liceo","6.29","1","65.04","1","0.0","1","null","6","null","6","null","6","1022.53","1","41.627894","15.907547"],
    [528,"2024-01-22 23:00:00","20","manfredonia_liceo","5.39","1","67.23","1","0.0","1","null","6","null","6","null","6","1022.26","1","41.627894","15.907547"],
    [529,"2024-01-23 00:00:00","20","manfredonia_liceo","5.41","1","67.3","1","0.0","1","null","6","null","6","null","6","1021.55","1","41.627894","15.907547"],
    [530,"2024-01-23 01:00:00","20","manfredonia_liceo","4.67","1","73.39","1","0.0","1","null","6","null","6","null","6","1020.66","1","41.627894","15.907547"],
    [531,"2024-01-23 02:00:00","20","manfredonia_liceo","4.6","1","77.08","1","0.0","1","null","6","null","6","null","6","1020.07","1","41.627894","15.907547"],
    [532,"2024-01-23 03:00:00","20","manfredonia_liceo","5.69","1","70.76","1","0.0","1","null","6","null","6","null","6","1019.79","1","41.627894","15.907547"],
    [533,"2024-01-23 04:00:00","20","manfredonia_liceo","6.83","1","67.44","1","0.0","1","null","6","null","6","null","6","1019.78","1","41.627894","15.907547"],
    [534,"2024-01-23 05:00:00","20","manfredonia_liceo","7.83","1","62.47","1","0.0","1","null","6","null","6","null","6","1019.86","1","41.627894","15.907547"],
    [535,"2024-01-23 06:00:00","20","manfredonia_liceo","8.49","1","62.11","1","0.0","1","null","6","null","6","null","6","1019.83","1","41.627894","15.907547"],
    [536,"2024-01-23 07:00:00","20","manfredonia_liceo","7.6","1","68.12","1","0.0","1","null","6","null","6","null","6","1020.15","1","41.627894","15.907547"],
    [537,"2024-01-23 08:00:00","20","manfredonia_liceo","7.3","1","69.73","1","0.0","1","null","6","null","6","null","6","1020.3","1","41.627894","15.907547"],
    [538,"2024-01-23 09:00:00","20","manfredonia_liceo","8.47","1","64.56","1","0.0","1","null","6","null","6","null","6","1020.77","1","41.627894","15.907547"],
    [539,"2024-01-23 10:00:00","20","manfredonia_liceo","9.35","1","66.84","1","0.0","1","null","6","null","6","null","6","1021.22","1","41.627894","15.907547"],
    [540,"2024-01-23 11:00:00","20","manfredonia_liceo","10.74","1","68.39","1","0.0","1","null","6","null","6","null","6","1021.57","1","41.627894","15.907547"],
    [541,"2024-01-23 12:00:00","20","manfredonia_liceo","11.46","1","64.29","1","0.0","1","null","6","null","6","null","6","1021.51","1","41.627894","15.907547"],
    [542,"2024-01-23 13:00:00","20","manfredonia_liceo","12.02","1","63.2","1","0.0","1","null","6","null","6","null","6","1021.5","1","41.627894","15.907547"],
    [543,"2024-01-23 14:00:00","20","manfredonia_liceo","11.7","1","69.81","1","0.0","1","null","6","null","6","null","6","1021.1","1","41.627894","15.907547"],
    [544,"2024-01-23 15:00:00","20","manfredonia_liceo","11.72","1","69.95","1","0.0","1","null","6","null","6","null","6","1021.03","1","41.627894","15.907547"],
    [545,"2024-01-23 16:00:00","20","manfredonia_liceo","12.25","1","66.31","1","0.0","1","null","6","null","6","null","6","1021.34","1","41.627894","15.907547"],
    [546,"2024-01-23 17:00:00","20","manfredonia_liceo","12.89","1","63.17","1","0.0","1","null","6","null","6","null","6","1021.74","1","41.627894","15.907547"],
    [547,"2024-01-23 18:00:00","20","manfredonia_liceo","11.62","1","68.23","1","0.0","1","null","6","null","6","null","6","1022.58","1","41.627894","15.907547"],
    [548,"2024-01-23 19:00:00","20","manfredonia_liceo","11.53","1","69.12","1","0.0","1","null","6","null","6","null","6","1023.14","1","41.627894","15.907547"],
    [549,"2024-01-23 20:00:00","20","manfredonia_liceo","11.49","1","68.98","1","0.0","1","null","6","null","6","null","6","1023.66","1","41.627894","15.907547"],
    [550,"2024-01-23 21:00:00","20","manfredonia_liceo","11.67","1","66.53","1","0.0","1","null","6","null","6","null","6","1024.11","1","41.627894","15.907547"],
    [551,"2024-01-23 22:00:00","20","manfredonia_liceo","11.52","1","66.39","1","0.0","1","null","6","null","6","null","6","1024.34","1","41.627894","15.907547"],
    [552,"2024-01-23 23:00:00","20","manfredonia_liceo","11.37","1","68.17","1","0.0","1","null","6","null","6","null","6","1024.85","1","41.627894","15.907547"],
    [553,"2024-01-24 00:00:00","20","manfredonia_liceo","11.19","1","68.87","1","0.0","1","null","6","null","6","null","6","1025.53","1","41.627894","15.907547"],
    [554,"2024-01-24 01:00:00","20","manfredonia_liceo","10.55","1","71.99","1","0.0","1","null","6","null","6","null","6","1025.27","1","41.627894","15.907547"],
    [555,"2024-01-24 02:00:00","20","manfredonia_liceo","10.79","1","69.79","1","0.0","1","null","6","null","6","null","6","1025.18","1","41.627894","15.907547"],
    [556,"2024-01-24 03:00:00","20","manfredonia_liceo","10.66","1","66.37","1","0.0","1","null","6","null","6","null","6","1025.03","1","41.627894","15.907547"],
    [557,"2024-01-24 04:00:00","20","manfredonia_liceo","10.31","1","61.32","1","0.0","1","null","6","null","6","null","6","1024.95","1","41.627894","15.907547"],
    [558,"2024-01-24 05:00:00","20","manfredonia_liceo","9.75","1","53.31","1","0.0","1","null","6","null","6","null","6","1024.92","1","41.627894","15.907547"],
    [559,"2024-01-24 06:00:00","20","manfredonia_liceo","9.56","1","49.42","1","0.0","1","null","6","null","6","null","6","1025.21","1","41.627894","15.907547"],
    [560,"2024-01-24 07:00:00","20","manfredonia_liceo","8.19","1","58.35","1","0.0","1","null","6","null","6","null","6","1025.27","1","41.627894","15.907547"],
    [561,"2024-01-24 08:00:00","20","manfredonia_liceo","7.4","1","67.49","1","0.0","1","null","6","null","6","null","6","1025.31","1","41.627894","15.907547"],
    [562,"2024-01-24 09:00:00","20","manfredonia_liceo","8.14","1","71.87","1","0.0","1","null","6","null","6","null","6","1025.41","1","41.627894","15.907547"],
    [563,"2024-01-24 10:00:00","20","manfredonia_liceo","10.21","1","76.34","1","0.0","1","null","6","null","6","null","6","1025.52","1","41.627894","15.907547"],
    [564,"2024-01-24 11:00:00","20","manfredonia_liceo","13.91","1","60.44","1","0.0","1","null","6","null","6","null","6","1025.97","1","41.627894","15.907547"],
    [565,"2024-01-24 12:00:00","20","manfredonia_liceo","13.31","1","55.89","1","0.0","1","null","6","null","6","null","6","1025.37","1","41.627894","15.907547"],
    [566,"2024-01-24 13:00:00","20","manfredonia_liceo","14.55","1","54.87","1","0.0","1","null","6","null","6","null","6","1024.61","1","41.627894","15.907547"],
    [567,"2024-01-24 14:00:00","20","manfredonia_liceo","17.34","1","50.1","1","0.0","1","null","6","null","6","null","6","1023.48","1","41.627894","15.907547"],
    [568,"2024-01-24 15:00:00","20","manfredonia_liceo","17.64","1","46.66","1","0.0","1","null","6","null","6","null","6","1022.77","1","41.627894","15.907547"],
    [569,"2024-01-24 16:00:00","20","manfredonia_liceo","17.17","1","44.07","1","0.0","1","null","6","null","6","null","6","1021.94","1","41.627894","15.907547"],
    [570,"2024-01-24 17:00:00","20","manfredonia_liceo","14.7","1","51.86","1","0.0","1","null","6","null","6","null","6","1021.35","1","41.627894","15.907547"],
    [571,"2024-01-24 18:00:00","20","manfredonia_liceo","12.44","1","60.17","1","0.0","1","null","6","null","6","null","6","1020.88","1","41.627894","15.907547"],
    [572,"2024-01-24 19:00:00","20","manfredonia_liceo","10.88","1","66.88","1","0.0","1","null","6","null","6","null","6","1020.56","1","41.627894","15.907547"],
    [573,"2024-01-24 20:00:00","20","manfredonia_liceo","10.02","1","63.18","1","0.0","1","null","6","null","6","null","6","1020.51","1","41.627894","15.907547"],
    [574,"2024-01-24 21:00:00","20","manfredonia_liceo","9.93","1","58.9","1","0.0","1","null","6","null","6","null","6","1020.41","1","41.627894","15.907547"],
    [575,"2024-01-24 22:00:00","20","manfredonia_liceo","9.58","1","64.77","1","0.0","1","null","6","null","6","null","6","1020.13","1","41.627894","15.907547"],
    [576,"2024-01-24 23:00:00","20","manfredonia_liceo","8.78","1","69.03","1","0.0","1","null","6","null","6","null","6","1019.62","1","41.627894","15.907547"],
    [577,"2024-01-25 00:00:00","20","manfredonia_liceo","8.03","1","68.69","1","0.0","1","null","6","null","6","null","6","1019.22","1","41.627894","15.907547"],
    [578,"2024-01-25 01:00:00","20","manfredonia_liceo","7.52","1","65.64","1","0.0","1","null","6","null","6","null","6","1018.55","1","41.627894","15.907547"],
    [579,"2024-01-25 02:00:00","20","manfredonia_liceo","7.04","1","66.59","1","0.0","1","null","6","null","6","null","6","1018.07","1","41.627894","15.907547"],
    [580,"2024-01-25 03:00:00","20","manfredonia_liceo","6.79","1","61.9","1","0.0","1","null","6","null","6","null","6","1017.71","1","41.627894","15.907547"],
    [581,"2024-01-25 04:00:00","20","manfredonia_liceo","6.91","1","58.84","1","0.0","1","null","6","null","6","null","6","1017.44","1","41.627894","15.907547"],
    [582,"2024-01-25 05:00:00","20","manfredonia_liceo","6.54","1","60.04","1","0.0","1","null","6","null","6","null","6","1017.22","1","41.627894","15.907547"],
    [583,"2024-01-25 06:00:00","20","manfredonia_liceo","6.15","1","62.44","1","0.0","1","null","6","null","6","null","6","1017.22","1","41.627894","15.907547"],
    [584,"2024-01-25 07:00:00","20","manfredonia_liceo","5.72","1","66.94","1","0.0","1","null","6","null","6","null","6","1017.54","1","41.627894","15.907547"],
    [585,"2024-01-25 08:00:00","20","manfredonia_liceo","5.88","1","67.08","1","0.0","1","null","6","null","6","null","6","1017.66","1","41.627894","15.907547"],
    [586,"2024-01-25 09:00:00","20","manfredonia_liceo","7.13","1","64.64","1","0.0","1","null","6","null","6","null","6","1017.49","1","41.627894","15.907547"],
    [587,"2024-01-25 10:00:00","20","manfredonia_liceo","10.53","1","63.68","1","0.0","1","null","6","null","6","null","6","1017.58","1","41.627894","15.907547"],
    [588,"2024-01-25 11:00:00","20","manfredonia_liceo","16.67","1","52.71","1","0.0","1","null","6","null","6","null","6","1017.96","1","41.627894","15.907547"],
    [589,"2024-01-25 12:00:00","20","manfredonia_liceo","14.95","1","49.38","1","0.0","1","null","6","null","6","null","6","1018.36","1","41.627894","15.907547"],
    [590,"2024-01-25 13:00:00","20","manfredonia_liceo","14.87","1","46.54","1","0.0","1","null","6","null","6","null","6","1018.26","1","41.627894","15.907547"],
    [591,"2024-01-25 14:00:00","20","manfredonia_liceo","18.97","1","48.62","1","0.0","1","null","6","null","6","null","6","1017.95","1","41.627894","15.907547"],
    [592,"2024-01-25 15:00:00","20","manfredonia_liceo","18.53","1","55.14","1","0.0","1","null","6","null","6","null","6","1018.28","1","41.627894","15.907547"],
    [593,"2024-01-25 16:00:00","20","manfredonia_liceo","17.67","1","64.19","1","0.0","1","null","6","null","6","null","6","1018.61","1","41.627894","15.907547"],
    [594,"2024-01-25 17:00:00","20","manfredonia_liceo","15.82","1","69.57","1","0.0","1","null","6","null","6","null","6","1018.58","1","41.627894","15.907547"],
    [595,"2024-01-25 18:00:00","20","manfredonia_liceo","12.78","1","81.45","1","0.0","1","null","6","null","6","null","6","1018.99","1","41.627894","15.907547"],
    [596,"2024-01-25 19:00:00","20","manfredonia_liceo","11.55","1","85.9","1","0.0","1","null","6","null","6","null","6","1019.28","1","41.627894","15.907547"],
    [597,"2024-01-25 20:00:00","20","manfredonia_liceo","10.69","1","87.52","1","0.0","1","null","6","null","6","null","6","1019.35","1","41.627894","15.907547"],
    [598,"2024-01-25 21:00:00","20","manfredonia_liceo","10.09","1","88.17","1","0.0","1","null","6","null","6","null","6","1019.11","1","41.627894","15.907547"],
    [599,"2024-01-25 22:00:00","20","manfredonia_liceo","9.44","1","88.72","1","0.0","1","null","6","null","6","null","6","1019.03","1","41.627894","15.907547"],
    [600,"2024-01-25 23:00:00","20","manfredonia_liceo","8.5","1","86.01","1","0.0","1","null","6","null","6","null","6","1019.05","1","41.627894","15.907547"],
    [601,"2024-01-26 00:00:00","20","manfredonia_liceo","8.74","1","80.18","1","0.0","1","null","6","null","6","null","6","1019.07","1","41.627894","15.907547"],
    [602,"2024-01-26 01:00:00","20","manfredonia_liceo","7.25","1","84.88","1","0.0","1","null","6","null","6","null","6","1019.04","1","41.627894","15.907547"],
    [603,"2024-01-26 02:00:00","20","manfredonia_liceo","6.25","1","85.33","1","0.0","1","null","6","null","6","null","6","1018.99","1","41.627894","15.907547"],
    [604,"2024-01-26 03:00:00","20","manfredonia_liceo","5.29","1","85.04","1","0.0","1","null","6","null","6","null","6","1019.09","1","41.627894","15.907547"],
    [605,"2024-01-26 04:00:00","20","manfredonia_liceo","5.17","1","89.69","1","0.0","1","null","6","null","6","null","6","1019.23","1","41.627894","15.907547"],
    [606,"2024-01-26 05:00:00","20","manfredonia_liceo","4.8","1","93.14","1","0.0","1","null","6","null","6","null","6","1019.05","1","41.627894","15.907547"],
    [607,"2024-01-26 06:00:00","20","manfredonia_liceo","4.23","1","90.01","1","0.0","1","null","6","null","6","null","6","1019.05","1","41.627894","15.907547"],
    [608,"2024-01-26 07:00:00","20","manfredonia_liceo","4.15","1","82.35","1","0.0","1","null","6","null","6","null","6","1019.4","1","41.627894","15.907547"],
    [609,"2024-01-26 08:00:00","20","manfredonia_liceo","3.76","1","83.43","1","0.0","1","null","6","null","6","null","6","1019.84","1","41.627894","15.907547"],
    [610,"2024-01-26 09:00:00","20","manfredonia_liceo","5.13","1","75.89","1","0.0","1","null","6","null","6","null","6","1020.15","1","41.627894","15.907547"],
    [611,"2024-01-26 10:00:00","20","manfredonia_liceo","9.04","1","67.06","1","0.0","1","null","6","null","6","null","6","1020.18","1","41.627894","15.907547"],
    [612,"2024-01-26 11:00:00","20","manfredonia_liceo","15.79","1","53.65","1","0.0","1","null","6","null","6","null","6","1020.31","1","41.627894","15.907547"],
    [613,"2024-01-26 12:00:00","20","manfredonia_liceo","14.84","1","59.61","1","0.0","1","null","6","null","6","null","6","1020.04","1","41.627894","15.907547"],
    [614,"2024-01-26 13:00:00","20","manfredonia_liceo","16.33","1","53.92","1","0.0","1","null","6","null","6","null","6","1019.57","1","41.627894","15.907547"],
    [615,"2024-01-26 14:00:00","20","manfredonia_liceo","21.71","1","38.16","1","0.0","1","null","6","null","6","null","6","1019.01","1","41.627894","15.907547"],
    [616,"2024-01-26 15:00:00","20","manfredonia_liceo","20.76","1","34.13","1","0.0","1","null","6","null","6","null","6","1018.34","1","41.627894","15.907547"],
    [617,"2024-01-26 16:00:00","20","manfredonia_liceo","21.52","1","32.47","1","0.0","1","null","6","null","6","null","6","1018.32","1","41.627894","15.907547"],
    [618,"2024-01-26 17:00:00","20","manfredonia_liceo","17.03","1","49.28","1","0.0","1","null","6","null","6","null","6","1018.38","1","41.627894","15.907547"],
    [619,"2024-01-26 18:00:00","20","manfredonia_liceo","12.13","1","57.18","1","0.0","1","null","6","null","6","null","6","1018.68","1","41.627894","15.907547"],
    [620,"2024-01-26 19:00:00","20","manfredonia_liceo","10.33","1","68.48","1","0.0","1","null","6","null","6","null","6","1019.14","1","41.627894","15.907547"],
    [621,"2024-01-26 20:00:00","20","manfredonia_liceo","9.25","1","78.95","1","0.0","1","null","6","null","6","null","6","1019.42","1","41.627894","15.907547"],
    [622,"2024-01-26 21:00:00","20","manfredonia_liceo","8.3","1","90.94","1","0.0","1","null","6","null","6","null","6","1019.42","1","41.627894","15.907547"],
    [623,"2024-01-26 22:00:00","20","manfredonia_liceo","7.75","1","79.3","1","0.0","1","null","6","null","6","null","6","1019.5","1","41.627894","15.907547"],
    [624,"2024-01-26 23:00:00","20","manfredonia_liceo","7.53","1","74.86","1","0.0","1","null","6","null","6","null","6","1019.43","1","41.627894","15.907547"],
    [625,"2024-01-27 00:00:00","20","manfredonia_liceo","7.13","1","89.87","1","0.0","1","null","6","null","6","null","6","1019.51","1","41.627894","15.907547"],
    [626,"2024-01-27 01:00:00","20","manfredonia_liceo","6.23","1","96.68","1","0.0","1","null","6","null","6","null","6","1019.04","1","41.627894","15.907547"],
    [627,"2024-01-27 02:00:00","20","manfredonia_liceo","5.21","1","98.62","1","0.0","1","null","6","null","6","null","6","1018.9","1","41.627894","15.907547"],
    [628,"2024-01-27 03:00:00","20","manfredonia_liceo","4.33","1","96.74","1","0.0","1","null","6","null","6","null","6","1019.34","1","41.627894","15.907547"],
    [629,"2024-01-27 04:00:00","20","manfredonia_liceo","4.02","1","94.36","1","0.0","1","null","6","null","6","null","6","1019.41","1","41.627894","15.907547"],
    [630,"2024-01-27 05:00:00","20","manfredonia_liceo","4.5","1","94.21","1","0.0","1","null","6","null","6","null","6","1019.32","1","41.627894","15.907547"],
    [631,"2024-01-27 06:00:00","20","manfredonia_liceo","5.0","1","96.48","1","0.0","1","null","6","null","6","null","6","1019.71","1","41.627894","15.907547"],
    [632,"2024-01-27 07:00:00","20","manfredonia_liceo","6.11","1","93.5","1","0.0","1","null","6","null","6","null","6","1020.24","1","41.627894","15.907547"],
    [633,"2024-01-27 08:00:00","20","manfredonia_liceo","7.53","1","82.39","1","0.0","1","null","6","null","6","null","6","1020.71","1","41.627894","15.907547"],
    [634,"2024-01-27 09:00:00","20","manfredonia_liceo","9.41","1","78.86","1","0.0","1","null","6","null","6","null","6","1020.98","1","41.627894","15.907547"],
    [635,"2024-01-27 10:00:00","20","manfredonia_liceo","12.36","1","74.82","1","0.0","1","null","6","null","6","null","6","1021.36","1","41.627894","15.907547"],
    [636,"2024-01-27 11:00:00","20","manfredonia_liceo","15.9","1","64.82","1","0.0","1","null","6","null","6","null","6","1022.02","1","41.627894","15.907547"],
    [637,"2024-01-27 12:00:00","20","manfredonia_liceo","14.82","1","71.99","1","0.0","1","null","6","null","6","null","6","1022.64","1","41.627894","15.907547"],
    [638,"2024-01-27 13:00:00","20","manfredonia_liceo","15.41","1","66.44","1","0.0","1","null","6","null","6","null","6","1022.65","1","41.627894","15.907547"],
    [639,"2024-01-27 14:00:00","20","manfredonia_liceo","18.08","1","55.21","1","0.0","1","null","6","null","6","null","6","1022.31","1","41.627894","15.907547"],
    [640,"2024-01-27 15:00:00","20","manfredonia_liceo","18.11","1","53.0","1","0.0","1","null","6","null","6","null","6","1022.04","1","41.627894","15.907547"],
    [641,"2024-01-27 16:00:00","20","manfredonia_liceo","16.41","1","66.91","1","0.0","1","null","6","null","6","null","6","1022.62","1","41.627894","15.907547"],
    [642,"2024-01-27 17:00:00","20","manfredonia_liceo","14.18","1","65.95","1","0.0","1","null","6","null","6","null","6","1022.87","1","41.627894","15.907547"],
    [643,"2024-01-27 18:00:00","20","manfredonia_liceo","12.49","1","69.37","1","0.0","1","null","6","null","6","null","6","1023.26","1","41.627894","15.907547"],
    [644,"2024-01-27 19:00:00","20","manfredonia_liceo","12.19","1","67.96","1","0.0","1","null","6","null","6","null","6","1023.72","1","41.627894","15.907547"],
    [645,"2024-01-27 20:00:00","20","manfredonia_liceo","11.88","1","68.09","1","0.0","1","null","6","null","6","null","6","1024.04","1","41.627894","15.907547"],
    [646,"2024-01-27 21:00:00","20","manfredonia_liceo","11.59","1","67.52","1","0.0","1","null","6","null","6","null","6","1024.47","1","41.627894","15.907547"],
    [647,"2024-01-27 22:00:00","20","manfredonia_liceo","11.34","1","67.56","1","0.0","1","null","6","null","6","null","6","1024.98","1","41.627894","15.907547"],
    [648,"2024-01-27 23:00:00","20","manfredonia_liceo","10.61","1","73.84","1","0.0","1","null","6","null","6","null","6","1025.48","1","41.627894","15.907547"],
    [649,"2024-01-28 00:00:00","20","manfredonia_liceo","10.24","1","71.96","1","0.0","1","null","6","null","6","null","6","1025.64","1","41.627894","15.907547"],
    [650,"2024-01-28 01:00:00","20","manfredonia_liceo","10.29","1","73.31","1","0.0","1","null","6","null","6","null","6","1025.98","1","41.627894","15.907547"],
    [651,"2024-01-28 02:00:00","20","manfredonia_liceo","10.03","1","64.56","1","0.0","1","null","6","null","6","null","6","1026.27","1","41.627894","15.907547"],
    [652,"2024-01-28 03:00:00","20","manfredonia_liceo","8.68","1","64.41","1","0.0","1","null","6","null","6","null","6","1026.69","1","41.627894","15.907547"],
    [653,"2024-01-28 04:00:00","20","manfredonia_liceo","8.69","1","52.59","1","0.0","1","null","6","null","6","null","6","1026.75","1","41.627894","15.907547"],
    [654,"2024-01-28 05:00:00","20","manfredonia_liceo","7.93","1","51.73","1","0.0","1","null","6","null","6","null","6","1027.07","1","41.627894","15.907547"],
    [655,"2024-01-28 06:00:00","20","manfredonia_liceo","6.96","1","54.04","1","0.0","1","null","6","null","6","null","6","1027.16","1","41.627894","15.907547"],
    [656,"2024-01-28 07:00:00","20","manfredonia_liceo","6.5","1","57.35","1","0.0","1","null","6","null","6","null","6","1027.44","1","41.627894","15.907547"],
    [657,"2024-01-28 08:00:00","20","manfredonia_liceo","7.82","1","52.73","1","0.0","1","null","6","null","6","null","6","1027.72","1","41.627894","15.907547"],
    [658,"2024-01-28 09:00:00","20","manfredonia_liceo","9.49","1","50.33","1","0.0","1","null","6","null","6","null","6","1028.13","1","41.627894","15.907547"],
    [659,"2024-01-28 10:00:00","20","manfredonia_liceo","11.48","1","42.99","1","0.0","1","null","6","null","6","null","6","1028.58","1","41.627894","15.907547"],
    [660,"2024-01-28 11:00:00","20","manfredonia_liceo","15.24","1","35.32","1","0.0","1","null","6","null","6","null","6","1029.1","1","41.627894","15.907547"],
    [661,"2024-01-28 12:00:00","20","manfredonia_liceo","13.88","1","35.95","1","0.0","1","null","6","null","6","null","6","1029.2","1","41.627894","15.907547"],
    [662,"2024-01-28 13:00:00","20","manfredonia_liceo","13.96","1","33.52","1","0.0","1","null","6","null","6","null","6","1028.88","1","41.627894","15.907547"],
    [663,"2024-01-28 14:00:00","20","manfredonia_liceo","16.64","1","31.64","1","0.0","1","null","6","null","6","null","6","1028.34","1","41.627894","15.907547"],
    [664,"2024-01-28 15:00:00","20","manfredonia_liceo","15.4","1","29.91","1","0.0","1","null","6","null","6","null","6","1027.84","1","41.627894","15.907547"],
    [665,"2024-01-28 16:00:00","20","manfredonia_liceo","15.13","1","32.15","1","0.0","1","null","6","null","6","null","6","1027.99","1","41.627894","15.907547"],
    [666,"2024-01-28 17:00:00","20","manfredonia_liceo","13.22","1","39.7","1","0.0","1","null","6","null","6","null","6","1028.16","1","41.627894","15.907547"],
    [667,"2024-01-28 18:00:00","20","manfredonia_liceo","10.83","1","47.83","1","0.0","1","null","6","null","6","null","6","1028.23","1","41.627894","15.907547"],
    [668,"2024-01-28 19:00:00","20","manfredonia_liceo","10.63","1","51.06","1","0.0","1","null","6","null","6","null","6","1028.48","1","41.627894","15.907547"],
    [669,"2024-01-28 20:00:00","20","manfredonia_liceo","9.58","1","54.25","1","0.0","1","null","6","null","6","null","6","1028.59","1","41.627894","15.907547"],
    [670,"2024-01-28 21:00:00","20","manfredonia_liceo","9.18","1","58.07","1","0.0","1","null","6","null","6","null","6","1028.82","1","41.627894","15.907547"],
    [671,"2024-01-28 22:00:00","20","manfredonia_liceo","9.92","1","60.05","1","0.0","1","null","6","null","6","null","6","1028.91","1","41.627894","15.907547"],
    [672,"2024-01-28 23:00:00","20","manfredonia_liceo","8.82","1","66.36","1","0.0","1","null","6","null","6","null","6","1028.94","1","41.627894","15.907547"],
    [673,"2024-01-29 00:00:00","20","manfredonia_liceo","7.34","1","78.68","1","0.0","1","null","6","null","6","null","6","1028.94","1","41.627894","15.907547"],
    [674,"2024-01-29 01:00:00","20","manfredonia_liceo","7.89","1","77.24","1","0.0","1","null","6","null","6","null","6","1028.94","1","41.627894","15.907547"],
    [675,"2024-01-29 02:00:00","20","manfredonia_liceo","7.22","1","80.16","1","0.0","1","null","6","null","6","null","6","1028.9","1","41.627894","15.907547"],
    [676,"2024-01-29 03:00:00","20","manfredonia_liceo","6.59","1","83.23","1","0.0","1","null","6","null","6","null","6","1028.81","1","41.627894","15.907547"],
    [677,"2024-01-29 04:00:00","20","manfredonia_liceo","5.32","1","85.72","1","0.0","1","null","6","null","6","null","6","1028.57","1","41.627894","15.907547"],
    [678,"2024-01-29 05:00:00","20","manfredonia_liceo","5.6","1","79.77","1","0.0","1","null","6","null","6","null","6","1028.57","1","41.627894","15.907547"],
    [679,"2024-01-29 06:00:00","20","manfredonia_liceo","4.92","1","84.32","1","0.0","1","null","6","null","6","null","6","1028.54","1","41.627894","15.907547"],
    [680,"2024-01-29 07:00:00","20","manfredonia_liceo","5.23","1","87.22","1","0.0","1","null","6","null","6","null","6","1028.6","1","41.627894","15.907547"],
    [681,"2024-01-29 08:00:00","20","manfredonia_liceo","5.65","1","80.8","1","0.0","1","null","6","null","6","null","6","1029.06","1","41.627894","15.907547"],
    [682,"2024-01-29 09:00:00","20","manfredonia_liceo","6.12","1","79.95","1","0.0","1","null","6","null","6","null","6","1029.3","1","41.627894","15.907547"],
    [683,"2024-01-29 10:00:00","20","manfredonia_liceo","9.75","1","66.28","1","0.0","1","null","6","null","6","null","6","1029.37","1","41.627894","15.907547"],
    [684,"2024-01-29 11:00:00","20","manfredonia_liceo","16.21","1","43.98","1","0.0","1","null","6","null","6","null","6","1029.75","1","41.627894","15.907547"],
    [685,"2024-01-29 12:00:00","20","manfredonia_liceo","13.46","1","49.38","1","0.0","1","null","6","null","6","null","6","1029.85","1","41.627894","15.907547"],
    [686,"2024-01-29 13:00:00","20","manfredonia_liceo","13.11","1","50.18","1","0.0","1","null","6","null","6","null","6","1029.49","1","41.627894","15.907547"],
    [687,"2024-01-29 14:00:00","20","manfredonia_liceo","16.29","1","45.25","1","0.0","1","null","6","null","6","null","6","1028.75","1","41.627894","15.907547"],
    [688,"2024-01-29 15:00:00","20","manfredonia_liceo","16.02","1","45.35","1","0.0","1","null","6","null","6","null","6","1028.57","1","41.627894","15.907547"],
    [689,"2024-01-29 16:00:00","20","manfredonia_liceo","15.91","1","46.93","1","0.0","1","null","6","null","6","null","6","1028.36","1","41.627894","15.907547"],
    [690,"2024-01-29 17:00:00","20","manfredonia_liceo","13.83","1","53.43","1","0.0","1","null","6","null","6","null","6","1028.24","1","41.627894","15.907547"],
    [691,"2024-01-29 18:00:00","20","manfredonia_liceo","10.3","1","57.54","1","0.0","1","null","6","null","6","null","6","1028.39","1","41.627894","15.907547"],
    [692,"2024-01-29 19:00:00","20","manfredonia_liceo","9.5","1","59.15","1","0.0","1","null","6","null","6","null","6","1028.6","1","41.627894","15.907547"],
    [693,"2024-01-29 20:00:00","20","manfredonia_liceo","8.5","1","61.53","1","0.0","1","null","6","null","6","null","6","1028.94","1","41.627894","15.907547"],
    [694,"2024-01-29 21:00:00","20","manfredonia_liceo","7.53","1","69.25","1","0.0","1","null","6","null","6","null","6","1029.26","1","41.627894","15.907547"],
    [695,"2024-01-29 22:00:00","20","manfredonia_liceo","7.01","1","70.78","1","0.0","1","null","6","null","6","null","6","1029.3","1","41.627894","15.907547"],
    [696,"2024-01-29 23:00:00","20","manfredonia_liceo","8.3","1","60.31","1","0.0","1","null","6","null","6","null","6","1029.06","1","41.627894","15.907547"],
    [697,"2024-01-30 00:00:00","20","manfredonia_liceo","8.38","1","62.28","1","0.0","1","null","6","null","6","null","6","1029.3","1","41.627894","15.907547"],
    [698,"2024-01-30 01:00:00","20","manfredonia_liceo","7.28","1","68.85","1","0.0","1","null","6","null","6","null","6","1029.3","1","41.627894","15.907547"],
    [699,"2024-01-30 02:00:00","20","manfredonia_liceo","5.93","1","77.11","1","0.0","1","null","6","null","6","null","6","1029.3","1","41.627894","15.907547"],
    [700,"2024-01-30 03:00:00","20","manfredonia_liceo","4.8","1","81.74","1","0.0","1","null","6","null","6","null","6","1029.3","1","41.627894","15.907547"],
    [701,"2024-01-30 04:00:00","20","manfredonia_liceo","5.45","1","80.99","1","0.0","1","null","6","null","6","null","6","1028.9","1","41.627894","15.907547"],
    [702,"2024-01-30 05:00:00","20","manfredonia_liceo","7.06","1","79.12","1","0.0","1","null","6","null","6","null","6","1028.57","1","41.627894","15.907547"],
    [703,"2024-01-30 06:00:00","20","manfredonia_liceo","8.29","1","73.7","1","0.0","1","null","6","null","6","null","6","1028.21","1","41.627894","15.907547"],
    [704,"2024-01-30 07:00:00","20","manfredonia_liceo","7.82","1","73.1","1","0.0","1","null","6","null","6","null","6","1028.52","1","41.627894","15.907547"],
    [705,"2024-01-30 08:00:00","20","manfredonia_liceo","6.66","1","77.27","1","0.0","1","null","6","null","6","null","6","1029.04","1","41.627894","15.907547"],
    [706,"2024-01-30 09:00:00","20","manfredonia_liceo","7.86","1","77.15","1","0.0","1","null","6","null","6","null","6","1029.39","1","41.627894","15.907547"],
    [707,"2024-01-30 10:00:00","20","manfredonia_liceo","10.99","1","68.57","1","0.0","1","null","6","null","6","null","6","1029.67","1","41.627894","15.907547"],
    [708,"2024-01-30 11:00:00","20","manfredonia_liceo","14.88","1","57.5","1","0.0","1","null","6","null","6","null","6","1029.7","1","41.627894","15.907547"],
    [709,"2024-01-30 12:00:00","20","manfredonia_liceo","14.76","1","52.5","1","0.0","1","null","6","null","6","null","6","1029.68","1","41.627894","15.907547"],
    [710,"2024-01-30 13:00:00","20","manfredonia_liceo","15.53","1","54.87","1","0.0","1","null","6","null","6","null","6","1029.28","1","41.627894","15.907547"],
    [711,"2024-01-30 14:00:00","20","manfredonia_liceo","18.66","1","49.65","1","0.0","1","null","6","null","6","null","6","1028.94","1","41.627894","15.907547"],
    [712,"2024-01-30 15:00:00","20","manfredonia_liceo","16.72","1","52.67","1","0.0","1","null","6","null","6","null","6","1028.61","1","41.627894","15.907547"],
    [713,"2024-01-30 16:00:00","20","manfredonia_liceo","16.79","1","55.42","1","0.0","1","null","6","null","6","null","6","1028.7","1","41.627894","15.907547"],
    [714,"2024-01-30 17:00:00","20","manfredonia_liceo","14.44","1","65.48","1","0.0","1","null","6","null","6","null","6","1028.94","1","41.627894","15.907547"],
    [715,"2024-01-30 18:00:00","20","manfredonia_liceo","10.78","1","78.45","1","0.0","1","null","6","null","6","null","6","1029.08","1","41.627894","15.907547"],
    [716,"2024-01-30 19:00:00","20","manfredonia_liceo","9.63","1","86.41","1","0.0","1","null","6","null","6","null","6","1029.3","1","41.627894","15.907547"],
    [717,"2024-01-30 20:00:00","20","manfredonia_liceo","8.23","1","86.62","1","0.0","1","null","6","null","6","null","6","1029.34","1","41.627894","15.907547"],
    [718,"2024-01-30 21:00:00","20","manfredonia_liceo","7.25","1","80.74","1","0.0","1","null","6","null","6","null","6","1029.3","1","41.627894","15.907547"],
    [719,"2024-01-30 22:00:00","20","manfredonia_liceo","6.69","1","82.51","1","0.0","1","null","6","null","6","null","6","1029.3","1","41.627894","15.907547"],
    [720,"2024-01-30 23:00:00","20","manfredonia_liceo","5.86","1","84.26","1","0.0","1","null","6","null","6","null","6","1029.3","1","41.627894","15.907547"],
    [721,"2024-01-31 00:00:00","20","manfredonia_liceo","4.97","1","86.17","1","0.0","1","null","6","null","6","null","6","1029.27","1","41.627894","15.907547"],
    [722,"2024-01-31 01:00:00","20","manfredonia_liceo","4.88","1","86.91","1","0.0","1","null","6","null","6","null","6","1028.97","1","41.627894","15.907547"],
    [723,"2024-01-31 02:00:00","20","manfredonia_liceo","4.5","1","88.04","1","0.0","1","null","6","null","6","null","6","1028.94","1","41.627894","15.907547"],
    [724,"2024-01-31 03:00:00","20","manfredonia_liceo","4.41","1","87.91","1","0.0","1","null","6","null","6","null","6","1028.82","1","41.627894","15.907547"],
    [725,"2024-01-31 04:00:00","20","manfredonia_liceo","4.22","1","88.42","1","0.0","1","null","6","null","6","null","6","1028.29","1","41.627894","15.907547"],
    [726,"2024-01-31 05:00:00","20","manfredonia_liceo","3.57","1","87.21","1","0.0","1","null","6","null","6","null","6","1028.1","1","41.627894","15.907547"],
    [727,"2024-01-31 06:00:00","20","manfredonia_liceo","2.97","1","88.66","1","0.0","1","null","6","null","6","null","6","1027.84","1","41.627894","15.907547"],
    [728,"2024-01-31 07:00:00","20","manfredonia_liceo","2.06","1","89.18","1","0.0","1","null","6","null","6","null","6","1027.9","1","41.627894","15.907547"],
    [729,"2024-01-31 08:00:00","20","manfredonia_liceo","1.41","1","89.68","1","0.0","1","null","6","null","6","null","6","1028.06","1","41.627894","15.907547"],
    [730,"2024-01-31 09:00:00","20","manfredonia_liceo","2.76","1","86.33","1","0.0","1","null","6","null","6","null","6","1027.88","1","41.627894","15.907547"],
    [731,"2024-01-31 10:00:00","20","manfredonia_liceo","7.27","1","70.74","1","0.0","1","null","6","null","6","null","6","1028.04","1","41.627894","15.907547"],
    [732,"2024-01-31 11:00:00","20","manfredonia_liceo","12.58","1","61.96","1","0.0","1","null","6","null","6","null","6","1028.2","1","41.627894","15.907547"],
    [733,"2024-01-31 12:00:00","20","manfredonia_liceo","12.89","1","59.02","1","0.0","1","null","6","null","6","null","6","1027.77","1","41.627894","15.907547"],
    [734,"2024-01-31 13:00:00","20","manfredonia_liceo","13.91","1","58.1","1","0.0","1","null","6","null","6","null","6","1027.09","1","41.627894","15.907547"],
    [735,"2024-01-31 14:00:00","20","manfredonia_liceo","18.24","1","45.61","1","0.0","1","null","6","null","6","null","6","1026.59","1","41.627894","15.907547"],
    [736,"2024-01-31 15:00:00","20","manfredonia_liceo","18.47","1","44.44","1","0.0","1","null","6","null","6","null","6","1026.06","1","41.627894","15.907547"],
    [737,"2024-01-31 16:00:00","20","manfredonia_liceo","17.55","1","51.72","1","0.0","1","null","6","null","6","null","6","1025.99","1","41.627894","15.907547"],
    [738,"2024-01-31 17:00:00","20","manfredonia_liceo","15.57","1","53.76","1","0.0","1","null","6","null","6","null","6","1025.94","1","41.627894","15.907547"],
    [739,"2024-01-31 18:00:00","20","manfredonia_liceo","10.64","1","60.4","1","0.0","1","null","6","null","6","null","6","1026.01","1","41.627894","15.907547"],
    [740,"2024-01-31 19:00:00","20","manfredonia_liceo","8.21","1","74.19","1","0.0","1","null","6","null","6","null","6","1026.01","1","41.627894","15.907547"],
    [741,"2024-01-31 20:00:00","20","manfredonia_liceo","6.94","1","78.22","1","0.0","1","null","6","null","6","null","6","1025.92","1","41.627894","15.907547"],
    [742,"2024-01-31 21:00:00","20","manfredonia_liceo","6.28","1","73.99","1","0.0","1","null","6","null","6","null","6","1025.64","1","41.627894","15.907547"],
    [743,"2024-01-31 22:00:00","20","manfredonia_liceo","5.57","1","74.02","1","0.0","1","null","6","null","6","null","6","1025.47","1","41.627894","15.907547"],
    [744,"2024-01-31 23:00:00","20","manfredonia_liceo","5.24","1","68.46","1","0.0","1","null","6","null","6","null","6","1025.13","1","41.627894","15.907547"],
    [745,"2024-02-01 00:00:00","20","manfredonia_liceo","5.01","1","69.79","1","0.0","1","null","6","null","6","null","6","1024.92","1","41.627894","15.907547"],
    [746,"2024-02-01 01:00:00","20","manfredonia_liceo","4.74","1","68.32","1","0.0","1","null","6","null","6","null","6","1024.8","1","41.627894","15.907547"],
    [747,"2024-02-01 02:00:00","20","manfredonia_liceo","4.27","1","62.04","1","0.0","1","null","6","null","6","null","6","1024.48","1","41.627894","15.907547"],
    [748,"2024-02-01 03:00:00","20","manfredonia_liceo","3.76","1","64.79","1","0.0","1","null","6","null","6","null","6","1024.12","1","41.627894","15.907547"],
    [749,"2024-02-01 04:00:00","20","manfredonia_liceo","3.61","1","69.24","1","0.0","1","null","6","null","6","null","6","1023.6","1","41.627894","15.907547"],
    [750,"2024-02-01 05:00:00","20","manfredonia_liceo","3.99","1","71.46","1","0.0","1","null","6","null","6","null","6","1023.09","1","41.627894","15.907547"],
    [751,"2024-02-01 06:00:00","20","manfredonia_liceo","4.12","1","71.66","1","0.0","1","null","6","null","6","null","6","1022.66","1","41.627894","15.907547"],
    [752,"2024-02-01 07:00:00","20","manfredonia_liceo","3.77","1","75.25","1","0.0","1","null","6","null","6","null","6","1022.71","1","41.627894","15.907547"],
    [753,"2024-02-01 08:00:00","20","manfredonia_liceo","3.36","1","79.32","1","0.0","1","null","6","null","6","null","6","1022.97","1","41.627894","15.907547"],
    [754,"2024-02-01 09:00:00","20","manfredonia_liceo","4.0","1","80.58","1","0.0","1","null","6","null","6","null","6","1023.08","1","41.627894","15.907547"],
    [755,"2024-02-01 10:00:00","20","manfredonia_liceo","7.9","1","74.35","1","0.0","1","null","6","null","6","null","6","1023.08","1","41.627894","15.907547"],
    [756,"2024-02-01 11:00:00","20","manfredonia_liceo","14.22","1","58.14","1","0.0","1","null","6","null","6","null","6","1023.08","1","41.627894","15.907547"],
    [757,"2024-02-01 12:00:00","20","manfredonia_liceo","11.63","1","66.33","1","0.0","1","null","6","null","6","null","6","1022.52","1","41.627894","15.907547"],
    [758,"2024-02-01 13:00:00","20","manfredonia_liceo","13.21","1","58.04","1","0.0","1","null","6","null","6","null","6","1021.66","1","41.627894","15.907547"],
    [759,"2024-02-01 14:00:00","20","manfredonia_liceo","16.64","1","49.2","1","0.0","1","null","6","null","6","null","6","1020.85","1","41.627894","15.907547"],
    [760,"2024-02-01 15:00:00","20","manfredonia_liceo","15.8","1","49.01","1","0.0","1","null","6","null","6","null","6","1020.09","1","41.627894","15.907547"],
    [761,"2024-02-01 16:00:00","20","manfredonia_liceo","14.96","1","55.45","1","0.0","1","null","6","null","6","null","6","1019.78","1","41.627894","15.907547"],
    [762,"2024-02-01 17:00:00","20","manfredonia_liceo","13.06","1","63.48","1","0.0","1","null","6","null","6","null","6","1019.78","1","41.627894","15.907547"],
    [763,"2024-02-01 18:00:00","20","manfredonia_liceo","10.17","1","74.61","1","0.0","1","null","6","null","6","null","6","1019.82","1","41.627894","15.907547"],
    [764,"2024-02-01 19:00:00","20","manfredonia_liceo","8.37","1","80.46","1","0.0","1","null","6","null","6","null","6","1020.11","1","41.627894","15.907547"],
    [765,"2024-02-01 20:00:00","20","manfredonia_liceo","7.07","1","82.13","1","0.0","1","null","6","null","6","null","6","1020.15","1","41.627894","15.907547"],
    [766,"2024-02-01 21:00:00","20","manfredonia_liceo","6.91","1","76.48","1","0.0","1","null","6","null","6","null","6","1020.03","1","41.627894","15.907547"],
    [767,"2024-02-01 22:00:00","20","manfredonia_liceo","6.37","1","75.98","1","0.0","1","null","6","null","6","null","6","1019.78","1","41.627894","15.907547"],
    [768,"2024-02-01 23:00:00","20","manfredonia_liceo","5.43","1","77.0","1","0.0","1","null","6","null","6","null","6","1019.6","1","41.627894","15.907547"],
    [769,"2024-02-02 00:00:00","20","manfredonia_liceo","5.41","1","71.15","1","0.0","1","null","6","null","6","null","6","1019.54","1","41.627894","15.907547"],
    [770,"2024-02-02 01:00:00","20","manfredonia_liceo","5.85","1","68.46","1","0.0","1","null","6","null","6","null","6","1019.55","1","41.627894","15.907547"],
    [771,"2024-02-02 02:00:00","20","manfredonia_liceo","6.1","1","75.85","1","0.0","1","null","6","null","6","null","6","1019.41","1","41.627894","15.907547"],
    [772,"2024-02-02 03:00:00","20","manfredonia_liceo","5.05","1","85.22","1","0.0","1","null","6","null","6","null","6","1019.41","1","41.627894","15.907547"],
    [773,"2024-02-02 04:00:00","20","manfredonia_liceo","5.33","1","86.46","1","0.0","1","null","6","null","6","null","6","1019.34","1","41.627894","15.907547"],
    [774,"2024-02-02 05:00:00","20","manfredonia_liceo","6.17","1","79.88","1","0.0","1","null","6","null","6","null","6","1019.23","1","41.627894","15.907547"],
    [775,"2024-02-02 06:00:00","20","manfredonia_liceo","5.97","1","77.31","1","0.0","1","null","6","null","6","null","6","1019.25","1","41.627894","15.907547"],
    [776,"2024-02-02 07:00:00","20","manfredonia_liceo","6.72","1","78.96","1","0.0","1","null","6","null","6","null","6","1019.45","1","41.627894","15.907547"],
    [777,"2024-02-02 08:00:00","20","manfredonia_liceo","8.47","1","78.09","1","0.0","1","null","6","null","6","null","6","1019.91","1","41.627894","15.907547"],
    [778,"2024-02-02 09:00:00","20","manfredonia_liceo","10.65","1","73.49","1","0.0","1","null","6","null","6","null","6","1020.4","1","41.627894","15.907547"],
    [779,"2024-02-02 10:00:00","20","manfredonia_liceo","13.72","1","64.93","1","0.0","1","null","6","null","6","null","6","1020.87","1","41.627894","15.907547"],
    [780,"2024-02-02 11:00:00","20","manfredonia_liceo","16.78","1","54.66","1","0.0","1","null","6","null","6","null","6","1021.51","1","41.627894","15.907547"],
    [781,"2024-02-02 12:00:00","20","manfredonia_liceo","16.02","1","55.62","1","0.0","1","null","6","null","6","null","6","1021.62","1","41.627894","15.907547"],
    [782,"2024-02-02 13:00:00","20","manfredonia_liceo","14.84","1","55.76","1","0.0","1","null","6","null","6","null","6","1021.34","1","41.627894","15.907547"],
    [783,"2024-02-02 14:00:00","20","manfredonia_liceo","15.74","1","51.87","1","0.0","1","null","6","null","6","null","6","1020.92","1","41.627894","15.907547"],
    [784,"2024-02-02 15:00:00","20","manfredonia_liceo","17.44","1","49.7","1","0.0","1","null","6","null","6","null","6","1020.85","1","41.627894","15.907547"],
    [785,"2024-02-02 16:00:00","20","manfredonia_liceo","17.47","1","47.51","1","0.0","1","null","6","null","6","null","6","1020.85","1","41.627894","15.907547"],
    [786,"2024-02-02 17:00:00","20","manfredonia_liceo","16.84","1","46.74","1","0.0","1","null","6","null","6","null","6","1020.87","1","41.627894","15.907547"],
    [787,"2024-02-02 18:00:00","20","manfredonia_liceo","12.8","1","58.24","1","0.0","1","null","6","null","6","null","6","1021.33","1","41.627894","15.907547"],
    [788,"2024-02-02 19:00:00","20","manfredonia_liceo","11.7","1","62.85","1","0.0","1","null","6","null","6","null","6","1021.5","1","41.627894","15.907547"],
    [789,"2024-02-02 20:00:00","20","manfredonia_liceo","11.41","1","59.64","1","0.0","1","null","6","null","6","null","6","1021.65","1","41.627894","15.907547"],
    [790,"2024-02-02 21:00:00","20","manfredonia_liceo","11.99","1","58.52","1","0.0","1","null","6","null","6","null","6","1021.67","1","41.627894","15.907547"],
    [791,"2024-02-02 22:00:00","20","manfredonia_liceo","11.95","1","60.81","1","0.0","1","null","6","null","6","null","6","1021.61","1","41.627894","15.907547"],
    [792,"2024-02-02 23:00:00","20","manfredonia_liceo","11.15","1","66.09","1","0.0","1","null","6","null","6","null","6","1021.9","1","41.627894","15.907547"],
    [793,"2024-02-03 00:00:00","20","manfredonia_liceo","9.37","1","76.03","1","0.0","1","null","6","null","6","null","6","1022.3","1","41.627894","15.907547"],
    [794,"2024-02-03 01:00:00","20","manfredonia_liceo","8.03","1","80.52","1","0.0","1","null","6","null","6","null","6","1022.21","1","41.627894","15.907547"],
    [795,"2024-02-03 02:00:00","20","manfredonia_liceo","7.89","1","74.39","1","0.0","1","null","6","null","6","null","6","1021.97","1","41.627894","15.907547"],
    [796,"2024-02-03 03:00:00","20","manfredonia_liceo","8.49","1","71.64","1","0.0","1","null","6","null","6","null","6","1021.83","1","41.627894","15.907547"],
    [797,"2024-02-03 04:00:00","20","manfredonia_liceo","8.3","1","77.35","1","0.0","1","null","6","null","6","null","6","1021.6","1","41.627894","15.907547"],
    [798,"2024-02-03 05:00:00","20","manfredonia_liceo","7.83","1","80.61","1","0.0","1","null","6","null","6","null","6","1021.52","1","41.627894","15.907547"],
    [799,"2024-02-03 06:00:00","20","manfredonia_liceo","7.59","1","82.05","1","0.0","1","null","6","null","6","null","6","1021.61","1","41.627894","15.907547"],
    [800,"2024-02-03 07:00:00","20","manfredonia_liceo","6.98","1","84.27","1","0.0","1","null","6","null","6","null","6","1021.28","1","41.627894","15.907547"],
    [801,"2024-02-03 08:00:00","20","manfredonia_liceo","7.04","1","83.9","1","0.0","1","null","6","null","6","null","6","1021.24","1","41.627894","15.907547"],
    [802,"2024-02-03 09:00:00","20","manfredonia_liceo","7.29","1","86.67","1","0.0","1","null","6","null","6","null","6","1021.61","1","41.627894","15.907547"],
    [803,"2024-02-03 10:00:00","20","manfredonia_liceo","9.83","1","78.32","1","0.0","1","null","6","null","6","null","6","1021.61","1","41.627894","15.907547"],
    [804,"2024-02-03 11:00:00","20","manfredonia_liceo","14.28","1","61.5","1","0.0","1","null","6","null","6","null","6","1021.61","1","41.627894","15.907547"],
    [805,"2024-02-03 12:00:00","20","manfredonia_liceo","14.85","1","55.92","1","0.0","1","null","6","null","6","null","6","1021.27","1","41.627894","15.907547"],
    [806,"2024-02-03 13:00:00","20","manfredonia_liceo","17.46","1","42.23","1","0.0","1","null","6","null","6","null","6","1020.8","1","41.627894","15.907547"],
    [807,"2024-02-03 14:00:00","20","manfredonia_liceo","20.51","1","41.97","1","0.0","1","null","6","null","6","null","6","1020.12","1","41.627894","15.907547"],
    [808,"2024-02-03 15:00:00","20","manfredonia_liceo","20.08","1","44.01","1","0.0","1","null","6","null","6","null","6","1019.52","1","41.627894","15.907547"],
    [809,"2024-02-03 16:00:00","20","manfredonia_liceo","20.58","1","37.0","1","0.0","1","null","6","null","6","null","6","1019.09","1","41.627894","15.907547"],
    [810,"2024-02-03 17:00:00","20","manfredonia_liceo","20.19","1","39.02","1","0.0","1","null","6","null","6","null","6","1018.83","1","41.627894","15.907547"],
    [811,"2024-02-03 18:00:00","20","manfredonia_liceo","14.42","1","51.33","1","0.0","1","null","6","null","6","null","6","1018.82","1","41.627894","15.907547"],
    [812,"2024-02-03 19:00:00","20","manfredonia_liceo","11.34","1","62.73","1","0.0","1","null","6","null","6","null","6","1019.05","1","41.627894","15.907547"],
    [813,"2024-02-03 20:00:00","20","manfredonia_liceo","10.17","1","66.57","1","0.0","1","null","6","null","6","null","6","1019.05","1","41.627894","15.907547"],
    [814,"2024-02-03 21:00:00","20","manfredonia_liceo","9.16","1","67.55","1","0.0","1","null","6","null","6","null","6","1019.43","1","41.627894","15.907547"],
    [815,"2024-02-03 22:00:00","20","manfredonia_liceo","8.31","1","68.78","1","0.0","1","null","6","null","6","null","6","1019.71","1","41.627894","15.907547"],
    [816,"2024-02-03 23:00:00","20","manfredonia_liceo","8.09","1","67.98","1","0.0","1","null","6","null","6","null","6","1019.41","1","41.627894","15.907547"],
    [817,"2024-02-04 00:00:00","20","manfredonia_liceo","7.46","1","70.21","1","0.0","1","null","6","null","6","null","6","1019.41","1","41.627894","15.907547"],
    [818,"2024-02-04 01:00:00","20","manfredonia_liceo","6.81","1","72.99","1","0.0","1","null","6","null","6","null","6","1019.2","1","41.627894","15.907547"],
    [819,"2024-02-04 02:00:00","20","manfredonia_liceo","6.35","1","72.71","1","0.0","1","null","6","null","6","null","6","1018.97","1","41.627894","15.907547"],
    [820,"2024-02-04 03:00:00","20","manfredonia_liceo","6.09","1","72.43","1","0.0","1","null","6","null","6","null","6","1018.88","1","41.627894","15.907547"],
    [821,"2024-02-04 04:00:00","20","manfredonia_liceo","5.92","1","72.37","1","0.0","1","null","6","null","6","null","6","1018.56","1","41.627894","15.907547"],
    [822,"2024-02-04 05:00:00","20","manfredonia_liceo","5.52","1","74.28","1","0.0","1","null","6","null","6","null","6","1018.19","1","41.627894","15.907547"],
    [823,"2024-02-04 06:00:00","20","manfredonia_liceo","5.04","1","77.88","1","0.0","1","null","6","null","6","null","6","1017.92","1","41.627894","15.907547"],
    [824,"2024-02-04 07:00:00","20","manfredonia_liceo","5.55","1","73.67","1","0.0","1","null","6","null","6","null","6","1017.88","1","41.627894","15.907547"],
    [825,"2024-02-04 08:00:00","20","manfredonia_liceo","5.48","1","75.06","1","0.0","1","null","6","null","6","null","6","1017.85","1","41.627894","15.907547"],
    [826,"2024-02-04 09:00:00","20","manfredonia_liceo","8.18","1","67.28","1","0.0","1","null","6","null","6","null","6","1017.95","1","41.627894","15.907547"],
    [827,"2024-02-04 10:00:00","20","manfredonia_liceo","11.72","1","64.7","1","0.0","1","null","6","null","6","null","6","1018.19","1","41.627894","15.907547"],
    [828,"2024-02-04 11:00:00","20","manfredonia_liceo","15.07","1","62.04","1","0.0","1","null","6","null","6","null","6","1018.91","1","41.627894","15.907547"],
    [829,"2024-02-04 12:00:00","20","manfredonia_liceo","15.16","1","58.33","1","0.0","1","null","6","null","6","null","6","1019.19","1","41.627894","15.907547"],
    [830,"2024-02-04 13:00:00","20","manfredonia_liceo","17.11","1","45.24","1","0.0","1","null","6","null","6","null","6","1018.97","1","41.627894","15.907547"],
    [831,"2024-02-04 14:00:00","20","manfredonia_liceo","21.85","1","36.95","1","0.0","1","null","6","null","6","null","6","1018.16","1","41.627894","15.907547"],
    [832,"2024-02-04 15:00:00","20","manfredonia_liceo","20.14","1","39.85","1","0.0","1","null","6","null","6","null","6","1017.48","1","41.627894","15.907547"],
    [833,"2024-02-04 16:00:00","20","manfredonia_liceo","19.65","1","39.55","1","0.0","1","null","6","null","6","null","6","1017.22","1","41.627894","15.907547"],
    [834,"2024-02-04 17:00:00","20","manfredonia_liceo","17.61","1","52.08","1","0.0","1","null","6","null","6","null","6","1017.56","1","41.627894","15.907547"],
    [835,"2024-02-04 18:00:00","20","manfredonia_liceo","13.12","1","68.63","1","0.0","1","null","6","null","6","null","6","1017.99","1","41.627894","15.907547"],
    [836,"2024-02-04 19:00:00","20","manfredonia_liceo","11.56","1","74.62","1","0.0","1","null","6","null","6","null","6","1018.51","1","41.627894","15.907547"],
    [837,"2024-02-04 20:00:00","20","manfredonia_liceo","9.96","1","75.5","1","0.0","1","null","6","null","6","null","6","1018.83","1","41.627894","15.907547"],
    [838,"2024-02-04 21:00:00","20","manfredonia_liceo","9.09","1","78.89","1","0.0","1","null","6","null","6","null","6","1019.04","1","41.627894","15.907547"],
    [839,"2024-02-04 22:00:00","20","manfredonia_liceo","8.46","1","79.52","1","0.0","1","null","6","null","6","null","6","1019.09","1","41.627894","15.907547"],
    [840,"2024-02-04 23:00:00","20","manfredonia_liceo","8.17","1","78.36","1","0.0","1","null","6","null","6","null","6","1019.05","1","41.627894","15.907547"],
    [841,"2024-02-05 00:00:00","20","manfredonia_liceo","7.89","1","78.04","1","0.0","1","null","6","null","6","null","6","1018.97","1","41.627894","15.907547"],
    [842,"2024-02-05 01:00:00","20","manfredonia_liceo","7.03","1","81.65","1","0.0","1","null","6","null","6","null","6","1018.92","1","41.627894","15.907547"],
    [843,"2024-02-05 02:00:00","20","manfredonia_liceo","7.0","1","82.77","1","0.0","1","null","6","null","6","null","6","1018.65","1","41.627894","15.907547"],
    [844,"2024-02-05 03:00:00","20","manfredonia_liceo","6.83","1","84.32","1","0.0","1","null","6","null","6","null","6","1018.48","1","41.627894","15.907547"],
    [845,"2024-02-05 04:00:00","20","manfredonia_liceo","7.11","1","82.68","1","0.0","1","null","6","null","6","null","6","1018.27","1","41.627894","15.907547"],
    [846,"2024-02-05 05:00:00","20","manfredonia_liceo","6.45","1","85.35","1","0.0","1","null","6","null","6","null","6","1018.16","1","41.627894","15.907547"],
    [847,"2024-02-05 06:00:00","20","manfredonia_liceo","6.47","1","85.8","1","0.0","1","null","6","null","6","null","6","1017.95","1","41.627894","15.907547"],
    [848,"2024-02-05 07:00:00","20","manfredonia_liceo","5.63","1","85.66","1","0.0","1","null","6","null","6","null","6","1017.95","1","41.627894","15.907547"],
    [849,"2024-02-05 08:00:00","20","manfredonia_liceo","5.53","1","86.05","1","0.0","1","null","6","null","6","null","6","1018.21","1","41.627894","15.907547"],
    [850,"2024-02-05 09:00:00","20","manfredonia_liceo","7.87","1","82.71","1","0.0","1","null","6","null","6","null","6","1018.24","1","41.627894","15.907547"],
    [851,"2024-02-05 10:00:00","20","manfredonia_liceo","12.55","1","74.37","1","0.0","1","null","6","null","6","null","6","1018.56","1","41.627894","15.907547"],
    [852,"2024-02-05 11:00:00","20","manfredonia_liceo","15.1","1","64.87","1","0.0","1","null","6","null","6","null","6","1018.69","1","41.627894","15.907547"],
    [853,"2024-02-05 12:00:00","20","manfredonia_liceo","16.22","1","56.46","1","0.0","1","null","6","null","6","null","6","1018.61","1","41.627894","15.907547"],
    [854,"2024-02-05 13:00:00","20","manfredonia_liceo","18.88","1","47.93","1","0.0","1","null","6","null","6","null","6","1018.16","1","41.627894","15.907547"],
    [855,"2024-02-05 14:00:00","20","manfredonia_liceo","21.44","1","41.96","1","0.0","1","null","6","null","6","null","6","1017.61","1","41.627894","15.907547"],
    [856,"2024-02-05 15:00:00","20","manfredonia_liceo","22.28","1","41.85","1","0.0","1","null","6","null","6","null","6","1017.13","1","41.627894","15.907547"],
    [857,"2024-02-05 16:00:00","20","manfredonia_liceo","18.58","1","57.92","1","0.0","1","null","6","null","6","null","6","1017.23","1","41.627894","15.907547"],
    [858,"2024-02-05 17:00:00","20","manfredonia_liceo","16.5","1","55.24","1","0.0","1","null","6","null","6","null","6","1017.3","1","41.627894","15.907547"],
    [859,"2024-02-05 18:00:00","20","manfredonia_liceo","13.35","1","67.03","1","0.0","1","null","6","null","6","null","6","1017.72","1","41.627894","15.907547"],
    [860,"2024-02-05 19:00:00","20","manfredonia_liceo","12.58","1","70.13","1","0.0","1","null","6","null","6","null","6","1018.27","1","41.627894","15.907547"],
    [861,"2024-02-05 20:00:00","20","manfredonia_liceo","12.35","1","74.63","1","0.0","1","null","6","null","6","null","6","1018.32","1","41.627894","15.907547"],
    [862,"2024-02-05 21:00:00","20","manfredonia_liceo","10.39","1","78.63","1","0.0","1","null","6","null","6","null","6","1018.65","1","41.627894","15.907547"],
    [863,"2024-02-05 22:00:00","20","manfredonia_liceo","9.36","1","82.77","1","0.0","1","null","6","null","6","null","6","1018.68","1","41.627894","15.907547"],
    [864,"2024-02-05 23:00:00","20","manfredonia_liceo","9.05","1","83.46","1","0.0","1","null","6","null","6","null","6","1018.68","1","41.627894","15.907547"],
    [865,"2024-02-06 00:00:00","20","manfredonia_liceo","8.72","1","84.88","1","0.0","1","null","6","null","6","null","6","1018.64","1","41.627894","15.907547"],
    [866,"2024-02-06 01:00:00","20","manfredonia_liceo","8.73","1","83.11","1","0.0","1","null","6","null","6","null","6","1018.68","1","41.627894","15.907547"],
    [867,"2024-02-06 02:00:00","20","manfredonia_liceo","9.06","1","79.47","1","0.0","1","null","6","null","6","null","6","1018.64","1","41.627894","15.907547"],
    [868,"2024-02-06 03:00:00","20","manfredonia_liceo","7.38","1","84.45","1","0.0","1","null","6","null","6","null","6","1018.49","1","41.627894","15.907547"],
    [869,"2024-02-06 04:00:00","20","manfredonia_liceo","6.0","1","88.95","1","0.0","1","null","6","null","6","null","6","1018.04","1","41.627894","15.907547"],
    [870,"2024-02-06 05:00:00","20","manfredonia_liceo","5.62","1","89.3","1","0.0","1","null","6","null","6","null","6","1017.95","1","41.627894","15.907547"],
    [871,"2024-02-06 06:00:00","20","manfredonia_liceo","5.5","1","88.25","1","0.0","1","null","6","null","6","null","6","1017.66","1","41.627894","15.907547"],
    [872,"2024-02-06 07:00:00","20","manfredonia_liceo","5.28","1","88.26","1","0.0","1","null","6","null","6","null","6","1017.58","1","41.627894","15.907547"],
    [873,"2024-02-06 08:00:00","20","manfredonia_liceo","5.61","1","88.35","1","0.0","1","null","6","null","6","null","6","1017.61","1","41.627894","15.907547"],
    [874,"2024-02-06 09:00:00","20","manfredonia_liceo","7.81","1","88.67","1","0.0","1","null","6","null","6","null","6","1017.73","1","41.627894","15.907547"],
    [875,"2024-02-06 10:00:00","20","manfredonia_liceo","11.64","1","81.47","1","0.0","1","null","6","null","6","null","6","1017.95","1","41.627894","15.907547"],
    [876,"2024-02-06 11:00:00","20","manfredonia_liceo","16.12","1","66.14","1","0.0","1","null","6","null","6","null","6","1018.2","1","41.627894","15.907547"],
    [877,"2024-02-06 12:00:00","20","manfredonia_liceo","15.65","1","64.87","1","0.0","1","null","6","null","6","null","6","1018.0","1","41.627894","15.907547"],
    [878,"2024-02-06 13:00:00","20","manfredonia_liceo","15.5","1","68.31","1","0.0","1","null","6","null","6","null","6","1017.19","1","41.627894","15.907547"],
    [879,"2024-02-06 14:00:00","20","manfredonia_liceo","17.28","1","65.01","1","0.0","1","null","6","null","6","null","6","1016.58","1","41.627894","15.907547"],
    [880,"2024-02-06 15:00:00","20","manfredonia_liceo","16.15","1","66.32","1","0.0","1","null","6","null","6","null","6","1016.12","1","41.627894","15.907547"],
    [881,"2024-02-06 16:00:00","20","manfredonia_liceo","15.23","1","70.89","1","0.0","1","null","6","null","6","null","6","1016.04","1","41.627894","15.907547"],
    [882,"2024-02-06 17:00:00","20","manfredonia_liceo","14.22","1","78.3","1","0.0","1","null","6","null","6","null","6","1015.75","1","41.627894","15.907547"],
    [883,"2024-02-06 18:00:00","20","manfredonia_liceo","12.06","1","88.09","1","0.0","1","null","6","null","6","null","6","1015.84","1","41.627894","15.907547"],
    [884,"2024-02-06 19:00:00","20","manfredonia_liceo","10.84","1","94.45","1","0.0","1","null","6","null","6","null","6","1016.38","1","41.627894","15.907547"],
    [885,"2024-02-06 20:00:00","20","manfredonia_liceo","9.47","1","97.82","1","0.0","1","null","6","null","6","null","6","1016.43","1","41.627894","15.907547"],
    [886,"2024-02-06 21:00:00","20","manfredonia_liceo","9.23","1","99.98","1","0.0","1","null","6","null","6","null","6","1016.39","1","41.627894","15.907547"],
    [887,"2024-02-06 22:00:00","20","manfredonia_liceo","9.21","1","100.0","1","0.0","1","null","6","null","6","null","6","1015.99","1","41.627894","15.907547"],
    [888,"2024-02-06 23:00:00","20","manfredonia_liceo","8.57","1","100.0","1","0.0","1","null","6","null","6","null","6","1015.58","1","41.627894","15.907547"],
    [889,"2024-02-07 00:00:00","20","manfredonia_liceo","8.25","1","99.65","1","0.0","1","null","6","null","6","null","6","1015.06","1","41.627894","15.907547"],
    [890,"2024-02-07 01:00:00","20","manfredonia_liceo","8.36","1","94.64","1","0.0","1","null","6","null","6","null","6","1014.55","1","41.627894","15.907547"],
    [891,"2024-02-07 02:00:00","20","manfredonia_liceo","8.25","1","90.49","1","0.0","1","null","6","null","6","null","6","1013.94","1","41.627894","15.907547"],
    [892,"2024-02-07 03:00:00","20","manfredonia_liceo","8.33","1","88.99","1","0.0","1","null","6","null","6","null","6","1013.38","1","41.627894","15.907547"],
    [893,"2024-02-07 04:00:00","20","manfredonia_liceo","7.23","1","93.46","1","0.0","1","null","6","null","6","null","6","1012.73","1","41.627894","15.907547"],
    [894,"2024-02-07 05:00:00","20","manfredonia_liceo","7.65","1","94.59","1","0.0","1","null","6","null","6","null","6","1012.09","1","41.627894","15.907547"],
    [895,"2024-02-07 06:00:00","20","manfredonia_liceo","8.18","1","91.64","1","0.0","1","null","6","null","6","null","6","1011.76","1","41.627894","15.907547"],
    [896,"2024-02-07 07:00:00","20","manfredonia_liceo","7.51","1","93.95","1","0.0","1","null","6","null","6","null","6","1011.44","1","41.627894","15.907547"],
    [897,"2024-02-07 08:00:00","20","manfredonia_liceo","7.22","1","95.8","1","0.0","1","null","6","null","6","null","6","1011.48","1","41.627894","15.907547"],
    [898,"2024-02-07 09:00:00","20","manfredonia_liceo","8.19","1","92.15","1","0.0","1","null","6","null","6","null","6","1011.36","1","41.627894","15.907547"],
    [899,"2024-02-07 10:00:00","20","manfredonia_liceo","11.13","1","82.27","1","0.0","1","null","6","null","6","null","6","1011.06","1","41.627894","15.907547"],
    [900,"2024-02-07 11:00:00","20","manfredonia_liceo","13.27","1","75.13","1","0.0","1","null","6","null","6","null","6","1010.95","1","41.627894","15.907547"],
    [901,"2024-02-07 12:00:00","20","manfredonia_liceo","14.5","1","60.38","1","0.0","1","null","6","null","6","null","6","1010.39","1","41.627894","15.907547"],
    [902,"2024-02-07 13:00:00","20","manfredonia_liceo","16.09","1","55.58","1","0.0","1","null","6","null","6","null","6","1009.53","1","41.627894","15.907547"],
    [903,"2024-02-07 14:00:00","20","manfredonia_liceo","17.01","1","52.56","1","0.0","1","null","6","null","6","null","6","1008.78","1","41.627894","15.907547"],
    [904,"2024-02-07 15:00:00","20","manfredonia_liceo","18.14","1","49.43","1","0.0","1","null","6","null","6","null","6","1008.15","1","41.627894","15.907547"],
    [905,"2024-02-07 16:00:00","20","manfredonia_liceo","14.2","1","71.79","1","0.0","1","null","6","null","6","null","6","1008.05","1","41.627894","15.907547"],
    [906,"2024-02-07 17:00:00","20","manfredonia_liceo","13.59","1","73.0","1","0.0","1","null","6","null","6","null","6","1007.7","1","41.627894","15.907547"],
    [907,"2024-02-07 18:00:00","20","manfredonia_liceo","12.18","1","76.4","1","0.0","1","null","6","null","6","null","6","1007.69","1","41.627894","15.907547"],
    [908,"2024-02-07 19:00:00","20","manfredonia_liceo","10.34","1","80.38","1","0.0","1","null","6","null","6","null","6","1007.7","1","41.627894","15.907547"],
    [909,"2024-02-07 20:00:00","20","manfredonia_liceo","9.81","1","81.6","1","0.0","1","null","6","null","6","null","6","1007.7","1","41.627894","15.907547"],
    [910,"2024-02-07 21:00:00","20","manfredonia_liceo","9.28","1","82.34","1","0.0","1","null","6","null","6","null","6","1007.59","1","41.627894","15.907547"],
    [911,"2024-02-07 22:00:00","20","manfredonia_liceo","8.67","1","83.15","1","0.0","1","null","6","null","6","null","6","1007.33","1","41.627894","15.907547"],
    [912,"2024-02-07 23:00:00","20","manfredonia_liceo","8.55","1","83.26","1","0.0","1","null","6","null","6","null","6","1007.23","1","41.627894","15.907547"],
    [913,"2024-02-08 00:00:00","20","manfredonia_liceo","7.76","1","85.57","1","0.0","1","null","6","null","6","null","6","1007.02","1","41.627894","15.907547"],
    [914,"2024-02-08 01:00:00","20","manfredonia_liceo","6.93","1","89.1","1","0.0","1","null","6","null","6","null","6","1006.96","1","41.627894","15.907547"],
    [915,"2024-02-08 02:00:00","20","manfredonia_liceo","6.68","1","89.67","1","0.0","1","null","6","null","6","null","6","1006.87","1","41.627894","15.907547"],
    [916,"2024-02-08 03:00:00","20","manfredonia_liceo","7.81","1","88.21","1","0.0","1","null","6","null","6","null","6","1006.58","1","41.627894","15.907547"],
    [917,"2024-02-08 04:00:00","20","manfredonia_liceo","7.04","1","88.56","1","0.0","1","null","6","null","6","null","6","1006.05","1","41.627894","15.907547"],
    [918,"2024-02-08 05:00:00","20","manfredonia_liceo","5.97","1","92.32","1","0.0","1","null","6","null","6","null","6","1005.57","1","41.627894","15.907547"],
    [919,"2024-02-08 06:00:00","20","manfredonia_liceo","5.56","1","95.68","1","0.0","1","null","6","null","6","null","6","1005.49","1","41.627894","15.907547"],
    [920,"2024-02-08 07:00:00","20","manfredonia_liceo","6.54","1","91.75","1","0.0","1","null","6","null","6","null","6","1005.51","1","41.627894","15.907547"],
    [921,"2024-02-08 08:00:00","20","manfredonia_liceo","7.13","1","90.39","1","0.0","1","null","6","null","6","null","6","1006.0","1","41.627894","15.907547"],
    [922,"2024-02-08 09:00:00","20","manfredonia_liceo","8.49","1","89.91","1","0.0","1","null","6","null","6","null","6","1006.44","1","41.627894","15.907547"],
    [923,"2024-02-08 10:00:00","20","manfredonia_liceo","12.94","1","76.03","1","0.0","1","null","6","null","6","null","6","1006.59","1","41.627894","15.907547"],
    [924,"2024-02-08 11:00:00","20","manfredonia_liceo","16.48","1","61.05","1","0.0","1","null","6","null","6","null","6","1006.91","1","41.627894","15.907547"],
    [925,"2024-02-08 12:00:00","20","manfredonia_liceo","16.71","1","54.73","1","0.0","1","null","6","null","6","null","6","1006.96","1","41.627894","15.907547"],
    [926,"2024-02-08 13:00:00","20","manfredonia_liceo","18.96","1","44.8","1","0.0","1","null","6","null","6","null","6","1006.3","1","41.627894","15.907547"],
    [927,"2024-02-08 14:00:00","20","manfredonia_liceo","20.49","1","37.5","1","0.0","1","null","6","null","6","null","6","1005.73","1","41.627894","15.907547"],
    [928,"2024-02-08 15:00:00","20","manfredonia_liceo","19.98","1","45.53","1","0.0","1","null","6","null","6","null","6","1005.56","1","41.627894","15.907547"],
    [929,"2024-02-08 16:00:00","20","manfredonia_liceo","17.7","1","55.9","1","0.0","1","null","6","null","6","null","6","1005.86","1","41.627894","15.907547"],
    [930,"2024-02-08 17:00:00","20","manfredonia_liceo","16.84","1","59.04","1","0.0","1","null","6","null","6","null","6","1005.86","1","41.627894","15.907547"],
    [931,"2024-02-08 18:00:00","20","manfredonia_liceo","13.05","1","77.01","1","0.0","1","null","6","null","6","null","6","1005.87","1","41.627894","15.907547"],
    [932,"2024-02-08 19:00:00","20","manfredonia_liceo","11.9","1","80.65","1","0.0","1","null","6","null","6","null","6","1006.41","1","41.627894","15.907547"],
    [933,"2024-02-08 20:00:00","20","manfredonia_liceo","10.56","1","80.27","1","0.0","1","null","6","null","6","null","6","1006.59","1","41.627894","15.907547"],
    [934,"2024-02-08 21:00:00","20","manfredonia_liceo","9.76","1","78.75","1","0.0","1","null","6","null","6","null","6","1006.59","1","41.627894","15.907547"],
    [935,"2024-02-08 22:00:00","20","manfredonia_liceo","9.4","1","80.45","1","0.0","1","null","6","null","6","null","6","1006.59","1","41.627894","15.907547"],
    [936,"2024-02-08 23:00:00","20","manfredonia_liceo","9.74","1","80.31","1","0.0","1","null","6","null","6","null","6","1006.59","1","41.627894","15.907547"],
    [937,"2024-02-09 00:00:00","20","manfredonia_liceo","9.44","1","81.5","1","0.0","1","null","6","null","6","null","6","1006.59","1","41.627894","15.907547"],
    [938,"2024-02-09 01:00:00","20","manfredonia_liceo","9.76","1","79.91","1","0.0","1","null","6","null","6","null","6","1006.25","1","41.627894","15.907547"],
    [939,"2024-02-09 02:00:00","20","manfredonia_liceo","8.99","1","82.69","1","0.0","1","null","6","null","6","null","6","1005.86","1","41.627894","15.907547"],
    [940,"2024-02-09 03:00:00","20","manfredonia_liceo","9.06","1","82.96","1","0.0","1","null","6","null","6","null","6","1005.7","1","41.627894","15.907547"],
    [941,"2024-02-09 04:00:00","20","manfredonia_liceo","8.8","1","82.51","1","0.0","1","null","6","null","6","null","6","1005.23","1","41.627894","15.907547"],
    [942,"2024-02-09 05:00:00","20","manfredonia_liceo","8.47","1","81.96","1","0.0","1","null","6","null","6","null","6","1004.78","1","41.627894","15.907547"],
    [943,"2024-02-09 06:00:00","20","manfredonia_liceo","6.93","1","84.28","1","0.0","1","null","6","null","6","null","6","1004.76","1","41.627894","15.907547"],
    [944,"2024-02-09 07:00:00","20","manfredonia_liceo","6.25","1","85.16","1","0.0","1","null","6","null","6","null","6","1004.56","1","41.627894","15.907547"],
    [945,"2024-02-09 08:00:00","20","manfredonia_liceo","7.3","1","83.84","1","0.0","1","null","6","null","6","null","6","1004.4","1","41.627894","15.907547"],
    [946,"2024-02-09 09:00:00","20","manfredonia_liceo","10.31","1","73.13","1","0.0","1","null","6","null","6","null","6","1004.7","1","41.627894","15.907547"],
    [947,"2024-02-09 10:00:00","20","manfredonia_liceo","12.56","1","69.87","1","0.0","1","null","6","null","6","null","6","1004.76","1","41.627894","15.907547"],
    [948,"2024-02-09 11:00:00","20","manfredonia_liceo","15.33","1","62.03","1","0.0","1","null","6","null","6","null","6","1004.49","1","41.627894","15.907547"],
    [949,"2024-02-09 12:00:00","20","manfredonia_liceo","16.41","1","61.17","1","0.0","1","null","6","null","6","null","6","1004.24","1","41.627894","15.907547"],
    [950,"2024-02-09 13:00:00","20","manfredonia_liceo","18.6","1","55.64","1","0.0","1","null","6","null","6","null","6","1003.21","1","41.627894","15.907547"],
    [951,"2024-02-09 14:00:00","20","manfredonia_liceo","17.91","1","57.75","1","0.0","1","null","6","null","6","null","6","1002.35","1","41.627894","15.907547"],
    [952,"2024-02-09 15:00:00","20","manfredonia_liceo","20.1","1","49.17","1","0.0","1","null","6","null","6","null","6","1001.7","1","41.627894","15.907547"],
    [953,"2024-02-09 16:00:00","20","manfredonia_liceo","20.28","1","47.07","1","0.0","1","null","6","null","6","null","6","1001.29","1","41.627894","15.907547"],
    [954,"2024-02-09 17:00:00","20","manfredonia_liceo","17.61","1","50.19","1","0.0","1","null","6","null","6","null","6","1000.75","1","41.627894","15.907547"],
    [955,"2024-02-09 18:00:00","20","manfredonia_liceo","16.49","1","51.53","1","0.0","1","null","6","null","6","null","6","1000.37","1","41.627894","15.907547"],
    [956,"2024-02-09 19:00:00","20","manfredonia_liceo","15.77","1","51.54","1","0.0","1","null","6","null","6","null","6","1000.37","1","41.627894","15.907547"],
    [957,"2024-02-09 20:00:00","20","manfredonia_liceo","15.21","1","50.96","1","0.0","1","null","6","null","6","null","6","1000.39","1","41.627894","15.907547"],
    [958,"2024-02-09 21:00:00","20","manfredonia_liceo","14.7","1","55.98","1","0.0","1","null","6","null","6","null","6","1000.37","1","41.627894","15.907547"],
    [959,"2024-02-09 22:00:00","20","manfredonia_liceo","13.37","1","61.94","1","0.0","1","null","6","null","6","null","6","1000.6","1","41.627894","15.907547"],
    [960,"2024-02-09 23:00:00","20","manfredonia_liceo","13.04","1","62.35","1","0.0","1","null","6","null","6","null","6","1000.12","1","41.627894","15.907547"],
    [961,"2024-02-10 00:00:00","20","manfredonia_liceo","12.79","1","65.25","1","0.0","1","null","6","null","6","null","6","999.84","1","41.627894","15.907547"],
    [962,"2024-02-10 01:00:00","20","manfredonia_liceo","12.58","1","67.49","1","0.0","1","null","6","null","6","null","6","999.62","1","41.627894","15.907547"],
    [963,"2024-02-10 02:00:00","20","manfredonia_liceo","12.85","1","67.98","1","0.0","1","null","6","null","6","null","6","998.8","1","41.627894","15.907547"],
    [964,"2024-02-10 03:00:00","20","manfredonia_liceo","12.63","1","85.78","1","0.0","1","null","6","null","6","null","6","998.55","1","41.627894","15.907547"],
    [965,"2024-02-10 04:00:00","20","manfredonia_liceo","12.62","1","89.02","1","0.0","1","null","6","null","6","null","6","997.82","1","41.627894","15.907547"],
    [966,"2024-02-10 05:00:00","20","manfredonia_liceo","12.73","1","87.26","1","0.0","1","null","6","null","6","null","6","997.59","1","41.627894","15.907547"],
    [967,"2024-02-10 06:00:00","20","manfredonia_liceo","12.9","1","83.43","1","0.0","1","null","6","null","6","null","6","997.26","1","41.627894","15.907547"],
    [968,"2024-02-10 07:00:00","20","manfredonia_liceo","13.4","1","76.64","1","0.0","1","null","6","null","6","null","6","996.59","1","41.627894","15.907547"],
    [969,"2024-02-10 08:00:00","20","manfredonia_liceo","13.61","1","72.84","1","0.0","1","null","6","null","6","null","6","996.38","1","41.627894","15.907547"],
    [970,"2024-02-10 09:00:00","20","manfredonia_liceo","14.08","1","68.5","1","0.0","1","null","6","null","6","null","6","996.49","1","41.627894","15.907547"],
    [971,"2024-02-10 10:00:00","20","manfredonia_liceo","15.31","1","58.74","1","0.0","1","null","6","null","6","null","6","996.52","1","41.627894","15.907547"],
    [972,"2024-02-10 11:00:00","20","manfredonia_liceo","15.87","1","57.05","1","0.0","1","null","6","null","6","null","6","996.82","1","41.627894","15.907547"],
    [973,"2024-02-10 12:00:00","20","manfredonia_liceo","16.7","1","56.63","1","0.0","1","null","6","null","6","null","6","996.68","1","41.627894","15.907547"],
    [974,"2024-02-10 13:00:00","20","manfredonia_liceo","16.86","1","60.59","1","0.0","1","null","6","null","6","null","6","995.54","1","41.627894","15.907547"],
    [975,"2024-02-10 14:00:00","20","manfredonia_liceo","16.06","1","62.53","1","0.0","1","null","6","null","6","null","6","994.6","1","41.627894","15.907547"],
    [976,"2024-02-10 15:00:00","20","manfredonia_liceo","15.83","1","62.9","1","0.0","1","null","6","null","6","null","6","993.72","1","41.627894","15.907547"],
    [977,"2024-02-10 16:00:00","20","manfredonia_liceo","14.55","1","76.64","1","0.2","1","null","6","null","6","null","6","993.16","1","41.627894","15.907547"],
    [978,"2024-02-10 17:00:00","20","manfredonia_liceo","14.08","1","78.02","1","0.0","1","null","6","null","6","null","6","992.62","1","41.627894","15.907547"],
    [979,"2024-02-10 18:00:00","20","manfredonia_liceo","13.84","1","78.07","1","0.0","1","null","6","null","6","null","6","992.09","1","41.627894","15.907547"],
    [980,"2024-02-10 19:00:00","20","manfredonia_liceo","13.55","1","78.28","1","0.0","1","null","6","null","6","null","6","991.71","1","41.627894","15.907547"],
    [981,"2024-02-10 20:00:00","20","manfredonia_liceo","13.79","1","73.07","1","0.0","1","null","6","null","6","null","6","991.32","1","41.627894","15.907547"],
    [982,"2024-02-10 21:00:00","20","manfredonia_liceo","14.22","1","71.45","1","0.0","1","null","6","null","6","null","6","990.97","1","41.627894","15.907547"],
    [983,"2024-02-10 22:00:00","20","manfredonia_liceo","13.52","1","85.65","1","0.0","1","null","6","null","6","null","6","990.63","1","41.627894","15.907547"],
    [984,"2024-02-10 23:00:00","20","manfredonia_liceo","13.07","1","88.69","1","0.6","1","null","6","null","6","null","6","990.44","1","41.627894","15.907547"],
    [985,"2024-02-11 00:00:00","20","manfredonia_liceo","13.94","1","70.08","1","0.0","1","null","6","null","6","null","6","990.48","1","41.627894","15.907547"],
    [986,"2024-02-11 01:00:00","20","manfredonia_liceo","13.62","1","72.59","1","0.0","1","null","6","null","6","null","6","990.39","1","41.627894","15.907547"],
    [987,"2024-02-11 02:00:00","20","manfredonia_liceo","13.31","1","73.01","1","0.0","1","null","6","null","6","null","6","990.37","1","41.627894","15.907547"],
    [988,"2024-02-11 03:00:00","20","manfredonia_liceo","13.0","1","72.75","1","0.0","1","null","6","null","6","null","6","990.07","1","41.627894","15.907547"],
    [989,"2024-02-11 04:00:00","20","manfredonia_liceo","12.78","1","71.08","1","0.0","1","null","6","null","6","null","6","989.77","1","41.627894","15.907547"],
    [990,"2024-02-11 05:00:00","20","manfredonia_liceo","12.39","1","73.37","1","0.0","1","null","6","null","6","null","6","989.75","1","41.627894","15.907547"],
    [991,"2024-02-11 06:00:00","20","manfredonia_liceo","12.86","1","72.05","1","0.0","1","null","6","null","6","null","6","989.67","1","41.627894","15.907547"],
    [992,"2024-02-11 07:00:00","20","manfredonia_liceo","13.25","1","70.61","1","0.0","1","null","6","null","6","null","6","989.52","1","41.627894","15.907547"],
    [993,"2024-02-11 08:00:00","20","manfredonia_liceo","13.47","1","69.02","1","0.0","1","null","6","null","6","null","6","989.51","1","41.627894","15.907547"],
    [994,"2024-02-11 09:00:00","20","manfredonia_liceo","13.51","1","69.04","1","0.0","1","null","6","null","6","null","6","990.2","1","41.627894","15.907547"],
    [995,"2024-02-11 10:00:00","20","manfredonia_liceo","14.46","1","68.61","1","0.0","1","null","6","null","6","null","6","990.66","1","41.627894","15.907547"],
    [996,"2024-02-11 11:00:00","20","manfredonia_liceo","14.66","1","71.1","1","0.0","1","null","6","null","6","null","6","991.31","1","41.627894","15.907547"],
    [997,"2024-02-11 12:00:00","20","manfredonia_liceo","13.73","1","75.93","1","2.2","1","null","6","null","6","null","6","992.04","1","41.627894","15.907547"],
    [998,"2024-02-11 13:00:00","20","manfredonia_liceo","12.44","1","93.32","1","1.4","1","null","6","null","6","null","6","991.71","1","41.627894","15.907547"],
    [999,"2024-02-11 14:00:00","20","manfredonia_liceo","12.85","1","90.52","1","0.0","1","null","6","null","6","null","6","991.57","1","41.627894","15.907547"],
    [1000,"2024-02-11 15:00:00","20","manfredonia_liceo","13.39","1","76.57","1","0.0","1","null","6","null","6","null","6","991.57","1","41.627894","15.907547"],
    [1001,"2024-02-11 16:00:00","20","manfredonia_liceo","13.1","1","72.39","1","0.0","1","null","6","null","6","null","6","991.66","1","41.627894","15.907547"],
    [1002,"2024-02-11 17:00:00","20","manfredonia_liceo","12.91","1","71.51","1","0.0","1","null","6","null","6","null","6","991.85","1","41.627894","15.907547"],
    [1003,"2024-02-11 18:00:00","20","manfredonia_liceo","12.0","1","73.42","1","0.0","1","null","6","null","6","null","6","992.14","1","41.627894","15.907547"],
    [1004,"2024-02-11 19:00:00","20","manfredonia_liceo","10.73","1","75.78","1","0.0","1","null","6","null","6","null","6","992.82","1","41.627894","15.907547"],
    [1005,"2024-02-11 20:00:00","20","manfredonia_liceo","9.87","1","78.39","1","0.0","1","null","6","null","6","null","6","992.92","1","41.627894","15.907547"],
    [1006,"2024-02-11 21:00:00","20","manfredonia_liceo","9.86","1","77.65","1","0.0","1","null","6","null","6","null","6","992.84","1","41.627894","15.907547"],
    [1007,"2024-02-11 22:00:00","20","manfredonia_liceo","9.2","1","81.63","1","0.0","1","null","6","null","6","null","6","993.6","1","41.627894","15.907547"],
    [1008,"2024-02-11 23:00:00","20","manfredonia_liceo","9.17","1","82.77","1","0.0","1","null","6","null","6","null","6","994.04","1","41.627894","15.907547"],
    [1009,"2024-02-12 00:00:00","20","manfredonia_liceo","9.19","1","82.62","1","0.0","1","null","6","null","6","null","6","994.35","1","41.627894","15.907547"],
    [1010,"2024-02-12 01:00:00","20","manfredonia_liceo","8.92","1","80.61","1","0.0","1","null","6","null","6","null","6","994.65","1","41.627894","15.907547"],
    [1011,"2024-02-12 02:00:00","20","manfredonia_liceo","9.06","1","78.77","1","0.0","1","null","6","null","6","null","6","994.71","1","41.627894","15.907547"],
    [1012,"2024-02-12 03:00:00","20","manfredonia_liceo","8.6","1","80.23","1","0.0","1","null","6","null","6","null","6","994.87","1","41.627894","15.907547"],
    [1013,"2024-02-12 04:00:00","20","manfredonia_liceo","7.84","1","82.34","1","0.0","1","null","6","null","6","null","6","994.87","1","41.627894","15.907547"],
    [1014,"2024-02-12 05:00:00","20","manfredonia_liceo","7.25","1","85.52","1","0.0","1","null","6","null","6","null","6","995.03","1","41.627894","15.907547"],
    [1015,"2024-02-12 06:00:00","20","manfredonia_liceo","7.06","1","85.07","1","0.0","1","null","6","null","6","null","6","995.24","1","41.627894","15.907547"],
    [1016,"2024-02-12 07:00:00","20","manfredonia_liceo","7.98","1","83.19","1","0.0","1","null","6","null","6","null","6","995.65","1","41.627894","15.907547"],
    [1017,"2024-02-12 08:00:00","20","manfredonia_liceo","8.76","1","81.94","1","0.0","1","null","6","null","6","null","6","996.17","1","41.627894","15.907547"],
    [1018,"2024-02-12 09:00:00","20","manfredonia_liceo","9.58","1","82.56","1","0.0","1","null","6","null","6","null","6","996.95","1","41.627894","15.907547"],
    [1019,"2024-02-12 10:00:00","20","manfredonia_liceo","11.72","1","78.18","1","0.0","1","null","6","null","6","null","6","997.68","1","41.627894","15.907547"],
    [1020,"2024-02-12 11:00:00","20","manfredonia_liceo","13.85","1","70.85","1","0.0","1","null","6","null","6","null","6","997.95","1","41.627894","15.907547"],
    [1021,"2024-02-12 12:00:00","20","manfredonia_liceo","16.34","1","59.25","1","0.0","1","null","6","null","6","null","6","998.16","1","41.627894","15.907547"],
    [1022,"2024-02-12 13:00:00","20","manfredonia_liceo","17.86","1","51.52","1","0.0","1","null","6","null","6","null","6","997.83","1","41.627894","15.907547"],
    [1023,"2024-02-12 14:00:00","20","manfredonia_liceo","16.64","1","52.33","1","0.0","1","null","6","null","6","null","6","997.8","1","41.627894","15.907547"],
    [1024,"2024-02-12 15:00:00","20","manfredonia_liceo","16.72","1","51.87","1","0.0","1","null","6","null","6","null","6","997.85","1","41.627894","15.907547"],
    [1025,"2024-02-12 16:00:00","20","manfredonia_liceo","19.62","1","45.26","1","0.0","1","null","6","null","6","null","6","998.31","1","41.627894","15.907547"],
    [1026,"2024-02-12 17:00:00","20","manfredonia_liceo","18.74","1","53.76","1","0.0","1","null","6","null","6","null","6","998.89","1","41.627894","15.907547"],
    [1027,"2024-02-12 18:00:00","20","manfredonia_liceo","13.63","1","65.21","1","0.0","1","null","6","null","6","null","6","999.63","1","41.627894","15.907547"],
    [1028,"2024-02-12 19:00:00","20","manfredonia_liceo","12.67","1","61.85","1","0.0","1","null","6","null","6","null","6","1000.38","1","41.627894","15.907547"],
    [1029,"2024-02-12 20:00:00","20","manfredonia_liceo","12.26","1","67.78","1","0.0","1","null","6","null","6","null","6","1001.2","1","41.627894","15.907547"],
    [1030,"2024-02-12 21:00:00","20","manfredonia_liceo","11.4","1","74.5","1","0.0","1","null","6","null","6","null","6","1002.08","1","41.627894","15.907547"],
    [1031,"2024-02-12 22:00:00","20","manfredonia_liceo","11.67","1","71.58","1","0.0","1","null","6","null","6","null","6","1002.56","1","41.627894","15.907547"],
    [1032,"2024-02-12 23:00:00","20","manfredonia_liceo","11.43","1","75.03","1","0.0","1","null","6","null","6","null","6","1002.73","1","41.627894","15.907547"],
    [1033,"2024-02-13 00:00:00","20","manfredonia_liceo","10.28","1","79.22","1","0.0","1","null","6","null","6","null","6","1003.17","1","41.627894","15.907547"],
    [1034,"2024-02-13 01:00:00","20","manfredonia_liceo","10.05","1","78.55","1","0.0","1","null","6","null","6","null","6","1003.55","1","41.627894","15.907547"],
    [1035,"2024-02-13 02:00:00","20","manfredonia_liceo","10.18","1","81.31","1","0.0","1","null","6","null","6","null","6","1003.7","1","41.627894","15.907547"],
    [1036,"2024-02-13 03:00:00","20","manfredonia_liceo","9.96","1","83.37","1","0.0","1","null","6","null","6","null","6","1004.02","1","41.627894","15.907547"],
    [1037,"2024-02-13 04:00:00","20","manfredonia_liceo","11.03","1","75.19","1","0.0","1","null","6","null","6","null","6","1004.32","1","41.627894","15.907547"],
    [1038,"2024-02-13 05:00:00","20","manfredonia_liceo","11.0","1","76.89","1","0.0","1","null","6","null","6","null","6","1004.66","1","41.627894","15.907547"],
    [1039,"2024-02-13 06:00:00","20","manfredonia_liceo","10.11","1","81.45","1","0.0","1","null","6","null","6","null","6","1005.11","1","41.627894","15.907547"],
    [1040,"2024-02-13 07:00:00","20","manfredonia_liceo","10.31","1","79.74","1","0.0","1","null","6","null","6","null","6","1005.49","1","41.627894","15.907547"],
    [1041,"2024-02-13 08:00:00","20","manfredonia_liceo","10.31","1","83.62","1","0.2","1","null","6","null","6","null","6","1006.62","1","41.627894","15.907547"],
    [1042,"2024-02-13 09:00:00","20","manfredonia_liceo","10.73","1","82.53","1","0.0","1","null","6","null","6","null","6","1007.54","1","41.627894","15.907547"],
    [1043,"2024-02-13 10:00:00","20","manfredonia_liceo","11.24","1","88.75","1","0.0","1","null","6","null","6","null","6","1007.74","1","41.627894","15.907547"],
    [1044,"2024-02-13 11:00:00","20","manfredonia_liceo","13.03","1","79.98","1","0.0","1","null","6","null","6","null","6","1008.08","1","41.627894","15.907547"],
    [1045,"2024-02-13 12:00:00","20","manfredonia_liceo","13.59","1","68.44","1","0.0","1","null","6","null","6","null","6","1008.42","1","41.627894","15.907547"],
    [1046,"2024-02-13 13:00:00","20","manfredonia_liceo","13.99","1","71.61","1","0.0","1","null","6","null","6","null","6","1008.21","1","41.627894","15.907547"],
    [1047,"2024-02-13 14:00:00","20","manfredonia_liceo","14.92","1","65.43","1","0.0","1","null","6","null","6","null","6","1007.8","1","41.627894","15.907547"],
    [1048,"2024-02-13 15:00:00","20","manfredonia_liceo","13.92","1","67.84","1","0.0","1","null","6","null","6","null","6","1007.89","1","41.627894","15.907547"],
    [1049,"2024-02-13 16:00:00","20","manfredonia_liceo","13.17","1","67.83","1","0.0","1","null","6","null","6","null","6","1008.65","1","41.627894","15.907547"],
    [1050,"2024-02-13 17:00:00","20","manfredonia_liceo","12.35","1","78.84","1","1.8","1","null","6","null","6","null","6","1009.27","1","41.627894","15.907547"],
    [1051,"2024-02-13 18:00:00","20","manfredonia_liceo","11.82","1","81.69","1","0.0","1","null","6","null","6","null","6","1010.06","1","41.627894","15.907547"],
    [1052,"2024-02-13 19:00:00","20","manfredonia_liceo","11.43","1","78.82","1","0.0","1","null","6","null","6","null","6","1010.96","1","41.627894","15.907547"],
    [1053,"2024-02-13 20:00:00","20","manfredonia_liceo","12.0","1","69.02","1","0.0","1","null","6","null","6","null","6","1011.47","1","41.627894","15.907547"],
    [1054,"2024-02-13 21:00:00","20","manfredonia_liceo","12.49","1","64.24","1","0.2","1","null","6","null","6","null","6","1011.73","1","41.627894","15.907547"],
    [1055,"2024-02-13 22:00:00","20","manfredonia_liceo","12.09","1","71.65","1","0.8","1","null","6","null","6","null","6","1012.23","1","41.627894","15.907547"],
    [1056,"2024-02-13 23:00:00","20","manfredonia_liceo","11.98","1","69.79","1","0.0","1","null","6","null","6","null","6","1012.59","1","41.627894","15.907547"],
    [1057,"2024-02-14 00:00:00","20","manfredonia_liceo","10.23","1","80.25","1","0.0","1","null","6","null","6","null","6","1012.99","1","41.627894","15.907547"],
    [1058,"2024-02-14 01:00:00","20","manfredonia_liceo","8.86","1","88.49","1","0.0","1","null","6","null","6","null","6","1013.46","1","41.627894","15.907547"],
    [1059,"2024-02-14 02:00:00","20","manfredonia_liceo","8.65","1","81.77","1","0.0","1","null","6","null","6","null","6","1013.72","1","41.627894","15.907547"],
    [1060,"2024-02-14 03:00:00","20","manfredonia_liceo","9.32","1","73.05","1","0.0","1","null","6","null","6","null","6","1013.92","1","41.627894","15.907547"],
    [1061,"2024-02-14 04:00:00","20","manfredonia_liceo","9.87","1","62.0","1","0.0","1","null","6","null","6","null","6","1013.92","1","41.627894","15.907547"],
    [1062,"2024-02-14 05:00:00","20","manfredonia_liceo","9.91","1","58.64","1","0.0","1","null","6","null","6","null","6","1014.33","1","41.627894","15.907547"],
    [1063,"2024-02-14 06:00:00","20","manfredonia_liceo","8.75","1","63.75","1","0.0","1","null","6","null","6","null","6","1014.98","1","41.627894","15.907547"],
    [1064,"2024-02-14 07:00:00","20","manfredonia_liceo","8.83","1","60.87","1","0.0","1","null","6","null","6","null","6","1015.35","1","41.627894","15.907547"],
    [1065,"2024-02-14 08:00:00","20","manfredonia_liceo","8.71","1","61.38","1","0.0","1","null","6","null","6","null","6","1015.87","1","41.627894","15.907547"],
    [1066,"2024-02-14 09:00:00","20","manfredonia_liceo","10.51","1","54.38","1","0.0","1","null","6","null","6","null","6","1016.13","1","41.627894","15.907547"],
    [1067,"2024-02-14 10:00:00","20","manfredonia_liceo","13.32","1","48.86","1","0.0","1","null","6","null","6","null","6","1016.31","1","41.627894","15.907547"],
    [1068,"2024-02-14 11:00:00","20","manfredonia_liceo","15.67","1","42.93","1","0.0","1","null","6","null","6","null","6","1016.68","1","41.627894","15.907547"],
    [1069,"2024-02-14 12:00:00","20","manfredonia_liceo","15.89","1","41.63","1","0.0","1","null","6","null","6","null","6","1016.6","1","41.627894","15.907547"],
    [1070,"2024-02-14 13:00:00","20","manfredonia_liceo","16.56","1","39.55","1","0.0","1","null","6","null","6","null","6","1016.09","1","41.627894","15.907547"],
    [1071,"2024-02-14 14:00:00","20","manfredonia_liceo","17.47","1","36.59","1","0.0","1","null","6","null","6","null","6","1015.66","1","41.627894","15.907547"],
    [1072,"2024-02-14 15:00:00","20","manfredonia_liceo","16.25","1","37.63","1","0.0","1","null","6","null","6","null","6","1015.26","1","41.627894","15.907547"],
    [1073,"2024-02-14 16:00:00","20","manfredonia_liceo","15.48","1","39.32","1","0.0","1","null","6","null","6","null","6","1015.01","1","41.627894","15.907547"],
    [1074,"2024-02-14 17:00:00","20","manfredonia_liceo","14.62","1","43.8","1","0.0","1","null","6","null","6","null","6","1015.23","1","41.627894","15.907547"],
    [1075,"2024-02-14 18:00:00","20","manfredonia_liceo","12.46","1","49.23","1","0.0","1","null","6","null","6","null","6","1015.71","1","41.627894","15.907547"],
    [1076,"2024-02-14 19:00:00","20","manfredonia_liceo","11.89","1","51.86","1","0.0","1","null","6","null","6","null","6","1016.03","1","41.627894","15.907547"],
    [1077,"2024-02-14 20:00:00","20","manfredonia_liceo","12.02","1","49.7","1","0.0","1","null","6","null","6","null","6","1016.69","1","41.627894","15.907547"],
    [1078,"2024-02-14 21:00:00","20","manfredonia_liceo","12.14","1","50.61","1","0.0","1","null","6","null","6","null","6","1017.33","1","41.627894","15.907547"],
    [1079,"2024-02-14 22:00:00","20","manfredonia_liceo","12.36","1","53.38","1","0.0","1","null","6","null","6","null","6","1017.42","1","41.627894","15.907547"],
    [1080,"2024-02-14 23:00:00","20","manfredonia_liceo","12.28","1","57.15","1","0.0","1","null","6","null","6","null","6","1017.45","1","41.627894","15.907547"],
    [1081,"2024-02-15 00:00:00","20","manfredonia_liceo","12.15","1","58.6","1","0.0","1","null","6","null","6","null","6","1017.45","1","41.627894","15.907547"],
    [1082,"2024-02-15 01:00:00","20","manfredonia_liceo","12.05","1","61.44","1","0.0","1","null","6","null","6","null","6","1017.16","1","41.627894","15.907547"],
    [1083,"2024-02-15 02:00:00","20","manfredonia_liceo","11.02","1","64.0","1","0.0","1","null","6","null","6","null","6","1016.92","1","41.627894","15.907547"],
    [1084,"2024-02-15 03:00:00","20","manfredonia_liceo","9.75","1","69.64","1","0.0","1","null","6","null","6","null","6","1017.02","1","41.627894","15.907547"],
    [1085,"2024-02-15 04:00:00","20","manfredonia_liceo","11.27","1","65.34","1","0.0","1","null","6","null","6","null","6","1016.49","1","41.627894","15.907547"],
    [1086,"2024-02-15 05:00:00","20","manfredonia_liceo","12.04","1","63.16","1","0.0","1","null","6","null","6","null","6","1016.75","1","41.627894","15.907547"],
    [1087,"2024-02-15 06:00:00","20","manfredonia_liceo","12.04","1","62.74","1","0.0","1","null","6","null","6","null","6","1016.91","1","41.627894","15.907547"],
    [1088,"2024-02-15 07:00:00","20","manfredonia_liceo","11.85","1","66.08","1","0.0","1","null","6","null","6","null","6","1016.86","1","41.627894","15.907547"],
    [1089,"2024-02-15 08:00:00","20","manfredonia_liceo","11.63","1","66.95","1","0.0","1","null","6","null","6","null","6","1017.27","1","41.627894","15.907547"],
    [1090,"2024-02-15 09:00:00","20","manfredonia_liceo","12.03","1","65.83","1","0.0","1","null","6","null","6","null","6","1017.58","1","41.627894","15.907547"],
    [1091,"2024-02-15 10:00:00","20","manfredonia_liceo","14.77","1","60.67","1","0.0","1","null","6","null","6","null","6","1017.66","1","41.627894","15.907547"],
    [1092,"2024-02-15 11:00:00","20","manfredonia_liceo","16.6","1","55.32","1","0.0","1","null","6","null","6","null","6","1017.68","1","41.627894","15.907547"],
    [1093,"2024-02-15 12:00:00","20","manfredonia_liceo","17.66","1","52.32","1","0.0","1","null","6","null","6","null","6","1017.85","1","41.627894","15.907547"],
    [1094,"2024-02-15 13:00:00","20","manfredonia_liceo","19.27","1","47.49","1","0.0","1","null","6","null","6","null","6","1017.22","1","41.627894","15.907547"],
    [1095,"2024-02-15 14:00:00","20","manfredonia_liceo","20.57","1","40.14","1","0.0","1","null","6","null","6","null","6","1016.65","1","41.627894","15.907547"],
    [1096,"2024-02-15 15:00:00","20","manfredonia_liceo","20.84","1","37.44","1","0.0","1","null","6","null","6","null","6","1016.12","1","41.627894","15.907547"],
    [1097,"2024-02-15 16:00:00","20","manfredonia_liceo","20.64","1","38.8","1","0.0","1","null","6","null","6","null","6","1015.85","1","41.627894","15.907547"],
    [1098,"2024-02-15 17:00:00","20","manfredonia_liceo","19.03","1","48.6","1","0.0","1","null","6","null","6","null","6","1015.75","1","41.627894","15.907547"],
    [1099,"2024-02-15 18:00:00","20","manfredonia_liceo","14.4","1","65.93","1","0.0","1","null","6","null","6","null","6","1015.86","1","41.627894","15.907547"],
    [1100,"2024-02-15 19:00:00","20","manfredonia_liceo","12.09","1","72.36","1","0.0","1","null","6","null","6","null","6","1016.14","1","41.627894","15.907547"],
    [1101,"2024-02-15 20:00:00","20","manfredonia_liceo","11.53","1","68.83","1","0.0","1","null","6","null","6","null","6","1016.16","1","41.627894","15.907547"],
    [1102,"2024-02-15 21:00:00","20","manfredonia_liceo","11.16","1","70.27","1","0.0","1","null","6","null","6","null","6","1016.42","1","41.627894","15.907547"],
    [1103,"2024-02-15 22:00:00","20","manfredonia_liceo","9.72","1","71.0","1","0.0","1","null","6","null","6","null","6","1016.48","1","41.627894","15.907547"],
    [1104,"2024-02-15 23:00:00","20","manfredonia_liceo","8.8","1","71.92","1","0.0","1","null","6","null","6","null","6","1016.44","1","41.627894","15.907547"],
    [1105,"2024-02-16 00:00:00","20","manfredonia_liceo","8.33","1","75.32","1","0.0","1","null","6","null","6","null","6","1016.12","1","41.627894","15.907547"],
    [1106,"2024-02-16 01:00:00","20","manfredonia_liceo","7.61","1","78.92","1","0.0","1","null","6","null","6","null","6","1015.87","1","41.627894","15.907547"],
    [1107,"2024-02-16 02:00:00","20","manfredonia_liceo","7.88","1","73.07","1","0.0","1","null","6","null","6","null","6","1015.68","1","41.627894","15.907547"],
    [1108,"2024-02-16 03:00:00","20","manfredonia_liceo","7.89","1","75.89","1","0.0","1","null","6","null","6","null","6","1015.55","1","41.627894","15.907547"],
    [1109,"2024-02-16 04:00:00","20","manfredonia_liceo","7.67","1","83.53","1","0.0","1","null","6","null","6","null","6","1015.16","1","41.627894","15.907547"],
    [1110,"2024-02-16 05:00:00","20","manfredonia_liceo","6.81","1","82.09","1","0.0","1","null","6","null","6","null","6","1015.01","1","41.627894","15.907547"],
    [1111,"2024-02-16 06:00:00","20","manfredonia_liceo","6.83","1","77.85","1","0.0","1","null","6","null","6","null","6","1015.12","1","41.627894","15.907547"],
    [1112,"2024-02-16 07:00:00","20","manfredonia_liceo","6.29","1","83.05","1","0.0","1","null","6","null","6","null","6","1015.1","1","41.627894","15.907547"],
    [1113,"2024-02-16 08:00:00","20","manfredonia_liceo","6.46","1","85.83","1","0.0","1","null","6","null","6","null","6","1015.28","1","41.627894","15.907547"],
    [1114,"2024-02-16 09:00:00","20","manfredonia_liceo","8.56","1","81.48","1","0.0","1","null","6","null","6","null","6","1015.5","1","41.627894","15.907547"],
    [1115,"2024-02-16 10:00:00","20","manfredonia_liceo","12.64","1","69.89","1","0.0","1","null","6","null","6","null","6","1015.79","1","41.627894","15.907547"],
    [1116,"2024-02-16 11:00:00","20","manfredonia_liceo","15.77","1","58.86","1","0.0","1","null","6","null","6","null","6","1016.24","1","41.627894","15.907547"],
    [1117,"2024-02-16 12:00:00","20","manfredonia_liceo","17.67","1","43.09","1","0.0","1","null","6","null","6","null","6","1016.35","1","41.627894","15.907547"],
    [1118,"2024-02-16 13:00:00","20","manfredonia_liceo","18.82","1","37.44","1","0.0","1","null","6","null","6","null","6","1015.74","1","41.627894","15.907547"],
    [1119,"2024-02-16 14:00:00","20","manfredonia_liceo","19.99","1","40.28","1","0.0","1","null","6","null","6","null","6","1015.26","1","41.627894","15.907547"],
    [1120,"2024-02-16 15:00:00","20","manfredonia_liceo","19.63","1","49.52","1","0.0","1","null","6","null","6","null","6","1014.86","1","41.627894","15.907547"],
    [1121,"2024-02-16 16:00:00","20","manfredonia_liceo","19.24","1","58.04","1","0.0","1","null","6","null","6","null","6","1014.65","1","41.627894","15.907547"],
    [1122,"2024-02-16 17:00:00","20","manfredonia_liceo","18.3","1","63.06","1","0.0","1","null","6","null","6","null","6","1014.82","1","41.627894","15.907547"],
    [1123,"2024-02-16 18:00:00","20","manfredonia_liceo","13.91","1","78.05","1","0.0","1","null","6","null","6","null","6","1015.11","1","41.627894","15.907547"],
    [1124,"2024-02-16 19:00:00","20","manfredonia_liceo","11.84","1","85.55","1","0.0","1","null","6","null","6","null","6","1015.55","1","41.627894","15.907547"],
    [1125,"2024-02-16 20:00:00","20","manfredonia_liceo","10.69","1","88.96","1","0.0","1","null","6","null","6","null","6","1015.96","1","41.627894","15.907547"],
    [1126,"2024-02-16 21:00:00","20","manfredonia_liceo","9.77","1","88.42","1","0.0","1","null","6","null","6","null","6","1016.4","1","41.627894","15.907547"],
    [1127,"2024-02-16 22:00:00","20","manfredonia_liceo","9.12","1","86.34","1","0.0","1","null","6","null","6","null","6","1016.66","1","41.627894","15.907547"],
    [1128,"2024-02-16 23:00:00","20","manfredonia_liceo","8.67","1","86.08","1","0.0","1","null","6","null","6","null","6","1016.95","1","41.627894","15.907547"],
    [1129,"2024-02-17 00:00:00","20","manfredonia_liceo","8.54","1","86.15","1","0.0","1","null","6","null","6","null","6","1017.22","1","41.627894","15.907547"],
    [1130,"2024-02-17 01:00:00","20","manfredonia_liceo","8.51","1","82.89","1","0.0","1","null","6","null","6","null","6","1017.22","1","41.627894","15.907547"],
    [1131,"2024-02-17 02:00:00","20","manfredonia_liceo","8.62","1","74.6","1","0.0","1","null","6","null","6","null","6","1017.22","1","41.627894","15.907547"],
    [1132,"2024-02-17 03:00:00","20","manfredonia_liceo","8.46","1","70.83","1","0.0","1","null","6","null","6","null","6","1017.34","1","41.627894","15.907547"],
    [1133,"2024-02-17 04:00:00","20","manfredonia_liceo","7.37","1","78.93","1","0.0","1","null","6","null","6","null","6","1017.42","1","41.627894","15.907547"],
    [1134,"2024-02-17 05:00:00","20","manfredonia_liceo","7.18","1","79.41","1","0.0","1","null","6","null","6","null","6","1017.57","1","41.627894","15.907547"],
    [1135,"2024-02-17 06:00:00","20","manfredonia_liceo","6.72","1","79.55","1","0.0","1","null","6","null","6","null","6","1017.86","1","41.627894","15.907547"],
    [1136,"2024-02-17 07:00:00","20","manfredonia_liceo","6.54","1","80.22","1","0.0","1","null","6","null","6","null","6","1018.32","1","41.627894","15.907547"],
    [1137,"2024-02-17 08:00:00","20","manfredonia_liceo","5.4","1","85.55","1","0.0","1","null","6","null","6","null","6","1018.85","1","41.627894","15.907547"],
    [1138,"2024-02-17 09:00:00","20","manfredonia_liceo","8.73","1","79.62","1","0.0","1","null","6","null","6","null","6","1019.46","1","41.627894","15.907547"],
    [1139,"2024-02-17 10:00:00","20","manfredonia_liceo","13.77","1","71.77","1","0.0","1","null","6","null","6","null","6","1020.05","1","41.627894","15.907547"],
    [1140,"2024-02-17 11:00:00","20","manfredonia_liceo","16.64","1","68.06","1","0.0","1","null","6","null","6","null","6","1020.56","1","41.627894","15.907547"],
    [1141,"2024-02-17 12:00:00","20","manfredonia_liceo","18.27","1","60.72","1","0.0","1","null","6","null","6","null","6","1020.88","1","41.627894","15.907547"],
    [1142,"2024-02-17 13:00:00","20","manfredonia_liceo","19.97","1","57.57","1","0.0","1","null","6","null","6","null","6","1020.8","1","41.627894","15.907547"],
    [1143,"2024-02-17 14:00:00","20","manfredonia_liceo","19.65","1","58.44","1","0.0","1","null","6","null","6","null","6","1020.49","1","41.627894","15.907547"],
    [1144,"2024-02-17 15:00:00","20","manfredonia_liceo","18.35","1","60.2","1","0.0","1","null","6","null","6","null","6","1020.37","1","41.627894","15.907547"],
    [1145,"2024-02-17 16:00:00","20","manfredonia_liceo","17.96","1","64.83","1","0.0","1","null","6","null","6","null","6","1020.82","1","41.627894","15.907547"],
    [1146,"2024-02-17 17:00:00","20","manfredonia_liceo","17.6","1","67.84","1","0.0","1","null","6","null","6","null","6","1021.21","1","41.627894","15.907547"],
    [1147,"2024-02-17 18:00:00","20","manfredonia_liceo","13.85","1","79.89","1","0.0","1","null","6","null","6","null","6","1021.73","1","41.627894","15.907547"],
    [1148,"2024-02-17 19:00:00","20","manfredonia_liceo","11.77","1","88.67","1","0.0","1","null","6","null","6","null","6","1022.52","1","41.627894","15.907547"],
    [1149,"2024-02-17 20:00:00","20","manfredonia_liceo","10.33","1","91.78","1","0.0","1","null","6","null","6","null","6","1022.83","1","41.627894","15.907547"],
    [1150,"2024-02-17 21:00:00","20","manfredonia_liceo","10.13","1","92.76","1","0.0","1","null","6","null","6","null","6","1023.29","1","41.627894","15.907547"],
    [1151,"2024-02-17 22:00:00","20","manfredonia_liceo","9.46","1","93.66","1","0.0","1","null","6","null","6","null","6","1023.71","1","41.627894","15.907547"],
    [1152,"2024-02-17 23:00:00","20","manfredonia_liceo","8.45","1","95.63","1","0.0","1","null","6","null","6","null","6","1023.92","1","41.627894","15.907547"],
    [1153,"2024-02-18 00:00:00","20","manfredonia_liceo","7.56","1","96.31","1","0.0","1","null","6","null","6","null","6","1024.18","1","41.627894","15.907547"],
    [1154,"2024-02-18 01:00:00","20","manfredonia_liceo","5.92","1","95.99","1","0.0","1","null","6","null","6","null","6","1024.24","1","41.627894","15.907547"],
    [1155,"2024-02-18 02:00:00","20","manfredonia_liceo","5.68","1","98.65","1","0.0","1","null","6","null","6","null","6","1024.17","1","41.627894","15.907547"],
    [1156,"2024-02-18 03:00:00","20","manfredonia_liceo","5.29","1","99.59","1","0.0","1","null","6","null","6","null","6","1024.15","1","41.627894","15.907547"],
    [1157,"2024-02-18 04:00:00","20","manfredonia_liceo","4.65","1","99.78","1","0.0","1","null","6","null","6","null","6","1023.81","1","41.627894","15.907547"],
    [1158,"2024-02-18 05:00:00","20","manfredonia_liceo","3.87","1","99.83","1","0.0","1","null","6","null","6","null","6","1023.71","1","41.627894","15.907547"],
    [1159,"2024-02-18 06:00:00","20","manfredonia_liceo","3.85","1","100.0","1","0.0","1","null","6","null","6","null","6","1023.84","1","41.627894","15.907547"],
    [1160,"2024-02-18 07:00:00","20","manfredonia_liceo","4.36","1","null","3","0.0","1","null","6","null","6","null","6","1024.16","1","41.627894","15.907547"],
    [1161,"2024-02-18 08:00:00","20","manfredonia_liceo","5.59","1","null","3","0.0","1","null","6","null","6","null","6","1024.66","1","41.627894","15.907547"],
    [1162,"2024-02-18 09:00:00","20","manfredonia_liceo","7.88","1","100.0","1","0.0","1","null","6","null","6","null","6","1025.16","1","41.627894","15.907547"],
    [1163,"2024-02-18 10:00:00","20","manfredonia_liceo","11.04","1","99.65","1","0.0","1","null","6","null","6","null","6","1025.3","1","41.627894","15.907547"],
    [1164,"2024-02-18 11:00:00","20","manfredonia_liceo","13.84","1","83.31","1","0.0","1","null","6","null","6","null","6","1025.46","1","41.627894","15.907547"],
    [1165,"2024-02-18 12:00:00","20","manfredonia_liceo","15.78","1","73.07","1","0.0","1","null","6","null","6","null","6","1025.35","1","41.627894","15.907547"],
    [1166,"2024-02-18 13:00:00","20","manfredonia_liceo","17.86","1","64.58","1","0.0","1","null","6","null","6","null","6","1024.75","1","41.627894","15.907547"],
    [1167,"2024-02-18 14:00:00","20","manfredonia_liceo","18.71","1","60.41","1","0.0","1","null","6","null","6","null","6","1023.91","1","41.627894","15.907547"],
    [1168,"2024-02-18 15:00:00","20","manfredonia_liceo","20.55","1","53.77","1","0.0","1","null","6","null","6","null","6","1023.19","1","41.627894","15.907547"],
    [1169,"2024-02-18 16:00:00","20","manfredonia_liceo","20.42","1","52.75","1","0.0","1","null","6","null","6","null","6","1022.74","1","41.627894","15.907547"],
    [1170,"2024-02-18 17:00:00","20","manfredonia_liceo","18.27","1","60.5","1","0.0","1","null","6","null","6","null","6","1022.41","1","41.627894","15.907547"],
    [1171,"2024-02-18 18:00:00","20","manfredonia_liceo","13.66","1","77.76","1","0.0","1","null","6","null","6","null","6","1022.34","1","41.627894","15.907547"],
    [1172,"2024-02-18 19:00:00","20","manfredonia_liceo","13.03","1","76.1","1","0.0","1","null","6","null","6","null","6","1022.41","1","41.627894","15.907547"],
    [1173,"2024-02-18 20:00:00","20","manfredonia_liceo","12.59","1","80.13","1","0.0","1","null","6","null","6","null","6","1022.22","1","41.627894","15.907547"],
    [1174,"2024-02-18 21:00:00","20","manfredonia_liceo","12.55","1","75.43","1","0.0","1","null","6","null","6","null","6","1021.78","1","41.627894","15.907547"],
    [1175,"2024-02-18 22:00:00","20","manfredonia_liceo","12.29","1","74.5","1","0.0","1","null","6","null","6","null","6","1021.45","1","41.627894","15.907547"],
    [1176,"2024-02-18 23:00:00","20","manfredonia_liceo","11.24","1","78.72","1","0.0","1","null","6","null","6","null","6","1020.88","1","41.627894","15.907547"],
    [1177,"2024-02-19 00:00:00","20","manfredonia_liceo","10.22","1","83.33","1","0.0","1","null","6","null","6","null","6","1020.79","1","41.627894","15.907547"],
    [1178,"2024-02-19 01:00:00","20","manfredonia_liceo","10.12","1","90.1","1","0.0","1","null","6","null","6","null","6","1020.31","1","41.627894","15.907547"],
    [1179,"2024-02-19 02:00:00","20","manfredonia_liceo","9.18","1","94.81","1","0.0","1","null","6","null","6","null","6","1019.91","1","41.627894","15.907547"],
    [1180,"2024-02-19 03:00:00","20","manfredonia_liceo","7.46","1","97.36","1","0.0","1","null","6","null","6","null","6","1019.49","1","41.627894","15.907547"],
    [1181,"2024-02-19 04:00:00","20","manfredonia_liceo","6.65","1","98.58","1","0.0","1","null","6","null","6","null","6","1018.83","1","41.627894","15.907547"],
    [1182,"2024-02-19 05:00:00","20","manfredonia_liceo","6.45","1","99.58","1","0.0","1","null","6","null","6","null","6","1018.58","1","41.627894","15.907547"],
    [1183,"2024-02-19 06:00:00","20","manfredonia_liceo","6.61","1","100.0","1","0.0","1","null","6","null","6","null","6","1018.3","1","41.627894","15.907547"],
    [1184,"2024-02-19 07:00:00","20","manfredonia_liceo","5.37","1","97.49","1","0.0","1","null","6","null","6","null","6","1018.11","1","41.627894","15.907547"],
    [1185,"2024-02-19 08:00:00","20","manfredonia_liceo","5.81","1","96.21","1","0.0","1","null","6","null","6","null","6","1017.95","1","41.627894","15.907547"],
    [1186,"2024-02-19 09:00:00","20","manfredonia_liceo","8.65","1","85.94","1","0.0","1","null","6","null","6","null","6","1018.01","1","41.627894","15.907547"],
    [1187,"2024-02-19 10:00:00","20","manfredonia_liceo","14.05","1","71.89","1","0.0","1","null","6","null","6","null","6","1017.86","1","41.627894","15.907547"],
    [1188,"2024-02-19 11:00:00","20","manfredonia_liceo","18.69","1","59.87","1","0.0","1","null","6","null","6","null","6","1017.58","1","41.627894","15.907547"],
    [1189,"2024-02-19 12:00:00","20","manfredonia_liceo","18.46","1","61.76","1","0.0","1","null","6","null","6","null","6","1017.54","1","41.627894","15.907547"],
    [1190,"2024-02-19 13:00:00","20","manfredonia_liceo","19.0","1","58.25","1","0.0","1","null","6","null","6","null","6","1016.9","1","41.627894","15.907547"],
    [1191,"2024-02-19 14:00:00","20","manfredonia_liceo","17.52","1","54.14","1","0.0","1","null","6","null","6","null","6","1016.02","1","41.627894","15.907547"],
    [1192,"2024-02-19 15:00:00","20","manfredonia_liceo","16.18","1","61.79","1","0.0","1","null","6","null","6","null","6","1015.75","1","41.627894","15.907547"],
    [1193,"2024-02-19 16:00:00","20","manfredonia_liceo","16.37","1","70.27","1","0.0","1","null","6","null","6","null","6","1015.75","1","41.627894","15.907547"],
    [1194,"2024-02-19 17:00:00","20","manfredonia_liceo","15.12","1","74.3","1","0.0","1","null","6","null","6","null","6","1015.75","1","41.627894","15.907547"],
    [1195,"2024-02-19 18:00:00","20","manfredonia_liceo","14.57","1","76.4","1","0.0","1","null","6","null","6","null","6","1015.75","1","41.627894","15.907547"],
    [1196,"2024-02-19 19:00:00","20","manfredonia_liceo","13.29","1","80.25","1","0.0","1","null","6","null","6","null","6","1016.25","1","41.627894","15.907547"],
    [1197,"2024-02-19 20:00:00","20","manfredonia_liceo","12.89","1","79.17","1","0.0","1","null","6","null","6","null","6","1016.49","1","41.627894","15.907547"],
    [1198,"2024-02-19 21:00:00","20","manfredonia_liceo","12.26","1","83.26","1","0.0","1","null","6","null","6","null","6","1016.83","1","41.627894","15.907547"],
    [1199,"2024-02-19 22:00:00","20","manfredonia_liceo","11.42","1","87.78","1","0.0","1","null","6","null","6","null","6","1016.85","1","41.627894","15.907547"],
    [1200,"2024-02-19 23:00:00","20","manfredonia_liceo","10.81","1","90.02","1","0.0","1","null","6","null","6","null","6","1016.76","1","41.627894","15.907547"],
    [1201,"2024-02-20 00:00:00","20","manfredonia_liceo","11.04","1","89.66","1","0.0","1","null","6","null","6","null","6","1016.44","1","41.627894","15.907547"],
    [1202,"2024-02-20 01:00:00","20","manfredonia_liceo","12.3","1","72.67","1","0.0","1","null","6","null","6","null","6","1016.12","1","41.627894","15.907547"],
    [1203,"2024-02-20 02:00:00","20","manfredonia_liceo","11.9","1","85.48","1","0.0","1","null","6","null","6","null","6","1015.94","1","41.627894","15.907547"],
    [1204,"2024-02-20 03:00:00","20","manfredonia_liceo","12.02","1","78.71","1","0.0","1","null","6","null","6","null","6","1015.53","1","41.627894","15.907547"],
    [1205,"2024-02-20 04:00:00","20","manfredonia_liceo","12.15","1","76.03","1","0.0","1","null","6","null","6","null","6","1015.02","1","41.627894","15.907547"],
    [1206,"2024-02-20 05:00:00","20","manfredonia_liceo","11.79","1","77.62","1","0.0","1","null","6","null","6","null","6","1015.02","1","41.627894","15.907547"],
    [1207,"2024-02-20 06:00:00","20","manfredonia_liceo","12.14","1","74.61","1","0.0","1","null","6","null","6","null","6","1015.02","1","41.627894","15.907547"],
    [1208,"2024-02-20 07:00:00","20","manfredonia_liceo","11.49","1","77.6","1","0.0","1","null","6","null","6","null","6","1015.02","1","41.627894","15.907547"],
    [1209,"2024-02-20 08:00:00","20","manfredonia_liceo","12.06","1","76.58","1","0.0","1","null","6","null","6","null","6","1015.18","1","41.627894","15.907547"],
    [1210,"2024-02-20 09:00:00","20","manfredonia_liceo","13.0","1","72.39","1","0.0","1","null","6","null","6","null","6","1015.83","1","41.627894","15.907547"],
    [1211,"2024-02-20 10:00:00","20","manfredonia_liceo","17.08","1","58.63","1","0.0","1","null","6","null","6","null","6","1016.12","1","41.627894","15.907547"],
    [1212,"2024-02-20 11:00:00","20","manfredonia_liceo","18.53","1","53.39","1","0.0","1","null","6","null","6","null","6","1016.21","1","41.627894","15.907547"],
    [1213,"2024-02-20 12:00:00","20","manfredonia_liceo","19.77","1","53.6","1","0.0","1","null","6","null","6","null","6","1016.48","1","41.627894","15.907547"],
    [1214,"2024-02-20 13:00:00","20","manfredonia_liceo","19.08","1","56.23","1","0.0","1","null","6","null","6","null","6","1016.08","1","41.627894","15.907547"],
    [1215,"2024-02-20 14:00:00","20","manfredonia_liceo","19.87","1","53.35","1","0.0","1","null","6","null","6","null","6","1015.56","1","41.627894","15.907547"],
    [1216,"2024-02-20 15:00:00","20","manfredonia_liceo","19.02","1","56.1","1","0.0","1","null","6","null","6","null","6","1015.02","1","41.627894","15.907547"],
    [1217,"2024-02-20 16:00:00","20","manfredonia_liceo","17.85","1","62.11","1","0.0","1","null","6","null","6","null","6","1014.96","1","41.627894","15.907547"],
    [1218,"2024-02-20 17:00:00","20","manfredonia_liceo","18.8","1","58.29","1","0.0","1","null","6","null","6","null","6","1015.03","1","41.627894","15.907547"],
    [1219,"2024-02-20 18:00:00","20","manfredonia_liceo","15.62","1","50.4","1","0.0","1","null","6","null","6","null","6","1015.51","1","41.627894","15.907547"],
    [1220,"2024-02-20 19:00:00","20","manfredonia_liceo","13.47","1","53.58","1","0.0","1","null","6","null","6","null","6","1016.15","1","41.627894","15.907547"],
    [1221,"2024-02-20 20:00:00","20","manfredonia_liceo","13.4","1","52.7","1","0.0","1","null","6","null","6","null","6","1016.73","1","41.627894","15.907547"],
    [1222,"2024-02-20 21:00:00","20","manfredonia_liceo","13.29","1","54.36","1","0.0","1","null","6","null","6","null","6","1016.98","1","41.627894","15.907547"],
    [1223,"2024-02-20 22:00:00","20","manfredonia_liceo","13.14","1","56.74","1","0.0","1","null","6","null","6","null","6","1017.42","1","41.627894","15.907547"],
    [1224,"2024-02-20 23:00:00","20","manfredonia_liceo","13.23","1","61.57","1","0.0","1","null","6","null","6","null","6","1017.58","1","41.627894","15.907547"],
    [1225,"2024-02-21 00:00:00","20","manfredonia_liceo","12.71","1","62.29","1","0.0","1","null","6","null","6","null","6","1017.62","1","41.627894","15.907547"],
    [1226,"2024-02-21 01:00:00","20","manfredonia_liceo","12.1","1","63.77","1","0.0","1","null","6","null","6","null","6","1017.95","1","41.627894","15.907547"],
    [1227,"2024-02-21 02:00:00","20","manfredonia_liceo","11.88","1","63.55","1","0.0","1","null","6","null","6","null","6","1017.72","1","41.627894","15.907547"],
    [1228,"2024-02-21 03:00:00","20","manfredonia_liceo","11.87","1","67.15","1","0.0","1","null","6","null","6","null","6","1017.13","1","41.627894","15.907547"],
    [1229,"2024-02-21 04:00:00","20","manfredonia_liceo","10.93","1","70.88","1","0.0","1","null","6","null","6","null","6","1016.61","1","41.627894","15.907547"],
    [1230,"2024-02-21 05:00:00","20","manfredonia_liceo","8.74","1","76.03","1","0.0","1","null","6","null","6","null","6","1016.56","1","41.627894","15.907547"],
    [1231,"2024-02-21 06:00:00","20","manfredonia_liceo","7.91","1","76.14","1","0.0","1","null","6","null","6","null","6","1016.85","1","41.627894","15.907547"],
    [1232,"2024-02-21 07:00:00","20","manfredonia_liceo","8.77","1","72.69","1","0.0","1","null","6","null","6","null","6","1017.2","1","41.627894","15.907547"],
    [1233,"2024-02-21 08:00:00","20","manfredonia_liceo","9.71","1","73.51","1","0.0","1","null","6","null","6","null","6","1017.88","1","41.627894","15.907547"],
    [1234,"2024-02-21 09:00:00","20","manfredonia_liceo","11.11","1","68.49","1","0.0","1","null","6","null","6","null","6","1018.54","1","41.627894","15.907547"],
    [1235,"2024-02-21 10:00:00","20","manfredonia_liceo","15.98","1","54.47","1","0.0","1","null","6","null","6","null","6","1018.96","1","41.627894","15.907547"],
    [1236,"2024-02-21 11:00:00","20","manfredonia_liceo","19.18","1","51.42","1","0.0","1","null","6","null","6","null","6","1019.16","1","41.627894","15.907547"],
    [1237,"2024-02-21 12:00:00","20","manfredonia_liceo","18.63","1","50.9","1","0.0","1","null","6","null","6","null","6","1019.41","1","41.627894","15.907547"],
    [1238,"2024-02-21 13:00:00","20","manfredonia_liceo","19.14","1","48.44","1","0.0","1","null","6","null","6","null","6","1018.96","1","41.627894","15.907547"],
    [1239,"2024-02-21 14:00:00","20","manfredonia_liceo","19.12","1","50.92","1","0.0","1","null","6","null","6","null","6","1018.33","1","41.627894","15.907547"],
    [1240,"2024-02-21 15:00:00","20","manfredonia_liceo","15.95","1","62.55","1","0.0","1","null","6","null","6","null","6","1017.92","1","41.627894","15.907547"],
    [1241,"2024-02-21 16:00:00","20","manfredonia_liceo","17.68","1","55.7","1","0.0","1","null","6","null","6","null","6","1017.52","1","41.627894","15.907547"],
    [1242,"2024-02-21 17:00:00","20","manfredonia_liceo","18.35","1","57.04","1","0.0","1","null","6","null","6","null","6","1017.16","1","41.627894","15.907547"],
    [1243,"2024-02-21 18:00:00","20","manfredonia_liceo","14.04","1","69.2","1","0.0","1","null","6","null","6","null","6","1017.27","1","41.627894","15.907547"],
    [1244,"2024-02-21 19:00:00","20","manfredonia_liceo","11.89","1","65.16","1","0.0","1","null","6","null","6","null","6","1017.58","1","41.627894","15.907547"],
    [1245,"2024-02-21 20:00:00","20","manfredonia_liceo","10.69","1","60.62","1","0.0","1","null","6","null","6","null","6","1017.58","1","41.627894","15.907547"],
    [1246,"2024-02-21 21:00:00","20","manfredonia_liceo","9.04","1","65.75","1","0.0","1","null","6","null","6","null","6","1017.58","1","41.627894","15.907547"],
    [1247,"2024-02-21 22:00:00","20","manfredonia_liceo","9.03","1","70.38","1","0.0","1","null","6","null","6","null","6","1017.58","1","41.627894","15.907547"],
    [1248,"2024-02-21 23:00:00","20","manfredonia_liceo","8.66","1","75.27","1","0.0","1","null","6","null","6","null","6","1017.5","1","41.627894","15.907547"],
    [1249,"2024-02-22 00:00:00","20","manfredonia_liceo","8.76","1","73.54","1","0.0","1","null","6","null","6","null","6","1017.17","1","41.627894","15.907547"],
    [1250,"2024-02-22 01:00:00","20","manfredonia_liceo","8.51","1","70.34","1","0.0","1","null","6","null","6","null","6","1016.85","1","41.627894","15.907547"],
    [1251,"2024-02-22 02:00:00","20","manfredonia_liceo","8.09","1","67.83","1","0.0","1","null","6","null","6","null","6","1016.46","1","41.627894","15.907547"],
    [1252,"2024-02-22 03:00:00","20","manfredonia_liceo","7.81","1","64.6","1","0.0","1","null","6","null","6","null","6","1015.51","1","41.627894","15.907547"],
    [1253,"2024-02-22 04:00:00","20","manfredonia_liceo","6.76","1","68.81","1","0.0","1","null","6","null","6","null","6","1014.93","1","41.627894","15.907547"],
    [1254,"2024-02-22 05:00:00","20","manfredonia_liceo","4.5","1","76.62","1","0.0","1","null","6","null","6","null","6","1014.53","1","41.627894","15.907547"],
    [1255,"2024-02-22 06:00:00","20","manfredonia_liceo","4.11","1","77.02","1","0.0","1","null","6","null","6","null","6","1014.28","1","41.627894","15.907547"],
    [1256,"2024-02-22 07:00:00","20","manfredonia_liceo","5.07","1","69.82","1","0.0","1","null","6","null","6","null","6","1013.9","1","41.627894","15.907547"],
    [1257,"2024-02-22 08:00:00","20","manfredonia_liceo","5.56","1","72.77","1","0.0","1","null","6","null","6","null","6","1013.92","1","41.627894","15.907547"],
    [1258,"2024-02-22 09:00:00","20","manfredonia_liceo","8.47","1","71.33","1","0.0","1","null","6","null","6","null","6","1013.92","1","41.627894","15.907547"],
    [1259,"2024-02-22 10:00:00","20","manfredonia_liceo","12.91","1","60.75","1","0.0","1","null","6","null","6","null","6","1013.87","1","41.627894","15.907547"],
    [1260,"2024-02-22 11:00:00","20","manfredonia_liceo","15.18","1","53.71","1","0.0","1","null","6","null","6","null","6","1013.55","1","41.627894","15.907547"],
    [1261,"2024-02-22 12:00:00","20","manfredonia_liceo","16.61","1","49.08","1","0.0","1","null","6","null","6","null","6","1013.22","1","41.627894","15.907547"],
    [1262,"2024-02-22 13:00:00","20","manfredonia_liceo","17.95","1","46.08","1","0.0","1","null","6","null","6","null","6","1011.97","1","41.627894","15.907547"],
    [1263,"2024-02-22 14:00:00","20","manfredonia_liceo","18.25","1","49.63","1","0.0","1","null","6","null","6","null","6","1011.21","1","41.627894","15.907547"],
    [1264,"2024-02-22 15:00:00","20","manfredonia_liceo","19.26","1","38.53","1","0.0","1","null","6","null","6","null","6","1010.13","1","41.627894","15.907547"],
    [1265,"2024-02-22 16:00:00","20","manfredonia_liceo","19.5","1","35.82","1","0.0","1","null","6","null","6","null","6","1009.28","1","41.627894","15.907547"],
    [1266,"2024-02-22 17:00:00","20","manfredonia_liceo","17.86","1","38.89","1","0.0","1","null","6","null","6","null","6","1009.07","1","41.627894","15.907547"],
    [1267,"2024-02-22 18:00:00","20","manfredonia_liceo","16.09","1","44.19","1","0.0","1","null","6","null","6","null","6","1009.15","1","41.627894","15.907547"],
    [1268,"2024-02-22 19:00:00","20","manfredonia_liceo","14.51","1","51.42","1","0.0","1","null","6","null","6","null","6","1009.16","1","41.627894","15.907547"],
    [1269,"2024-02-22 20:00:00","20","manfredonia_liceo","12.92","1","56.28","1","0.0","1","null","6","null","6","null","6","1008.93","1","41.627894","15.907547"],
    [1270,"2024-02-22 21:00:00","20","manfredonia_liceo","11.59","1","61.56","1","0.0","1","null","6","null","6","null","6","1008.46","1","41.627894","15.907547"],
    [1271,"2024-02-22 22:00:00","20","manfredonia_liceo","10.93","1","64.72","1","0.0","1","null","6","null","6","null","6","1008.14","1","41.627894","15.907547"],
    [1272,"2024-02-22 23:00:00","20","manfredonia_liceo","10.53","1","62.67","1","0.0","1","null","6","null","6","null","6","1007.66","1","41.627894","15.907547"],
    [1273,"2024-02-23 00:00:00","20","manfredonia_liceo","9.9","1","64.86","1","0.0","1","null","6","null","6","null","6","1007.33","1","41.627894","15.907547"],
    [1274,"2024-02-23 01:00:00","20","manfredonia_liceo","10.23","1","65.49","1","0.0","1","null","6","null","6","null","6","1007.02","1","41.627894","15.907547"],
    [1275,"2024-02-23 02:00:00","20","manfredonia_liceo","9.82","1","66.78","1","0.0","1","null","6","null","6","null","6","1006.56","1","41.627894","15.907547"],
    [1276,"2024-02-23 03:00:00","20","manfredonia_liceo","9.49","1","67.5","1","0.0","1","null","6","null","6","null","6","1005.86","1","41.627894","15.907547"],
    [1277,"2024-02-23 04:00:00","20","manfredonia_liceo","9.54","1","68.52","1","0.0","1","null","6","null","6","null","6","1005.18","1","41.627894","15.907547"],
    [1278,"2024-02-23 05:00:00","20","manfredonia_liceo","9.43","1","70.56","1","0.0","1","null","6","null","6","null","6","1004.78","1","41.627894","15.907547"],
    [1279,"2024-02-23 06:00:00","20","manfredonia_liceo","9.71","1","70.61","1","0.0","1","null","6","null","6","null","6","1004.42","1","41.627894","15.907547"],
    [1280,"2024-02-23 07:00:00","20","manfredonia_liceo","10.42","1","69.76","1","0.0","1","null","6","null","6","null","6","1004.39","1","41.627894","15.907547"],
    [1281,"2024-02-23 08:00:00","20","manfredonia_liceo","10.62","1","77.74","1","0.2","1","null","6","null","6","null","6","1004.57","1","41.627894","15.907547"],
    [1282,"2024-02-23 09:00:00","20","manfredonia_liceo","11.32","1","87.54","1","0.4","1","null","6","null","6","null","6","1004.92","1","41.627894","15.907547"],
    [1283,"2024-02-23 10:00:00","20","manfredonia_liceo","12.98","1","74.59","1","0.0","1","null","6","null","6","null","6","1004.87","1","41.627894","15.907547"],
    [1284,"2024-02-23 11:00:00","20","manfredonia_liceo","13.14","1","69.13","1","0.0","1","null","6","null","6","null","6","1004.72","1","41.627894","15.907547"],
    [1285,"2024-02-23 12:00:00","20","manfredonia_liceo","13.87","1","65.3","1","0.0","1","null","6","null","6","null","6","1004.3","1","41.627894","15.907547"],
    [1286,"2024-02-23 13:00:00","20","manfredonia_liceo","null","6","null","6","null","6","null","6","null","6","null","6","null","6","41.627894","15.907547"],
    [1287,"2024-02-23 14:00:00","20","manfredonia_liceo","null","6","null","6","null","6","null","6","null","6","null","6","null","6","41.627894","15.907547"],
    [1288,"2024-02-23 15:00:00","20","manfredonia_liceo","null","6","null","6","null","6","null","6","null","6","null","6","null","6","41.627894","15.907547"],
    [1289,"2024-02-23 16:00:00","20","manfredonia_liceo","null","6","null","6","null","6","null","6","null","6","null","6","null","6","41.627894","15.907547"],
    [1290,"2024-02-23 17:00:00","20","manfredonia_liceo","null","6","null","6","null","6","null","6","null","6","null","6","null","6","41.627894","15.907547"],
    [1291,"2024-02-23 18:00:00","20","manfredonia_liceo","null","6","null","6","null","6","null","6","null","6","null","6","null","6","41.627894","15.907547"],
    [1292,"2024-02-23 19:00:00","20","manfredonia_liceo","null","6","null","6","null","6","null","6","null","6","null","6","null","6","41.627894","15.907547"],
    [1293,"2024-02-23 20:00:00","20","manfredonia_liceo","null","6","null","6","null","6","null","6","null","6","null","6","null","6","41.627894","15.907547"],
    [1294,"2024-02-23 21:00:00","20","manfredonia_liceo","null","6","null","6","null","6","null","6","null","6","null","6","null","6","41.627894","15.907547"],
    [1295,"2024-02-23 22:00:00","20","manfredonia_liceo","null","6","null","6","null","6","null","6","null","6","null","6","null","6","41.627894","15.907547"],
    [1296,"2024-02-23 23:00:00","20","manfredonia_liceo","null","6","null","6","null","6","null","6","null","6","null","6","null","6","41.627894","15.907547"],
    [1297,"2024-02-24 00:00:00","20","manfredonia_liceo","null","6","null","6","null","6","null","6","null","6","null","6","null","6","41.627894","15.907547"],
    [1298,"2024-02-24 01:00:00","20","manfredonia_liceo","null","6","null","6","null","6","null","6","null","6","null","6","null","6","41.627894","15.907547"],
    [1299,"2024-02-24 02:00:00","20","manfredonia_liceo","null","6","null","6","null","6","null","6","null","6","null","6","null","6","41.627894","15.907547"],
    [1300,"2024-02-24 03:00:00","20","manfredonia_liceo","null","6","null","6","null","6","null","6","null","6","null","6","null","6","41.627894","15.907547"],
    [1301,"2024-02-24 04:00:00","20","manfredonia_liceo","null","6","null","6","null","6","null","6","null","6","null","6","null","6","41.627894","15.907547"],
    [1302,"2024-02-24 05:00:00","20","manfredonia_liceo","null","6","null","6","null","6","null","6","null","6","null","6","null","6","41.627894","15.907547"],
    [1303,"2024-02-24 06:00:00","20","manfredonia_liceo","null","6","null","6","null","6","null","6","null","6","null","6","null","6","41.627894","15.907547"],
    [1304,"2024-02-24 07:00:00","20","manfredonia_liceo","null","6","null","6","null","6","null","6","null","6","null","6","null","6","41.627894","15.907547"],
    [1305,"2024-02-24 08:00:00","20","manfredonia_liceo","null","6","null","6","null","6","null","6","null","6","null","6","null","6","41.627894","15.907547"],
    [1306,"2024-02-24 09:00:00","20","manfredonia_liceo","null","6","null","6","null","6","null","6","null","6","null","6","null","6","41.627894","15.907547"],
    [1307,"2024-02-24 10:00:00","20","manfredonia_liceo","null","6","null","6","null","6","null","6","null","6","null","6","null","6","41.627894","15.907547"],
    [1308,"2024-02-24 11:00:00","20","manfredonia_liceo","null","6","null","6","null","6","null","6","null","6","null","6","null","6","41.627894","15.907547"],
    [1309,"2024-02-24 12:00:00","20","manfredonia_liceo","null","6","null","6","null","6","null","6","null","6","null","6","null","6","41.627894","15.907547"],
    [1310,"2024-02-24 13:00:00","20","manfredonia_liceo","null","6","null","6","null","6","null","6","null","6","null","6","null","6","41.627894","15.907547"],
    [1311,"2024-02-24 14:00:00","20","manfredonia_liceo","null","6","null","6","null","6","null","6","null","6","null","6","null","6","41.627894","15.907547"],
    [1312,"2024-02-24 15:00:00","20","manfredonia_liceo","null","6","null","6","null","6","null","6","null","6","null","6","null","6","41.627894","15.907547"],
    [1313,"2024-02-24 16:00:00","20","manfredonia_liceo","null","6","null","6","null","6","null","6","null","6","null","6","null","6","41.627894","15.907547"],
    [1314,"2024-02-24 17:00:00","20","manfredonia_liceo","null","6","null","6","null","6","null","6","null","6","null","6","null","6","41.627894","15.907547"],
    [1315,"2024-02-24 18:00:00","20","manfredonia_liceo","null","6","null","6","null","6","null","6","null","6","null","6","null","6","41.627894","15.907547"],
    [1316,"2024-02-24 19:00:00","20","manfredonia_liceo","null","6","null","6","null","6","null","6","null","6","null","6","null","6","41.627894","15.907547"],
    [1317,"2024-02-24 20:00:00","20","manfredonia_liceo","10.18","1","82.55","1","0.0","1","null","6","null","6","null","6","1006.23","1","41.627894","15.907547"],
    [1318,"2024-02-24 21:00:00","20","manfredonia_liceo","9.68","1","85.64","1","0.0","1","null","6","null","6","null","6","1006.48","1","41.627894","15.907547"],
    [1319,"2024-02-24 22:00:00","20","manfredonia_liceo","9.16","1","88.85","1","0.0","1","null","6","null","6","null","6","1006.65","1","41.627894","15.907547"],
    [1320,"2024-02-24 23:00:00","20","manfredonia_liceo","8.73","1","90.78","1","0.0","1","null","6","null","6","null","6","1006.51","1","41.627894","15.907547"],
    [1321,"2024-02-25 00:00:00","20","manfredonia_liceo","9.24","1","88.19","1","0.0","1","null","6","null","6","null","6","1005.97","1","41.627894","15.907547"],
    [1322,"2024-02-25 01:00:00","20","manfredonia_liceo","9.21","1","85.03","1","0.0","1","null","6","null","6","null","6","1006.03","1","41.627894","15.907547"],
    [1323,"2024-02-25 02:00:00","20","manfredonia_liceo","9.04","1","88.69","1","0.6","1","null","6","null","6","null","6","1006.79","1","41.627894","15.907547"],
    [1324,"2024-02-25 03:00:00","20","manfredonia_liceo","9.18","1","94.9","1","0.2","1","null","6","null","6","null","6","1006.08","1","41.627894","15.907547"],
    [1325,"2024-02-25 04:00:00","20","manfredonia_liceo","9.62","1","98.95","1","0.2","1","null","6","null","6","null","6","1005.17","1","41.627894","15.907547"],
    [1326,"2024-02-25 05:00:00","20","manfredonia_liceo","9.79","1","100.0","1","0.0","1","null","6","null","6","null","6","1004.54","1","41.627894","15.907547"],
    [1327,"2024-02-25 06:00:00","20","manfredonia_liceo","9.74","1","100.0","1","3.2","1","null","6","null","6","null","6","1005.08","1","41.627894","15.907547"],
    [1328,"2024-02-25 07:00:00","20","manfredonia_liceo","9.5","1","100.0","1","1.2","1","null","6","null","6","null","6","1004.8","1","41.627894","15.907547"],
    [1329,"2024-02-25 08:00:00","20","manfredonia_liceo","9.32","1","100.0","1","0.6","1","null","6","null","6","null","6","1004.7","1","41.627894","15.907547"],
    [1330,"2024-02-25 09:00:00","20","manfredonia_liceo","9.96","1","100.0","1","0.2","1","null","6","null","6","null","6","1004.62","1","41.627894","15.907547"],
    [1331,"2024-02-25 10:00:00","20","manfredonia_liceo","10.2","1","100.0","1","0.4","1","null","6","null","6","null","6","1005.05","1","41.627894","15.907547"],
    [1332,"2024-02-25 11:00:00","20","manfredonia_liceo","10.6","1","100.0","1","0.0","1","null","6","null","6","null","6","1004.5","1","41.627894","15.907547"],
    [1333,"2024-02-25 12:00:00","20","manfredonia_liceo","11.65","1","99.21","1","0.0","1","null","6","null","6","null","6","1004.58","1","41.627894","15.907547"],
    [1334,"2024-02-25 13:00:00","20","manfredonia_liceo","12.84","1","90.6","1","0.0","1","null","6","null","6","null","6","1003.75","1","41.627894","15.907547"],
    [1335,"2024-02-25 14:00:00","20","manfredonia_liceo","13.83","1","74.83","1","0.0","1","null","6","null","6","null","6","1002.81","1","41.627894","15.907547"],
    [1336,"2024-02-25 15:00:00","20","manfredonia_liceo","12.88","1","81.71","1","1.6","1","null","6","null","6","null","6","1003.28","1","41.627894","15.907547"],
    [1337,"2024-02-25 16:00:00","20","manfredonia_liceo","11.58","1","93.23","1","1.6","1","null","6","null","6","null","6","1002.98","1","41.627894","15.907547"],
    [1338,"2024-02-25 17:00:00","20","manfredonia_liceo","10.97","1","99.42","1","2.4","1","null","6","null","6","null","6","1002.88","1","41.627894","15.907547"],
    [1339,"2024-02-25 18:00:00","20","manfredonia_liceo","10.63","1","100.0","1","2.4","1","null","6","null","6","null","6","1002.93","1","41.627894","15.907547"],
    [1340,"2024-02-25 19:00:00","20","manfredonia_liceo","10.39","1","100.0","1","0.8","1","null","6","null","6","null","6","1002.98","1","41.627894","15.907547"],
    [1341,"2024-02-25 20:00:00","20","manfredonia_liceo","10.28","1","100.0","1","0.2","1","null","6","null","6","null","6","1003.3","1","41.627894","15.907547"],
    [1342,"2024-02-25 21:00:00","20","manfredonia_liceo","10.21","1","null","3","0.0","1","null","6","null","6","null","6","1003.1","1","41.627894","15.907547"],
    [1343,"2024-02-25 22:00:00","20","manfredonia_liceo","10.13","1","null","3","0.0","1","null","6","null","6","null","6","1003.14","1","41.627894","15.907547"],
    [1344,"2024-02-25 23:00:00","20","manfredonia_liceo","9.91","1","null","3","0.0","1","null","6","null","6","null","6","1003.03","1","41.627894","15.907547"],
    [1345,"2024-02-26 00:00:00","20","manfredonia_liceo","9.72","1","null","3","0.0","1","null","6","null","6","null","6","1002.65","1","41.627894","15.907547"],
    [1346,"2024-02-26 01:00:00","20","manfredonia_liceo","9.49","1","null","3","0.0","1","null","6","null","6","null","6","1002.8","1","41.627894","15.907547"],
    [1347,"2024-02-26 02:00:00","20","manfredonia_liceo","9.94","1","null","3","0.0","1","null","6","null","6","null","6","1002.93","1","41.627894","15.907547"],
    [1348,"2024-02-26 03:00:00","20","manfredonia_liceo","10.17","1","100.0","1","0.2","1","null","6","null","6","null","6","1002.84","1","41.627894","15.907547"],
    [1349,"2024-02-26 04:00:00","20","manfredonia_liceo","10.03","1","100.0","1","0.4","1","null","6","null","6","null","6","1002.56","1","41.627894","15.907547"],
    [1350,"2024-02-26 05:00:00","20","manfredonia_liceo","9.95","1","null","3","0.0","1","null","6","null","6","null","6","1002.45","1","41.627894","15.907547"],
    [1351,"2024-02-26 06:00:00","20","manfredonia_liceo","10.11","1","null","3","0.0","1","null","6","null","6","null","6","1002.2","1","41.627894","15.907547"],
    [1352,"2024-02-26 07:00:00","20","manfredonia_liceo","9.83","1","null","3","0.0","1","null","6","null","6","null","6","1002.37","1","41.627894","15.907547"],
    [1353,"2024-02-26 08:00:00","20","manfredonia_liceo","9.61","1","null","3","0.0","1","null","6","null","6","null","6","1002.61","1","41.627894","15.907547"],
    [1354,"2024-02-26 09:00:00","20","manfredonia_liceo","10.53","1","100.0","1","0.2","1","null","6","null","6","null","6","1002.95","1","41.627894","15.907547"],
    [1355,"2024-02-26 10:00:00","20","manfredonia_liceo","14.02","1","99.55","1","0.0","1","null","6","null","6","null","6","1003.01","1","41.627894","15.907547"],
    [1356,"2024-02-26 11:00:00","20","manfredonia_liceo","15.92","1","79.28","1","0.0","1","null","6","null","6","null","6","1002.97","1","41.627894","15.907547"],
    [1357,"2024-02-26 12:00:00","20","manfredonia_liceo","17.48","1","65.32","1","0.0","1","null","6","null","6","null","6","1002.72","1","41.627894","15.907547"],
    [1358,"2024-02-26 13:00:00","20","manfredonia_liceo","17.62","1","65.24","1","0.0","1","null","6","null","6","null","6","1002.37","1","41.627894","15.907547"],
    [1359,"2024-02-26 14:00:00","20","manfredonia_liceo","19.07","1","60.74","1","0.0","1","null","6","null","6","null","6","1001.96","1","41.627894","15.907547"],
    [1360,"2024-02-26 15:00:00","20","manfredonia_liceo","18.65","1","59.17","1","0.0","1","null","6","null","6","null","6","1001.65","1","41.627894","15.907547"],
    [1361,"2024-02-26 16:00:00","20","manfredonia_liceo","18.9","1","60.86","1","0.0","1","null","6","null","6","null","6","1001.48","1","41.627894","15.907547"],
    [1362,"2024-02-26 17:00:00","20","manfredonia_liceo","14.79","1","78.21","1","0.0","1","null","6","null","6","null","6","1001.69","1","41.627894","15.907547"],
    [1363,"2024-02-26 18:00:00","20","manfredonia_liceo","13.09","1","84.02","1","0.0","1","null","6","null","6","null","6","1002.04","1","41.627894","15.907547"],
    [1364,"2024-02-26 19:00:00","20","manfredonia_liceo","12.49","1","82.41","1","0.0","1","null","6","null","6","null","6","1002.56","1","41.627894","15.907547"],
    [1365,"2024-02-26 20:00:00","20","manfredonia_liceo","12.58","1","83.59","1","0.0","1","null","6","null","6","null","6","1002.76","1","41.627894","15.907547"],
    [1366,"2024-02-26 21:00:00","20","manfredonia_liceo","12.71","1","85.17","1","0.0","1","null","6","null","6","null","6","1003.14","1","41.627894","15.907547"],
    [1367,"2024-02-26 22:00:00","20","manfredonia_liceo","12.74","1","83.94","1","0.0","1","null","6","null","6","null","6","1003.51","1","41.627894","15.907547"],
    [1368,"2024-02-26 23:00:00","20","manfredonia_liceo","12.33","1","87.4","1","0.0","1","null","6","null","6","null","6","1003.48","1","41.627894","15.907547"],
    [1369,"2024-02-27 00:00:00","20","manfredonia_liceo","11.89","1","88.07","1","0.0","1","null","6","null","6","null","6","1003.33","1","41.627894","15.907547"],
    [1370,"2024-02-27 01:00:00","20","manfredonia_liceo","10.95","1","83.79","1","0.0","1","null","6","null","6","null","6","1003.42","1","41.627894","15.907547"],
    [1371,"2024-02-27 02:00:00","20","manfredonia_liceo","9.83","1","77.25","1","0.0","1","null","6","null","6","null","6","1003.3","1","41.627894","15.907547"],
    [1372,"2024-02-27 03:00:00","20","manfredonia_liceo","9.26","1","78.83","1","0.0","1","null","6","null","6","null","6","1003.52","1","41.627894","15.907547"],
    [1373,"2024-02-27 04:00:00","20","manfredonia_liceo","8.95","1","87.38","1","0.0","1","null","6","null","6","null","6","1003.33","1","41.627894","15.907547"],
    [1374,"2024-02-27 05:00:00","20","manfredonia_liceo","9.4","1","91.59","1","0.0","1","null","6","null","6","null","6","1003.3","1","41.627894","15.907547"],
    [1375,"2024-02-27 06:00:00","20","manfredonia_liceo","9.47","1","93.05","1","0.0","1","null","6","null","6","null","6","1003.3","1","41.627894","15.907547"],
    [1376,"2024-02-27 07:00:00","20","manfredonia_liceo","9.79","1","96.62","1","0.0","1","null","6","null","6","null","6","1003.55","1","41.627894","15.907547"],
    [1377,"2024-02-27 08:00:00","20","manfredonia_liceo","10.33","1","89.44","1","0.0","1","null","6","null","6","null","6","1003.72","1","41.627894","15.907547"],
    [1378,"2024-02-27 09:00:00","20","manfredonia_liceo","12.92","1","78.46","1","0.0","1","null","6","null","6","null","6","1004.33","1","41.627894","15.907547"],
    [1379,"2024-02-27 10:00:00","20","manfredonia_liceo","15.72","1","74.79","1","0.0","1","null","6","null","6","null","6","1004.53","1","41.627894","15.907547"],
    [1380,"2024-02-27 11:00:00","20","manfredonia_liceo","17.37","1","71.54","1","0.0","1","null","6","null","6","null","6","1004.76","1","41.627894","15.907547"],
    [1381,"2024-02-27 12:00:00","20","manfredonia_liceo","18.46","1","66.96","1","0.0","1","null","6","null","6","null","6","1004.49","1","41.627894","15.907547"],
    [1382,"2024-02-27 13:00:00","20","manfredonia_liceo","20.01","1","60.51","1","0.0","1","null","6","null","6","null","6","1004.17","1","41.627894","15.907547"],
    [1383,"2024-02-27 14:00:00","20","manfredonia_liceo","20.83","1","57.34","1","0.0","1","null","6","null","6","null","6","1003.66","1","41.627894","15.907547"],
    [1384,"2024-02-27 15:00:00","20","manfredonia_liceo","19.94","1","60.23","1","0.0","1","null","6","null","6","null","6","1002.88","1","41.627894","15.907547"],
    [1385,"2024-02-27 16:00:00","20","manfredonia_liceo","19.78","1","63.38","1","0.0","1","null","6","null","6","null","6","1002.55","1","41.627894","15.907547"],
    [1386,"2024-02-27 17:00:00","20","manfredonia_liceo","17.82","1","69.64","1","0.0","1","null","6","null","6","null","6","1002.79","1","41.627894","15.907547"],
    [1387,"2024-02-27 18:00:00","20","manfredonia_liceo","15.94","1","75.09","1","0.0","1","null","6","null","6","null","6","1003.43","1","41.627894","15.907547"],
    [1388,"2024-02-27 19:00:00","20","manfredonia_liceo","15.27","1","76.67","1","0.0","1","null","6","null","6","null","6","1004.09","1","41.627894","15.907547"],
    [1389,"2024-02-27 20:00:00","20","manfredonia_liceo","15.07","1","80.21","1","0.0","1","null","6","null","6","null","6","1004.77","1","41.627894","15.907547"],
    [1390,"2024-02-27 21:00:00","20","manfredonia_liceo","15.03","1","81.86","1","0.0","1","null","6","null","6","null","6","1005.33","1","41.627894","15.907547"],
    [1391,"2024-02-27 22:00:00","20","manfredonia_liceo","14.74","1","83.73","1","0.0","1","null","6","null","6","null","6","1005.69","1","41.627894","15.907547"],
    [1392,"2024-02-27 23:00:00","20","manfredonia_liceo","14.61","1","85.64","1","0.0","1","null","6","null","6","null","6","1005.86","1","41.627894","15.907547"],
    [1393,"2024-02-28 00:00:00","20","manfredonia_liceo","14.31","1","88.42","1","0.0","1","null","6","null","6","null","6","1006.06","1","41.627894","15.907547"],
    [1394,"2024-02-28 01:00:00","20","manfredonia_liceo","14.11","1","90.55","1","0.0","1","null","6","null","6","null","6","1006.23","1","41.627894","15.907547"],
    [1395,"2024-02-28 02:00:00","20","manfredonia_liceo","14.14","1","91.84","1","0.0","1","null","6","null","6","null","6","1006.23","1","41.627894","15.907547"],
    [1396,"2024-02-28 03:00:00","20","manfredonia_liceo","14.22","1","92.17","1","0.0","1","null","6","null","6","null","6","1006.37","1","41.627894","15.907547"],
    [1397,"2024-02-28 04:00:00","20","manfredonia_liceo","14.12","1","90.02","1","0.0","1","null","6","null","6","null","6","1006.31","1","41.627894","15.907547"],
    [1398,"2024-02-28 05:00:00","20","manfredonia_liceo","13.98","1","87.96","1","0.0","1","null","6","null","6","null","6","1006.56","1","41.627894","15.907547"],
    [1399,"2024-02-28 06:00:00","20","manfredonia_liceo","13.95","1","86.0","1","0.0","1","null","6","null","6","null","6","1006.54","1","41.627894","15.907547"],
    [1400,"2024-02-28 07:00:00","20","manfredonia_liceo","13.74","1","85.33","1","0.0","1","null","6","null","6","null","6","1006.95","1","41.627894","15.907547"],
    [1401,"2024-02-28 08:00:00","20","manfredonia_liceo","14.04","1","85.55","1","0.0","1","null","6","null","6","null","6","1007.46","1","41.627894","15.907547"],
    [1402,"2024-02-28 09:00:00","20","manfredonia_liceo","15.55","1","77.94","1","0.0","1","null","6","null","6","null","6","1007.71","1","41.627894","15.907547"],
    [1403,"2024-02-28 10:00:00","20","manfredonia_liceo","16.18","1","75.88","1","0.0","1","null","6","null","6","null","6","1008.09","1","41.627894","15.907547"],
    [1404,"2024-02-28 11:00:00","20","manfredonia_liceo","16.89","1","76.48","1","0.0","1","null","6","null","6","null","6","1008.39","1","41.627894","15.907547"],
    [1405,"2024-02-28 12:00:00","20","manfredonia_liceo","17.23","1","73.73","1","0.0","1","null","6","null","6","null","6","1008.35","1","41.627894","15.907547"],
    [1406,"2024-02-28 13:00:00","20","manfredonia_liceo","16.59","1","79.45","1","0.0","1","null","6","null","6","null","6","1007.75","1","41.627894","15.907547"],
    [1407,"2024-02-28 14:00:00","20","manfredonia_liceo","15.91","1","85.44","1","0.0","1","null","6","null","6","null","6","1007.45","1","41.627894","15.907547"],
    [1408,"2024-02-28 15:00:00","20","manfredonia_liceo","15.55","1","91.02","1","0.0","1","null","6","null","6","null","6","1006.96","1","41.627894","15.907547"],
    [1409,"2024-02-28 16:00:00","20","manfredonia_liceo","15.27","1","94.28","1","0.0","1","null","6","null","6","null","6","1006.91","1","41.627894","15.907547"],
    [1410,"2024-02-28 17:00:00","20","manfredonia_liceo","15.38","1","92.06","1","0.0","1","null","6","null","6","null","6","1006.93","1","41.627894","15.907547"],
    [1411,"2024-02-28 18:00:00","20","manfredonia_liceo","15.0","1","91.07","1","0.0","1","null","6","null","6","null","6","1006.98","1","41.627894","15.907547"],
    [1412,"2024-02-28 19:00:00","20","manfredonia_liceo","14.72","1","91.15","1","0.0","1","null","6","null","6","null","6","1007.05","1","41.627894","15.907547"],
    [1413,"2024-02-28 20:00:00","20","manfredonia_liceo","14.75","1","89.62","1","0.0","1","null","6","null","6","null","6","1007.32","1","41.627894","15.907547"],
    [1414,"2024-02-28 21:00:00","20","manfredonia_liceo","15.08","1","86.59","1","0.0","1","null","6","null","6","null","6","1007.33","1","41.627894","15.907547"],
    [1415,"2024-02-28 22:00:00","20","manfredonia_liceo","15.42","1","83.01","1","0.0","1","null","6","null","6","null","6","1007.64","1","41.627894","15.907547"],
    [1416,"2024-02-28 23:00:00","20","manfredonia_liceo","15.64","1","80.87","1","0.0","1","null","6","null","6","null","6","1007.61","1","41.627894","15.907547"],
    [1417,"2024-02-29 00:00:00","20","manfredonia_liceo","15.49","1","82.13","1","0.0","1","null","6","null","6","null","6","1007.33","1","41.627894","15.907547"],
    [1418,"2024-02-29 01:00:00","20","manfredonia_liceo","15.61","1","81.61","1","0.0","1","null","6","null","6","null","6","1007.33","1","41.627894","15.907547"],
    [1419,"2024-02-29 02:00:00","20","manfredonia_liceo","15.6","1","81.08","1","0.0","1","null","6","null","6","null","6","1007.22","1","41.627894","15.907547"],
    [1420,"2024-02-29 03:00:00","20","manfredonia_liceo","15.31","1","80.03","1","0.0","1","null","6","null","6","null","6","1006.8","1","41.627894","15.907547"],
    [1421,"2024-02-29 04:00:00","20","manfredonia_liceo","15.33","1","82.96","1","1.0","1","null","6","null","6","null","6","1006.01","1","41.627894","15.907547"],
    [1422,"2024-02-29 05:00:00","20","manfredonia_liceo","14.58","1","94.91","1","0.0","1","null","6","null","6","null","6","1005.15","1","41.627894","15.907547"],
    [1423,"2024-02-29 06:00:00","20","manfredonia_liceo","14.95","1","88.38","1","0.0","1","null","6","null","6","null","6","1004.56","1","41.627894","15.907547"],
    [1424,"2024-02-29 07:00:00","20","manfredonia_liceo","15.33","1","84.33","1","0.0","1","null","6","null","6","null","6","1004.04","1","41.627894","15.907547"],
    [1425,"2024-02-29 08:00:00","20","manfredonia_liceo","15.77","1","73.37","1","0.0","1","null","6","null","6","null","6","1003.92","1","41.627894","15.907547"],
    [1426,"2024-02-29 09:00:00","20","manfredonia_liceo","16.68","1","65.99","1","0.0","1","null","6","null","6","null","6","1004.03","1","41.627894","15.907547"],
    [1427,"2024-02-29 10:00:00","20","manfredonia_liceo","16.12","1","72.62","1","0.0","1","null","6","null","6","null","6","1004.54","1","41.627894","15.907547"],
    [1428,"2024-02-29 11:00:00","20","manfredonia_liceo","12.95","1","85.37","1","2.0","1","null","6","null","6","null","6","1005.22","1","41.627894","15.907547"],
    [1429,"2024-02-29 12:00:00","20","manfredonia_liceo","11.95","1","97.5","1","5.6","1","null","6","null","6","null","6","1005.46","1","41.627894","15.907547"],
    [1430,"2024-02-29 13:00:00","20","manfredonia_liceo","11.81","1","100.0","1","3.0","1","null","6","null","6","null","6","1004.8","1","41.627894","15.907547"],
    [1431,"2024-02-29 14:00:00","20","manfredonia_liceo","11.91","1","100.0","1","7.0","1","null","6","null","6","null","6","1003.63","1","41.627894","15.907547"],
    [1432,"2024-02-29 15:00:00","20","manfredonia_liceo","12.21","1","100.0","1","15.0","1","null","6","null","6","null","6","1002.96","1","41.627894","15.907547"],
    [1433,"2024-02-29 16:00:00","20","manfredonia_liceo","13.09","1","100.0","1","2.6","1","null","6","null","6","null","6","1002.05","1","41.627894","15.907547"],
    [1434,"2024-02-29 17:00:00","20","manfredonia_liceo","13.07","1","100.0","1","0.0","1","null","6","null","6","null","6","1001.65","1","41.627894","15.907547"],
    [1435,"2024-02-29 18:00:00","20","manfredonia_liceo","13.07","1","99.94","1","0.0","1","null","6","null","6","null","6","1001.78","1","41.627894","15.907547"],
    [1436,"2024-02-29 19:00:00","20","manfredonia_liceo","13.0","1","100.0","1","0.0","1","null","6","null","6","null","6","1001.13","1","41.627894","15.907547"],
    [1437,"2024-02-29 20:00:00","20","manfredonia_liceo","13.09","1","100.0","1","2.4","1","null","6","null","6","null","6","1001.1","1","41.627894","15.907547"],
    [1438,"2024-02-29 21:00:00","20","manfredonia_liceo","12.99","1","100.0","1","4.8","1","null","6","null","6","null","6","1000.85","1","41.627894","15.907547"],
    [1439,"2024-02-29 22:00:00","20","manfredonia_liceo","12.23","1","100.0","1","3.6","1","null","6","null","6","null","6","1001.01","1","41.627894","15.907547"],
    [1440,"2024-02-29 23:00:00","20","manfredonia_liceo","11.75","1","100.0","1","0.4","1","null","6","null","6","null","6","1000.36","1","41.627894","15.907547"],
    [1441,"2024-03-01 00:00:00","20","manfredonia_liceo","11.82","1","null","3","0.0","1","null","6","null","6","null","6","1000.42","1","41.627894","15.907547"],
    [1442,"2024-03-01 01:00:00","20","manfredonia_liceo","12.01","1","null","3","0.0","1","null","6","null","6","null","6","999.79","1","41.627894","15.907547"],
    [1443,"2024-03-01 02:00:00","20","manfredonia_liceo","11.69","1","null","3","0.8","1","null","6","null","6","null","6","999.87","1","41.627894","15.907547"],
    [1444,"2024-03-01 03:00:00","20","manfredonia_liceo","11.6","1","null","3","0.0","1","null","6","null","6","null","6","999.31","1","41.627894","15.907547"],
    [1445,"2024-03-01 04:00:00","20","manfredonia_liceo","11.53","1","null","3","0.0","1","null","6","null","6","null","6","999.2","1","41.627894","15.907547"],
    [1446,"2024-03-01 05:00:00","20","manfredonia_liceo","10.53","1","null","3","0.0","1","null","6","null","6","null","6","998.93","1","41.627894","15.907547"],
    [1447,"2024-03-01 06:00:00","20","manfredonia_liceo","10.19","1","null","3","0.0","1","null","6","null","6","null","6","999.46","1","41.627894","15.907547"],
    [1448,"2024-03-01 07:00:00","20","manfredonia_liceo","9.04","1","null","3","0.0","1","null","6","null","6","null","6","1000.21","1","41.627894","15.907547"],
    [1449,"2024-03-01 08:00:00","20","manfredonia_liceo","8.63","1","null","3","0.0","1","null","6","null","6","null","6","1000.69","1","41.627894","15.907547"],
    [1450,"2024-03-01 09:00:00","20","manfredonia_liceo","10.4","1","92.61","1","0.0","1","null","6","null","6","null","6","1001.03","1","41.627894","15.907547"],
    [1451,"2024-03-01 10:00:00","20","manfredonia_liceo","15.43","1","64.01","1","0.0","1","null","6","null","6","null","6","1001.37","1","41.627894","15.907547"],
    [1452,"2024-03-01 11:00:00","20","manfredonia_liceo","16.51","1","64.41","1","0.0","1","null","6","null","6","null","6","1001.62","1","41.627894","15.907547"],
    [1453,"2024-03-01 12:00:00","20","manfredonia_liceo","18.48","1","58.11","1","0.0","1","null","6","null","6","null","6","1001.98","1","41.627894","15.907547"],
    [1454,"2024-03-01 13:00:00","20","manfredonia_liceo","18.32","1","56.66","1","0.0","1","null","6","null","6","null","6","1001.55","1","41.627894","15.907547"],
    [1455,"2024-03-01 14:00:00","20","manfredonia_liceo","20.95","1","50.22","1","0.0","1","null","6","null","6","null","6","1001.18","1","41.627894","15.907547"],
    [1456,"2024-03-01 15:00:00","20","manfredonia_liceo","21.03","1","52.47","1","0.0","1","null","6","null","6","null","6","1001.1","1","41.627894","15.907547"],
    [1457,"2024-03-01 16:00:00","20","manfredonia_liceo","19.09","1","55.22","1","0.0","1","null","6","null","6","null","6","1001.06","1","41.627894","15.907547"],
    [1458,"2024-03-01 17:00:00","20","manfredonia_liceo","20.17","1","52.14","1","0.0","1","null","6","null","6","null","6","1001.1","1","41.627894","15.907547"],
    [1459,"2024-03-01 18:00:00","20","manfredonia_liceo","16.42","1","64.94","1","0.0","1","null","6","null","6","null","6","1001.44","1","41.627894","15.907547"],
    [1460,"2024-03-01 19:00:00","20","manfredonia_liceo","13.27","1","83.16","1","0.0","1","null","6","null","6","null","6","1002.17","1","41.627894","15.907547"],
    [1461,"2024-03-01 20:00:00","20","manfredonia_liceo","11.73","1","87.21","1","0.0","1","null","6","null","6","null","6","1002.41","1","41.627894","15.907547"],
    [1462,"2024-03-01 21:00:00","20","manfredonia_liceo","10.94","1","83.4","1","0.0","1","null","6","null","6","null","6","1002.69","1","41.627894","15.907547"],
    [1463,"2024-03-01 22:00:00","20","manfredonia_liceo","10.81","1","81.85","1","0.0","1","null","6","null","6","null","6","1002.93","1","41.627894","15.907547"],
    [1464,"2024-03-01 23:00:00","20","manfredonia_liceo","10.51","1","80.36","1","0.0","1","null","6","null","6","null","6","1002.93","1","41.627894","15.907547"],
    [1465,"2024-03-02 00:00:00","20","manfredonia_liceo","9.84","1","82.34","1","0.0","1","null","6","null","6","null","6","1002.93","1","41.627894","15.907547"],
    [1466,"2024-03-02 01:00:00","20","manfredonia_liceo","9.27","1","85.47","1","0.0","1","null","6","null","6","null","6","1002.98","1","41.627894","15.907547"],
    [1467,"2024-03-02 02:00:00","20","manfredonia_liceo","9.28","1","82.58","1","0.0","1","null","6","null","6","null","6","1003.3","1","41.627894","15.907547"],
    [1468,"2024-03-02 03:00:00","20","manfredonia_liceo","8.56","1","84.22","1","0.0","1","null","6","null","6","null","6","1003.11","1","41.627894","15.907547"],
    [1469,"2024-03-02 04:00:00","20","manfredonia_liceo","7.52","1","87.37","1","0.0","1","null","6","null","6","null","6","1003.11","1","41.627894","15.907547"],
    [1470,"2024-03-02 05:00:00","20","manfredonia_liceo","6.43","1","92.34","1","0.0","1","null","6","null","6","null","6","1003.3","1","41.627894","15.907547"],
    [1471,"2024-03-02 06:00:00","20","manfredonia_liceo","7.18","1","90.14","1","0.0","1","null","6","null","6","null","6","1003.57","1","41.627894","15.907547"],
    [1472,"2024-03-02 07:00:00","20","manfredonia_liceo","6.51","1","91.4","1","0.0","1","null","6","null","6","null","6","1003.99","1","41.627894","15.907547"],
    [1473,"2024-03-02 08:00:00","20","manfredonia_liceo","6.42","1","94.38","1","0.0","1","null","6","null","6","null","6","1004.47","1","41.627894","15.907547"],
    [1474,"2024-03-02 09:00:00","20","manfredonia_liceo","10.14","1","87.5","1","0.0","1","null","6","null","6","null","6","1004.96","1","41.627894","15.907547"],
    [1475,"2024-03-02 10:00:00","20","manfredonia_liceo","14.57","1","68.55","1","0.0","1","null","6","null","6","null","6","1005.5","1","41.627894","15.907547"],
    [1476,"2024-03-02 11:00:00","20","manfredonia_liceo","16.41","1","62.3","1","0.0","1","null","6","null","6","null","6","1005.86","1","41.627894","15.907547"],
    [1477,"2024-03-02 12:00:00","20","manfredonia_liceo","17.66","1","56.01","1","0.0","1","null","6","null","6","null","6","1005.77","1","41.627894","15.907547"],
    [1478,"2024-03-02 13:00:00","20","manfredonia_liceo","19.14","1","53.62","1","0.0","1","null","6","null","6","null","6","1005.37","1","41.627894","15.907547"],
    [1479,"2024-03-02 14:00:00","20","manfredonia_liceo","18.44","1","55.39","1","0.0","1","null","6","null","6","null","6","1005.13","1","41.627894","15.907547"],
    [1480,"2024-03-02 15:00:00","20","manfredonia_liceo","19.46","1","54.04","1","0.0","1","null","6","null","6","null","6","1005.12","1","41.627894","15.907547"],
    [1481,"2024-03-02 16:00:00","20","manfredonia_liceo","18.95","1","58.9","1","0.0","1","null","6","null","6","null","6","1005.14","1","41.627894","15.907547"],
    [1482,"2024-03-02 17:00:00","20","manfredonia_liceo","15.35","1","76.32","1","0.0","1","null","6","null","6","null","6","1005.51","1","41.627894","15.907547"],
    [1483,"2024-03-02 18:00:00","20","manfredonia_liceo","14.92","1","70.23","1","0.0","1","null","6","null","6","null","6","1005.82","1","41.627894","15.907547"],
    [1484,"2024-03-02 19:00:00","20","manfredonia_liceo","13.69","1","73.37","1","0.0","1","null","6","null","6","null","6","1006.12","1","41.627894","15.907547"],
    [1485,"2024-03-02 20:00:00","20","manfredonia_liceo","11.96","1","83.41","1","0.0","1","null","6","null","6","null","6","1006.32","1","41.627894","15.907547"],
    [1486,"2024-03-02 21:00:00","20","manfredonia_liceo","10.88","1","87.26","1","0.0","1","null","6","null","6","null","6","1006.71","1","41.627894","15.907547"],
    [1487,"2024-03-02 22:00:00","20","manfredonia_liceo","10.63","1","86.31","1","0.0","1","null","6","null","6","null","6","1007.19","1","41.627894","15.907547"],
    [1488,"2024-03-02 23:00:00","20","manfredonia_liceo","10.08","1","86.93","1","0.0","1","null","6","null","6","null","6","1007.33","1","41.627894","15.907547"],
    [1489,"2024-03-03 00:00:00","20","manfredonia_liceo","9.5","1","87.36","1","0.0","1","null","6","null","6","null","6","1007.56","1","41.627894","15.907547"],
    [1490,"2024-03-03 01:00:00","20","manfredonia_liceo","8.72","1","88.0","1","0.0","1","null","6","null","6","null","6","1007.49","1","41.627894","15.907547"],
    [1491,"2024-03-03 02:00:00","20","manfredonia_liceo","8.55","1","85.74","1","0.0","1","null","6","null","6","null","6","1007.35","1","41.627894","15.907547"],
    [1492,"2024-03-03 03:00:00","20","manfredonia_liceo","8.19","1","85.66","1","0.0","1","null","6","null","6","null","6","1007.13","1","41.627894","15.907547"],
    [1493,"2024-03-03 04:00:00","20","manfredonia_liceo","7.05","1","88.85","1","0.0","1","null","6","null","6","null","6","1006.59","1","41.627894","15.907547"],
    [1494,"2024-03-03 05:00:00","20","manfredonia_liceo","5.77","1","92.56","1","0.0","1","null","6","null","6","null","6","1006.33","1","41.627894","15.907547"],
    [1495,"2024-03-03 06:00:00","20","manfredonia_liceo","5.54","1","96.46","1","0.0","1","null","6","null","6","null","6","1006.23","1","41.627894","15.907547"],
    [1496,"2024-03-03 07:00:00","20","manfredonia_liceo","5.86","1","96.4","1","0.0","1","null","6","null","6","null","6","1006.23","1","41.627894","15.907547"],
    [1497,"2024-03-03 08:00:00","20","manfredonia_liceo","6.91","1","93.25","1","0.0","1","null","6","null","6","null","6","1006.57","1","41.627894","15.907547"],
    [1498,"2024-03-03 09:00:00","20","manfredonia_liceo","10.03","1","82.81","1","0.0","1","null","6","null","6","null","6","1006.61","1","41.627894","15.907547"],
    [1499,"2024-03-03 10:00:00","20","manfredonia_liceo","13.9","1","68.06","1","0.0","1","null","6","null","6","null","6","1006.85","1","41.627894","15.907547"],
    [1500,"2024-03-03 11:00:00","20","manfredonia_liceo","16.83","1","61.61","1","0.0","1","null","6","null","6","null","6","1006.54","1","41.627894","15.907547"],
    [1501,"2024-03-03 12:00:00","20","manfredonia_liceo","18.38","1","54.64","1","0.0","1","null","6","null","6","null","6","1006.17","1","41.627894","15.907547"],
    [1502,"2024-03-03 13:00:00","20","manfredonia_liceo","20.13","1","48.7","1","0.0","1","null","6","null","6","null","6","1005.48","1","41.627894","15.907547"],
    [1503,"2024-03-03 14:00:00","20","manfredonia_liceo","22.22","1","45.02","1","0.0","1","null","6","null","6","null","6","1004.66","1","41.627894","15.907547"],
    [1504,"2024-03-03 15:00:00","20","manfredonia_liceo","19.21","1","59.06","1","0.0","1","null","6","null","6","null","6","1004.05","1","41.627894","15.907547"],
    [1505,"2024-03-03 16:00:00","20","manfredonia_liceo","18.9","1","58.97","1","0.0","1","null","6","null","6","null","6","1003.69","1","41.627894","15.907547"],
    [1506,"2024-03-03 17:00:00","20","manfredonia_liceo","19.2","1","48.87","1","0.0","1","null","6","null","6","null","6","1003.01","1","41.627894","15.907547"],
    [1507,"2024-03-03 18:00:00","20","manfredonia_liceo","16.36","1","64.11","1","0.0","1","null","6","null","6","null","6","1002.59","1","41.627894","15.907547"],
    [1508,"2024-03-03 19:00:00","20","manfredonia_liceo","14.73","1","76.54","1","0.0","1","null","6","null","6","null","6","1002.6","1","41.627894","15.907547"],
    [1509,"2024-03-03 20:00:00","20","manfredonia_liceo","14.11","1","81.38","1","0.0","1","null","6","null","6","null","6","1002.92","1","41.627894","15.907547"],
    [1510,"2024-03-03 21:00:00","20","manfredonia_liceo","13.02","1","85.61","1","0.0","1","null","6","null","6","null","6","1002.85","1","41.627894","15.907547"],
    [1511,"2024-03-03 22:00:00","20","manfredonia_liceo","12.14","1","88.01","1","0.0","1","null","6","null","6","null","6","1002.22","1","41.627894","15.907547"],
    [1512,"2024-03-03 23:00:00","20","manfredonia_liceo","11.71","1","90.89","1","0.0","1","null","6","null","6","null","6","1002.05","1","41.627894","15.907547"],
    [1513,"2024-03-04 00:00:00","20","manfredonia_liceo","11.96","1","90.6","1","0.0","1","null","6","null","6","null","6","1001.54","1","41.627894","15.907547"],
    [1514,"2024-03-04 01:00:00","20","manfredonia_liceo","12.5","1","86.57","1","0.0","1","null","6","null","6","null","6","1001.31","1","41.627894","15.907547"],
    [1515,"2024-03-04 02:00:00","20","manfredonia_liceo","12.75","1","83.67","1","0.0","1","null","6","null","6","null","6","1000.84","1","41.627894","15.907547"],
    [1516,"2024-03-04 03:00:00","20","manfredonia_liceo","13.03","1","84.54","1","0.0","1","null","6","null","6","null","6","1000.66","1","41.627894","15.907547"],
    [1517,"2024-03-04 04:00:00","20","manfredonia_liceo","13.26","1","87.27","1","0.0","1","null","6","null","6","null","6","1000.05","1","41.627894","15.907547"],
    [1518,"2024-03-04 05:00:00","20","manfredonia_liceo","13.13","1","90.96","1","0.6","1","null","6","null","6","null","6","999.85","1","41.627894","15.907547"],
    [1519,"2024-03-04 06:00:00","20","manfredonia_liceo","11.88","1","92.5","1","0.8","1","null","6","null","6","null","6","999.82","1","41.627894","15.907547"],
    [1520,"2024-03-04 07:00:00","20","manfredonia_liceo","10.37","1","98.15","1","5.0","1","null","6","null","6","null","6","1000.5","1","41.627894","15.907547"],
    [1521,"2024-03-04 08:00:00","20","manfredonia_liceo","9.62","1","100.0","1","2.4","1","null","6","null","6","null","6","1000.05","1","41.627894","15.907547"],
    [1522,"2024-03-04 09:00:00","20","manfredonia_liceo","9.5","1","100.0","1","2.4","1","null","6","null","6","null","6","999.77","1","41.627894","15.907547"],
    [1523,"2024-03-04 10:00:00","20","manfredonia_liceo","9.59","1","100.0","1","3.0","1","null","6","null","6","null","6","1000.07","1","41.627894","15.907547"],
    [1524,"2024-03-04 11:00:00","20","manfredonia_liceo","10.08","1","100.0","1","0.0","1","null","6","null","6","null","6","999.69","1","41.627894","15.907547"],
    [1525,"2024-03-04 12:00:00","20","manfredonia_liceo","10.09","1","96.27","1","0.0","1","null","6","null","6","null","6","999.53","1","41.627894","15.907547"],
    [1526,"2024-03-04 13:00:00","20","manfredonia_liceo","10.57","1","87.56","1","0.0","1","null","6","null","6","null","6","999.67","1","41.627894","15.907547"],
    [1527,"2024-03-04 14:00:00","20","manfredonia_liceo","12.43","1","74.61","1","0.0","1","null","6","null","6","null","6","999.06","1","41.627894","15.907547"],
    [1528,"2024-03-04 15:00:00","20","manfredonia_liceo","13.27","1","69.15","1","0.0","1","null","6","null","6","null","6","998.85","1","41.627894","15.907547"],
    [1529,"2024-03-04 16:00:00","20","manfredonia_liceo","13.14","1","70.88","1","0.0","1","null","6","null","6","null","6","998.53","1","41.627894","15.907547"],
    [1530,"2024-03-04 17:00:00","20","manfredonia_liceo","12.51","1","71.11","1","0.0","1","null","6","null","6","null","6","998.27","1","41.627894","15.907547"],
    [1531,"2024-03-04 18:00:00","20","manfredonia_liceo","11.65","1","76.4","1","0.0","1","null","6","null","6","null","6","998.27","1","41.627894","15.907547"],
    [1532,"2024-03-04 19:00:00","20","manfredonia_liceo","10.93","1","71.4","1","0.0","1","null","6","null","6","null","6","999.11","1","41.627894","15.907547"],
    [1533,"2024-03-04 20:00:00","20","manfredonia_liceo","10.74","1","73.52","1","0.0","1","null","6","null","6","null","6","999.41","1","41.627894","15.907547"],
    [1534,"2024-03-04 21:00:00","20","manfredonia_liceo","10.64","1","77.37","1","0.0","1","null","6","null","6","null","6","999.86","1","41.627894","15.907547"],
    [1535,"2024-03-04 22:00:00","20","manfredonia_liceo","10.74","1","79.7","1","0.0","1","null","6","null","6","null","6","1000.32","1","41.627894","15.907547"],
    [1536,"2024-03-04 23:00:00","20","manfredonia_liceo","9.91","1","80.99","1","0.0","1","null","6","null","6","null","6","1000.69","1","41.627894","15.907547"],
    [1537,"2024-03-05 00:00:00","20","manfredonia_liceo","8.95","1","90.38","1","0.0","1","null","6","null","6","null","6","1001.14","1","41.627894","15.907547"],
    [1538,"2024-03-05 01:00:00","20","manfredonia_liceo","8.95","1","94.79","1","0.0","1","null","6","null","6","null","6","1001.52","1","41.627894","15.907547"],
    [1539,"2024-03-05 02:00:00","20","manfredonia_liceo","8.22","1","95.4","1","0.0","1","null","6","null","6","null","6","1001.87","1","41.627894","15.907547"],
    [1540,"2024-03-05 03:00:00","20","manfredonia_liceo","7.19","1","96.97","1","0.0","1","null","6","null","6","null","6","1002.2","1","41.627894","15.907547"],
    [1541,"2024-03-05 04:00:00","20","manfredonia_liceo","6.6","1","98.14","1","0.0","1","null","6","null","6","null","6","1002.42","1","41.627894","15.907547"],
    [1542,"2024-03-05 05:00:00","20","manfredonia_liceo","6.64","1","97.45","1","0.0","1","null","6","null","6","null","6","1003.03","1","41.627894","15.907547"],
    [1543,"2024-03-05 06:00:00","20","manfredonia_liceo","7.17","1","91.13","1","0.0","1","null","6","null","6","null","6","1003.3","1","41.627894","15.907547"],
    [1544,"2024-03-05 07:00:00","20","manfredonia_liceo","8.62","1","81.48","1","0.0","1","null","6","null","6","null","6","1003.45","1","41.627894","15.907547"],
    [1545,"2024-03-05 08:00:00","20","manfredonia_liceo","7.98","1","86.17","1","0.0","1","null","6","null","6","null","6","1003.91","1","41.627894","15.907547"],
    [1546,"2024-03-05 09:00:00","20","manfredonia_liceo","9.67","1","83.83","1","0.0","1","null","6","null","6","null","6","1004.4","1","41.627894","15.907547"],
    [1547,"2024-03-05 10:00:00","20","manfredonia_liceo","12.25","1","80.43","1","0.0","1","null","6","null","6","null","6","1004.64","1","41.627894","15.907547"],
    [1548,"2024-03-05 11:00:00","20","manfredonia_liceo","13.78","1","76.42","1","0.0","1","null","6","null","6","null","6","1005.04","1","41.627894","15.907547"],
    [1549,"2024-03-05 12:00:00","20","manfredonia_liceo","17.3","1","61.61","1","0.0","1","null","6","null","6","null","6","1005.18","1","41.627894","15.907547"],
    [1550,"2024-03-05 13:00:00","20","manfredonia_liceo","16.61","1","65.45","1","0.0","1","null","6","null","6","null","6","1005.54","1","41.627894","15.907547"],
    [1551,"2024-03-05 14:00:00","20","manfredonia_liceo","16.31","1","66.71","1","0.0","1","null","6","null","6","null","6","1005.48","1","41.627894","15.907547"],
    [1552,"2024-03-05 15:00:00","20","manfredonia_liceo","16.23","1","66.3","1","0.0","1","null","6","null","6","null","6","1005.29","1","41.627894","15.907547"],
    [1553,"2024-03-05 16:00:00","20","manfredonia_liceo","18.67","1","55.66","1","0.0","1","null","6","null","6","null","6","1005.13","1","41.627894","15.907547"],
    [1554,"2024-03-05 17:00:00","20","manfredonia_liceo","18.54","1","53.78","1","0.0","1","null","6","null","6","null","6","1005.59","1","41.627894","15.907547"],
    [1555,"2024-03-05 18:00:00","20","manfredonia_liceo","16.11","1","55.36","1","0.0","1","null","6","null","6","null","6","1006.14","1","41.627894","15.907547"],
    [1556,"2024-03-05 19:00:00","20","manfredonia_liceo","13.86","1","64.53","1","0.0","1","null","6","null","6","null","6","1006.72","1","41.627894","15.907547"],
    [1557,"2024-03-05 20:00:00","20","manfredonia_liceo","11.82","1","76.83","1","0.0","1","null","6","null","6","null","6","1007.1","1","41.627894","15.907547"],
    [1558,"2024-03-05 21:00:00","20","manfredonia_liceo","10.76","1","78.03","1","0.0","1","null","6","null","6","null","6","1007.33","1","41.627894","15.907547"],
    [1559,"2024-03-05 22:00:00","20","manfredonia_liceo","10.16","1","82.21","1","0.0","1","null","6","null","6","null","6","1007.33","1","41.627894","15.907547"],
    [1560,"2024-03-05 23:00:00","20","manfredonia_liceo","10.0","1","85.79","1","0.0","1","null","6","null","6","null","6","1007.74","1","41.627894","15.907547"],
    [1561,"2024-03-06 00:00:00","20","manfredonia_liceo","9.93","1","86.41","1","0.0","1","null","6","null","6","null","6","1008.28","1","41.627894","15.907547"],
    [1562,"2024-03-06 01:00:00","20","manfredonia_liceo","9.69","1","86.62","1","0.0","1","null","6","null","6","null","6","1008.53","1","41.627894","15.907547"],
    [1563,"2024-03-06 02:00:00","20","manfredonia_liceo","9.22","1","89.06","1","0.0","1","null","6","null","6","null","6","1008.79","1","41.627894","15.907547"],
    [1564,"2024-03-06 03:00:00","20","manfredonia_liceo","8.02","1","93.46","1","0.0","1","null","6","null","6","null","6","1008.93","1","41.627894","15.907547"],
    [1565,"2024-03-06 04:00:00","20","manfredonia_liceo","8.65","1","89.25","1","0.0","1","null","6","null","6","null","6","1008.83","1","41.627894","15.907547"],
    [1566,"2024-03-06 05:00:00","20","manfredonia_liceo","8.68","1","88.37","1","0.0","1","null","6","null","6","null","6","1008.48","1","41.627894","15.907547"],
    [1567,"2024-03-06 06:00:00","20","manfredonia_liceo","8.18","1","89.81","1","0.0","1","null","6","null","6","null","6","1008.57","1","41.627894","15.907547"],
    [1568,"2024-03-06 07:00:00","20","manfredonia_liceo","8.91","1","85.74","1","0.0","1","null","6","null","6","null","6","1008.84","1","41.627894","15.907547"],
    [1569,"2024-03-06 08:00:00","20","manfredonia_liceo","9.85","1","82.06","1","0.0","1","null","6","null","6","null","6","1009.22","1","41.627894","15.907547"],
    [1570,"2024-03-06 09:00:00","20","manfredonia_liceo","12.56","1","73.3","1","0.0","1","null","6","null","6","null","6","1009.52","1","41.627894","15.907547"],
    [1571,"2024-03-06 10:00:00","20","manfredonia_liceo","15.48","1","64.63","1","0.0","1","null","6","null","6","null","6","1009.74","1","41.627894","15.907547"],
    [1572,"2024-03-06 11:00:00","20","manfredonia_liceo","17.21","1","61.84","1","0.0","1","null","6","null","6","null","6","1010.04","1","41.627894","15.907547"],
    [1573,"2024-03-06 12:00:00","20","manfredonia_liceo","18.08","1","53.17","1","0.0","1","null","6","null","6","null","6","1009.87","1","41.627894","15.907547"],
    [1574,"2024-03-06 13:00:00","20","manfredonia_liceo","19.41","1","50.46","1","0.0","1","null","6","null","6","null","6","1009.47","1","41.627894","15.907547"],
    [1575,"2024-03-06 14:00:00","20","manfredonia_liceo","20.28","1","52.15","1","0.0","1","null","6","null","6","null","6","1008.93","1","41.627894","15.907547"],
    [1576,"2024-03-06 15:00:00","20","manfredonia_liceo","17.79","1","67.48","1","0.0","1","null","6","null","6","null","6","1008.65","1","41.627894","15.907547"],
    [1577,"2024-03-06 16:00:00","20","manfredonia_liceo","18.94","1","45.94","1","0.0","1","null","6","null","6","null","6","1008.5","1","41.627894","15.907547"],
    [1578,"2024-03-06 17:00:00","20","manfredonia_liceo","17.57","1","38.5","1","0.0","1","null","6","null","6","null","6","1008.2","1","41.627894","15.907547"],
    [1579,"2024-03-06 18:00:00","20","manfredonia_liceo","15.48","1","40.18","1","0.0","1","null","6","null","6","null","6","1008.67","1","41.627894","15.907547"],
    [1580,"2024-03-06 19:00:00","20","manfredonia_liceo","13.31","1","52.13","1","0.0","1","null","6","null","6","null","6","1009.24","1","41.627894","15.907547"],
    [1581,"2024-03-06 20:00:00","20","manfredonia_liceo","11.58","1","62.66","1","0.0","1","null","6","null","6","null","6","1009.54","1","41.627894","15.907547"],
    [1582,"2024-03-06 21:00:00","20","manfredonia_liceo","10.7","1","68.0","1","0.0","1","null","6","null","6","null","6","1010.15","1","41.627894","15.907547"],
    [1583,"2024-03-06 22:00:00","20","manfredonia_liceo","10.22","1","65.43","1","0.0","1","null","6","null","6","null","6","1010.4","1","41.627894","15.907547"],
    [1584,"2024-03-06 23:00:00","20","manfredonia_liceo","8.23","1","77.05","1","0.0","1","null","6","null","6","null","6","1010.51","1","41.627894","15.907547"],
    [1585,"2024-03-07 00:00:00","20","manfredonia_liceo","6.79","1","85.38","1","0.0","1","null","6","null","6","null","6","1010.18","1","41.627894","15.907547"],
    [1586,"2024-03-07 01:00:00","20","manfredonia_liceo","6.09","1","89.52","1","0.0","1","null","6","null","6","null","6","1009.71","1","41.627894","15.907547"],
    [1587,"2024-03-07 02:00:00","20","manfredonia_liceo","5.67","1","90.66","1","0.0","1","null","6","null","6","null","6","1009.52","1","41.627894","15.907547"],
    [1588,"2024-03-07 03:00:00","20","manfredonia_liceo","5.07","1","90.14","1","0.0","1","null","6","null","6","null","6","1009.23","1","41.627894","15.907547"],
    [1589,"2024-03-07 04:00:00","20","manfredonia_liceo","4.82","1","90.03","1","0.0","1","null","6","null","6","null","6","1008.94","1","41.627894","15.907547"],
    [1590,"2024-03-07 05:00:00","20","manfredonia_liceo","4.24","1","90.89","1","0.0","1","null","6","null","6","null","6","1008.79","1","41.627894","15.907547"],
    [1591,"2024-03-07 06:00:00","20","manfredonia_liceo","5.73","1","80.39","1","0.0","1","null","6","null","6","null","6","1008.64","1","41.627894","15.907547"],
    [1592,"2024-03-07 07:00:00","20","manfredonia_liceo","6.12","1","77.46","1","0.0","1","null","6","null","6","null","6","1008.75","1","41.627894","15.907547"],
    [1593,"2024-03-07 08:00:00","20","manfredonia_liceo","7.34","1","74.2","1","0.0","1","null","6","null","6","null","6","1009.13","1","41.627894","15.907547"],
    [1594,"2024-03-07 09:00:00","20","manfredonia_liceo","9.78","1","71.2","1","0.0","1","null","6","null","6","null","6","1009.33","1","41.627894","15.907547"],
    [1595,"2024-03-07 10:00:00","20","manfredonia_liceo","12.78","1","61.48","1","0.0","1","null","6","null","6","null","6","1009.53","1","41.627894","15.907547"],
    [1596,"2024-03-07 11:00:00","20","manfredonia_liceo","14.59","1","54.48","1","0.0","1","null","6","null","6","null","6","1009.85","1","41.627894","15.907547"],
    [1597,"2024-03-07 12:00:00","20","manfredonia_liceo","15.22","1","49.28","1","0.0","1","null","6","null","6","null","6","1009.9","1","41.627894","15.907547"],
    [1598,"2024-03-07 13:00:00","20","manfredonia_liceo","15.54","1","47.68","1","0.0","1","null","6","null","6","null","6","1009.75","1","41.627894","15.907547"],
    [1599,"2024-03-07 14:00:00","20","manfredonia_liceo","15.7","1","47.86","1","0.0","1","null","6","null","6","null","6","1009.31","1","41.627894","15.907547"],
    [1600,"2024-03-07 15:00:00","20","manfredonia_liceo","14.0","1","53.95","1","0.0","1","null","6","null","6","null","6","1009.3","1","41.627894","15.907547"],
    [1601,"2024-03-07 16:00:00","20","manfredonia_liceo","14.17","1","57.71","1","0.0","1","null","6","null","6","null","6","1009.35","1","41.627894","15.907547"],
    [1602,"2024-03-07 17:00:00","20","manfredonia_liceo","12.92","1","67.62","1","0.2","1","null","6","null","6","null","6","1009.8","1","41.627894","15.907547"],
    [1603,"2024-03-07 18:00:00","20","manfredonia_liceo","12.46","1","64.39","1","0.0","1","null","6","null","6","null","6","1009.93","1","41.627894","15.907547"],
    [1604,"2024-03-07 19:00:00","20","manfredonia_liceo","11.67","1","66.14","1","0.0","1","null","6","null","6","null","6","1010.28","1","41.627894","15.907547"],
    [1605,"2024-03-07 20:00:00","20","manfredonia_liceo","11.11","1","66.94","1","0.0","1","null","6","null","6","null","6","1010.82","1","41.627894","15.907547"],
    [1606,"2024-03-07 21:00:00","20","manfredonia_liceo","10.45","1","71.48","1","0.0","1","null","6","null","6","null","6","1011.17","1","41.627894","15.907547"],
    [1607,"2024-03-07 22:00:00","20","manfredonia_liceo","9.25","1","76.96","1","0.0","1","null","6","null","6","null","6","1011.64","1","41.627894","15.907547"],
    [1608,"2024-03-07 23:00:00","20","manfredonia_liceo","8.33","1","78.51","1","0.0","1","null","6","null","6","null","6","1011.56","1","41.627894","15.907547"],
    [1609,"2024-03-08 00:00:00","20","manfredonia_liceo","8.94","1","74.8","1","0.0","1","null","6","null","6","null","6","1011.37","1","41.627894","15.907547"],
    [1610,"2024-03-08 01:00:00","20","manfredonia_liceo","8.78","1","75.53","1","0.0","1","null","6","null","6","null","6","1011.42","1","41.627894","15.907547"],
    [1611,"2024-03-08 02:00:00","20","manfredonia_liceo","7.27","1","81.51","1","0.0","1","null","6","null","6","null","6","1011.72","1","41.627894","15.907547"],
    [1612,"2024-03-08 03:00:00","20","manfredonia_liceo","6.83","1","80.78","1","0.0","1","null","6","null","6","null","6","1011.45","1","41.627894","15.907547"],
    [1613,"2024-03-08 04:00:00","20","manfredonia_liceo","5.44","1","86.61","1","0.0","1","null","6","null","6","null","6","1011.22","1","41.627894","15.907547"],
    [1614,"2024-03-08 05:00:00","20","manfredonia_liceo","5.11","1","88.97","1","0.0","1","null","6","null","6","null","6","1010.99","1","41.627894","15.907547"],
    [1615,"2024-03-08 06:00:00","20","manfredonia_liceo","4.42","1","89.53","1","0.0","1","null","6","null","6","null","6","1010.99","1","41.627894","15.907547"],
    [1616,"2024-03-08 07:00:00","20","manfredonia_liceo","3.63","1","91.61","1","0.0","1","null","6","null","6","null","6","1010.99","1","41.627894","15.907547"],
    [1617,"2024-03-08 08:00:00","20","manfredonia_liceo","4.83","1","91.33","1","0.0","1","null","6","null","6","null","6","1011.32","1","41.627894","15.907547"],
    [1618,"2024-03-08 09:00:00","20","manfredonia_liceo","9.96","1","76.22","1","0.0","1","null","6","null","6","null","6","1011.68","1","41.627894","15.907547"],
    [1619,"2024-03-08 10:00:00","20","manfredonia_liceo","13.48","1","65.4","1","0.0","1","null","6","null","6","null","6","1011.72","1","41.627894","15.907547"],
    [1620,"2024-03-08 11:00:00","20","manfredonia_liceo","16.59","1","58.82","1","0.0","1","null","6","null","6","null","6","1011.72","1","41.627894","15.907547"],
    [1621,"2024-03-08 12:00:00","20","manfredonia_liceo","17.23","1","55.94","1","0.0","1","null","6","null","6","null","6","1011.72","1","41.627894","15.907547"],
    [1622,"2024-03-08 13:00:00","20","manfredonia_liceo","17.91","1","52.17","1","0.0","1","null","6","null","6","null","6","1011.56","1","41.627894","15.907547"],
    [1623,"2024-03-08 14:00:00","20","manfredonia_liceo","19.47","1","46.59","1","0.0","1","null","6","null","6","null","6","1010.86","1","41.627894","15.907547"],
    [1624,"2024-03-08 15:00:00","20","manfredonia_liceo","18.18","1","53.08","1","0.0","1","null","6","null","6","null","6","1010.26","1","41.627894","15.907547"],
    [1625,"2024-03-08 16:00:00","20","manfredonia_liceo","18.17","1","56.87","1","0.0","1","null","6","null","6","null","6","1010.08","1","41.627894","15.907547"],
    [1626,"2024-03-08 17:00:00","20","manfredonia_liceo","15.8","1","65.57","1","0.0","1","null","6","null","6","null","6","1009.89","1","41.627894","15.907547"],
    [1627,"2024-03-08 18:00:00","20","manfredonia_liceo","13.67","1","69.61","1","0.0","1","null","6","null","6","null","6","1009.89","1","41.627894","15.907547"],
    [1628,"2024-03-08 19:00:00","20","manfredonia_liceo","12.77","1","73.17","1","0.0","1","null","6","null","6","null","6","1010.23","1","41.627894","15.907547"],
    [1629,"2024-03-08 20:00:00","20","manfredonia_liceo","12.65","1","76.6","1","0.0","1","null","6","null","6","null","6","1010.26","1","41.627894","15.907547"],
    [1630,"2024-03-08 21:00:00","20","manfredonia_liceo","12.95","1","77.04","1","0.0","1","null","6","null","6","null","6","1010.38","1","41.627894","15.907547"],
    [1631,"2024-03-08 22:00:00","20","manfredonia_liceo","12.77","1","78.2","1","0.0","1","null","6","null","6","null","6","1010.16","1","41.627894","15.907547"],
    [1632,"2024-03-08 23:00:00","20","manfredonia_liceo","12.72","1","77.0","1","0.0","1","null","6","null","6","null","6","1009.89","1","41.627894","15.907547"],
    [1633,"2024-03-09 00:00:00","20","manfredonia_liceo","12.35","1","77.68","1","0.0","1","null","6","null","6","null","6","1009.53","1","41.627894","15.907547"],
    [1634,"2024-03-09 01:00:00","20","manfredonia_liceo","11.79","1","81.64","1","0.0","1","null","6","null","6","null","6","1009.16","1","41.627894","15.907547"],
    [1635,"2024-03-09 02:00:00","20","manfredonia_liceo","12.06","1","82.09","1","0.0","1","null","6","null","6","null","6","1009.06","1","41.627894","15.907547"],
    [1636,"2024-03-09 03:00:00","20","manfredonia_liceo","11.9","1","84.93","1","0.0","1","null","6","null","6","null","6","1008.05","1","41.627894","15.907547"],
    [1637,"2024-03-09 04:00:00","20","manfredonia_liceo","11.84","1","85.0","1","0.0","1","null","6","null","6","null","6","1007.72","1","41.627894","15.907547"],
    [1638,"2024-03-09 05:00:00","20","manfredonia_liceo","11.67","1","87.22","1","0.0","1","null","6","null","6","null","6","1007.68","1","41.627894","15.907547"],
    [1639,"2024-03-09 06:00:00","20","manfredonia_liceo","11.77","1","89.17","1","0.0","1","null","6","null","6","null","6","1007.64","1","41.627894","15.907547"],
    [1640,"2024-03-09 07:00:00","20","manfredonia_liceo","11.85","1","89.74","1","0.0","1","null","6","null","6","null","6","1007.14","1","41.627894","15.907547"],
    [1641,"2024-03-09 08:00:00","20","manfredonia_liceo","12.37","1","85.58","1","0.0","1","null","6","null","6","null","6","1007.19","1","41.627894","15.907547"],
    [1642,"2024-03-09 09:00:00","20","manfredonia_liceo","14.37","1","76.84","1","0.0","1","null","6","null","6","null","6","1007.6","1","41.627894","15.907547"],
    [1643,"2024-03-09 10:00:00","20","manfredonia_liceo","15.62","1","71.84","1","0.0","1","null","6","null","6","null","6","1007.63","1","41.627894","15.907547"],
    [1644,"2024-03-09 11:00:00","20","manfredonia_liceo","15.1","1","76.52","1","0.0","1","null","6","null","6","null","6","1007.73","1","41.627894","15.907547"],
    [1645,"2024-03-09 12:00:00","20","manfredonia_liceo","14.95","1","82.94","1","0.8","1","null","6","null","6","null","6","1007.77","1","41.627894","15.907547"],
    [1646,"2024-03-09 13:00:00","20","manfredonia_liceo","14.12","1","91.91","1","2.6","1","null","6","null","6","null","6","1007.84","1","41.627894","15.907547"],
    [1647,"2024-03-09 14:00:00","20","manfredonia_liceo","14.4","1","95.93","1","2.2","1","null","6","null","6","null","6","1007.55","1","41.627894","15.907547"],
    [1648,"2024-03-09 15:00:00","20","manfredonia_liceo","14.83","1","89.53","1","0.2","1","null","6","null","6","null","6","1007.04","1","41.627894","15.907547"],
    [1649,"2024-03-09 16:00:00","20","manfredonia_liceo","15.05","1","82.91","1","0.0","1","null","6","null","6","null","6","1006.65","1","41.627894","15.907547"],
    [1650,"2024-03-09 17:00:00","20","manfredonia_liceo","17.31","1","76.96","1","0.0","1","null","6","null","6","null","6","1006.41","1","41.627894","15.907547"],
    [1651,"2024-03-09 18:00:00","20","manfredonia_liceo","16.65","1","73.58","1","0.0","1","null","6","null","6","null","6","1006.13","1","41.627894","15.907547"],
    [1652,"2024-03-09 19:00:00","20","manfredonia_liceo","13.72","1","83.17","1","0.0","1","null","6","null","6","null","6","1006.3","1","41.627894","15.907547"],
    [1653,"2024-03-09 20:00:00","20","manfredonia_liceo","12.11","1","90.19","1","0.0","1","null","6","null","6","null","6","1006.67","1","41.627894","15.907547"],
    [1654,"2024-03-09 21:00:00","20","manfredonia_liceo","11.68","1","94.49","1","0.0","1","null","6","null","6","null","6","1006.98","1","41.627894","15.907547"],
    [1655,"2024-03-09 22:00:00","20","manfredonia_liceo","11.81","1","94.7","1","0.0","1","null","6","null","6","null","6","1006.91","1","41.627894","15.907547"],
    [1656,"2024-03-09 23:00:00","20","manfredonia_liceo","11.24","1","92.89","1","0.0","1","null","6","null","6","null","6","1006.27","1","41.627894","15.907547"],
    [1657,"2024-03-10 00:00:00","20","manfredonia_liceo","11.15","1","94.84","1","0.0","1","null","6","null","6","null","6","1006.02","1","41.627894","15.907547"],
    [1658,"2024-03-10 01:00:00","20","manfredonia_liceo","10.61","1","97.71","1","0.0","1","null","6","null","6","null","6","1005.89","1","41.627894","15.907547"],
    [1659,"2024-03-10 02:00:00","20","manfredonia_liceo","9.77","1","98.89","1","0.0","1","null","6","null","6","null","6","1005.72","1","41.627894","15.907547"],
    [1660,"2024-03-10 03:00:00","20","manfredonia_liceo","9.04","1","99.96","1","0.0","1","null","6","null","6","null","6","1005.32","1","41.627894","15.907547"],
    [1661,"2024-03-10 04:00:00","20","manfredonia_liceo","10.1","1","null","3","0.0","1","null","6","null","6","null","6","1004.69","1","41.627894","15.907547"],
    [1662,"2024-03-10 05:00:00","20","manfredonia_liceo","10.1","1","null","3","0.0","1","null","6","null","6","null","6","1004.41","1","41.627894","15.907547"],
    [1663,"2024-03-10 06:00:00","20","manfredonia_liceo","9.7","1","null","3","0.0","1","null","6","null","6","null","6","1004.08","1","41.627894","15.907547"],
    [1664,"2024-03-10 07:00:00","20","manfredonia_liceo","10.18","1","null","3","0.0","1","null","6","null","6","null","6","1003.94","1","41.627894","15.907547"],
    [1665,"2024-03-10 08:00:00","20","manfredonia_liceo","11.46","1","99.99","1","0.0","1","null","6","null","6","null","6","1003.87","1","41.627894","15.907547"],
    [1666,"2024-03-10 09:00:00","20","manfredonia_liceo","12.58","1","94.75","1","0.0","1","null","6","null","6","null","6","1003.98","1","41.627894","15.907547"],
    [1667,"2024-03-10 10:00:00","20","manfredonia_liceo","13.65","1","85.77","1","0.0","1","null","6","null","6","null","6","1003.94","1","41.627894","15.907547"],
    [1668,"2024-03-10 11:00:00","20","manfredonia_liceo","15.07","1","79.99","1","0.0","1","null","6","null","6","null","6","1003.41","1","41.627894","15.907547"],
    [1669,"2024-03-10 12:00:00","20","manfredonia_liceo","16.42","1","76.1","1","0.0","1","null","6","null","6","null","6","1003.04","1","41.627894","15.907547"],
    [1670,"2024-03-10 13:00:00","20","manfredonia_liceo","17.62","1","73.12","1","0.0","1","null","6","null","6","null","6","1002.23","1","41.627894","15.907547"],
    [1671,"2024-03-10 14:00:00","20","manfredonia_liceo","17.87","1","72.35","1","0.0","1","null","6","null","6","null","6","1001.78","1","41.627894","15.907547"],
    [1672,"2024-03-10 15:00:00","20","manfredonia_liceo","18.79","1","68.1","1","0.0","1","null","6","null","6","null","6","1001.32","1","41.627894","15.907547"],
    [1673,"2024-03-10 16:00:00","20","manfredonia_liceo","18.71","1","69.31","1","0.0","1","null","6","null","6","null","6","1000.62","1","41.627894","15.907547"],
    [1674,"2024-03-10 17:00:00","20","manfredonia_liceo","17.64","1","73.16","1","0.0","1","null","6","null","6","null","6","1000.4","1","41.627894","15.907547"],
    [1675,"2024-03-10 18:00:00","20","manfredonia_liceo","16.3","1","77.87","1","0.0","1","null","6","null","6","null","6","1000.72","1","41.627894","15.907547"],
    [1676,"2024-03-10 19:00:00","20","manfredonia_liceo","15.22","1","82.75","1","0.0","1","null","6","null","6","null","6","1001.21","1","41.627894","15.907547"],
    [1677,"2024-03-10 20:00:00","20","manfredonia_liceo","14.56","1","85.53","1","0.0","1","null","6","null","6","null","6","1001.54","1","41.627894","15.907547"],
    [1678,"2024-03-10 21:00:00","20","manfredonia_liceo","14.93","1","82.08","1","0.0","1","null","6","null","6","null","6","1001.65","1","41.627894","15.907547"],
    [1679,"2024-03-10 22:00:00","20","manfredonia_liceo","14.78","1","83.17","1","0.0","1","null","6","null","6","null","6","1001.96","1","41.627894","15.907547"],
    [1680,"2024-03-10 23:00:00","20","manfredonia_liceo","14.73","1","83.57","1","0.0","1","null","6","null","6","null","6","1001.58","1","41.627894","15.907547"],
    [1681,"2024-03-11 00:00:00","20","manfredonia_liceo","14.68","1","84.32","1","0.0","1","null","6","null","6","null","6","1000.89","1","41.627894","15.907547"],
    [1682,"2024-03-11 01:00:00","20","manfredonia_liceo","14.55","1","85.25","1","0.0","1","null","6","null","6","null","6","1000.05","1","41.627894","15.907547"],
    [1683,"2024-03-11 02:00:00","20","manfredonia_liceo","14.6","1","86.15","1","0.0","1","null","6","null","6","null","6","999.33","1","41.627894","15.907547"],
    [1684,"2024-03-11 03:00:00","20","manfredonia_liceo","14.54","1","86.04","1","0.0","1","null","6","null","6","null","6","999.0","1","41.627894","15.907547"],
    [1685,"2024-03-11 04:00:00","20","manfredonia_liceo","13.69","1","88.16","1","0.0","1","null","6","null","6","null","6","997.99","1","41.627894","15.907547"],
    [1686,"2024-03-11 05:00:00","20","manfredonia_liceo","13.37","1","94.01","1","1.8","1","null","6","null","6","null","6","997.38","1","41.627894","15.907547"],
    [1687,"2024-03-11 06:00:00","20","manfredonia_liceo","13.1","1","99.78","1","8.6","1","null","6","null","6","null","6","997.64","1","41.627894","15.907547"],
    [1688,"2024-03-11 07:00:00","20","manfredonia_liceo","11.58","1","100.0","1","3.2","1","null","6","null","6","null","6","997.81","1","41.627894","15.907547"],
    [1689,"2024-03-11 08:00:00","20","manfredonia_liceo","11.27","1","100.0","1","0.0","1","null","6","null","6","null","6","998.53","1","41.627894","15.907547"],
    [1690,"2024-03-11 09:00:00","20","manfredonia_liceo","12.52","1","97.0","1","0.0","1","null","6","null","6","null","6","999.4","1","41.627894","15.907547"],
    [1691,"2024-03-11 10:00:00","20","manfredonia_liceo","14.38","1","78.53","1","0.0","1","null","6","null","6","null","6","1000.2","1","41.627894","15.907547"],
    [1692,"2024-03-11 11:00:00","20","manfredonia_liceo","16.36","1","62.53","1","0.0","1","null","6","null","6","null","6","1000.74","1","41.627894","15.907547"],
    [1693,"2024-03-11 12:00:00","20","manfredonia_liceo","17.3","1","59.79","1","0.0","1","null","6","null","6","null","6","1000.94","1","41.627894","15.907547"],
    [1694,"2024-03-11 13:00:00","20","manfredonia_liceo","18.52","1","56.46","1","0.0","1","null","6","null","6","null","6","1000.73","1","41.627894","15.907547"],
    [1695,"2024-03-11 14:00:00","20","manfredonia_liceo","18.59","1","57.06","1","0.0","1","null","6","null","6","null","6","1000.73","1","41.627894","15.907547"],
    [1696,"2024-03-11 15:00:00","20","manfredonia_liceo","18.16","1","56.54","1","0.0","1","null","6","null","6","null","6","1000.44","1","41.627894","15.907547"],
    [1697,"2024-03-11 16:00:00","20","manfredonia_liceo","19.15","1","50.89","1","0.0","1","null","6","null","6","null","6","1000.42","1","41.627894","15.907547"],
    [1698,"2024-03-11 17:00:00","20","manfredonia_liceo","14.86","1","62.42","1","0.0","1","null","6","null","6","null","6","1000.93","1","41.627894","15.907547"],
    [1699,"2024-03-11 18:00:00","20","manfredonia_liceo","13.22","1","71.11","1","0.0","1","null","6","null","6","null","6","1001.22","1","41.627894","15.907547"],
    [1700,"2024-03-11 19:00:00","20","manfredonia_liceo","12.79","1","71.87","1","0.0","1","null","6","null","6","null","6","1002.09","1","41.627894","15.907547"],
    [1701,"2024-03-11 20:00:00","20","manfredonia_liceo","12.5","1","74.57","1","0.0","1","null","6","null","6","null","6","1002.56","1","41.627894","15.907547"],
    [1702,"2024-03-11 21:00:00","20","manfredonia_liceo","12.42","1","73.55","1","0.0","1","null","6","null","6","null","6","1002.91","1","41.627894","15.907547"],
    [1703,"2024-03-11 22:00:00","20","manfredonia_liceo","11.11","1","80.28","1","0.0","1","null","6","null","6","null","6","1002.95","1","41.627894","15.907547"],
    [1704,"2024-03-11 23:00:00","20","manfredonia_liceo","9.94","1","84.83","1","0.0","1","null","6","null","6","null","6","1003.28","1","41.627894","15.907547"],
    [1705,"2024-03-12 00:00:00","20","manfredonia_liceo","9.41","1","86.69","1","0.0","1","null","6","null","6","null","6","1002.98","1","41.627894","15.907547"],
    [1706,"2024-03-12 01:00:00","20","manfredonia_liceo","9.7","1","82.57","1","0.0","1","null","6","null","6","null","6","1002.64","1","41.627894","15.907547"],
    [1707,"2024-03-12 02:00:00","20","manfredonia_liceo","9.81","1","79.34","1","0.0","1","null","6","null","6","null","6","1002.91","1","41.627894","15.907547"],
    [1708,"2024-03-12 03:00:00","20","manfredonia_liceo","9.79","1","81.47","1","0.0","1","null","6","null","6","null","6","1002.68","1","41.627894","15.907547"],
    [1709,"2024-03-12 04:00:00","20","manfredonia_liceo","9.83","1","82.43","1","0.0","1","null","6","null","6","null","6","1002.29","1","41.627894","15.907547"],
    [1710,"2024-03-12 05:00:00","20","manfredonia_liceo","9.04","1","87.29","1","0.0","1","null","6","null","6","null","6","1002.26","1","41.627894","15.907547"],
    [1711,"2024-03-12 06:00:00","20","manfredonia_liceo","9.54","1","90.93","1","0.0","1","null","6","null","6","null","6","1002.68","1","41.627894","15.907547"],
    [1712,"2024-03-12 07:00:00","20","manfredonia_liceo","9.58","1","93.35","1","0.0","1","null","6","null","6","null","6","1003.03","1","41.627894","15.907547"],
    [1713,"2024-03-12 08:00:00","20","manfredonia_liceo","10.02","1","89.29","1","0.0","1","null","6","null","6","null","6","1003.75","1","41.627894","15.907547"],
    [1714,"2024-03-12 09:00:00","20","manfredonia_liceo","12.59","1","77.98","1","0.0","1","null","6","null","6","null","6","1004.19","1","41.627894","15.907547"],
    [1715,"2024-03-12 10:00:00","20","manfredonia_liceo","13.98","1","69.64","1","0.0","1","null","6","null","6","null","6","1004.71","1","41.627894","15.907547"],
    [1716,"2024-03-12 11:00:00","20","manfredonia_liceo","15.43","1","63.98","1","0.0","1","null","6","null","6","null","6","1005.04","1","41.627894","15.907547"],
    [1717,"2024-03-12 12:00:00","20","manfredonia_liceo","15.16","1","65.75","1","0.0","1","null","6","null","6","null","6","1005.37","1","41.627894","15.907547"],
    [1718,"2024-03-12 13:00:00","20","manfredonia_liceo","14.25","1","67.37","1","0.0","1","null","6","null","6","null","6","1005.8","1","41.627894","15.907547"],
    [1719,"2024-03-12 14:00:00","20","manfredonia_liceo","13.65","1","70.03","1","0.0","1","null","6","null","6","null","6","1005.86","1","41.627894","15.907547"],
    [1720,"2024-03-12 15:00:00","20","manfredonia_liceo","13.6","1","70.21","1","0.0","1","null","6","null","6","null","6","1006.01","1","41.627894","15.907547"],
    [1721,"2024-03-12 16:00:00","20","manfredonia_liceo","14.13","1","65.14","1","0.0","1","null","6","null","6","null","6","1006.21","1","41.627894","15.907547"],
    [1722,"2024-03-12 17:00:00","20","manfredonia_liceo","14.45","1","64.23","1","0.0","1","null","6","null","6","null","6","1006.42","1","41.627894","15.907547"],
    [1723,"2024-03-12 18:00:00","20","manfredonia_liceo","13.95","1","64.6","1","0.0","1","null","6","null","6","null","6","1006.74","1","41.627894","15.907547"],
    [1724,"2024-03-12 19:00:00","20","manfredonia_liceo","12.98","1","62.4","1","0.0","1","null","6","null","6","null","6","1007.27","1","41.627894","15.907547"],
    [1725,"2024-03-12 20:00:00","20","manfredonia_liceo","11.54","1","69.77","1","0.0","1","null","6","null","6","null","6","1007.67","1","41.627894","15.907547"],
    [1726,"2024-03-12 21:00:00","20","manfredonia_liceo","9.99","1","78.77","1","0.0","1","null","6","null","6","null","6","1008.23","1","41.627894","15.907547"],
    [1727,"2024-03-12 22:00:00","20","manfredonia_liceo","9.86","1","81.51","1","0.0","1","null","6","null","6","null","6","1008.64","1","41.627894","15.907547"],
    [1728,"2024-03-12 23:00:00","20","manfredonia_liceo","10.0","1","85.19","1","0.0","1","null","6","null","6","null","6","1008.81","1","41.627894","15.907547"],
    [1729,"2024-03-13 00:00:00","20","manfredonia_liceo","10.03","1","88.01","1","0.0","1","null","6","null","6","null","6","1008.9","1","41.627894","15.907547"],
    [1730,"2024-03-13 01:00:00","20","manfredonia_liceo","9.99","1","89.4","1","0.0","1","null","6","null","6","null","6","1009.0","1","41.627894","15.907547"],
    [1731,"2024-03-13 02:00:00","20","manfredonia_liceo","9.7","1","91.22","1","0.0","1","null","6","null","6","null","6","1009.11","1","41.627894","15.907547"],
    [1732,"2024-03-13 03:00:00","20","manfredonia_liceo","10.24","1","80.94","1","0.0","1","null","6","null","6","null","6","1009.04","1","41.627894","15.907547"],
    [1733,"2024-03-13 04:00:00","20","manfredonia_liceo","9.25","1","82.63","1","0.0","1","null","6","null","6","null","6","1009.16","1","41.627894","15.907547"],
    [1734,"2024-03-13 05:00:00","20","manfredonia_liceo","8.87","1","82.29","1","0.0","1","null","6","null","6","null","6","1009.15","1","41.627894","15.907547"],
    [1735,"2024-03-13 06:00:00","20","manfredonia_liceo","9.17","1","80.1","1","0.0","1","null","6","null","6","null","6","1008.94","1","41.627894","15.907547"],
    [1736,"2024-03-13 07:00:00","20","manfredonia_liceo","8.84","1","83.22","1","0.0","1","null","6","null","6","null","6","1009.11","1","41.627894","15.907547"],
    [1737,"2024-03-13 08:00:00","20","manfredonia_liceo","9.32","1","81.82","1","0.0","1","null","6","null","6","null","6","1009.58","1","41.627894","15.907547"],
    [1738,"2024-03-13 09:00:00","20","manfredonia_liceo","13.57","1","70.92","1","0.0","1","null","6","null","6","null","6","1010.29","1","41.627894","15.907547"],
    [1739,"2024-03-13 10:00:00","20","manfredonia_liceo","16.81","1","58.12","1","0.0","1","null","6","null","6","null","6","1010.83","1","41.627894","15.907547"],
    [1740,"2024-03-13 11:00:00","20","manfredonia_liceo","19.24","1","48.44","1","0.0","1","null","6","null","6","null","6","1010.99","1","41.627894","15.907547"],
    [1741,"2024-03-13 12:00:00","20","manfredonia_liceo","17.99","1","46.8","1","0.0","1","null","6","null","6","null","6","1010.88","1","41.627894","15.907547"],
    [1742,"2024-03-13 13:00:00","20","manfredonia_liceo","19.7","1","40.62","1","0.0","1","null","6","null","6","null","6","1010.5","1","41.627894","15.907547"],
    [1743,"2024-03-13 14:00:00","20","manfredonia_liceo","18.8","1","41.22","1","0.0","1","null","6","null","6","null","6","1010.26","1","41.627894","15.907547"],
    [1744,"2024-03-13 15:00:00","20","manfredonia_liceo","18.35","1","40.87","1","0.0","1","null","6","null","6","null","6","1010.23","1","41.627894","15.907547"],
    [1745,"2024-03-13 16:00:00","20","manfredonia_liceo","19.38","1","40.43","1","0.0","1","null","6","null","6","null","6","1010.06","1","41.627894","15.907547"],
    [1746,"2024-03-13 17:00:00","20","manfredonia_liceo","18.59","1","41.35","1","0.0","1","null","6","null","6","null","6","1010.06","1","41.627894","15.907547"],
    [1747,"2024-03-13 18:00:00","20","manfredonia_liceo","16.3","1","45.14","1","0.0","1","null","6","null","6","null","6","1010.26","1","41.627894","15.907547"],
    [1748,"2024-03-13 19:00:00","20","manfredonia_liceo","13.58","1","50.63","1","0.0","1","null","6","null","6","null","6","1010.53","1","41.627894","15.907547"],
    [1749,"2024-03-13 20:00:00","20","manfredonia_liceo","11.91","1","53.83","1","0.0","1","null","6","null","6","null","6","1011.15","1","41.627894","15.907547"],
    [1750,"2024-03-13 21:00:00","20","manfredonia_liceo","11.9","1","48.59","1","0.0","1","null","6","null","6","null","6","1011.57","1","41.627894","15.907547"],
    [1751,"2024-03-13 22:00:00","20","manfredonia_liceo","12.65","1","44.24","1","0.0","1","null","6","null","6","null","6","1011.72","1","41.627894","15.907547"],
    [1752,"2024-03-13 23:00:00","20","manfredonia_liceo","11.12","1","51.15","1","0.0","1","null","6","null","6","null","6","1011.72","1","41.627894","15.907547"],
    [1753,"2024-03-14 00:00:00","20","manfredonia_liceo","10.62","1","51.24","1","0.0","1","null","6","null","6","null","6","1011.72","1","41.627894","15.907547"],
    [1754,"2024-03-14 01:00:00","20","manfredonia_liceo","10.54","1","51.0","1","0.0","1","null","6","null","6","null","6","1011.72","1","41.627894","15.907547"],
    [1755,"2024-03-14 02:00:00","20","manfredonia_liceo","10.26","1","51.8","1","0.0","1","null","6","null","6","null","6","1011.75","1","41.627894","15.907547"],
    [1756,"2024-03-14 03:00:00","20","manfredonia_liceo","9.79","1","53.09","1","0.0","1","null","6","null","6","null","6","1011.51","1","41.627894","15.907547"],
    [1757,"2024-03-14 04:00:00","20","manfredonia_liceo","9.05","1","56.61","1","0.0","1","null","6","null","6","null","6","1011.48","1","41.627894","15.907547"],
    [1758,"2024-03-14 05:00:00","20","manfredonia_liceo","10.14","1","49.26","1","0.0","1","null","6","null","6","null","6","1011.68","1","41.627894","15.907547"],
    [1759,"2024-03-14 06:00:00","20","manfredonia_liceo","10.73","1","47.29","1","0.0","1","null","6","null","6","null","6","1011.72","1","41.627894","15.907547"],
    [1760,"2024-03-14 07:00:00","20","manfredonia_liceo","10.52","1","48.46","1","0.0","1","null","6","null","6","null","6","1011.97","1","41.627894","15.907547"],
    [1761,"2024-03-14 08:00:00","20","manfredonia_liceo","12.24","1","45.45","1","0.0","1","null","6","null","6","null","6","1012.09","1","41.627894","15.907547"],
    [1762,"2024-03-14 09:00:00","20","manfredonia_liceo","14.71","1","45.88","1","0.0","1","null","6","null","6","null","6","1012.47","1","41.627894","15.907547"],
    [1763,"2024-03-14 10:00:00","20","manfredonia_liceo","17.11","1","41.99","1","0.0","1","null","6","null","6","null","6","1012.82","1","41.627894","15.907547"],
    [1764,"2024-03-14 11:00:00","20","manfredonia_liceo","18.35","1","48.16","1","0.0","1","null","6","null","6","null","6","1012.82","1","41.627894","15.907547"],
    [1765,"2024-03-14 12:00:00","20","manfredonia_liceo","20.24","1","36.05","1","0.0","1","null","6","null","6","null","6","1012.63","1","41.627894","15.907547"],
    [1766,"2024-03-14 13:00:00","20","manfredonia_liceo","20.83","1","47.62","1","0.0","1","null","6","null","6","null","6","1012.48","1","41.627894","15.907547"],
    [1767,"2024-03-14 14:00:00","20","manfredonia_liceo","21.09","1","52.34","1","0.0","1","null","6","null","6","null","6","1012.25","1","41.627894","15.907547"],
    [1768,"2024-03-14 15:00:00","20","manfredonia_liceo","20.14","1","48.63","1","0.0","1","null","6","null","6","null","6","1012.09","1","41.627894","15.907547"],
    [1769,"2024-03-14 16:00:00","20","manfredonia_liceo","20.34","1","53.98","1","0.0","1","null","6","null","6","null","6","1011.84","1","41.627894","15.907547"],
    [1770,"2024-03-14 17:00:00","20","manfredonia_liceo","22.09","1","42.73","1","0.0","1","null","6","null","6","null","6","1011.72","1","41.627894","15.907547"],
    [1771,"2024-03-14 18:00:00","20","manfredonia_liceo","18.78","1","44.73","1","0.0","1","null","6","null","6","null","6","1011.84","1","41.627894","15.907547"],
    [1772,"2024-03-14 19:00:00","20","manfredonia_liceo","14.43","1","59.15","1","0.0","1","null","6","null","6","null","6","1012.15","1","41.627894","15.907547"],
    [1773,"2024-03-14 20:00:00","20","manfredonia_liceo","12.29","1","63.39","1","0.0","1","null","6","null","6","null","6","1012.53","1","41.627894","15.907547"],
    [1774,"2024-03-14 21:00:00","20","manfredonia_liceo","10.79","1","71.08","1","0.0","1","null","6","null","6","null","6","1012.82","1","41.627894","15.907547"],
    [1775,"2024-03-14 22:00:00","20","manfredonia_liceo","11.0","1","70.23","1","0.0","1","null","6","null","6","null","6","1012.82","1","41.627894","15.907547"],
    [1776,"2024-03-14 23:00:00","20","manfredonia_liceo","11.16","1","63.3","1","0.0","1","null","6","null","6","null","6","1012.82","1","41.627894","15.907547"],
    [1777,"2024-03-15 00:00:00","20","manfredonia_liceo","9.35","1","62.36","1","0.0","1","null","6","null","6","null","6","1012.48","1","41.627894","15.907547"],
    [1778,"2024-03-15 01:00:00","20","manfredonia_liceo","9.45","1","56.27","1","0.0","1","null","6","null","6","null","6","1012.45","1","41.627894","15.907547"],
    [1779,"2024-03-15 02:00:00","20","manfredonia_liceo","9.22","1","54.93","1","0.0","1","null","6","null","6","null","6","1012.33","1","41.627894","15.907547"],
    [1780,"2024-03-15 03:00:00","20","manfredonia_liceo","8.51","1","59.12","1","0.0","1","null","6","null","6","null","6","1012.09","1","41.627894","15.907547"],
    [1781,"2024-03-15 04:00:00","20","manfredonia_liceo","7.26","1","67.49","1","0.0","1","null","6","null","6","null","6","1012.09","1","41.627894","15.907547"],
    [1782,"2024-03-15 05:00:00","20","manfredonia_liceo","7.0","1","68.05","1","0.0","1","null","6","null","6","null","6","1011.91","1","41.627894","15.907547"],
    [1783,"2024-03-15 06:00:00","20","manfredonia_liceo","8.35","1","61.11","1","0.0","1","null","6","null","6","null","6","1011.77","1","41.627894","15.907547"],
    [1784,"2024-03-15 07:00:00","20","manfredonia_liceo","8.46","1","64.56","1","0.0","1","null","6","null","6","null","6","1012.09","1","41.627894","15.907547"],
    [1785,"2024-03-15 08:00:00","20","manfredonia_liceo","8.61","1","67.2","1","0.0","1","null","6","null","6","null","6","1012.38","1","41.627894","15.907547"],
    [1786,"2024-03-15 09:00:00","20","manfredonia_liceo","14.0","1","54.05","1","0.0","1","null","6","null","6","null","6","1012.47","1","41.627894","15.907547"],
    [1787,"2024-03-15 10:00:00","20","manfredonia_liceo","18.68","1","52.27","1","0.0","1","null","6","null","6","null","6","1012.99","1","41.627894","15.907547"],
    [1788,"2024-03-15 11:00:00","20","manfredonia_liceo","19.94","1","51.72","1","0.0","1","null","6","null","6","null","6","1012.88","1","41.627894","15.907547"],
    [1789,"2024-03-15 12:00:00","20","manfredonia_liceo","20.46","1","46.32","1","0.0","1","null","6","null","6","null","6","1012.67","1","41.627894","15.907547"],
    [1790,"2024-03-15 13:00:00","20","manfredonia_liceo","22.27","1","45.94","1","0.0","1","null","6","null","6","null","6","1012.09","1","41.627894","15.907547"],
    [1791,"2024-03-15 14:00:00","20","manfredonia_liceo","23.42","1","49.11","1","0.0","1","null","6","null","6","null","6","1011.56","1","41.627894","15.907547"],
    [1792,"2024-03-15 15:00:00","20","manfredonia_liceo","22.77","1","49.58","1","0.0","1","null","6","null","6","null","6","1011.09","1","41.627894","15.907547"],
    [1793,"2024-03-15 16:00:00","20","manfredonia_liceo","21.83","1","49.58","1","0.0","1","null","6","null","6","null","6","1010.94","1","41.627894","15.907547"],
    [1794,"2024-03-15 17:00:00","20","manfredonia_liceo","20.58","1","49.15","1","0.0","1","null","6","null","6","null","6","1010.96","1","41.627894","15.907547"],
    [1795,"2024-03-15 18:00:00","20","manfredonia_liceo","17.07","1","72.18","1","0.0","1","null","6","null","6","null","6","1011.57","1","41.627894","15.907547"],
    [1796,"2024-03-15 19:00:00","20","manfredonia_liceo","14.7","1","85.2","1","0.0","1","null","6","null","6","null","6","1012.05","1","41.627894","15.907547"],
    [1797,"2024-03-15 20:00:00","20","manfredonia_liceo","13.32","1","89.94","1","0.0","1","null","6","null","6","null","6","1012.67","1","41.627894","15.907547"],
    [1798,"2024-03-15 21:00:00","20","manfredonia_liceo","12.44","1","87.99","1","0.0","1","null","6","null","6","null","6","1012.82","1","41.627894","15.907547"],
    [1799,"2024-03-15 22:00:00","20","manfredonia_liceo","11.86","1","84.42","1","0.0","1","null","6","null","6","null","6","1012.85","1","41.627894","15.907547"],
    [1800,"2024-03-15 23:00:00","20","manfredonia_liceo","11.77","1","75.32","1","0.0","1","null","6","null","6","null","6","1013.05","1","41.627894","15.907547"],
    [1801,"2024-03-16 00:00:00","20","manfredonia_liceo","11.44","1","76.58","1","0.0","1","null","6","null","6","null","6","1013.19","1","41.627894","15.907547"],
    [1802,"2024-03-16 01:00:00","20","manfredonia_liceo","10.78","1","78.71","1","0.0","1","null","6","null","6","null","6","1013.2","1","41.627894","15.907547"],
    [1803,"2024-03-16 02:00:00","20","manfredonia_liceo","11.35","1","71.89","1","0.0","1","null","6","null","6","null","6","1013.08","1","41.627894","15.907547"],
    [1804,"2024-03-16 03:00:00","20","manfredonia_liceo","10.95","1","75.59","1","0.0","1","null","6","null","6","null","6","1012.83","1","41.627894","15.907547"],
    [1805,"2024-03-16 04:00:00","20","manfredonia_liceo","10.82","1","81.84","1","0.0","1","null","6","null","6","null","6","1012.88","1","41.627894","15.907547"],
    [1806,"2024-03-16 05:00:00","20","manfredonia_liceo","9.14","1","85.34","1","0.0","1","null","6","null","6","null","6","1012.91","1","41.627894","15.907547"],
    [1807,"2024-03-16 06:00:00","20","manfredonia_liceo","8.51","1","85.57","1","0.0","1","null","6","null","6","null","6","1013.19","1","41.627894","15.907547"],
    [1808,"2024-03-16 07:00:00","20","manfredonia_liceo","9.07","1","84.6","1","0.0","1","null","6","null","6","null","6","1013.18","1","41.627894","15.907547"],
    [1809,"2024-03-16 08:00:00","20","manfredonia_liceo","10.95","1","78.57","1","0.0","1","null","6","null","6","null","6","1013.26","1","41.627894","15.907547"],
    [1810,"2024-03-16 09:00:00","20","manfredonia_liceo","14.58","1","69.62","1","0.0","1","null","6","null","6","null","6","1013.76","1","41.627894","15.907547"],
    [1811,"2024-03-16 10:00:00","20","manfredonia_liceo","16.61","1","64.7","1","0.0","1","null","6","null","6","null","6","1013.93","1","41.627894","15.907547"],
    [1812,"2024-03-16 11:00:00","20","manfredonia_liceo","19.4","1","54.48","1","0.0","1","null","6","null","6","null","6","1014.09","1","41.627894","15.907547"],
    [1813,"2024-03-16 12:00:00","20","manfredonia_liceo","21.07","1","48.56","1","0.0","1","null","6","null","6","null","6","1013.92","1","41.627894","15.907547"],
    [1814,"2024-03-16 13:00:00","20","manfredonia_liceo","19.99","1","53.13","1","0.0","1","null","6","null","6","null","6","1013.78","1","41.627894","15.907547"],
    [1815,"2024-03-16 14:00:00","20","manfredonia_liceo","19.78","1","57.56","1","0.0","1","null","6","null","6","null","6","1013.35","1","41.627894","15.907547"],
    [1816,"2024-03-16 15:00:00","20","manfredonia_liceo","17.63","1","67.03","1","0.0","1","null","6","null","6","null","6","1013.19","1","41.627894","15.907547"],
    [1817,"2024-03-16 16:00:00","20","manfredonia_liceo","16.38","1","76.56","1","0.0","1","null","6","null","6","null","6","1013.14","1","41.627894","15.907547"],
    [1818,"2024-03-16 17:00:00","20","manfredonia_liceo","16.13","1","78.88","1","0.0","1","null","6","null","6","null","6","1012.86","1","41.627894","15.907547"],
    [1819,"2024-03-16 18:00:00","20","manfredonia_liceo","16.05","1","79.15","1","0.0","1","null","6","null","6","null","6","1013.1","1","41.627894","15.907547"],
    [1820,"2024-03-16 19:00:00","20","manfredonia_liceo","14.86","1","86.35","1","0.0","1","null","6","null","6","null","6","1013.51","1","41.627894","15.907547"],
    [1821,"2024-03-16 20:00:00","20","manfredonia_liceo","13.94","1","90.21","1","0.0","1","null","6","null","6","null","6","1014.0","1","41.627894","15.907547"],
    [1822,"2024-03-16 21:00:00","20","manfredonia_liceo","13.59","1","90.57","1","0.0","1","null","6","null","6","null","6","1014.33","1","41.627894","15.907547"],
    [1823,"2024-03-16 22:00:00","20","manfredonia_liceo","13.28","1","89.65","1","0.0","1","null","6","null","6","null","6","1014.61","1","41.627894","15.907547"],
    [1824,"2024-03-16 23:00:00","20","manfredonia_liceo","13.42","1","80.9","1","0.0","1","null","6","null","6","null","6","1014.97","1","41.627894","15.907547"],
    [1825,"2024-03-17 00:00:00","20","manfredonia_liceo","12.75","1","83.91","1","0.0","1","null","6","null","6","null","6","1015.02","1","41.627894","15.907547"],
    [1826,"2024-03-17 01:00:00","20","manfredonia_liceo","13.28","1","75.75","1","0.0","1","null","6","null","6","null","6","1015.02","1","41.627894","15.907547"],
    [1827,"2024-03-17 02:00:00","20","manfredonia_liceo","12.87","1","84.27","1","0.0","1","null","6","null","6","null","6","1015.02","1","41.627894","15.907547"],
    [1828,"2024-03-17 03:00:00","20","manfredonia_liceo","12.65","1","88.65","1","0.8","1","null","6","null","6","null","6","1015.0","1","41.627894","15.907547"],
    [1829,"2024-03-17 04:00:00","20","manfredonia_liceo","12.13","1","92.88","1","0.0","1","null","6","null","6","null","6","1014.65","1","41.627894","15.907547"],
    [1830,"2024-03-17 05:00:00","20","manfredonia_liceo","11.38","1","93.75","1","0.0","1","null","6","null","6","null","6","1014.49","1","41.627894","15.907547"],
    [1831,"2024-03-17 06:00:00","20","manfredonia_liceo","10.76","1","91.4","1","0.2","1","null","6","null","6","null","6","1014.65","1","41.627894","15.907547"],
    [1832,"2024-03-17 07:00:00","20","manfredonia_liceo","11.55","1","83.82","1","0.0","1","null","6","null","6","null","6","1015.02","1","41.627894","15.907547"],
    [1833,"2024-03-17 08:00:00","20","manfredonia_liceo","12.65","1","78.56","1","0.0","1","null","6","null","6","null","6","1015.42","1","41.627894","15.907547"],
    [1834,"2024-03-17 09:00:00","20","manfredonia_liceo","14.53","1","71.93","1","0.0","1","null","6","null","6","null","6","1015.98","1","41.627894","15.907547"],
    [1835,"2024-03-17 10:00:00","20","manfredonia_liceo","18.3","1","59.51","1","0.0","1","null","6","null","6","null","6","1016.29","1","41.627894","15.907547"],
    [1836,"2024-03-17 11:00:00","20","manfredonia_liceo","19.23","1","56.71","1","0.0","1","null","6","null","6","null","6","1016.48","1","41.627894","15.907547"],
    [1837,"2024-03-17 12:00:00","20","manfredonia_liceo","18.27","1","57.05","1","0.0","1","null","6","null","6","null","6","1016.19","1","41.627894","15.907547"],
    [1838,"2024-03-17 13:00:00","20","manfredonia_liceo","20.23","1","51.78","1","0.0","1","null","6","null","6","null","6","1015.97","1","41.627894","15.907547"],
    [1839,"2024-03-17 14:00:00","20","manfredonia_liceo","21.28","1","48.8","1","0.0","1","null","6","null","6","null","6","1015.48","1","41.627894","15.907547"],
    [1840,"2024-03-17 15:00:00","20","manfredonia_liceo","21.79","1","47.96","1","0.0","1","null","6","null","6","null","6","1015.02","1","41.627894","15.907547"],
    [1841,"2024-03-17 16:00:00","20","manfredonia_liceo","23.17","1","42.17","1","0.0","1","null","6","null","6","null","6","1014.65","1","41.627894","15.907547"],
    [1842,"2024-03-17 17:00:00","20","manfredonia_liceo","22.11","1","56.79","1","0.0","1","null","6","null","6","null","6","1014.65","1","41.627894","15.907547"],
    [1843,"2024-03-17 18:00:00","20","manfredonia_liceo","17.54","1","74.26","1","0.0","1","null","6","null","6","null","6","1014.65","1","41.627894","15.907547"],
    [1844,"2024-03-17 19:00:00","20","manfredonia_liceo","15.4","1","79.07","1","0.0","1","null","6","null","6","null","6","1014.65","1","41.627894","15.907547"],
    [1845,"2024-03-17 20:00:00","20","manfredonia_liceo","14.11","1","76.89","1","0.0","1","null","6","null","6","null","6","1014.65","1","41.627894","15.907547"],
    [1846,"2024-03-17 21:00:00","20","manfredonia_liceo","12.61","1","83.25","1","0.0","1","null","6","null","6","null","6","1014.93","1","41.627894","15.907547"],
    [1847,"2024-03-17 22:00:00","20","manfredonia_liceo","12.39","1","78.49","1","0.0","1","null","6","null","6","null","6","1014.66","1","41.627894","15.907547"],
    [1848,"2024-03-17 23:00:00","20","manfredonia_liceo","11.45","1","82.29","1","0.0","1","null","6","null","6","null","6","1014.88","1","41.627894","15.907547"],
    [1849,"2024-03-18 00:00:00","20","manfredonia_liceo","10.97","1","82.7","1","0.0","1","null","6","null","6","null","6","1014.42","1","41.627894","15.907547"],
    [1850,"2024-03-18 01:00:00","20","manfredonia_liceo","10.8","1","77.95","1","0.0","1","null","6","null","6","null","6","1014.2","1","41.627894","15.907547"],
    [1851,"2024-03-18 02:00:00","20","manfredonia_liceo","10.57","1","77.61","1","0.0","1","null","6","null","6","null","6","1013.73","1","41.627894","15.907547"],
    [1852,"2024-03-18 03:00:00","20","manfredonia_liceo","10.04","1","79.07","1","0.0","1","null","6","null","6","null","6","1013.05","1","41.627894","15.907547"],
    [1853,"2024-03-18 04:00:00","20","manfredonia_liceo","9.99","1","76.64","1","0.0","1","null","6","null","6","null","6","1012.37","1","41.627894","15.907547"],
    [1854,"2024-03-18 05:00:00","20","manfredonia_liceo","10.49","1","73.43","1","0.0","1","null","6","null","6","null","6","1011.98","1","41.627894","15.907547"],
    [1855,"2024-03-18 06:00:00","20","manfredonia_liceo","9.85","1","79.12","1","0.0","1","null","6","null","6","null","6","1011.7","1","41.627894","15.907547"],
    [1856,"2024-03-18 07:00:00","20","manfredonia_liceo","9.22","1","81.9","1","0.0","1","null","6","null","6","null","6","1011.56","1","41.627894","15.907547"],
    [1857,"2024-03-18 08:00:00","20","manfredonia_liceo","10.51","1","79.72","1","0.0","1","null","6","null","6","null","6","1011.45","1","41.627894","15.907547"],
    [1858,"2024-03-18 09:00:00","20","manfredonia_liceo","15.34","1","65.28","1","0.0","1","null","6","null","6","null","6","1011.35","1","41.627894","15.907547"],
    [1859,"2024-03-18 10:00:00","20","manfredonia_liceo","18.68","1","62.77","1","0.0","1","null","6","null","6","null","6","1011.08","1","41.627894","15.907547"],
    [1860,"2024-03-18 11:00:00","20","manfredonia_liceo","20.13","1","54.38","1","0.0","1","null","6","null","6","null","6","1010.47","1","41.627894","15.907547"],
    [1861,"2024-03-18 12:00:00","20","manfredonia_liceo","20.56","1","52.3","1","0.0","1","null","6","null","6","null","6","1010.02","1","41.627894","15.907547"],
    [1862,"2024-03-18 13:00:00","20","manfredonia_liceo","22.14","1","46.85","1","0.0","1","null","6","null","6","null","6","1009.3","1","41.627894","15.907547"],
    [1863,"2024-03-18 14:00:00","20","manfredonia_liceo","22.51","1","46.67","1","0.0","1","null","6","null","6","null","6","1008.52","1","41.627894","15.907547"],
    [1864,"2024-03-18 15:00:00","20","manfredonia_liceo","20.23","1","52.48","1","0.0","1","null","6","null","6","null","6","1007.92","1","41.627894","15.907547"],
    [1865,"2024-03-18 16:00:00","20","manfredonia_liceo","19.64","1","54.65","1","0.0","1","null","6","null","6","null","6","1007.61","1","41.627894","15.907547"],
    [1866,"2024-03-18 17:00:00","20","manfredonia_liceo","18.18","1","60.34","1","0.0","1","null","6","null","6","null","6","1007.33","1","41.627894","15.907547"],
    [1867,"2024-03-18 18:00:00","20","manfredonia_liceo","17.04","1","64.79","1","0.0","1","null","6","null","6","null","6","1007.33","1","41.627894","15.907547"],
    [1868,"2024-03-18 19:00:00","20","manfredonia_liceo","15.83","1","73.98","1","0.0","1","null","6","null","6","null","6","1007.54","1","41.627894","15.907547"],
    [1869,"2024-03-18 20:00:00","20","manfredonia_liceo","14.6","1","87.67","1","0.4","1","null","6","null","6","null","6","1007.69","1","41.627894","15.907547"],
    [1870,"2024-03-18 21:00:00","20","manfredonia_liceo","13.74","1","98.12","1","2.0","1","null","6","null","6","null","6","1007.69","1","41.627894","15.907547"],
    [1871,"2024-03-18 22:00:00","20","manfredonia_liceo","13.58","1","null","3","4.6","1","null","6","null","6","null","6","1007.84","1","41.627894","15.907547"],
    [1872,"2024-03-18 23:00:00","20","manfredonia_liceo","13.05","1","null","3","4.6","1","null","6","null","6","null","6","1007.93","1","41.627894","15.907547"],
    [1873,"2024-03-19 00:00:00","20","manfredonia_liceo","12.91","1","null","3","0.8","1","null","6","null","6","null","6","1007.39","1","41.627894","15.907547"],
    [1874,"2024-03-19 01:00:00","20","manfredonia_liceo","12.79","1","null","3","0.0","1","null","6","null","6","null","6","1006.96","1","41.627894","15.907547"],
    [1875,"2024-03-19 02:00:00","20","manfredonia_liceo","12.61","1","null","3","0.2","1","null","6","null","6","null","6","1006.73","1","41.627894","15.907547"],
    [1876,"2024-03-19 03:00:00","20","manfredonia_liceo","12.41","1","null","3","0.2","1","null","6","null","6","null","6","1006.51","1","41.627894","15.907547"],
    [1877,"2024-03-19 04:00:00","20","manfredonia_liceo","11.98","1","null","3","0.0","1","null","6","null","6","null","6","1006.23","1","41.627894","15.907547"],
    [1878,"2024-03-19 05:00:00","20","manfredonia_liceo","11.96","1","null","3","1.0","1","null","6","null","6","null","6","1006.46","1","41.627894","15.907547"],
    [1879,"2024-03-19 06:00:00","20","manfredonia_liceo","11.74","1","null","3","0.4","1","null","6","null","6","null","6","1006.76","1","41.627894","15.907547"],
    [1880,"2024-03-19 07:00:00","20","manfredonia_liceo","11.88","1","null","3","0.2","1","null","6","null","6","null","6","1007.26","1","41.627894","15.907547"],
    [1881,"2024-03-19 08:00:00","20","manfredonia_liceo","12.15","1","null","3","0.0","1","null","6","null","6","null","6","1007.72","1","41.627894","15.907547"],
    [1882,"2024-03-19 09:00:00","20","manfredonia_liceo","13.11","1","null","3","0.0","1","null","6","null","6","null","6","1008.4","1","41.627894","15.907547"],
    [1883,"2024-03-19 10:00:00","20","manfredonia_liceo","13.48","1","null","3","0.0","1","null","6","null","6","null","6","1009.04","1","41.627894","15.907547"],
    [1884,"2024-03-19 11:00:00","20","manfredonia_liceo","13.73","1","null","3","0.0","1","null","6","null","6","null","6","1009.49","1","41.627894","15.907547"],
    [1885,"2024-03-19 12:00:00","20","manfredonia_liceo","14.83","1","88.93","1","0.0","1","null","6","null","6","null","6","1009.82","1","41.627894","15.907547"],
    [1886,"2024-03-19 13:00:00","20","manfredonia_liceo","16.25","1","70.94","1","0.0","1","null","6","null","6","null","6","1009.7","1","41.627894","15.907547"],
    [1887,"2024-03-19 14:00:00","20","manfredonia_liceo","17.21","1","63.45","1","0.0","1","null","6","null","6","null","6","1009.52","1","41.627894","15.907547"],
    [1888,"2024-03-19 15:00:00","20","manfredonia_liceo","19.21","1","55.27","1","0.0","1","null","6","null","6","null","6","1009.52","1","41.627894","15.907547"],
    [1889,"2024-03-19 16:00:00","20","manfredonia_liceo","19.68","1","53.54","1","0.0","1","null","6","null","6","null","6","1009.53","1","41.627894","15.907547"],
    [1890,"2024-03-19 17:00:00","20","manfredonia_liceo","18.91","1","55.09","1","0.0","1","null","6","null","6","null","6","1009.89","1","41.627894","15.907547"],
    [1891,"2024-03-19 18:00:00","20","manfredonia_liceo","16.39","1","60.7","1","0.0","1","null","6","null","6","null","6","1010.5","1","41.627894","15.907547"],
    [1892,"2024-03-19 19:00:00","20","manfredonia_liceo","14.57","1","61.41","1","0.0","1","null","6","null","6","null","6","1011.0","1","41.627894","15.907547"],
    [1893,"2024-03-19 20:00:00","20","manfredonia_liceo","13.55","1","63.58","1","0.0","1","null","6","null","6","null","6","1011.59","1","41.627894","15.907547"],
    [1894,"2024-03-19 21:00:00","20","manfredonia_liceo","14.15","1","59.13","1","0.0","1","null","6","null","6","null","6","1011.72","1","41.627894","15.907547"],
    [1895,"2024-03-19 22:00:00","20","manfredonia_liceo","14.13","1","57.83","1","0.0","1","null","6","null","6","null","6","1012.53","1","41.627894","15.907547"],
    [1896,"2024-03-19 23:00:00","20","manfredonia_liceo","13.83","1","58.84","1","0.0","1","null","6","null","6","null","6","1012.87","1","41.627894","15.907547"],
    [1897,"2024-03-20 00:00:00","20","manfredonia_liceo","13.03","1","58.29","1","0.0","1","null","6","null","6","null","6","1013.33","1","41.627894","15.907547"],
    [1898,"2024-03-20 01:00:00","20","manfredonia_liceo","11.55","1","65.22","1","0.0","1","null","6","null","6","null","6","1013.57","1","41.627894","15.907547"],
    [1899,"2024-03-20 02:00:00","20","manfredonia_liceo","9.9","1","75.24","1","0.0","1","null","6","null","6","null","6","1013.88","1","41.627894","15.907547"],
    [1900,"2024-03-20 03:00:00","20","manfredonia_liceo","9.55","1","70.41","1","0.0","1","null","6","null","6","null","6","1013.72","1","41.627894","15.907547"],
    [1901,"2024-03-20 04:00:00","20","manfredonia_liceo","9.8","1","68.28","1","0.0","1","null","6","null","6","null","6","1013.59","1","41.627894","15.907547"],
    [1902,"2024-03-20 05:00:00","20","manfredonia_liceo","9.14","1","71.28","1","0.0","1","null","6","null","6","null","6","1013.54","1","41.627894","15.907547"],
    [1903,"2024-03-20 06:00:00","20","manfredonia_liceo","9.91","1","67.3","1","0.0","1","null","6","null","6","null","6","1013.66","1","41.627894","15.907547"],
    [1904,"2024-03-20 07:00:00","20","manfredonia_liceo","8.84","1","71.97","1","0.0","1","null","6","null","6","null","6","1014.16","1","41.627894","15.907547"],
    [1905,"2024-03-20 08:00:00","20","manfredonia_liceo","10.42","1","65.13","1","0.0","1","null","6","null","6","null","6","1014.79","1","41.627894","15.907547"],
    [1906,"2024-03-20 09:00:00","20","manfredonia_liceo","14.53","1","50.7","1","0.0","1","null","6","null","6","null","6","1015.42","1","41.627894","15.907547"],
    [1907,"2024-03-20 10:00:00","20","manfredonia_liceo","16.28","1","45.91","1","0.0","1","null","6","null","6","null","6","1015.91","1","41.627894","15.907547"],
    [1908,"2024-03-20 11:00:00","20","manfredonia_liceo","16.84","1","46.05","1","0.0","1","null","6","null","6","null","6","1016.12","1","41.627894","15.907547"],
    [1909,"2024-03-20 12:00:00","20","manfredonia_liceo","18.79","1","38.56","1","0.0","1","null","6","null","6","null","6","1015.83","1","41.627894","15.907547"],
    [1910,"2024-03-20 13:00:00","20","manfredonia_liceo","19.7","1","46.4","1","0.0","1","null","6","null","6","null","6","1016.12","1","41.627894","15.907547"],
    [1911,"2024-03-20 14:00:00","20","manfredonia_liceo","19.6","1","47.45","1","0.0","1","null","6","null","6","null","6","1015.81","1","41.627894","15.907547"],
    [1912,"2024-03-20 15:00:00","20","manfredonia_liceo","19.1","1","48.78","1","0.0","1","null","6","null","6","null","6","1015.75","1","41.627894","15.907547"],
    [1913,"2024-03-20 16:00:00","20","manfredonia_liceo","19.97","1","46.17","1","0.0","1","null","6","null","6","null","6","1015.75","1","41.627894","15.907547"],
    [1914,"2024-03-20 17:00:00","20","manfredonia_liceo","20.06","1","45.76","1","0.0","1","null","6","null","6","null","6","1015.9","1","41.627894","15.907547"],
    [1915,"2024-03-20 18:00:00","20","manfredonia_liceo","17.8","1","52.75","1","0.0","1","null","6","null","6","null","6","1016.28","1","41.627894","15.907547"],
    [1916,"2024-03-20 19:00:00","20","manfredonia_liceo","14.1","1","62.63","1","0.0","1","null","6","null","6","null","6","1016.58","1","41.627894","15.907547"],
    [1917,"2024-03-20 20:00:00","20","manfredonia_liceo","11.46","1","51.44","1","0.0","1","null","6","null","6","null","6","1016.85","1","41.627894","15.907547"],
    [1918,"2024-03-20 21:00:00","20","manfredonia_liceo","10.84","1","38.17","1","0.0","1","null","6","null","6","null","6","1017.15","1","41.627894","15.907547"],
    [1919,"2024-03-20 22:00:00","20","manfredonia_liceo","9.7","1","36.3","1","0.0","1","null","6","null","6","null","6","1017.55","1","41.627894","15.907547"],
    [1920,"2024-03-20 23:00:00","20","manfredonia_liceo","8.19","1","50.11","1","0.0","1","null","6","null","6","null","6","1017.57","1","41.627894","15.907547"],
    [1921,"2024-03-21 00:00:00","20","manfredonia_liceo","7.45","1","50.19","1","0.0","1","null","6","null","6","null","6","1017.58","1","41.627894","15.907547"],
    [1922,"2024-03-21 01:00:00","20","manfredonia_liceo","7.27","1","52.48","1","0.0","1","null","6","null","6","null","6","1017.58","1","41.627894","15.907547"],
    [1923,"2024-03-21 02:00:00","20","manfredonia_liceo","6.94","1","58.58","1","0.0","1","null","6","null","6","null","6","1017.58","1","41.627894","15.907547"],
    [1924,"2024-03-21 03:00:00","20","manfredonia_liceo","5.91","1","65.84","1","0.0","1","null","6","null","6","null","6","1017.35","1","41.627894","15.907547"],
    [1925,"2024-03-21 04:00:00","20","manfredonia_liceo","6.39","1","61.58","1","0.0","1","null","6","null","6","null","6","1017.22","1","41.627894","15.907547"],
    [1926,"2024-03-21 05:00:00","20","manfredonia_liceo","5.72","1","67.11","1","0.0","1","null","6","null","6","null","6","1017.17","1","41.627894","15.907547"],
    [1927,"2024-03-21 06:00:00","20","manfredonia_liceo","5.48","1","71.94","1","0.0","1","null","6","null","6","null","6","1017.22","1","41.627894","15.907547"],
    [1928,"2024-03-21 07:00:00","20","manfredonia_liceo","5.46","1","76.74","1","0.0","1","null","6","null","6","null","6","1017.45","1","41.627894","15.907547"],
    [1929,"2024-03-21 08:00:00","20","manfredonia_liceo","8.22","1","68.58","1","0.0","1","null","6","null","6","null","6","1017.58","1","41.627894","15.907547"],
    [1930,"2024-03-21 09:00:00","20","manfredonia_liceo","14.18","1","58.25","1","0.0","1","null","6","null","6","null","6","1017.58","1","41.627894","15.907547"],
    [1931,"2024-03-21 10:00:00","20","manfredonia_liceo","17.23","1","53.34","1","0.0","1","null","6","null","6","null","6","1017.77","1","41.627894","15.907547"],
    [1932,"2024-03-21 11:00:00","20","manfredonia_liceo","18.59","1","51.3","1","0.0","1","null","6","null","6","null","6","1017.95","1","41.627894","15.907547"],
    [1933,"2024-03-21 12:00:00","20","manfredonia_liceo","19.28","1","43.65","1","0.0","1","null","6","null","6","null","6","1017.76","1","41.627894","15.907547"],
    [1934,"2024-03-21 13:00:00","20","manfredonia_liceo","20.31","1","37.63","1","0.0","1","null","6","null","6","null","6","1016.84","1","41.627894","15.907547"],
    [1935,"2024-03-21 14:00:00","20","manfredonia_liceo","20.39","1","38.24","1","0.0","1","null","6","null","6","null","6","1016.13","1","41.627894","15.907547"],
    [1936,"2024-03-21 15:00:00","20","manfredonia_liceo","20.66","1","35.47","1","0.0","1","null","6","null","6","null","6","1015.42","1","41.627894","15.907547"],
    [1937,"2024-03-21 16:00:00","20","manfredonia_liceo","20.59","1","44.54","1","0.0","1","null","6","null","6","null","6","1014.75","1","41.627894","15.907547"],
    [1938,"2024-03-21 17:00:00","20","manfredonia_liceo","20.05","1","48.01","1","0.0","1","null","6","null","6","null","6","1014.11","1","41.627894","15.907547"],
    [1939,"2024-03-21 18:00:00","20","manfredonia_liceo","18.21","1","53.12","1","0.0","1","null","6","null","6","null","6","1013.8","1","41.627894","15.907547"],
    [1940,"2024-03-21 19:00:00","20","manfredonia_liceo","14.63","1","63.14","1","0.0","1","null","6","null","6","null","6","1013.55","1","41.627894","15.907547"],
    [1941,"2024-03-21 20:00:00","20","manfredonia_liceo","13.33","1","70.05","1","0.0","1","null","6","null","6","null","6","1013.91","1","41.627894","15.907547"],
    [1942,"2024-03-21 21:00:00","20","manfredonia_liceo","12.22","1","76.74","1","0.0","1","null","6","null","6","null","6","1013.92","1","41.627894","15.907547"],
    [1943,"2024-03-21 22:00:00","20","manfredonia_liceo","12.24","1","78.59","1","0.0","1","null","6","null","6","null","6","1013.88","1","41.627894","15.907547"],
    [1944,"2024-03-21 23:00:00","20","manfredonia_liceo","12.38","1","78.71","1","0.0","1","null","6","null","6","null","6","1013.56","1","41.627894","15.907547"],
    [1945,"2024-03-22 00:00:00","20","manfredonia_liceo","12.67","1","76.47","1","0.0","1","null","6","null","6","null","6","1013.26","1","41.627894","15.907547"],
    [1946,"2024-03-22 01:00:00","20","manfredonia_liceo","12.97","1","69.91","1","0.0","1","null","6","null","6","null","6","1012.75","1","41.627894","15.907547"],
    [1947,"2024-03-22 02:00:00","20","manfredonia_liceo","13.06","1","71.83","1","0.0","1","null","6","null","6","null","6","1012.26","1","41.627894","15.907547"],
    [1948,"2024-03-22 03:00:00","20","manfredonia_liceo","13.92","1","71.37","1","0.4","1","null","6","null","6","null","6","1012.09","1","41.627894","15.907547"],
    [1949,"2024-03-22 04:00:00","20","manfredonia_liceo","14.42","1","71.69","1","0.0","1","null","6","null","6","null","6","1012.09","1","41.627894","15.907547"],
    [1950,"2024-03-22 05:00:00","20","manfredonia_liceo","14.75","1","71.31","1","0.4","1","null","6","null","6","null","6","1012.28","1","41.627894","15.907547"],
    [1951,"2024-03-22 06:00:00","20","manfredonia_liceo","14.01","1","72.23","1","0.6","1","null","6","null","6","null","6","1012.5","1","41.627894","15.907547"],
    [1952,"2024-03-22 07:00:00","20","manfredonia_liceo","13.56","1","82.37","1","0.0","1","null","6","null","6","null","6","1013.04","1","41.627894","15.907547"],
    [1953,"2024-03-22 08:00:00","20","manfredonia_liceo","13.25","1","89.32","1","0.0","1","null","6","null","6","null","6","1013.36","1","41.627894","15.907547"],
    [1954,"2024-03-22 09:00:00","20","manfredonia_liceo","13.59","1","89.8","1","0.0","1","null","6","null","6","null","6","1013.72","1","41.627894","15.907547"],
    [1955,"2024-03-22 10:00:00","20","manfredonia_liceo","15.04","1","82.89","1","0.0","1","null","6","null","6","null","6","1013.86","1","41.627894","15.907547"],
    [1956,"2024-03-22 11:00:00","20","manfredonia_liceo","14.79","1","83.37","1","0.0","1","null","6","null","6","null","6","1013.88","1","41.627894","15.907547"],
    [1957,"2024-03-22 12:00:00","20","manfredonia_liceo","15.58","1","79.34","1","0.0","1","null","6","null","6","null","6","1013.61","1","41.627894","15.907547"],
    [1958,"2024-03-22 13:00:00","20","manfredonia_liceo","18.42","1","67.25","1","0.0","1","null","6","null","6","null","6","1012.96","1","41.627894","15.907547"],
    [1959,"2024-03-22 14:00:00","20","manfredonia_liceo","20.24","1","60.66","1","0.0","1","null","6","null","6","null","6","1012.38","1","41.627894","15.907547"],
    [1960,"2024-03-22 15:00:00","20","manfredonia_liceo","21.86","1","58.91","1","0.0","1","null","6","null","6","null","6","1012.09","1","41.627894","15.907547"],
    [1961,"2024-03-22 16:00:00","20","manfredonia_liceo","21.53","1","56.79","1","0.0","1","null","6","null","6","null","6","1011.79","1","41.627894","15.907547"],
    [1962,"2024-03-22 17:00:00","20","manfredonia_liceo","21.78","1","54.39","1","0.0","1","null","6","null","6","null","6","1011.72","1","41.627894","15.907547"],
    [1963,"2024-03-22 18:00:00","20","manfredonia_liceo","19.3","1","59.71","1","0.0","1","null","6","null","6","null","6","1011.64","1","41.627894","15.907547"],
    [1964,"2024-03-22 19:00:00","20","manfredonia_liceo","16.07","1","60.03","1","0.0","1","null","6","null","6","null","6","1011.38","1","41.627894","15.907547"],
    [1965,"2024-03-22 20:00:00","20","manfredonia_liceo","14.66","1","68.15","1","0.0","1","null","6","null","6","null","6","1011.72","1","41.627894","15.907547"],
    [1966,"2024-03-22 21:00:00","20","manfredonia_liceo","13.59","1","66.41","1","0.0","1","null","6","null","6","null","6","1011.72","1","41.627894","15.907547"],
    [1967,"2024-03-22 22:00:00","20","manfredonia_liceo","13.26","1","64.21","1","0.0","1","null","6","null","6","null","6","1011.62","1","41.627894","15.907547"],
    [1968,"2024-03-22 23:00:00","20","manfredonia_liceo","12.76","1","66.26","1","0.0","1","null","6","null","6","null","6","1011.58","1","41.627894","15.907547"],
    [1969,"2024-03-23 00:00:00","20","manfredonia_liceo","11.64","1","70.42","1","0.0","1","null","6","null","6","null","6","1011.35","1","41.627894","15.907547"],
    [1970,"2024-03-23 01:00:00","20","manfredonia_liceo","10.28","1","79.88","1","0.0","1","null","6","null","6","null","6","1011.58","1","41.627894","15.907547"],
    [1971,"2024-03-23 02:00:00","20","manfredonia_liceo","9.03","1","80.8","1","0.0","1","null","6","null","6","null","6","1011.36","1","41.627894","15.907547"],
    [1972,"2024-03-23 03:00:00","20","manfredonia_liceo","9.4","1","75.11","1","0.0","1","null","6","null","6","null","6","1010.99","1","41.627894","15.907547"],
    [1973,"2024-03-23 04:00:00","20","manfredonia_liceo","8.05","1","79.68","1","0.0","1","null","6","null","6","null","6","1010.97","1","41.627894","15.907547"],
    [1974,"2024-03-23 05:00:00","20","manfredonia_liceo","7.6","1","81.27","1","0.0","1","null","6","null","6","null","6","1010.63","1","41.627894","15.907547"],
    [1975,"2024-03-23 06:00:00","20","manfredonia_liceo","7.38","1","81.14","1","0.0","1","null","6","null","6","null","6","1010.62","1","41.627894","15.907547"],
    [1976,"2024-03-23 07:00:00","20","manfredonia_liceo","7.72","1","80.08","1","0.0","1","null","6","null","6","null","6","1010.62","1","41.627894","15.907547"],
    [1977,"2024-03-23 08:00:00","20","manfredonia_liceo","9.54","1","78.6","1","0.0","1","null","6","null","6","null","6","1010.62","1","41.627894","15.907547"],
    [1978,"2024-03-23 09:00:00","20","manfredonia_liceo","15.41","1","62.58","1","0.0","1","null","6","null","6","null","6","1010.63","1","41.627894","15.907547"],
    [1979,"2024-03-23 10:00:00","20","manfredonia_liceo","19.7","1","59.49","1","0.0","1","null","6","null","6","null","6","1010.64","1","41.627894","15.907547"],
    [1980,"2024-03-23 11:00:00","20","manfredonia_liceo","21.31","1","48.17","1","0.0","1","null","6","null","6","null","6","1010.52","1","41.627894","15.907547"],
    [1981,"2024-03-23 12:00:00","20","manfredonia_liceo","23.15","1","40.65","1","0.0","1","null","6","null","6","null","6","1009.82","1","41.627894","15.907547"],
    [1982,"2024-03-23 13:00:00","20","manfredonia_liceo","24.14","1","38.19","1","0.0","1","null","6","null","6","null","6","1008.88","1","41.627894","15.907547"],
    [1983,"2024-03-23 14:00:00","20","manfredonia_liceo","24.9","1","36.33","1","0.0","1","null","6","null","6","null","6","1007.82","1","41.627894","15.907547"],
    [1984,"2024-03-23 15:00:00","20","manfredonia_liceo","22.82","1","48.16","1","0.0","1","null","6","null","6","null","6","1007.1","1","41.627894","15.907547"],
    [1985,"2024-03-23 16:00:00","20","manfredonia_liceo","22.58","1","50.16","1","0.0","1","null","6","null","6","null","6","1006.75","1","41.627894","15.907547"],
    [1986,"2024-03-23 17:00:00","20","manfredonia_liceo","20.56","1","55.0","1","0.0","1","null","6","null","6","null","6","1006.55","1","41.627894","15.907547"],
    [1987,"2024-03-23 18:00:00","20","manfredonia_liceo","18.36","1","62.93","1","0.0","1","null","6","null","6","null","6","1006.16","1","41.627894","15.907547"],
    [1988,"2024-03-23 19:00:00","20","manfredonia_liceo","17.24","1","64.27","1","0.0","1","null","6","null","6","null","6","1005.91","1","41.627894","15.907547"],
    [1989,"2024-03-23 20:00:00","20","manfredonia_liceo","16.61","1","61.24","1","0.0","1","null","6","null","6","null","6","1005.91","1","41.627894","15.907547"],
    [1990,"2024-03-23 21:00:00","20","manfredonia_liceo","15.55","1","62.36","1","0.0","1","null","6","null","6","null","6","1005.96","1","41.627894","15.907547"],
    [1991,"2024-03-23 22:00:00","20","manfredonia_liceo","13.51","1","69.02","1","0.0","1","null","6","null","6","null","6","1005.72","1","41.627894","15.907547"],
    [1992,"2024-03-23 23:00:00","20","manfredonia_liceo","12.4","1","71.06","1","0.0","1","null","6","null","6","null","6","1005.44","1","41.627894","15.907547"],
    [1993,"2024-03-24 00:00:00","20","manfredonia_liceo","11.86","1","70.82","1","0.0","1","null","6","null","6","null","6","1004.95","1","41.627894","15.907547"],
    [1994,"2024-03-24 01:00:00","20","manfredonia_liceo","12.32","1","69.41","1","0.0","1","null","6","null","6","null","6","1004.55","1","41.627894","15.907547"],
    [1995,"2024-03-24 02:00:00","20","manfredonia_liceo","10.32","1","78.03","1","0.0","1","null","6","null","6","null","6","1004.29","1","41.627894","15.907547"],
    [1996,"2024-03-24 03:00:00","20","manfredonia_liceo","12.02","1","72.07","1","0.0","1","null","6","null","6","null","6","1003.93","1","41.627894","15.907547"],
    [1997,"2024-03-24 04:00:00","20","manfredonia_liceo","11.41","1","77.62","1","0.0","1","null","6","null","6","null","6","1003.3","1","41.627894","15.907547"],
    [1998,"2024-03-24 05:00:00","20","manfredonia_liceo","12.38","1","76.69","1","0.0","1","null","6","null","6","null","6","1002.94","1","41.627894","15.907547"],
    [1999,"2024-03-24 06:00:00","20","manfredonia_liceo","12.94","1","75.04","1","0.0","1","null","6","null","6","null","6","1002.56","1","41.627894","15.907547"],
    [2000,"2024-03-24 07:00:00","20","manfredonia_liceo","13.24","1","71.9","1","0.0","1","null","6","null","6","null","6","1002.71","1","41.627894","15.907547"],
    [2001,"2024-03-24 08:00:00","20","manfredonia_liceo","15.05","1","64.32","1","0.0","1","null","6","null","6","null","6","1002.33","1","41.627894","15.907547"],
    [2002,"2024-03-24 09:00:00","20","manfredonia_liceo","15.89","1","63.06","1","0.0","1","null","6","null","6","null","6","1002.73","1","41.627894","15.907547"],
    [2003,"2024-03-24 10:00:00","20","manfredonia_liceo","17.59","1","59.28","1","0.0","1","null","6","null","6","null","6","1003.02","1","41.627894","15.907547"],
    [2004,"2024-03-24 11:00:00","20","manfredonia_liceo","19.16","1","54.65","1","0.0","1","null","6","null","6","null","6","1002.93","1","41.627894","15.907547"],
    [2005,"2024-03-24 12:00:00","20","manfredonia_liceo","20.94","1","47.66","1","0.0","1","null","6","null","6","null","6","1001.79","1","41.627894","15.907547"],
    [2006,"2024-03-24 13:00:00","20","manfredonia_liceo","21.38","1","44.19","1","0.0","1","null","6","null","6","null","6","1001.07","1","41.627894","15.907547"],
    [2007,"2024-03-24 14:00:00","20","manfredonia_liceo","21.72","1","40.07","1","0.0","1","null","6","null","6","null","6","1000.07","1","41.627894","15.907547"],
    [2008,"2024-03-24 15:00:00","20","manfredonia_liceo","22.2","1","39.72","1","0.0","1","null","6","null","6","null","6","999.19","1","41.627894","15.907547"],
    [2009,"2024-03-24 16:00:00","20","manfredonia_liceo","22.04","1","39.92","1","0.0","1","null","6","null","6","null","6","998.48","1","41.627894","15.907547"],
    [2010,"2024-03-24 17:00:00","20","manfredonia_liceo","20.63","1","42.25","1","0.0","1","null","6","null","6","null","6","998.22","1","41.627894","15.907547"],
    [2011,"2024-03-24 18:00:00","20","manfredonia_liceo","18.64","1","45.41","1","0.0","1","null","6","null","6","null","6","998.22","1","41.627894","15.907547"],
    [2012,"2024-03-24 19:00:00","20","manfredonia_liceo","16.05","1","61.22","1","0.0","1","null","6","null","6","null","6","998.76","1","41.627894","15.907547"],
    [2013,"2024-03-24 20:00:00","20","manfredonia_liceo","14.46","1","64.83","1","0.0","1","null","6","null","6","null","6","999.37","1","41.627894","15.907547"],
    [2014,"2024-03-24 21:00:00","20","manfredonia_liceo","14.8","1","60.09","1","0.0","1","null","6","null","6","null","6","1000.02","1","41.627894","15.907547"],
    [2015,"2024-03-24 22:00:00","20","manfredonia_liceo","14.41","1","65.66","1","0.0","1","null","6","null","6","null","6","1000.44","1","41.627894","15.907547"],
    [2016,"2024-03-24 23:00:00","20","manfredonia_liceo","13.0","1","61.9","1","0.0","1","null","6","null","6","null","6","1000.72","1","41.627894","15.907547"],
    [2017,"2024-03-25 00:00:00","20","manfredonia_liceo","13.12","1","57.88","1","0.0","1","null","6","null","6","null","6","1001.09","1","41.627894","15.907547"],
    [2018,"2024-03-25 01:00:00","20","manfredonia_liceo","13.26","1","54.65","1","0.0","1","null","6","null","6","null","6","1001.11","1","41.627894","15.907547"],
    [2019,"2024-03-25 02:00:00","20","manfredonia_liceo","12.67","1","58.85","1","0.0","1","null","6","null","6","null","6","1001.05","1","41.627894","15.907547"],
    [2020,"2024-03-25 03:00:00","20","manfredonia_liceo","11.42","1","66.35","1","0.0","1","null","6","null","6","null","6","1000.97","1","41.627894","15.907547"],
    [2021,"2024-03-25 04:00:00","20","manfredonia_liceo","10.07","1","71.61","1","0.0","1","null","6","null","6","null","6","1000.92","1","41.627894","15.907547"],
    [2022,"2024-03-25 05:00:00","20","manfredonia_liceo","10.04","1","73.03","1","0.0","1","null","6","null","6","null","6","1001.14","1","41.627894","15.907547"],
    [2023,"2024-03-25 06:00:00","20","manfredonia_liceo","9.54","1","76.29","1","0.0","1","null","6","null","6","null","6","1001.5","1","41.627894","15.907547"],
    [2024,"2024-03-25 07:00:00","20","manfredonia_liceo","11.08","1","68.35","1","0.0","1","null","6","null","6","null","6","1002.23","1","41.627894","15.907547"],
    [2025,"2024-03-25 08:00:00","20","manfredonia_liceo","11.76","1","66.4","1","0.0","1","null","6","null","6","null","6","1003.0","1","41.627894","15.907547"],
    [2026,"2024-03-25 09:00:00","20","manfredonia_liceo","15.41","1","56.61","1","0.0","1","null","6","null","6","null","6","1003.72","1","41.627894","15.907547"],
    [2027,"2024-03-25 10:00:00","20","manfredonia_liceo","17.86","1","41.6","1","0.0","1","null","6","null","6","null","6","1004.49","1","41.627894","15.907547"],
    [2028,"2024-03-25 11:00:00","20","manfredonia_liceo","19.42","1","37.46","1","0.0","1","null","6","null","6","null","6","1004.76","1","41.627894","15.907547"],
    [2029,"2024-03-25 12:00:00","20","manfredonia_liceo","20.79","1","31.24","1","0.0","1","null","6","null","6","null","6","1004.82","1","41.627894","15.907547"],
    [2030,"2024-03-25 13:00:00","20","manfredonia_liceo","20.64","1","35.28","1","0.0","1","null","6","null","6","null","6","1004.63","1","41.627894","15.907547"],
    [2031,"2024-03-25 14:00:00","20","manfredonia_liceo","19.08","1","44.97","1","0.0","1","null","6","null","6","null","6","1004.23","1","41.627894","15.907547"],
    [2032,"2024-03-25 15:00:00","20","manfredonia_liceo","19.25","1","42.59","1","0.0","1","null","6","null","6","null","6","1004.0","1","41.627894","15.907547"],
    [2033,"2024-03-25 16:00:00","20","manfredonia_liceo","20.19","1","40.02","1","0.0","1","null","6","null","6","null","6","1003.54","1","41.627894","15.907547"],
    [2034,"2024-03-25 17:00:00","20","manfredonia_liceo","16.94","1","50.36","1","0.0","1","null","6","null","6","null","6","1003.45","1","41.627894","15.907547"],
    [2035,"2024-03-25 18:00:00","20","manfredonia_liceo","15.16","1","57.38","1","0.0","1","null","6","null","6","null","6","1003.57","1","41.627894","15.907547"],
    [2036,"2024-03-25 19:00:00","20","manfredonia_liceo","14.31","1","57.5","1","0.0","1","null","6","null","6","null","6","1003.3","1","41.627894","15.907547"],
    [2037,"2024-03-25 20:00:00","20","manfredonia_liceo","14.17","1","56.45","1","0.0","1","null","6","null","6","null","6","1003.66","1","41.627894","15.907547"],
    [2038,"2024-03-25 21:00:00","20","manfredonia_liceo","14.29","1","55.06","1","0.0","1","null","6","null","6","null","6","1003.96","1","41.627894","15.907547"],
    [2039,"2024-03-25 22:00:00","20","manfredonia_liceo","14.2","1","59.76","1","0.0","1","null","6","null","6","null","6","1003.69","1","41.627894","15.907547"],
    [2040,"2024-03-25 23:00:00","20","manfredonia_liceo","13.67","1","62.92","1","0.0","1","null","6","null","6","null","6","1003.97","1","41.627894","15.907547"],
    [2041,"2024-03-26 00:00:00","20","manfredonia_liceo","13.57","1","57.86","1","0.0","1","null","6","null","6","null","6","1003.62","1","41.627894","15.907547"],
    [2042,"2024-03-26 01:00:00","20","manfredonia_liceo","13.7","1","53.36","1","0.0","1","null","6","null","6","null","6","1002.72","1","41.627894","15.907547"],
    [2043,"2024-03-26 02:00:00","20","manfredonia_liceo","13.99","1","54.14","1","0.0","1","null","6","null","6","null","6","1002.34","1","41.627894","15.907547"],
    [2044,"2024-03-26 03:00:00","20","manfredonia_liceo","13.91","1","58.47","1","0.0","1","null","6","null","6","null","6","1001.66","1","41.627894","15.907547"],
    [2045,"2024-03-26 04:00:00","20","manfredonia_liceo","13.63","1","65.7","1","0.6","1","null","6","null","6","null","6","1000.54","1","41.627894","15.907547"],
    [2046,"2024-03-26 05:00:00","20","manfredonia_liceo","13.08","1","76.19","1","0.0","1","null","6","null","6","null","6","999.66","1","41.627894","15.907547"],
    [2047,"2024-03-26 06:00:00","20","manfredonia_liceo","12.99","1","86.43","1","2.8","1","null","6","null","6","null","6","1000.95","1","41.627894","15.907547"],
    [2048,"2024-03-26 07:00:00","20","manfredonia_liceo","12.55","1","98.15","1","0.4","1","null","6","null","6","null","6","999.51","1","41.627894","15.907547"],
    [2049,"2024-03-26 08:00:00","20","manfredonia_liceo","13.12","1","95.94","1","0.0","1","null","6","null","6","null","6","999.32","1","41.627894","15.907547"],
    [2050,"2024-03-26 09:00:00","20","manfredonia_liceo","13.46","1","90.41","1","0.0","1","null","6","null","6","null","6","999.19","1","41.627894","15.907547"],
    [2051,"2024-03-26 10:00:00","20","manfredonia_liceo","13.73","1","90.42","1","0.0","1","null","6","null","6","null","6","998.81","1","41.627894","15.907547"],
    [2052,"2024-03-26 11:00:00","20","manfredonia_liceo","13.74","1","94.89","1","1.6","1","null","6","null","6","null","6","998.03","1","41.627894","15.907547"],
    [2053,"2024-03-26 12:00:00","20","manfredonia_liceo","13.43","1","99.94","1","4.4","1","null","6","null","6","null","6","997.46","1","41.627894","15.907547"],
    [2054,"2024-03-26 13:00:00","20","manfredonia_liceo","13.46","1","null","3","2.8","1","null","6","null","6","null","6","996.94","1","41.627894","15.907547"],
    [2055,"2024-03-26 14:00:00","20","manfredonia_liceo","13.47","1","null","3","2.4","1","null","6","null","6","null","6","996.18","1","41.627894","15.907547"],
    [2056,"2024-03-26 15:00:00","20","manfredonia_liceo","13.09","1","null","3","6.2","1","null","6","null","6","null","6","994.91","1","41.627894","15.907547"],
    [2057,"2024-03-26 16:00:00","20","manfredonia_liceo","13.43","1","null","3","0.6","1","null","6","null","6","null","6","994.02","1","41.627894","15.907547"],
    [2058,"2024-03-26 17:00:00","20","manfredonia_liceo","13.96","1","null","3","2.4","1","null","6","null","6","null","6","993.33","1","41.627894","15.907547"],
    [2059,"2024-03-26 18:00:00","20","manfredonia_liceo","14.21","1","null","3","0.6","1","null","6","null","6","null","6","992.33","1","41.627894","15.907547"],
    [2060,"2024-03-26 19:00:00","20","manfredonia_liceo","13.85","1","null","3","0.0","1","null","6","null","6","null","6","992.17","1","41.627894","15.907547"],
    [2061,"2024-03-26 20:00:00","20","manfredonia_liceo","13.26","1","null","3","0.0","1","null","6","null","6","null","6","992.78","1","41.627894","15.907547"],
    [2062,"2024-03-26 21:00:00","20","manfredonia_liceo","12.74","1","null","3","0.0","1","null","6","null","6","null","6","993.32","1","41.627894","15.907547"],
    [2063,"2024-03-26 22:00:00","20","manfredonia_liceo","11.84","1","null","3","0.0","1","null","6","null","6","null","6","993.64","1","41.627894","15.907547"],
    [2064,"2024-03-26 23:00:00","20","manfredonia_liceo","10.88","1","null","3","0.0","1","null","6","null","6","null","6","993.99","1","41.627894","15.907547"],
    [2065,"2024-03-27 00:00:00","20","manfredonia_liceo","10.69","1","null","3","0.0","1","null","6","null","6","null","6","994.18","1","41.627894","15.907547"],
    [2066,"2024-03-27 01:00:00","20","manfredonia_liceo","10.69","1","null","3","0.0","1","null","6","null","6","null","6","994.14","1","41.627894","15.907547"],
    [2067,"2024-03-27 02:00:00","20","manfredonia_liceo","10.89","1","null","3","0.0","1","null","6","null","6","null","6","993.96","1","41.627894","15.907547"],
    [2068,"2024-03-27 03:00:00","20","manfredonia_liceo","10.68","1","null","3","0.0","1","null","6","null","6","null","6","993.75","1","41.627894","15.907547"],
    [2069,"2024-03-27 04:00:00","20","manfredonia_liceo","10.52","1","null","3","0.0","1","null","6","null","6","null","6","993.6","1","41.627894","15.907547"],
    [2070,"2024-03-27 05:00:00","20","manfredonia_liceo","10.57","1","null","3","0.2","1","null","6","null","6","null","6","993.72","1","41.627894","15.907547"],
    [2071,"2024-03-27 06:00:00","20","manfredonia_liceo","10.56","1","null","3","0.0","1","null","6","null","6","null","6","993.77","1","41.627894","15.907547"],
    [2072,"2024-03-27 07:00:00","20","manfredonia_liceo","10.91","1","null","3","0.0","1","null","6","null","6","null","6","993.63","1","41.627894","15.907547"],
    [2073,"2024-03-27 08:00:00","20","manfredonia_liceo","12.05","1","null","3","0.0","1","null","6","null","6","null","6","993.41","1","41.627894","15.907547"],
    [2074,"2024-03-27 09:00:00","20","manfredonia_liceo","14.18","1","null","3","0.0","1","null","6","null","6","null","6","993.2","1","41.627894","15.907547"],
    [2075,"2024-03-27 10:00:00","20","manfredonia_liceo","15.66","1","null","3","0.0","1","null","6","null","6","null","6","992.89","1","41.627894","15.907547"],
    [2076,"2024-03-27 11:00:00","20","manfredonia_liceo","18.53","1","79.61","1","0.0","1","null","6","null","6","null","6","992.9","1","41.627894","15.907547"],
    [2077,"2024-03-27 12:00:00","20","manfredonia_liceo","19.83","1","72.34","1","0.0","1","null","6","null","6","null","6","992.52","1","41.627894","15.907547"],
    [2078,"2024-03-27 13:00:00","20","manfredonia_liceo","19.73","1","73.62","1","0.0","1","null","6","null","6","null","6","991.6","1","41.627894","15.907547"],
    [2079,"2024-03-27 14:00:00","20","manfredonia_liceo","20.84","1","69.5","1","0.0","1","null","6","null","6","null","6","990.46","1","41.627894","15.907547"],
    [2080,"2024-03-27 15:00:00","20","manfredonia_liceo","20.68","1","71.41","1","0.0","1","null","6","null","6","null","6","989.67","1","41.627894","15.907547"],
    [2081,"2024-03-27 16:00:00","20","manfredonia_liceo","20.82","1","70.45","1","0.0","1","null","6","null","6","null","6","988.81","1","41.627894","15.907547"],
    [2082,"2024-03-27 17:00:00","20","manfredonia_liceo","19.71","1","74.21","1","0.0","1","null","6","null","6","null","6","988.75","1","41.627894","15.907547"],
    [2083,"2024-03-27 18:00:00","20","manfredonia_liceo","15.28","1","78.91","1","1.6","1","null","6","null","6","null","6","990.49","1","41.627894","15.907547"],
    [2084,"2024-03-27 19:00:00","20","manfredonia_liceo","12.37","1","82.67","1","1.6","1","null","6","null","6","null","6","992.24","1","41.627894","15.907547"],
    [2085,"2024-03-27 20:00:00","20","manfredonia_liceo","11.5","1","89.19","1","1.6","1","null","6","null","6","null","6","992.97","1","41.627894","15.907547"],
    [2086,"2024-03-27 21:00:00","20","manfredonia_liceo","11.74","1","86.7","1","0.0","1","null","6","null","6","null","6","993.38","1","41.627894","15.907547"],
    [2087,"2024-03-27 22:00:00","20","manfredonia_liceo","12.05","1","79.56","1","0.0","1","null","6","null","6","null","6","993.94","1","41.627894","15.907547"],
    [2088,"2024-03-27 23:00:00","20","manfredonia_liceo","11.37","1","77.4","1","0.0","1","null","6","null","6","null","6","995.3","1","41.627894","15.907547"],
    [2089,"2024-03-28 00:00:00","20","manfredonia_liceo","10.58","1","75.74","1","0.0","1","null","6","null","6","null","6","996.9","1","41.627894","15.907547"],
    [2090,"2024-03-28 01:00:00","20","manfredonia_liceo","9.7","1","74.7","1","0.0","1","null","6","null","6","null","6","997.96","1","41.627894","15.907547"],
    [2091,"2024-03-28 02:00:00","20","manfredonia_liceo","9.63","1","74.19","1","0.0","1","null","6","null","6","null","6","998.43","1","41.627894","15.907547"],
    [2092,"2024-03-28 03:00:00","20","manfredonia_liceo","10.6","1","73.71","1","0.0","1","null","6","null","6","null","6","999.33","1","41.627894","15.907547"],
    [2093,"2024-03-28 04:00:00","20","manfredonia_liceo","9.38","1","80.61","1","0.0","1","null","6","null","6","null","6","999.79","1","41.627894","15.907547"],
    [2094,"2024-03-28 05:00:00","20","manfredonia_liceo","8.94","1","84.03","1","0.0","1","null","6","null","6","null","6","1000.52","1","41.627894","15.907547"],
    [2095,"2024-03-28 06:00:00","20","manfredonia_liceo","9.86","1","79.68","1","0.0","1","null","6","null","6","null","6","1001.38","1","41.627894","15.907547"],
    [2096,"2024-03-28 07:00:00","20","manfredonia_liceo","10.55","1","77.3","1","0.0","1","null","6","null","6","null","6","1001.88","1","41.627894","15.907547"],
    [2097,"2024-03-28 08:00:00","20","manfredonia_liceo","12.78","1","70.89","1","0.0","1","null","6","null","6","null","6","1002.7","1","41.627894","15.907547"],
    [2098,"2024-03-28 09:00:00","20","manfredonia_liceo","15.01","1","67.02","1","0.0","1","null","6","null","6","null","6","1003.68","1","41.627894","15.907547"],
    [2099,"2024-03-28 10:00:00","20","manfredonia_liceo","17.05","1","59.96","1","0.0","1","null","6","null","6","null","6","1004.46","1","41.627894","15.907547"],
    [2100,"2024-03-28 11:00:00","20","manfredonia_liceo","17.57","1","54.79","1","0.0","1","null","6","null","6","null","6","1005.22","1","41.627894","15.907547"],
    [2101,"2024-03-28 12:00:00","20","manfredonia_liceo","18.69","1","50.72","1","0.0","1","null","6","null","6","null","6","1005.39","1","41.627894","15.907547"],
    [2102,"2024-03-28 13:00:00","20","manfredonia_liceo","20.06","1","49.79","1","0.0","1","null","6","null","6","null","6","1005.54","1","41.627894","15.907547"],
    [2103,"2024-03-28 14:00:00","20","manfredonia_liceo","20.81","1","48.34","1","0.0","1","null","6","null","6","null","6","1005.03","1","41.627894","15.907547"],
    [2104,"2024-03-28 15:00:00","20","manfredonia_liceo","21.28","1","48.11","1","0.0","1","null","6","null","6","null","6","1004.79","1","41.627894","15.907547"],
    [2105,"2024-03-28 16:00:00","20","manfredonia_liceo","20.98","1","49.61","1","0.0","1","null","6","null","6","null","6","1005.04","1","41.627894","15.907547"],
    [2106,"2024-03-28 17:00:00","20","manfredonia_liceo","21.19","1","48.09","1","0.0","1","null","6","null","6","null","6","1005.65","1","41.627894","15.907547"],
    [2107,"2024-03-28 18:00:00","20","manfredonia_liceo","19.25","1","55.67","1","0.0","1","null","6","null","6","null","6","1005.6","1","41.627894","15.907547"],
    [2108,"2024-03-28 19:00:00","20","manfredonia_liceo","17.92","1","57.64","1","0.0","1","null","6","null","6","null","6","1005.81","1","41.627894","15.907547"],
    [2109,"2024-03-28 20:00:00","20","manfredonia_liceo","17.07","1","59.79","1","0.0","1","null","6","null","6","null","6","1006.58","1","41.627894","15.907547"],
    [2110,"2024-03-28 21:00:00","20","manfredonia_liceo","15.87","1","65.47","1","0.0","1","null","6","null","6","null","6","1007.52","1","41.627894","15.907547"],
    [2111,"2024-03-28 22:00:00","20","manfredonia_liceo","15.17","1","69.7","1","0.0","1","null","6","null","6","null","6","1007.95","1","41.627894","15.907547"],
    [2112,"2024-03-28 23:00:00","20","manfredonia_liceo","15.93","1","67.03","1","0.0","1","null","6","null","6","null","6","1008.12","1","41.627894","15.907547"],
    [2113,"2024-03-29 00:00:00","20","manfredonia_liceo","15.55","1","69.37","1","0.0","1","null","6","null","6","null","6","1008.65","1","41.627894","15.907547"],
    [2114,"2024-03-29 01:00:00","20","manfredonia_liceo","15.13","1","72.41","1","0.0","1","null","6","null","6","null","6","1008.69","1","41.627894","15.907547"],
    [2115,"2024-03-29 02:00:00","20","manfredonia_liceo","15.41","1","68.47","1","0.0","1","null","6","null","6","null","6","1008.55","1","41.627894","15.907547"],
    [2116,"2024-03-29 03:00:00","20","manfredonia_liceo","13.97","1","74.63","1","0.0","1","null","6","null","6","null","6","1008.68","1","41.627894","15.907547"],
    [2117,"2024-03-29 04:00:00","20","manfredonia_liceo","13.23","1","76.71","1","0.0","1","null","6","null","6","null","6","1008.81","1","41.627894","15.907547"],
    [2118,"2024-03-29 05:00:00","20","manfredonia_liceo","13.45","1","76.37","1","0.0","1","null","6","null","6","null","6","1009.8","1","41.627894","15.907547"],
    [2119,"2024-03-29 06:00:00","20","manfredonia_liceo","12.05","1","82.29","1","0.0","1","null","6","null","6","null","6","1010.44","1","41.627894","15.907547"],
    [2120,"2024-03-29 07:00:00","20","manfredonia_liceo","12.4","1","81.16","1","0.0","1","null","6","null","6","null","6","1010.95","1","41.627894","15.907547"],
    [2121,"2024-03-29 08:00:00","20","manfredonia_liceo","15.28","1","72.83","1","0.0","1","null","6","null","6","null","6","1011.1","1","41.627894","15.907547"],
    [2122,"2024-03-29 09:00:00","20","manfredonia_liceo","18.5","1","58.21","1","0.0","1","null","6","null","6","null","6","1011.35","1","41.627894","15.907547"],
    [2123,"2024-03-29 10:00:00","20","manfredonia_liceo","21.36","1","51.22","1","0.0","1","null","6","null","6","null","6","1011.36","1","41.627894","15.907547"],
    [2124,"2024-03-29 11:00:00","20","manfredonia_liceo","23.04","1","44.99","1","0.0","1","null","6","null","6","null","6","1011.29","1","41.627894","15.907547"],
    [2125,"2024-03-29 12:00:00","20","manfredonia_liceo","24.4","1","43.58","1","0.0","1","null","6","null","6","null","6","1010.79","1","41.627894","15.907547"],
    [2126,"2024-03-29 13:00:00","20","manfredonia_liceo","26.28","1","39.12","1","0.0","1","null","6","null","6","null","6","1010.19","1","41.627894","15.907547"],
    [2127,"2024-03-29 14:00:00","20","manfredonia_liceo","26.21","1","43.94","1","0.0","1","null","6","null","6","null","6","1009.67","1","41.627894","15.907547"],
    [2128,"2024-03-29 15:00:00","20","manfredonia_liceo","23.31","1","56.17","1","0.0","1","null","6","null","6","null","6","1009.41","1","41.627894","15.907547"],
    [2129,"2024-03-29 16:00:00","20","manfredonia_liceo","22.0","1","54.48","1","0.0","1","null","6","null","6","null","6","1009.19","1","41.627894","15.907547"],
    [2130,"2024-03-29 17:00:00","20","manfredonia_liceo","20.73","1","53.0","1","0.0","1","null","6","null","6","null","6","1008.93","1","41.627894","15.907547"],
    [2131,"2024-03-29 18:00:00","20","manfredonia_liceo","19.83","1","56.35","1","0.0","1","null","6","null","6","null","6","1008.6","1","41.627894","15.907547"],
    [2132,"2024-03-29 19:00:00","20","manfredonia_liceo","19.09","1","61.58","1","0.0","1","null","6","null","6","null","6","1008.09","1","41.627894","15.907547"],
    [2133,"2024-03-29 20:00:00","20","manfredonia_liceo","18.74","1","62.3","1","0.0","1","null","6","null","6","null","6","1008.16","1","41.627894","15.907547"],
    [2134,"2024-03-29 21:00:00","20","manfredonia_liceo","17.87","1","63.32","1","0.0","1","null","6","null","6","null","6","1008.6","1","41.627894","15.907547"],
    [2135,"2024-03-29 22:00:00","20","manfredonia_liceo","16.53","1","66.34","1","0.0","1","null","6","null","6","null","6","1008.47","1","41.627894","15.907547"],
    [2136,"2024-03-29 23:00:00","20","manfredonia_liceo","15.55","1","69.63","1","0.0","1","null","6","null","6","null","6","1008.42","1","41.627894","15.907547"],
    [2137,"2024-03-30 00:00:00","20","manfredonia_liceo","15.12","1","70.61","1","0.0","1","null","6","null","6","null","6","1008.42","1","41.627894","15.907547"],
    [2138,"2024-03-30 01:00:00","20","manfredonia_liceo","13.91","1","72.17","1","0.0","1","null","6","null","6","null","6","1008.19","1","41.627894","15.907547"],
    [2139,"2024-03-30 02:00:00","20","manfredonia_liceo","13.0","1","72.94","1","0.0","1","null","6","null","6","null","6","1007.4","1","41.627894","15.907547"],
    [2140,"2024-03-30 03:00:00","20","manfredonia_liceo","12.86","1","73.61","1","0.0","1","null","6","null","6","null","6","1007.14","1","41.627894","15.907547"],
    [2141,"2024-03-30 04:00:00","20","manfredonia_liceo","13.79","1","83.61","1","0.0","1","null","6","null","6","null","6","1006.83","1","41.627894","15.907547"],
    [2142,"2024-03-30 05:00:00","20","manfredonia_liceo","14.03","1","78.31","1","0.0","1","null","6","null","6","null","6","1006.37","1","41.627894","15.907547"],
    [2143,"2024-03-30 06:00:00","20","manfredonia_liceo","14.07","1","82.51","1","0.0","1","null","6","null","6","null","6","1006.07","1","41.627894","15.907547"],
    [2144,"2024-03-30 07:00:00","20","manfredonia_liceo","13.49","1","82.77","1","0.0","1","null","6","null","6","null","6","1006.27","1","41.627894","15.907547"],
    [2145,"2024-03-30 08:00:00","20","manfredonia_liceo","14.41","1","84.4","1","0.0","1","null","6","null","6","null","6","1006.59","1","41.627894","15.907547"],
    [2146,"2024-03-30 09:00:00","20","manfredonia_liceo","17.46","1","75.85","1","0.0","1","null","6","null","6","null","6","1006.28","1","41.627894","15.907547"],
    [2147,"2024-03-30 10:00:00","20","manfredonia_liceo","19.49","1","69.36","1","0.0","1","null","6","null","6","null","6","1006.26","1","41.627894","15.907547"],
    [2148,"2024-03-30 11:00:00","20","manfredonia_liceo","20.02","1","66.32","1","0.0","1","null","6","null","6","null","6","1006.08","1","41.627894","15.907547"],
    [2149,"2024-03-30 12:00:00","20","manfredonia_liceo","21.82","1","59.02","1","0.0","1","null","6","null","6","null","6","1005.85","1","41.627894","15.907547"],
    [2150,"2024-03-30 13:00:00","20","manfredonia_liceo","22.79","1","56.19","1","0.0","1","null","6","null","6","null","6","1005.28","1","41.627894","15.907547"],
    [2151,"2024-03-30 14:00:00","20","manfredonia_liceo","22.73","1","56.7","1","0.0","1","null","6","null","6","null","6","1004.64","1","41.627894","15.907547"],
    [2152,"2024-03-30 15:00:00","20","manfredonia_liceo","23.4","1","52.76","1","0.0","1","null","6","null","6","null","6","1004.01","1","41.627894","15.907547"],
    [2153,"2024-03-30 16:00:00","20","manfredonia_liceo","23.02","1","53.62","1","0.0","1","null","6","null","6","null","6","1003.39","1","41.627894","15.907547"],
    [2154,"2024-03-30 17:00:00","20","manfredonia_liceo","22.17","1","54.91","1","0.0","1","null","6","null","6","null","6","1003.01","1","41.627894","15.907547"],
    [2155,"2024-03-30 18:00:00","20","manfredonia_liceo","20.25","1","58.87","1","0.0","1","null","6","null","6","null","6","1003.02","1","41.627894","15.907547"],
    [2156,"2024-03-30 19:00:00","20","manfredonia_liceo","18.75","1","58.66","1","0.0","1","null","6","null","6","null","6","1003.35","1","41.627894","15.907547"],
    [2157,"2024-03-30 20:00:00","20","manfredonia_liceo","17.77","1","62.5","1","0.0","1","null","6","null","6","null","6","1003.89","1","41.627894","15.907547"],
    [2158,"2024-03-30 21:00:00","20","manfredonia_liceo","17.06","1","67.66","1","0.0","1","null","6","null","6","null","6","1004.3","1","41.627894","15.907547"],
    [2159,"2024-03-30 22:00:00","20","manfredonia_liceo","16.82","1","66.49","1","0.0","1","null","6","null","6","null","6","1004.67","1","41.627894","15.907547"],
    [2160,"2024-03-30 23:00:00","20","manfredonia_liceo","16.45","1","69.8","1","0.0","1","null","6","null","6","null","6","1005.06","1","41.627894","15.907547"],
    [2161,"2024-03-31 00:00:00","20","manfredonia_liceo","15.31","1","74.48","1","0.0","1","null","6","null","6","null","6","1005.13","1","41.627894","15.907547"],
    [2162,"2024-03-31 01:00:00","20","manfredonia_liceo","14.54","1","75.37","1","0.0","1","null","6","null","6","null","6","1004.57","1","41.627894","15.907547"],
    [2163,"2024-03-31 03:00:00","20","manfredonia_liceo","13.93","1","76.67","1","0.0","1","null","6","null","6","null","6","1004.12","1","41.627894","15.907547"],
    [2164,"2024-03-31 03:00:00","20","manfredonia_liceo","13.74","1","78.93","1","0.0","1","null","6","null","6","null","6","1004.34","1","41.627894","15.907547"],
    [2165,"2024-03-31 04:00:00","20","manfredonia_liceo","14.97","1","77.39","1","0.0","1","null","6","null","6","null","6","1004.18","1","41.627894","15.907547"],
    [2166,"2024-03-31 05:00:00","20","manfredonia_liceo","15.2","1","76.15","1","0.0","1","null","6","null","6","null","6","1004.01","1","41.627894","15.907547"],
    [2167,"2024-03-31 06:00:00","20","manfredonia_liceo","14.65","1","79.01","1","0.0","1","null","6","null","6","null","6","1004.01","1","41.627894","15.907547"],
    [2168,"2024-03-31 07:00:00","20","manfredonia_liceo","13.98","1","82.33","1","0.0","1","null","6","null","6","null","6","1004.03","1","41.627894","15.907547"],
    [2169,"2024-03-31 08:00:00","20","manfredonia_liceo","15.82","1","80.12","1","0.0","1","null","6","null","6","null","6","1004.89","1","41.627894","15.907547"],
    [2170,"2024-03-31 09:00:00","20","manfredonia_liceo","17.98","1","74.81","1","0.0","1","null","6","null","6","null","6","1005.38","1","41.627894","15.907547"],
    [2171,"2024-03-31 10:00:00","20","manfredonia_liceo","18.59","1","75.37","1","0.0","1","null","6","null","6","null","6","1005.75","1","41.627894","15.907547"],
    [2172,"2024-03-31 11:00:00","20","manfredonia_liceo","20.48","1","68.16","1","0.0","1","null","6","null","6","null","6","1005.85","1","41.627894","15.907547"],
    [2173,"2024-03-31 12:00:00","20","manfredonia_liceo","20.79","1","65.19","1","0.0","1","null","6","null","6","null","6","1005.5","1","41.627894","15.907547"],
    [2174,"2024-03-31 13:00:00","20","manfredonia_liceo","22.22","1","60.53","1","0.0","1","null","6","null","6","null","6","1005.47","1","41.627894","15.907547"],
    [2175,"2024-03-31 14:00:00","20","manfredonia_liceo","23.05","1","57.49","1","0.0","1","null","6","null","6","null","6","1005.05","1","41.627894","15.907547"],
    [2176,"2024-03-31 15:00:00","20","manfredonia_liceo","24.17","1","57.0","1","0.0","1","null","6","null","6","null","6","1004.82","1","41.627894","15.907547"],
    [2177,"2024-03-31 16:00:00","20","manfredonia_liceo","23.04","1","61.73","1","0.0","1","null","6","null","6","null","6","1004.76","1","41.627894","15.907547"],
    [2178,"2024-03-31 17:00:00","20","manfredonia_liceo","21.01","1","67.45","1","0.0","1","null","6","null","6","null","6","1004.73","1","41.627894","15.907547"],
    [2179,"2024-03-31 18:00:00","20","manfredonia_liceo","20.41","1","68.33","1","0.0","1","null","6","null","6","null","6","1005.1","1","41.627894","15.907547"],
    [2180,"2024-03-31 19:00:00","20","manfredonia_liceo","19.2","1","73.36","1","0.0","1","null","6","null","6","null","6","1005.58","1","41.627894","15.907547"],
    [2181,"2024-03-31 20:00:00","20","manfredonia_liceo","17.82","1","80.33","1","0.0","1","null","6","null","6","null","6","1006.22","1","41.627894","15.907547"],
    [2182,"2024-03-31 21:00:00","20","manfredonia_liceo","17.19","1","83.65","1","0.0","1","null","6","null","6","null","6","1006.93","1","41.627894","15.907547"],
    [2183,"2024-03-31 22:00:00","20","manfredonia_liceo","16.84","1","84.15","1","0.0","1","null","6","null","6","null","6","1006.96","1","41.627894","15.907547"],
    [2184,"2024-03-31 23:00:00","20","manfredonia_liceo","16.7","1","84.71","1","0.0","1","null","6","null","6","null","6","1007.2","1","41.627894","15.907547"],
    [2185,"2024-04-01 00:00:00","20","manfredonia_liceo","16.77","1","84.52","1","0.0","1","null","6","null","6","null","6","1007.03","1","41.627894","15.907547"],
    [2186,"2024-04-01 01:00:00","20","manfredonia_liceo","16.98","1","80.77","1","0.0","1","null","6","null","6","null","6","1006.61","1","41.627894","15.907547"],
    [2187,"2024-04-01 02:00:00","20","manfredonia_liceo","16.8","1","79.43","1","0.0","1","null","6","null","6","null","6","1006.2","1","41.627894","15.907547"],
    [2188,"2024-04-01 03:00:00","20","manfredonia_liceo","17.09","1","74.08","1","0.0","1","null","6","null","6","null","6","1005.63","1","41.627894","15.907547"],
    [2189,"2024-04-01 04:00:00","20","manfredonia_liceo","16.95","1","75.21","1","0.0","1","null","6","null","6","null","6","1005.28","1","41.627894","15.907547"],
    [2190,"2024-04-01 05:00:00","20","manfredonia_liceo","16.21","1","79.51","1","0.0","1","null","6","null","6","null","6","1004.87","1","41.627894","15.907547"],
    [2191,"2024-04-01 06:00:00","20","manfredonia_liceo","14.47","1","87.08","1","0.0","1","null","6","null","6","null","6","1004.76","1","41.627894","15.907547"],
    [2192,"2024-04-01 07:00:00","20","manfredonia_liceo","15.02","1","85.65","1","0.0","1","null","6","null","6","null","6","1004.7","1","41.627894","15.907547"],
    [2193,"2024-04-01 08:00:00","20","manfredonia_liceo","17.29","1","77.44","1","0.0","1","null","6","null","6","null","6","1004.52","1","41.627894","15.907547"],
    [2194,"2024-04-01 09:00:00","20","manfredonia_liceo","19.62","1","74.39","1","0.0","1","null","6","null","6","null","6","1004.39","1","41.627894","15.907547"],
    [2195,"2024-04-01 10:00:00","20","manfredonia_liceo","22.68","1","58.17","1","0.0","1","null","6","null","6","null","6","1004.4","1","41.627894","15.907547"],
    [2196,"2024-04-01 11:00:00","20","manfredonia_liceo","24.44","1","51.93","1","0.0","1","null","6","null","6","null","6","1004.29","1","41.627894","15.907547"],
    [2197,"2024-04-01 12:00:00","20","manfredonia_liceo","26.44","1","46.07","1","0.0","1","null","6","null","6","null","6","1003.75","1","41.627894","15.907547"],
    [2198,"2024-04-01 13:00:00","20","manfredonia_liceo","26.85","1","45.84","1","0.0","1","null","6","null","6","null","6","1003.01","1","41.627894","15.907547"],
    [2199,"2024-04-01 14:00:00","20","manfredonia_liceo","24.72","1","56.2","1","0.0","1","null","6","null","6","null","6","1002.11","1","41.627894","15.907547"],
    [2200,"2024-04-01 15:00:00","20","manfredonia_liceo","24.66","1","57.08","1","0.0","1","null","6","null","6","null","6","1001.45","1","41.627894","15.907547"],
    [2201,"2024-04-01 16:00:00","20","manfredonia_liceo","25.37","1","54.27","1","0.0","1","null","6","null","6","null","6","1000.84","1","41.627894","15.907547"],
    [2202,"2024-04-01 17:00:00","20","manfredonia_liceo","26.26","1","50.74","1","0.0","1","null","6","null","6","null","6","1000.01","1","41.627894","15.907547"],
    [2203,"2024-04-01 18:00:00","20","manfredonia_liceo","23.94","1","55.25","1","0.0","1","null","6","null","6","null","6","999.27","1","41.627894","15.907547"],
    [2204,"2024-04-01 19:00:00","20","manfredonia_liceo","23.0","1","53.88","1","0.0","1","null","6","null","6","null","6","999.53","1","41.627894","15.907547"],
    [2205,"2024-04-01 20:00:00","20","manfredonia_liceo","21.15","1","53.72","1","0.0","1","null","6","null","6","null","6","1001.78","1","41.627894","15.907547"],
    [2206,"2024-04-01 21:00:00","20","manfredonia_liceo","18.83","1","52.33","1","0.0","1","null","6","null","6","null","6","1004.97","1","41.627894","15.907547"],
    [2207,"2024-04-01 22:00:00","20","manfredonia_liceo","15.74","1","59.23","1","0.4","1","null","6","null","6","null","6","1006.71","1","41.627894","15.907547"],
    [2208,"2024-04-01 23:00:00","20","manfredonia_liceo","13.43","1","82.16","1","1.0","1","null","6","null","6","null","6","1006.14","1","41.627894","15.907547"],
    [2209,"2024-04-02 00:00:00","20","manfredonia_liceo","13.33","1","80.43","1","0.0","1","null","6","null","6","null","6","1006.42","1","41.627894","15.907547"],
    [2210,"2024-04-02 01:00:00","20","manfredonia_liceo","13.12","1","73.99","1","0.0","1","null","6","null","6","null","6","1007.3","1","41.627894","15.907547"],
    [2211,"2024-04-02 02:00:00","20","manfredonia_liceo","12.49","1","73.67","1","0.0","1","null","6","null","6","null","6","1008.16","1","41.627894","15.907547"],
    [2212,"2024-04-02 03:00:00","20","manfredonia_liceo","11.28","1","74.81","1","0.0","1","null","6","null","6","null","6","1008.41","1","41.627894","15.907547"],
    [2213,"2024-04-02 04:00:00","20","manfredonia_liceo","11.57","1","66.37","1","0.0","1","null","6","null","6","null","6","1008.73","1","41.627894","15.907547"],
    [2214,"2024-04-02 05:00:00","20","manfredonia_liceo","11.47","1","64.4","1","0.0","1","null","6","null","6","null","6","1009.29","1","41.627894","15.907547"],
    [2215,"2024-04-02 06:00:00","20","manfredonia_liceo","11.95","1","60.57","1","0.0","1","null","6","null","6","null","6","1009.76","1","41.627894","15.907547"],
    [2216,"2024-04-02 07:00:00","20","manfredonia_liceo","11.48","1","69.32","1","0.0","1","null","6","null","6","null","6","1010.17","1","41.627894","15.907547"],
    [2217,"2024-04-02 08:00:00","20","manfredonia_liceo","12.87","1","70.2","1","0.0","1","null","6","null","6","null","6","1010.66","1","41.627894","15.907547"],
    [2218,"2024-04-02 09:00:00","20","manfredonia_liceo","15.75","1","62.37","1","0.0","1","null","6","null","6","null","6","1011.04","1","41.627894","15.907547"],
    [2219,"2024-04-02 10:00:00","20","manfredonia_liceo","17.99","1","54.47","1","0.0","1","null","6","null","6","null","6","1011.34","1","41.627894","15.907547"],
    [2220,"2024-04-02 11:00:00","20","manfredonia_liceo","19.62","1","46.68","1","0.0","1","null","6","null","6","null","6","1011.14","1","41.627894","15.907547"],
    [2221,"2024-04-02 12:00:00","20","manfredonia_liceo","21.35","1","40.56","1","0.0","1","null","6","null","6","null","6","1010.76","1","41.627894","15.907547"],
    [2222,"2024-04-02 13:00:00","20","manfredonia_liceo","22.71","1","33.99","1","0.0","1","null","6","null","6","null","6","1010.26","1","41.627894","15.907547"],
    [2223,"2024-04-02 14:00:00","20","manfredonia_liceo","23.12","1","31.78","1","0.0","1","null","6","null","6","null","6","1010.26","1","41.627894","15.907547"],
    [2224,"2024-04-02 15:00:00","20","manfredonia_liceo","22.15","1","34.27","1","0.0","1","null","6","null","6","null","6","1010.26","1","41.627894","15.907547"],
    [2225,"2024-04-02 16:00:00","20","manfredonia_liceo","23.7","1","33.16","1","0.0","1","null","6","null","6","null","6","1010.59","1","41.627894","15.907547"],
    [2226,"2024-04-02 17:00:00","20","manfredonia_liceo","22.47","1","34.61","1","0.0","1","null","6","null","6","null","6","1011.08","1","41.627894","15.907547"],
    [2227,"2024-04-02 18:00:00","20","manfredonia_liceo","21.48","1","41.45","1","0.0","1","null","6","null","6","null","6","1011.24","1","41.627894","15.907547"],
    [2228,"2024-04-02 19:00:00","20","manfredonia_liceo","16.81","1","55.0","1","0.0","1","null","6","null","6","null","6","1011.61","1","41.627894","15.907547"],
    [2229,"2024-04-02 20:00:00","20","manfredonia_liceo","15.4","1","61.31","1","0.0","1","null","6","null","6","null","6","1011.9","1","41.627894","15.907547"],
    [2230,"2024-04-02 21:00:00","20","manfredonia_liceo","14.59","1","65.86","1","0.0","1","null","6","null","6","null","6","1012.19","1","41.627894","15.907547"],
    [2231,"2024-04-02 22:00:00","20","manfredonia_liceo","13.42","1","67.55","1","0.0","1","null","6","null","6","null","6","1012.47","1","41.627894","15.907547"],
    [2232,"2024-04-02 23:00:00","20","manfredonia_liceo","12.34","1","70.61","1","0.0","1","null","6","null","6","null","6","1012.8","1","41.627894","15.907547"],
    [2233,"2024-04-03 00:00:00","20","manfredonia_liceo","11.55","1","74.92","1","0.0","1","null","6","null","6","null","6","1013.18","1","41.627894","15.907547"],
    [2234,"2024-04-03 01:00:00","20","manfredonia_liceo","11.7","1","74.41","1","0.0","1","null","6","null","6","null","6","1012.82","1","41.627894","15.907547"],
    [2235,"2024-04-03 02:00:00","20","manfredonia_liceo","9.92","1","81.0","1","0.0","1","null","6","null","6","null","6","1012.66","1","41.627894","15.907547"],
    [2236,"2024-04-03 03:00:00","20","manfredonia_liceo","9.85","1","78.12","1","0.0","1","null","6","null","6","null","6","1012.16","1","41.627894","15.907547"],
    [2237,"2024-04-03 04:00:00","20","manfredonia_liceo","10.89","1","75.18","1","0.0","1","null","6","null","6","null","6","1012.03","1","41.627894","15.907547"],
    [2238,"2024-04-03 05:00:00","20","manfredonia_liceo","10.98","1","75.28","1","0.0","1","null","6","null","6","null","6","1011.72","1","41.627894","15.907547"],
    [2239,"2024-04-03 06:00:00","20","manfredonia_liceo","10.19","1","78.34","1","0.0","1","null","6","null","6","null","6","1011.72","1","41.627894","15.907547"],
    [2240,"2024-04-03 07:00:00","20","manfredonia_liceo","10.37","1","77.12","1","0.0","1","null","6","null","6","null","6","1011.82","1","41.627894","15.907547"],
    [2241,"2024-04-03 08:00:00","20","manfredonia_liceo","12.97","1","71.32","1","0.0","1","null","6","null","6","null","6","1012.28","1","41.627894","15.907547"],
    [2242,"2024-04-03 09:00:00","20","manfredonia_liceo","16.5","1","63.53","1","0.0","1","null","6","null","6","null","6","1012.5","1","41.627894","15.907547"],
    [2243,"2024-04-03 10:00:00","20","manfredonia_liceo","18.23","1","59.26","1","0.0","1","null","6","null","6","null","6","1012.51","1","41.627894","15.907547"],
    [2244,"2024-04-03 11:00:00","20","manfredonia_liceo","20.69","1","47.45","1","0.0","1","null","6","null","6","null","6","1012.82","1","41.627894","15.907547"],
    [2245,"2024-04-03 12:00:00","20","manfredonia_liceo","21.73","1","40.42","1","0.0","1","null","6","null","6","null","6","1012.52","1","41.627894","15.907547"],
    [2246,"2024-04-03 13:00:00","20","manfredonia_liceo","21.88","1","40.82","1","0.0","1","null","6","null","6","null","6","1012.22","1","41.627894","15.907547"],
    [2247,"2024-04-03 14:00:00","20","manfredonia_liceo","21.12","1","51.75","1","0.0","1","null","6","null","6","null","6","1012.07","1","41.627894","15.907547"],
    [2248,"2024-04-03 15:00:00","20","manfredonia_liceo","19.67","1","62.15","1","0.0","1","null","6","null","6","null","6","1011.87","1","41.627894","15.907547"],
    [2249,"2024-04-03 16:00:00","20","manfredonia_liceo","20.28","1","61.26","1","0.0","1","null","6","null","6","null","6","1011.38","1","41.627894","15.907547"],
    [2250,"2024-04-03 17:00:00","20","manfredonia_liceo","20.22","1","61.3","1","0.0","1","null","6","null","6","null","6","1011.24","1","41.627894","15.907547"],
    [2251,"2024-04-03 18:00:00","20","manfredonia_liceo","20.47","1","58.33","1","0.0","1","null","6","null","6","null","6","1011.26","1","41.627894","15.907547"],
    [2252,"2024-04-03 19:00:00","20","manfredonia_liceo","16.7","1","68.7","1","0.0","1","null","6","null","6","null","6","1011.35","1","41.627894","15.907547"],
    [2253,"2024-04-03 20:00:00","20","manfredonia_liceo","14.74","1","76.15","1","0.0","1","null","6","null","6","null","6","1011.62","1","41.627894","15.907547"],
    [2254,"2024-04-03 21:00:00","20","manfredonia_liceo","14.93","1","61.73","1","0.0","1","null","6","null","6","null","6","1011.84","1","41.627894","15.907547"],
    [2255,"2024-04-03 22:00:00","20","manfredonia_liceo","14.51","1","59.2","1","0.0","1","null","6","null","6","null","6","1012.09","1","41.627894","15.907547"],
    [2256,"2024-04-03 23:00:00","20","manfredonia_liceo","13.58","1","59.33","1","0.0","1","null","6","null","6","null","6","1012.42","1","41.627894","15.907547"],
    [2257,"2024-04-04 00:00:00","20","manfredonia_liceo","12.61","1","61.41","1","0.0","1","null","6","null","6","null","6","1012.45","1","41.627894","15.907547"],
    [2258,"2024-04-04 01:00:00","20","manfredonia_liceo","12.92","1","60.9","1","0.0","1","null","6","null","6","null","6","1012.18","1","41.627894","15.907547"],
    [2259,"2024-04-04 02:00:00","20","manfredonia_liceo","12.79","1","61.22","1","0.0","1","null","6","null","6","null","6","1012.1","1","41.627894","15.907547"],
    [2260,"2024-04-04 03:00:00","20","manfredonia_liceo","13.69","1","56.17","1","0.0","1","null","6","null","6","null","6","1012.2","1","41.627894","15.907547"],
    [2261,"2024-04-04 04:00:00","20","manfredonia_liceo","13.37","1","56.08","1","0.0","1","null","6","null","6","null","6","1012.47","1","41.627894","15.907547"],
    [2262,"2024-04-04 05:00:00","20","manfredonia_liceo","11.95","1","60.51","1","0.0","1","null","6","null","6","null","6","1012.84","1","41.627894","15.907547"],
    [2263,"2024-04-04 06:00:00","20","manfredonia_liceo","10.85","1","62.94","1","0.0","1","null","6","null","6","null","6","1013.07","1","41.627894","15.907547"],
    [2264,"2024-04-04 07:00:00","20","manfredonia_liceo","11.98","1","60.45","1","0.0","1","null","6","null","6","null","6","1013.66","1","41.627894","15.907547"],
    [2265,"2024-04-04 08:00:00","20","manfredonia_liceo","15.68","1","50.04","1","0.0","1","null","6","null","6","null","6","1014.01","1","41.627894","15.907547"],
    [2266,"2024-04-04 09:00:00","20","manfredonia_liceo","18.94","1","43.32","1","0.0","1","null","6","null","6","null","6","1014.6","1","41.627894","15.907547"],
    [2267,"2024-04-04 10:00:00","20","manfredonia_liceo","22.06","1","36.38","1","0.0","1","null","6","null","6","null","6","1015.02","1","41.627894","15.907547"],
    [2268,"2024-04-04 11:00:00","20","manfredonia_liceo","24.12","1","34.27","1","0.0","1","null","6","null","6","null","6","1015.33","1","41.627894","15.907547"],
    [2269,"2024-04-04 12:00:00","20","manfredonia_liceo","23.74","1","42.86","1","0.0","1","null","6","null","6","null","6","1015.21","1","41.627894","15.907547"],
    [2270,"2024-04-04 13:00:00","20","manfredonia_liceo","23.49","1","42.14","1","0.0","1","null","6","null","6","null","6","1015.02","1","41.627894","15.907547"],
    [2271,"2024-04-04 14:00:00","20","manfredonia_liceo","22.87","1","40.7","1","0.0","1","null","6","null","6","null","6","1014.83","1","41.627894","15.907547"],
    [2272,"2024-04-04 15:00:00","20","manfredonia_liceo","22.32","1","48.87","1","0.0","1","null","6","null","6","null","6","1014.46","1","41.627894","15.907547"],
    [2273,"2024-04-04 16:00:00","20","manfredonia_liceo","22.0","1","52.02","1","0.0","1","null","6","null","6","null","6","1014.29","1","41.627894","15.907547"],
    [2274,"2024-04-04 17:00:00","20","manfredonia_liceo","21.77","1","52.82","1","0.0","1","null","6","null","6","null","6","1014.5","1","41.627894","15.907547"],
    [2275,"2024-04-04 18:00:00","20","manfredonia_liceo","20.01","1","60.35","1","0.0","1","null","6","null","6","null","6","1014.7","1","41.627894","15.907547"],
    [2276,"2024-04-04 19:00:00","20","manfredonia_liceo","16.68","1","64.74","1","0.0","1","null","6","null","6","null","6","1015.02","1","41.627894","15.907547"],
    [2277,"2024-04-04 20:00:00","20","manfredonia_liceo","15.7","1","62.39","1","0.0","1","null","6","null","6","null","6","1015.61","1","41.627894","15.907547"],
    [2278,"2024-04-04 21:00:00","20","manfredonia_liceo","14.4","1","62.37","1","0.0","1","null","6","null","6","null","6","1015.99","1","41.627894","15.907547"],
    [2279,"2024-04-04 22:00:00","20","manfredonia_liceo","13.89","1","61.56","1","0.0","1","null","6","null","6","null","6","1016.12","1","41.627894","15.907547"],
    [2280,"2024-04-04 23:00:00","20","manfredonia_liceo","13.17","1","65.31","1","0.0","1","null","6","null","6","null","6","1016.3","1","41.627894","15.907547"],
    [2281,"2024-04-05 00:00:00","20","manfredonia_liceo","11.68","1","71.63","1","0.0","1","null","6","null","6","null","6","1016.28","1","41.627894","15.907547"],
    [2282,"2024-04-05 01:00:00","20","manfredonia_liceo","11.67","1","69.68","1","0.0","1","null","6","null","6","null","6","1016.44","1","41.627894","15.907547"],
    [2283,"2024-04-05 02:00:00","20","manfredonia_liceo","11.07","1","71.41","1","0.0","1","null","6","null","6","null","6","1016.01","1","41.627894","15.907547"],
    [2284,"2024-04-05 03:00:00","20","manfredonia_liceo","10.36","1","74.23","1","0.0","1","null","6","null","6","null","6","1015.87","1","41.627894","15.907547"],
    [2285,"2024-04-05 04:00:00","20","manfredonia_liceo","9.57","1","78.73","1","0.0","1","null","6","null","6","null","6","1016.1","1","41.627894","15.907547"],
    [2286,"2024-04-05 05:00:00","20","manfredonia_liceo","9.67","1","79.0","1","0.0","1","null","6","null","6","null","6","1016.17","1","41.627894","15.907547"],
    [2287,"2024-04-05 06:00:00","20","manfredonia_liceo","9.89","1","79.07","1","0.0","1","null","6","null","6","null","6","1016.91","1","41.627894","15.907547"],
    [2288,"2024-04-05 07:00:00","20","manfredonia_liceo","10.89","1","80.03","1","0.0","1","null","6","null","6","null","6","1017.48","1","41.627894","15.907547"],
    [2289,"2024-04-05 08:00:00","20","manfredonia_liceo","15.09","1","71.36","1","0.0","1","null","6","null","6","null","6","1017.97","1","41.627894","15.907547"],
    [2290,"2024-04-05 09:00:00","20","manfredonia_liceo","19.38","1","54.65","1","0.0","1","null","6","null","6","null","6","1018.47","1","41.627894","15.907547"],
    [2291,"2024-04-05 10:00:00","20","manfredonia_liceo","20.65","1","52.15","1","0.0","1","null","6","null","6","null","6","1019.0","1","41.627894","15.907547"],
    [2292,"2024-04-05 11:00:00","20","manfredonia_liceo","21.43","1","45.72","1","0.0","1","null","6","null","6","null","6","1019.05","1","41.627894","15.907547"],
    [2293,"2024-04-05 12:00:00","20","manfredonia_liceo","22.33","1","41.44","1","0.0","1","null","6","null","6","null","6","1019.05","1","41.627894","15.907547"],
    [2294,"2024-04-05 13:00:00","20","manfredonia_liceo","22.7","1","43.49","1","0.0","1","null","6","null","6","null","6","1019.03","1","41.627894","15.907547"],
    [2295,"2024-04-05 14:00:00","20","manfredonia_liceo","22.03","1","51.12","1","0.0","1","null","6","null","6","null","6","1018.59","1","41.627894","15.907547"],
    [2296,"2024-04-05 15:00:00","20","manfredonia_liceo","22.8","1","55.52","1","0.0","1","null","6","null","6","null","6","1018.15","1","41.627894","15.907547"],
    [2297,"2024-04-05 16:00:00","20","manfredonia_liceo","22.68","1","54.06","1","0.0","1","null","6","null","6","null","6","1017.9","1","41.627894","15.907547"],
    [2298,"2024-04-05 17:00:00","20","manfredonia_liceo","22.41","1","57.57","1","0.0","1","null","6","null","6","null","6","1017.85","1","41.627894","15.907547"],
    [2299,"2024-04-05 18:00:00","20","manfredonia_liceo","20.37","1","62.17","1","0.0","1","null","6","null","6","null","6","1017.93","1","41.627894","15.907547"],
    [2300,"2024-04-05 19:00:00","20","manfredonia_liceo","17.16","1","69.8","1","0.0","1","null","6","null","6","null","6","1017.72","1","41.627894","15.907547"],
    [2301,"2024-04-05 20:00:00","20","manfredonia_liceo","15.86","1","73.06","1","0.0","1","null","6","null","6","null","6","1018.08","1","41.627894","15.907547"],
    [2302,"2024-04-05 21:00:00","20","manfredonia_liceo","14.75","1","79.98","1","0.0","1","null","6","null","6","null","6","1018.68","1","41.627894","15.907547"],
    [2303,"2024-04-05 22:00:00","20","manfredonia_liceo","13.76","1","80.31","1","0.0","1","null","6","null","6","null","6","1018.68","1","41.627894","15.907547"],
    [2304,"2024-04-05 23:00:00","20","manfredonia_liceo","13.46","1","74.19","1","0.0","1","null","6","null","6","null","6","1018.32","1","41.627894","15.907547"],
    [2305,"2024-04-06 00:00:00","20","manfredonia_liceo","13.25","1","71.65","1","0.0","1","null","6","null","6","null","6","1018.24","1","41.627894","15.907547"],
    [2306,"2024-04-06 01:00:00","20","manfredonia_liceo","12.67","1","71.35","1","0.0","1","null","6","null","6","null","6","1017.95","1","41.627894","15.907547"],
    [2307,"2024-04-06 02:00:00","20","manfredonia_liceo","12.65","1","68.21","1","0.0","1","null","6","null","6","null","6","1017.76","1","41.627894","15.907547"],
    [2308,"2024-04-06 03:00:00","20","manfredonia_liceo","11.97","1","71.06","1","0.0","1","null","6","null","6","null","6","1017.58","1","41.627894","15.907547"],
    [2309,"2024-04-06 04:00:00","20","manfredonia_liceo","11.36","1","73.52","1","0.0","1","null","6","null","6","null","6","1017.45","1","41.627894","15.907547"],
    [2310,"2024-04-06 05:00:00","20","manfredonia_liceo","11.47","1","71.47","1","0.0","1","null","6","null","6","null","6","1017.47","1","41.627894","15.907547"],
    [2311,"2024-04-06 06:00:00","20","manfredonia_liceo","11.44","1","73.44","1","0.0","1","null","6","null","6","null","6","1017.61","1","41.627894","15.907547"],
    [2312,"2024-04-06 07:00:00","20","manfredonia_liceo","12.78","1","75.43","1","0.0","1","null","6","null","6","null","6","1018.06","1","41.627894","15.907547"],
    [2313,"2024-04-06 08:00:00","20","manfredonia_liceo","16.26","1","76.16","1","0.0","1","null","6","null","6","null","6","1018.37","1","41.627894","15.907547"],
    [2314,"2024-04-06 09:00:00","20","manfredonia_liceo","18.69","1","68.2","1","0.0","1","null","6","null","6","null","6","1018.74","1","41.627894","15.907547"],
    [2315,"2024-04-06 10:00:00","20","manfredonia_liceo","19.86","1","64.3","1","0.0","1","null","6","null","6","null","6","1019.15","1","41.627894","15.907547"],
    [2316,"2024-04-06 11:00:00","20","manfredonia_liceo","21.11","1","64.23","1","0.0","1","null","6","null","6","null","6","1019.36","1","41.627894","15.907547"],
    [2317,"2024-04-06 12:00:00","20","manfredonia_liceo","21.34","1","62.71","1","0.0","1","null","6","null","6","null","6","1019.06","1","41.627894","15.907547"],
    [2318,"2024-04-06 13:00:00","20","manfredonia_liceo","22.01","1","59.78","1","0.0","1","null","6","null","6","null","6","1018.52","1","41.627894","15.907547"],
    [2319,"2024-04-06 14:00:00","20","manfredonia_liceo","22.37","1","53.94","1","0.0","1","null","6","null","6","null","6","1017.98","1","41.627894","15.907547"],
    [2320,"2024-04-06 15:00:00","20","manfredonia_liceo","23.2","1","51.93","1","0.0","1","null","6","null","6","null","6","1017.33","1","41.627894","15.907547"],
    [2321,"2024-04-06 16:00:00","20","manfredonia_liceo","22.99","1","55.4","1","0.0","1","null","6","null","6","null","6","1016.94","1","41.627894","15.907547"],
    [2322,"2024-04-06 17:00:00","20","manfredonia_liceo","23.42","1","55.26","1","0.0","1","null","6","null","6","null","6","1016.73","1","41.627894","15.907547"],
    [2323,"2024-04-06 18:00:00","20","manfredonia_liceo","21.53","1","60.72","1","0.0","1","null","6","null","6","null","6","1016.48","1","41.627894","15.907547"],
    [2324,"2024-04-06 19:00:00","20","manfredonia_liceo","18.17","1","74.27","1","0.0","1","null","6","null","6","null","6","1016.52","1","41.627894","15.907547"],
    [2325,"2024-04-06 20:00:00","20","manfredonia_liceo","16.85","1","79.99","1","0.0","1","null","6","null","6","null","6","1016.91","1","41.627894","15.907547"],
    [2326,"2024-04-06 21:00:00","20","manfredonia_liceo","15.17","1","83.16","1","0.0","1","null","6","null","6","null","6","1017.22","1","41.627894","15.907547"],
    [2327,"2024-04-06 22:00:00","20","manfredonia_liceo","14.26","1","83.09","1","0.0","1","null","6","null","6","null","6","1017.02","1","41.627894","15.907547"],
    [2328,"2024-04-06 23:00:00","20","manfredonia_liceo","13.84","1","81.15","1","0.0","1","null","6","null","6","null","6","1016.85","1","41.627894","15.907547"],
    [2329,"2024-04-07 00:00:00","20","manfredonia_liceo","12.88","1","80.47","1","0.0","1","null","6","null","6","null","6","1016.55","1","41.627894","15.907547"],
    [2330,"2024-04-07 01:00:00","20","manfredonia_liceo","13.14","1","71.35","1","0.0","1","null","6","null","6","null","6","1016.26","1","41.627894","15.907547"],
    [2331,"2024-04-07 02:00:00","20","manfredonia_liceo","14.05","1","65.14","1","0.0","1","null","6","null","6","null","6","1015.86","1","41.627894","15.907547"],
    [2332,"2024-04-07 03:00:00","20","manfredonia_liceo","12.83","1","71.31","1","0.0","1","null","6","null","6","null","6","1015.75","1","41.627894","15.907547"],
    [2333,"2024-04-07 04:00:00","20","manfredonia_liceo","12.22","1","77.01","1","0.0","1","null","6","null","6","null","6","1015.46","1","41.627894","15.907547"],
    [2334,"2024-04-07 05:00:00","20","manfredonia_liceo","10.98","1","76.17","1","0.0","1","null","6","null","6","null","6","1015.07","1","41.627894","15.907547"],
    [2335,"2024-04-07 06:00:00","20","manfredonia_liceo","11.23","1","74.57","1","0.0","1","null","6","null","6","null","6","1015.24","1","41.627894","15.907547"],
    [2336,"2024-04-07 07:00:00","20","manfredonia_liceo","12.7","1","72.49","1","0.0","1","null","6","null","6","null","6","1015.54","1","41.627894","15.907547"],
    [2337,"2024-04-07 08:00:00","20","manfredonia_liceo","16.5","1","66.24","1","0.0","1","null","6","null","6","null","6","1015.75","1","41.627894","15.907547"],
    [2338,"2024-04-07 09:00:00","20","manfredonia_liceo","20.31","1","54.25","1","0.0","1","null","6","null","6","null","6","1015.74","1","41.627894","15.907547"],
    [2339,"2024-04-07 10:00:00","20","manfredonia_liceo","23.32","1","52.06","1","0.0","1","null","6","null","6","null","6","1015.69","1","41.627894","15.907547"],
    [2340,"2024-04-07 11:00:00","20","manfredonia_liceo","25.27","1","48.12","1","0.0","1","null","6","null","6","null","6","1015.26","1","41.627894","15.907547"],
    [2341,"2024-04-07 12:00:00","20","manfredonia_liceo","24.55","1","43.68","1","0.0","1","null","6","null","6","null","6","1015.05","1","41.627894","15.907547"],
    [2342,"2024-04-07 13:00:00","20","manfredonia_liceo","25.07","1","39.95","1","0.0","1","null","6","null","6","null","6","1014.41","1","41.627894","15.907547"],
    [2343,"2024-04-07 14:00:00","20","manfredonia_liceo","25.07","1","44.68","1","0.0","1","null","6","null","6","null","6","1013.81","1","41.627894","15.907547"],
    [2344,"2024-04-07 15:00:00","20","manfredonia_liceo","25.84","1","39.69","1","0.0","1","null","6","null","6","null","6","1013.34","1","41.627894","15.907547"],
    [2345,"2024-04-07 16:00:00","20","manfredonia_liceo","26.54","1","42.21","1","0.0","1","null","6","null","6","null","6","1012.88","1","41.627894","15.907547"],
    [2346,"2024-04-07 17:00:00","20","manfredonia_liceo","27.63","1","40.34","1","0.0","1","null","6","null","6","null","6","1012.81","1","41.627894","15.907547"],
    [2347,"2024-04-07 18:00:00","20","manfredonia_liceo","26.22","1","36.41","1","0.0","1","null","6","null","6","null","6","1012.69","1","41.627894","15.907547"],
    [2348,"2024-04-07 19:00:00","20","manfredonia_liceo","21.9","1","46.31","1","0.0","1","null","6","null","6","null","6","1012.4","1","41.627894","15.907547"],
    [2349,"2024-04-07 20:00:00","20","manfredonia_liceo","19.43","1","67.91","1","0.0","1","null","6","null","6","null","6","1012.32","1","41.627894","15.907547"],
    [2350,"2024-04-07 21:00:00","20","manfredonia_liceo","17.21","1","79.69","1","0.0","1","null","6","null","6","null","6","1012.48","1","41.627894","15.907547"],
    [2351,"2024-04-07 22:00:00","20","manfredonia_liceo","15.53","1","74.13","1","0.0","1","null","6","null","6","null","6","1012.53","1","41.627894","15.907547"],
    [2352,"2024-04-07 23:00:00","20","manfredonia_liceo","14.9","1","68.82","1","0.0","1","null","6","null","6","null","6","1012.47","1","41.627894","15.907547"],
    [2353,"2024-04-08 00:00:00","20","manfredonia_liceo","13.83","1","76.17","1","0.0","1","null","6","null","6","null","6","1012.45","1","41.627894","15.907547"],
    [2354,"2024-04-08 01:00:00","20","manfredonia_liceo","15.18","1","80.9","1","0.0","1","null","6","null","6","null","6","1012.45","1","41.627894","15.907547"],
    [2355,"2024-04-08 02:00:00","20","manfredonia_liceo","13.43","1","75.73","1","0.0","1","null","6","null","6","null","6","1012.45","1","41.627894","15.907547"],
    [2356,"2024-04-08 03:00:00","20","manfredonia_liceo","13.2","1","86.98","1","0.0","1","null","6","null","6","null","6","1012.49","1","41.627894","15.907547"],
    [2357,"2024-04-08 04:00:00","20","manfredonia_liceo","13.75","1","96.85","1","0.0","1","null","6","null","6","null","6","1012.42","1","41.627894","15.907547"],
    [2358,"2024-04-08 05:00:00","20","manfredonia_liceo","13.69","1","98.87","1","0.0","1","null","6","null","6","null","6","1012.45","1","41.627894","15.907547"],
    [2359,"2024-04-08 06:00:00","20","manfredonia_liceo","12.45","1","99.73","1","0.0","1","null","6","null","6","null","6","1012.57","1","41.627894","15.907547"],
    [2360,"2024-04-08 07:00:00","20","manfredonia_liceo","13.79","1","95.6","1","0.0","1","null","6","null","6","null","6","1013.02","1","41.627894","15.907547"],
    [2361,"2024-04-08 08:00:00","20","manfredonia_liceo","16.61","1","70.98","1","0.0","1","null","6","null","6","null","6","1013.42","1","41.627894","15.907547"],
    [2362,"2024-04-08 09:00:00","20","manfredonia_liceo","19.18","1","56.1","1","0.0","1","null","6","null","6","null","6","1013.85","1","41.627894","15.907547"],
    [2363,"2024-04-08 10:00:00","20","manfredonia_liceo","21.3","1","47.31","1","0.0","1","null","6","null","6","null","6","1014.01","1","41.627894","15.907547"],
    [2364,"2024-04-08 11:00:00","20","manfredonia_liceo","22.96","1","41.91","1","0.0","1","null","6","null","6","null","6","1013.78","1","41.627894","15.907547"],
    [2365,"2024-04-08 12:00:00","20","manfredonia_liceo","24.5","1","39.1","1","0.0","1","null","6","null","6","null","6","1013.41","1","41.627894","15.907547"],
    [2366,"2024-04-08 13:00:00","20","manfredonia_liceo","25.37","1","41.8","1","0.0","1","null","6","null","6","null","6","1012.67","1","41.627894","15.907547"],
    [2367,"2024-04-08 14:00:00","20","manfredonia_liceo","25.27","1","46.7","1","0.0","1","null","6","null","6","null","6","1012.36","1","41.627894","15.907547"],
    [2368,"2024-04-08 15:00:00","20","manfredonia_liceo","23.8","1","57.03","1","0.0","1","null","6","null","6","null","6","1012.09","1","41.627894","15.907547"],
    [2369,"2024-04-08 16:00:00","20","manfredonia_liceo","23.33","1","63.5","1","0.0","1","null","6","null","6","null","6","1012.07","1","41.627894","15.907547"],
    [2370,"2024-04-08 17:00:00","20","manfredonia_liceo","22.91","1","65.73","1","0.0","1","null","6","null","6","null","6","1011.69","1","41.627894","15.907547"],
    [2371,"2024-04-08 18:00:00","20","manfredonia_liceo","20.86","1","73.86","1","0.0","1","null","6","null","6","null","6","1011.49","1","41.627894","15.907547"],
    [2372,"2024-04-08 19:00:00","20","manfredonia_liceo","18.22","1","80.95","1","0.0","1","null","6","null","6","null","6","1011.58","1","41.627894","15.907547"],
    [2373,"2024-04-08 20:00:00","20","manfredonia_liceo","17.67","1","70.55","1","0.0","1","null","6","null","6","null","6","1011.53","1","41.627894","15.907547"],
    [2374,"2024-04-08 21:00:00","20","manfredonia_liceo","17.73","1","60.84","1","0.0","1","null","6","null","6","null","6","1011.41","1","41.627894","15.907547"],
    [2375,"2024-04-08 22:00:00","20","manfredonia_liceo","17.41","1","61.41","1","0.0","1","null","6","null","6","null","6","1011.72","1","41.627894","15.907547"],
    [2376,"2024-04-08 23:00:00","20","manfredonia_liceo","16.49","1","64.41","1","0.0","1","null","6","null","6","null","6","1011.54","1","41.627894","15.907547"],
    [2377,"2024-04-09 00:00:00","20","manfredonia_liceo","16.67","1","63.48","1","0.0","1","null","6","null","6","null","6","1011.35","1","41.627894","15.907547"],
    [2378,"2024-04-09 01:00:00","20","manfredonia_liceo","17.42","1","60.83","1","0.0","1","null","6","null","6","null","6","1011.06","1","41.627894","15.907547"],
    [2379,"2024-04-09 02:00:00","20","manfredonia_liceo","17.2","1","62.47","1","0.0","1","null","6","null","6","null","6","1010.82","1","41.627894","15.907547"],
    [2380,"2024-04-09 03:00:00","20","manfredonia_liceo","16.91","1","63.59","1","0.0","1","null","6","null","6","null","6","1010.51","1","41.627894","15.907547"],
    [2381,"2024-04-09 04:00:00","20","manfredonia_liceo","15.52","1","70.19","1","0.0","1","null","6","null","6","null","6","1010.51","1","41.627894","15.907547"],
    [2382,"2024-04-09 05:00:00","20","manfredonia_liceo","14.64","1","73.75","1","0.0","1","null","6","null","6","null","6","1010.71","1","41.627894","15.907547"],
    [2383,"2024-04-09 06:00:00","20","manfredonia_liceo","13.8","1","77.07","1","0.0","1","null","6","null","6","null","6","1010.99","1","41.627894","15.907547"],
    [2384,"2024-04-09 07:00:00","20","manfredonia_liceo","14.52","1","75.19","1","0.0","1","null","6","null","6","null","6","1010.99","1","41.627894","15.907547"],
    [2385,"2024-04-09 08:00:00","20","manfredonia_liceo","19.09","1","61.35","1","0.0","1","null","6","null","6","null","6","1010.95","1","41.627894","15.907547"],
    [2386,"2024-04-09 09:00:00","20","manfredonia_liceo","22.19","1","51.3","1","0.0","1","null","6","null","6","null","6","1010.78","1","41.627894","15.907547"],
    [2387,"2024-04-09 10:00:00","20","manfredonia_liceo","23.09","1","53.53","1","0.0","1","null","6","null","6","null","6","1010.98","1","41.627894","15.907547"],
    [2388,"2024-04-09 11:00:00","20","manfredonia_liceo","23.9","1","50.96","1","0.0","1","null","6","null","6","null","6","1010.76","1","41.627894","15.907547"],
    [2389,"2024-04-09 12:00:00","20","manfredonia_liceo","24.95","1","49.37","1","0.0","1","null","6","null","6","null","6","1010.52","1","41.627894","15.907547"],
    [2390,"2024-04-09 13:00:00","20","manfredonia_liceo","25.59","1","53.12","1","0.0","1","null","6","null","6","null","6","1010.07","1","41.627894","15.907547"],
    [2391,"2024-04-09 14:00:00","20","manfredonia_liceo","24.65","1","58.74","1","0.0","1","null","6","null","6","null","6","1009.75","1","41.627894","15.907547"],
    [2392,"2024-04-09 15:00:00","20","manfredonia_liceo","25.49","1","52.72","1","0.0","1","null","6","null","6","null","6","1009.25","1","41.627894","15.907547"],
    [2393,"2024-04-09 16:00:00","20","manfredonia_liceo","25.53","1","48.82","1","0.0","1","null","6","null","6","null","6","1008.9","1","41.627894","15.907547"],
    [2394,"2024-04-09 17:00:00","20","manfredonia_liceo","26.11","1","43.18","1","0.0","1","null","6","null","6","null","6","1008.79","1","41.627894","15.907547"],
    [2395,"2024-04-09 18:00:00","20","manfredonia_liceo","25.3","1","40.92","1","0.0","1","null","6","null","6","null","6","1008.84","1","41.627894","15.907547"],
    [2396,"2024-04-09 19:00:00","20","manfredonia_liceo","22.05","1","47.25","1","0.0","1","null","6","null","6","null","6","1008.79","1","41.627894","15.907547"],
    [2397,"2024-04-09 20:00:00","20","manfredonia_liceo","19.78","1","54.06","1","0.0","1","null","6","null","6","null","6","1008.79","1","41.627894","15.907547"],
    [2398,"2024-04-09 21:00:00","20","manfredonia_liceo","19.19","1","47.84","1","0.0","1","null","6","null","6","null","6","1009.06","1","41.627894","15.907547"],
    [2399,"2024-04-09 22:00:00","20","manfredonia_liceo","18.97","1","43.53","1","0.0","1","null","6","null","6","null","6","1009.16","1","41.627894","15.907547"],
    [2400,"2024-04-09 23:00:00","20","manfredonia_liceo","18.15","1","46.76","1","0.0","1","null","6","null","6","null","6","1009.16","1","41.627894","15.907547"],
    [2401,"2024-04-10 00:00:00","20","manfredonia_liceo","17.68","1","48.37","1","0.0","1","null","6","null","6","null","6","1009.06","1","41.627894","15.907547"],
    [2402,"2024-04-10 01:00:00","20","manfredonia_liceo","16.75","1","50.58","1","0.0","1","null","6","null","6","null","6","1008.78","1","41.627894","15.907547"],
    [2403,"2024-04-10 02:00:00","20","manfredonia_liceo","15.86","1","52.9","1","0.0","1","null","6","null","6","null","6","1008.41","1","41.627894","15.907547"],
    [2404,"2024-04-10 03:00:00","20","manfredonia_liceo","14.44","1","54.63","1","0.0","1","null","6","null","6","null","6","1008.23","1","41.627894","15.907547"],
    [2405,"2024-04-10 04:00:00","20","manfredonia_liceo","15.46","1","45.04","1","0.0","1","null","6","null","6","null","6","1007.81","1","41.627894","15.907547"],
    [2406,"2024-04-10 05:00:00","20","manfredonia_liceo","15.69","1","44.69","1","0.0","1","null","6","null","6","null","6","1007.69","1","41.627894","15.907547"],
    [2407,"2024-04-10 06:00:00","20","manfredonia_liceo","13.6","1","55.47","1","0.0","1","null","6","null","6","null","6","1008.04","1","41.627894","15.907547"],
    [2408,"2024-04-10 07:00:00","20","manfredonia_liceo","15.08","1","54.54","1","0.0","1","null","6","null","6","null","6","1008.58","1","41.627894","15.907547"],
    [2409,"2024-04-10 08:00:00","20","manfredonia_liceo","18.88","1","52.25","1","0.0","1","null","6","null","6","null","6","1009.11","1","41.627894","15.907547"],
    [2410,"2024-04-10 09:00:00","20","manfredonia_liceo","20.91","1","54.63","1","0.0","1","null","6","null","6","null","6","1009.29","1","41.627894","15.907547"],
    [2411,"2024-04-10 10:00:00","20","manfredonia_liceo","21.58","1","53.0","1","0.0","1","null","6","null","6","null","6","1009.6","1","41.627894","15.907547"],
    [2412,"2024-04-10 11:00:00","20","manfredonia_liceo","23.12","1","49.32","1","0.0","1","null","6","null","6","null","6","1009.99","1","41.627894","15.907547"],
    [2413,"2024-04-10 12:00:00","20","manfredonia_liceo","24.42","1","48.94","1","0.0","1","null","6","null","6","null","6","1010.26","1","41.627894","15.907547"],
    [2414,"2024-04-10 13:00:00","20","manfredonia_liceo","25.2","1","43.56","1","0.0","1","null","6","null","6","null","6","1010.24","1","41.627894","15.907547"],
    [2415,"2024-04-10 14:00:00","20","manfredonia_liceo","25.49","1","37.03","1","0.0","1","null","6","null","6","null","6","1010.26","1","41.627894","15.907547"],
    [2416,"2024-04-10 15:00:00","20","manfredonia_liceo","25.26","1","37.14","1","0.0","1","null","6","null","6","null","6","1010.53","1","41.627894","15.907547"],
    [2417,"2024-04-10 16:00:00","20","manfredonia_liceo","23.8","1","33.09","1","0.0","1","null","6","null","6","null","6","1010.95","1","41.627894","15.907547"],
    [2418,"2024-04-10 17:00:00","20","manfredonia_liceo","22.31","1","24.14","1","0.0","1","null","6","null","6","null","6","1011.36","1","41.627894","15.907547"],
    [2419,"2024-04-10 18:00:00","20","manfredonia_liceo","20.21","1","29.72","1","0.0","1","null","6","null","6","null","6","1011.81","1","41.627894","15.907547"],
    [2420,"2024-04-10 19:00:00","20","manfredonia_liceo","18.73","1","37.34","1","0.0","1","null","6","null","6","null","6","1012.44","1","41.627894","15.907547"],
    [2421,"2024-04-10 20:00:00","20","manfredonia_liceo","18.18","1","36.94","1","0.0","1","null","6","null","6","null","6","1012.7","1","41.627894","15.907547"],
    [2422,"2024-04-10 21:00:00","20","manfredonia_liceo","16.97","1","41.31","1","0.0","1","null","6","null","6","null","6","1013.42","1","41.627894","15.907547"],
    [2423,"2024-04-10 22:00:00","20","manfredonia_liceo","16.89","1","38.58","1","0.0","1","null","6","null","6","null","6","1014.02","1","41.627894","15.907547"],
    [2424,"2024-04-10 23:00:00","20","manfredonia_liceo","16.74","1","40.51","1","0.0","1","null","6","null","6","null","6","1014.4","1","41.627894","15.907547"],
    [2425,"2024-04-11 00:00:00","20","manfredonia_liceo","15.97","1","49.79","1","0.0","1","null","6","null","6","null","6","1014.84","1","41.627894","15.907547"],
    [2426,"2024-04-11 01:00:00","20","manfredonia_liceo","15.73","1","55.86","1","0.0","1","null","6","null","6","null","6","1015.02","1","41.627894","15.907547"],
    [2427,"2024-04-11 02:00:00","20","manfredonia_liceo","15.77","1","53.18","1","0.0","1","null","6","null","6","null","6","1014.74","1","41.627894","15.907547"],
    [2428,"2024-04-11 03:00:00","20","manfredonia_liceo","15.65","1","54.05","1","0.0","1","null","6","null","6","null","6","1014.8","1","41.627894","15.907547"],
    [2429,"2024-04-11 04:00:00","20","manfredonia_liceo","16.24","1","61.54","1","0.0","1","null","6","null","6","null","6","1014.65","1","41.627894","15.907547"],
    [2430,"2024-04-11 05:00:00","20","manfredonia_liceo","16.56","1","64.61","1","0.0","1","null","6","null","6","null","6","1014.89","1","41.627894","15.907547"],
    [2431,"2024-04-11 06:00:00","20","manfredonia_liceo","16.37","1","64.64","1","0.0","1","null","6","null","6","null","6","1015.14","1","41.627894","15.907547"],
    [2432,"2024-04-11 07:00:00","20","manfredonia_liceo","16.76","1","61.25","1","0.0","1","null","6","null","6","null","6","1015.45","1","41.627894","15.907547"],
    [2433,"2024-04-11 08:00:00","20","manfredonia_liceo","18.32","1","55.73","1","0.0","1","null","6","null","6","null","6","1015.94","1","41.627894","15.907547"],
    [2434,"2024-04-11 09:00:00","20","manfredonia_liceo","19.9","1","52.79","1","0.0","1","null","6","null","6","null","6","1016.68","1","41.627894","15.907547"],
    [2435,"2024-04-11 10:00:00","20","manfredonia_liceo","20.53","1","53.41","1","0.0","1","null","6","null","6","null","6","1017.07","1","41.627894","15.907547"],
    [2436,"2024-04-11 11:00:00","20","manfredonia_liceo","21.23","1","55.28","1","0.0","1","null","6","null","6","null","6","1017.51","1","41.627894","15.907547"],
    [2437,"2024-04-11 12:00:00","20","manfredonia_liceo","22.87","1","48.58","1","0.0","1","null","6","null","6","null","6","1017.75","1","41.627894","15.907547"],
    [2438,"2024-04-11 13:00:00","20","manfredonia_liceo","23.46","1","50.0","1","0.0","1","null","6","null","6","null","6","1017.95","1","41.627894","15.907547"],
    [2439,"2024-04-11 14:00:00","20","manfredonia_liceo","23.6","1","52.94","1","0.0","1","null","6","null","6","null","6","1017.86","1","41.627894","15.907547"],
    [2440,"2024-04-11 15:00:00","20","manfredonia_liceo","23.3","1","49.42","1","0.0","1","null","6","null","6","null","6","1017.7","1","41.627894","15.907547"],
    [2441,"2024-04-11 16:00:00","20","manfredonia_liceo","22.4","1","53.68","1","0.0","1","null","6","null","6","null","6","1017.61","1","41.627894","15.907547"],
    [2442,"2024-04-11 17:00:00","20","manfredonia_liceo","23.45","1","48.56","1","0.0","1","null","6","null","6","null","6","1017.63","1","41.627894","15.907547"],
    [2443,"2024-04-11 18:00:00","20","manfredonia_liceo","20.24","1","50.28","1","0.0","1","null","6","null","6","null","6","1017.69","1","41.627894","15.907547"],
    [2444,"2024-04-11 19:00:00","20","manfredonia_liceo","18.92","1","51.8","1","0.0","1","null","6","null","6","null","6","1017.61","1","41.627894","15.907547"],
    [2445,"2024-04-11 20:00:00","20","manfredonia_liceo","18.24","1","55.02","1","0.0","1","null","6","null","6","null","6","1017.84","1","41.627894","15.907547"],
    [2446,"2024-04-11 21:00:00","20","manfredonia_liceo","17.83","1","56.05","1","0.0","1","null","6","null","6","null","6","1018.61","1","41.627894","15.907547"],
    [2447,"2024-04-11 22:00:00","20","manfredonia_liceo","18.03","1","53.38","1","0.0","1","null","6","null","6","null","6","1018.88","1","41.627894","15.907547"],
    [2448,"2024-04-11 23:00:00","20","manfredonia_liceo","18.45","1","49.01","1","0.0","1","null","6","null","6","null","6","1019.06","1","41.627894","15.907547"],
    [2449,"2024-04-12 00:00:00","20","manfredonia_liceo","18.15","1","51.33","1","0.0","1","null","6","null","6","null","6","1019.48","1","41.627894","15.907547"],
    [2450,"2024-04-12 01:00:00","20","manfredonia_liceo","17.84","1","51.91","1","0.0","1","null","6","null","6","null","6","1019.38","1","41.627894","15.907547"],
    [2451,"2024-04-12 02:00:00","20","manfredonia_liceo","17.86","1","52.08","1","0.0","1","null","6","null","6","null","6","1019.31","1","41.627894","15.907547"],
    [2452,"2024-04-12 03:00:00","20","manfredonia_liceo","17.86","1","51.74","1","0.0","1","null","6","null","6","null","6","1019.17","1","41.627894","15.907547"],
    [2453,"2024-04-12 04:00:00","20","manfredonia_liceo","18.13","1","51.65","1","0.0","1","null","6","null","6","null","6","1019.03","1","41.627894","15.907547"],
    [2454,"2024-04-12 05:00:00","20","manfredonia_liceo","17.74","1","54.47","1","0.0","1","null","6","null","6","null","6","1019.03","1","41.627894","15.907547"],
    [2455,"2024-04-12 06:00:00","20","manfredonia_liceo","18.2","1","52.05","1","0.0","1","null","6","null","6","null","6","1019.21","1","41.627894","15.907547"],
    [2456,"2024-04-12 07:00:00","20","manfredonia_liceo","19.18","1","50.96","1","0.0","1","null","6","null","6","null","6","1019.54","1","41.627894","15.907547"],
    [2457,"2024-04-12 08:00:00","20","manfredonia_liceo","21.8","1","46.99","1","0.0","1","null","6","null","6","null","6","1019.83","1","41.627894","15.907547"],
    [2458,"2024-04-12 09:00:00","20","manfredonia_liceo","23.68","1","43.82","1","0.0","1","null","6","null","6","null","6","1020.36","1","41.627894","15.907547"],
    [2459,"2024-04-12 10:00:00","20","manfredonia_liceo","24.07","1","44.27","1","0.0","1","null","6","null","6","null","6","1020.8","1","41.627894","15.907547"],
    [2460,"2024-04-12 11:00:00","20","manfredonia_liceo","25.3","1","41.07","1","0.0","1","null","6","null","6","null","6","1020.88","1","41.627894","15.907547"],
    [2461,"2024-04-12 12:00:00","20","manfredonia_liceo","24.82","1","47.96","1","0.0","1","null","6","null","6","null","6","1020.88","1","41.627894","15.907547"],
    [2462,"2024-04-12 13:00:00","20","manfredonia_liceo","25.71","1","44.77","1","0.0","1","null","6","null","6","null","6","1020.71","1","41.627894","15.907547"],
    [2463,"2024-04-12 14:00:00","20","manfredonia_liceo","26.81","1","40.99","1","0.0","1","null","6","null","6","null","6","1020.24","1","41.627894","15.907547"],
    [2464,"2024-04-12 15:00:00","20","manfredonia_liceo","26.32","1","45.65","1","0.0","1","null","6","null","6","null","6","1019.71","1","41.627894","15.907547"],
    [2465,"2024-04-12 16:00:00","20","manfredonia_liceo","25.82","1","50.07","1","0.0","1","null","6","null","6","null","6","1019.21","1","41.627894","15.907547"],
    [2466,"2024-04-12 17:00:00","20","manfredonia_liceo","24.53","1","56.48","1","0.0","1","null","6","null","6","null","6","1019.05","1","41.627894","15.907547"],
    [2467,"2024-04-12 18:00:00","20","manfredonia_liceo","23.62","1","52.91","1","0.0","1","null","6","null","6","null","6","1019.05","1","41.627894","15.907547"],
    [2468,"2024-04-12 19:00:00","20","manfredonia_liceo","22.42","1","40.58","1","0.0","1","null","6","null","6","null","6","1018.94","1","41.627894","15.907547"],
    [2469,"2024-04-12 20:00:00","20","manfredonia_liceo","21.4","1","40.15","1","0.0","1","null","6","null","6","null","6","1018.72","1","41.627894","15.907547"],
    [2470,"2024-04-12 21:00:00","20","manfredonia_liceo","20.62","1","41.15","1","0.0","1","null","6","null","6","null","6","1018.98","1","41.627894","15.907547"],
    [2471,"2024-04-12 22:00:00","20","manfredonia_liceo","20.6","1","40.5","1","0.0","1","null","6","null","6","null","6","1019.05","1","41.627894","15.907547"],
    [2472,"2024-04-12 23:00:00","20","manfredonia_liceo","19.61","1","47.61","1","0.0","1","null","6","null","6","null","6","1019.51","1","41.627894","15.907547"],
    [2473,"2024-04-13 00:00:00","20","manfredonia_liceo","19.21","1","46.16","1","0.0","1","null","6","null","6","null","6","1019.78","1","41.627894","15.907547"],
    [2474,"2024-04-13 01:00:00","20","manfredonia_liceo","20.07","1","44.05","1","0.0","1","null","6","null","6","null","6","1019.78","1","41.627894","15.907547"],
    [2475,"2024-04-13 02:00:00","20","manfredonia_liceo","20.21","1","42.03","1","0.0","1","null","6","null","6","null","6","1019.44","1","41.627894","15.907547"],
    [2476,"2024-04-13 03:00:00","20","manfredonia_liceo","18.9","1","48.76","1","0.0","1","null","6","null","6","null","6","1019.15","1","41.627894","15.907547"],
    [2477,"2024-04-13 04:00:00","20","manfredonia_liceo","18.11","1","53.56","1","0.0","1","null","6","null","6","null","6","1019.05","1","41.627894","15.907547"],
    [2478,"2024-04-13 05:00:00","20","manfredonia_liceo","18.87","1","46.91","1","0.0","1","null","6","null","6","null","6","1019.03","1","41.627894","15.907547"],
    [2479,"2024-04-13 06:00:00","20","manfredonia_liceo","18.61","1","48.57","1","0.0","1","null","6","null","6","null","6","1019.05","1","41.627894","15.907547"],
    [2480,"2024-04-13 07:00:00","20","manfredonia_liceo","19.74","1","45.96","1","0.0","1","null","6","null","6","null","6","1019.3","1","41.627894","15.907547"],
    [2481,"2024-04-13 08:00:00","20","manfredonia_liceo","22.43","1","45.5","1","0.0","1","null","6","null","6","null","6","1019.69","1","41.627894","15.907547"],
    [2482,"2024-04-13 09:00:00","20","manfredonia_liceo","23.44","1","45.43","1","0.0","1","null","6","null","6","null","6","1019.99","1","41.627894","15.907547"],
    [2483,"2024-04-13 10:00:00","20","manfredonia_liceo","24.66","1","39.73","1","0.0","1","null","6","null","6","null","6","1020.15","1","41.627894","15.907547"],
    [2484,"2024-04-13 11:00:00","20","manfredonia_liceo","26.8","1","35.15","1","0.0","1","null","6","null","6","null","6","1020.15","1","41.627894","15.907547"],
    [2485,"2024-04-13 12:00:00","20","manfredonia_liceo","27.05","1","36.97","1","0.0","1","null","6","null","6","null","6","1020.09","1","41.627894","15.907547"],
    [2486,"2024-04-13 13:00:00","20","manfredonia_liceo","27.57","1","37.47","1","0.0","1","null","6","null","6","null","6","1019.63","1","41.627894","15.907547"],
    [2487,"2024-04-13 14:00:00","20","manfredonia_liceo","27.06","1","40.19","1","0.0","1","null","6","null","6","null","6","1019.27","1","41.627894","15.907547"],
    [2488,"2024-04-13 15:00:00","20","manfredonia_liceo","27.21","1","40.79","1","0.0","1","null","6","null","6","null","6","1018.84","1","41.627894","15.907547"],
    [2489,"2024-04-13 16:00:00","20","manfredonia_liceo","26.8","1","40.14","1","0.0","1","null","6","null","6","null","6","1018.32","1","41.627894","15.907547"],
    [2490,"2024-04-13 17:00:00","20","manfredonia_liceo","26.84","1","43.0","1","0.0","1","null","6","null","6","null","6","1018.32","1","41.627894","15.907547"],
    [2491,"2024-04-13 18:00:00","20","manfredonia_liceo","24.26","1","46.18","1","0.0","1","null","6","null","6","null","6","1018.22","1","41.627894","15.907547"],
    [2492,"2024-04-13 19:00:00","20","manfredonia_liceo","21.98","1","53.82","1","0.0","1","null","6","null","6","null","6","1017.95","1","41.627894","15.907547"],
    [2493,"2024-04-13 20:00:00","20","manfredonia_liceo","21.42","1","47.91","1","0.0","1","null","6","null","6","null","6","1018.07","1","41.627894","15.907547"],
    [2494,"2024-04-13 21:00:00","20","manfredonia_liceo","20.07","1","62.6","1","0.0","1","null","6","null","6","null","6","1018.55","1","41.627894","15.907547"],
    [2495,"2024-04-13 22:00:00","20","manfredonia_liceo","18.55","1","66.8","1","0.0","1","null","6","null","6","null","6","1018.7","1","41.627894","15.907547"],
    [2496,"2024-04-13 23:00:00","20","manfredonia_liceo","17.28","1","76.03","1","0.0","1","null","6","null","6","null","6","1018.82","1","41.627894","15.907547"],
    [2497,"2024-04-14 00:00:00","20","manfredonia_liceo","16.67","1","74.12","1","0.0","1","null","6","null","6","null","6","1018.78","1","41.627894","15.907547"],
    [2498,"2024-04-14 01:00:00","20","manfredonia_liceo","16.28","1","71.21","1","0.0","1","null","6","null","6","null","6","1018.64","1","41.627894","15.907547"],
    [2499,"2024-04-14 02:00:00","20","manfredonia_liceo","15.33","1","64.77","1","0.0","1","null","6","null","6","null","6","1018.32","1","41.627894","15.907547"],
    [2500,"2024-04-14 03:00:00","20","manfredonia_liceo","14.84","1","76.83","1","0.0","1","null","6","null","6","null","6","1018.3","1","41.627894","15.907547"],
    [2501,"2024-04-14 04:00:00","20","manfredonia_liceo","14.17","1","69.56","1","0.0","1","null","6","null","6","null","6","1018.13","1","41.627894","15.907547"],
    [2502,"2024-04-14 05:00:00","20","manfredonia_liceo","14.01","1","61.25","1","0.0","1","null","6","null","6","null","6","1017.88","1","41.627894","15.907547"],
    [2503,"2024-04-14 06:00:00","20","manfredonia_liceo","14.39","1","59.42","1","0.0","1","null","6","null","6","null","6","1017.94","1","41.627894","15.907547"],
    [2504,"2024-04-14 07:00:00","20","manfredonia_liceo","15.06","1","57.47","1","0.0","1","null","6","null","6","null","6","1018.3","1","41.627894","15.907547"],
    [2505,"2024-04-14 08:00:00","20","manfredonia_liceo","19.59","1","52.99","1","0.0","1","null","6","null","6","null","6","1018.32","1","41.627894","15.907547"],
    [2506,"2024-04-14 09:00:00","20","manfredonia_liceo","20.93","1","55.16","1","0.0","1","null","6","null","6","null","6","1018.44","1","41.627894","15.907547"],
    [2507,"2024-04-14 10:00:00","20","manfredonia_liceo","25.11","1","39.54","1","0.0","1","null","6","null","6","null","6","1018.73","1","41.627894","15.907547"],
    [2508,"2024-04-14 11:00:00","20","manfredonia_liceo","26.94","1","35.59","1","0.0","1","null","6","null","6","null","6","1018.7","1","41.627894","15.907547"],
    [2509,"2024-04-14 12:00:00","20","manfredonia_liceo","27.22","1","35.92","1","0.0","1","null","6","null","6","null","6","1018.42","1","41.627894","15.907547"],
    [2510,"2024-04-14 13:00:00","20","manfredonia_liceo","27.8","1","32.17","1","0.0","1","null","6","null","6","null","6","1018.03","1","41.627894","15.907547"],
    [2511,"2024-04-14 14:00:00","20","manfredonia_liceo","27.54","1","37.8","1","0.0","1","null","6","null","6","null","6","1017.69","1","41.627894","15.907547"],
    [2512,"2024-04-14 15:00:00","20","manfredonia_liceo","27.84","1","44.57","1","0.0","1","null","6","null","6","null","6","1016.8","1","41.627894","15.907547"],
    [2513,"2024-04-14 16:00:00","20","manfredonia_liceo","27.77","1","44.74","1","0.0","1","null","6","null","6","null","6","1016.2","1","41.627894","15.907547"],
    [2514,"2024-04-14 17:00:00","20","manfredonia_liceo","26.11","1","49.02","1","0.0","1","null","6","null","6","null","6","1015.91","1","41.627894","15.907547"],
    [2515,"2024-04-14 18:00:00","20","manfredonia_liceo","24.21","1","57.64","1","0.0","1","null","6","null","6","null","6","1015.84","1","41.627894","15.907547"],
    [2516,"2024-04-14 19:00:00","20","manfredonia_liceo","20.18","1","69.45","1","0.0","1","null","6","null","6","null","6","1015.76","1","41.627894","15.907547"],
    [2517,"2024-04-14 20:00:00","20","manfredonia_liceo","18.71","1","71.06","1","0.0","1","null","6","null","6","null","6","1015.75","1","41.627894","15.907547"],
    [2518,"2024-04-14 21:00:00","20","manfredonia_liceo","17.98","1","72.1","1","0.0","1","null","6","null","6","null","6","1016.05","1","41.627894","15.907547"],
    [2519,"2024-04-14 22:00:00","20","manfredonia_liceo","17.44","1","71.61","1","0.0","1","null","6","null","6","null","6","1015.79","1","41.627894","15.907547"],
    [2520,"2024-04-14 23:00:00","20","manfredonia_liceo","19.2","1","49.32","1","0.0","1","null","6","null","6","null","6","1015.47","1","41.627894","15.907547"],
    [2521,"2024-04-15 00:00:00","20","manfredonia_liceo","18.68","1","50.61","1","0.0","1","null","6","null","6","null","6","1014.87","1","41.627894","15.907547"],
    [2522,"2024-04-15 01:00:00","20","manfredonia_liceo","18.73","1","50.25","1","0.0","1","null","6","null","6","null","6","1014.19","1","41.627894","15.907547"],
    [2523,"2024-04-15 02:00:00","20","manfredonia_liceo","17.1","1","55.11","1","0.0","1","null","6","null","6","null","6","1013.92","1","41.627894","15.907547"],
    [2524,"2024-04-15 03:00:00","20","manfredonia_liceo","16.0","1","60.21","1","0.0","1","null","6","null","6","null","6","1013.57","1","41.627894","15.907547"],
    [2525,"2024-04-15 04:00:00","20","manfredonia_liceo","15.39","1","61.98","1","0.0","1","null","6","null","6","null","6","1013.12","1","41.627894","15.907547"],
    [2526,"2024-04-15 05:00:00","20","manfredonia_liceo","15.69","1","64.24","1","0.0","1","null","6","null","6","null","6","1012.59","1","41.627894","15.907547"],
    [2527,"2024-04-15 06:00:00","20","manfredonia_liceo","14.51","1","69.02","1","0.0","1","null","6","null","6","null","6","1012.45","1","41.627894","15.907547"],
    [2528,"2024-04-15 07:00:00","20","manfredonia_liceo","16.22","1","66.16","1","0.0","1","null","6","null","6","null","6","1012.2","1","41.627894","15.907547"],
    [2529,"2024-04-15 08:00:00","20","manfredonia_liceo","18.87","1","62.61","1","0.0","1","null","6","null","6","null","6","1012.16","1","41.627894","15.907547"],
    [2530,"2024-04-15 09:00:00","20","manfredonia_liceo","21.06","1","55.82","1","0.0","1","null","6","null","6","null","6","1012.03","1","41.627894","15.907547"],
    [2531,"2024-04-15 10:00:00","20","manfredonia_liceo","23.37","1","52.11","1","0.0","1","null","6","null","6","null","6","1011.87","1","41.627894","15.907547"],
    [2532,"2024-04-15 11:00:00","20","manfredonia_liceo","25.48","1","40.66","1","0.0","1","null","6","null","6","null","6","1011.61","1","41.627894","15.907547"],
    [2533,"2024-04-15 12:00:00","20","manfredonia_liceo","27.68","1","30.47","1","0.0","1","null","6","null","6","null","6","1010.92","1","41.627894","15.907547"],
    [2534,"2024-04-15 13:00:00","20","manfredonia_liceo","29.04","1","24.12","1","0.0","1","null","6","null","6","null","6","1009.91","1","41.627894","15.907547"],
    [2535,"2024-04-15 14:00:00","20","manfredonia_liceo","29.64","1","23.42","1","0.0","1","null","6","null","6","null","6","1008.97","1","41.627894","15.907547"],
    [2536,"2024-04-15 15:00:00","20","manfredonia_liceo","30.39","1","22.84","1","0.0","1","null","6","null","6","null","6","1008.08","1","41.627894","15.907547"],
    [2537,"2024-04-15 16:00:00","20","manfredonia_liceo","29.69","1","24.96","1","0.0","1","null","6","null","6","null","6","1007.5","1","41.627894","15.907547"],
    [2538,"2024-04-15 17:00:00","20","manfredonia_liceo","29.36","1","25.79","1","0.0","1","null","6","null","6","null","6","1007.29","1","41.627894","15.907547"],
    [2539,"2024-04-15 18:00:00","20","manfredonia_liceo","27.59","1","29.44","1","0.0","1","null","6","null","6","null","6","1007.28","1","41.627894","15.907547"],
    [2540,"2024-04-15 19:00:00","20","manfredonia_liceo","25.83","1","34.98","1","0.0","1","null","6","null","6","null","6","1007.17","1","41.627894","15.907547"],
    [2541,"2024-04-15 20:00:00","20","manfredonia_liceo","23.9","1","41.52","1","0.0","1","null","6","null","6","null","6","1007.04","1","41.627894","15.907547"],
    [2542,"2024-04-15 21:00:00","20","manfredonia_liceo","22.73","1","41.15","1","0.0","1","null","6","null","6","null","6","1007.37","1","41.627894","15.907547"],
    [2543,"2024-04-15 22:00:00","20","manfredonia_liceo","22.64","1","35.98","1","0.0","1","null","6","null","6","null","6","1007.11","1","41.627894","15.907547"],
    [2544,"2024-04-15 23:00:00","20","manfredonia_liceo","23.18","1","31.13","1","0.0","1","null","6","null","6","null","6","1006.32","1","41.627894","15.907547"],
    [2545,"2024-04-16 00:00:00","20","manfredonia_liceo","22.52","1","31.75","1","0.0","1","null","6","null","6","null","6","1005.72","1","41.627894","15.907547"],
    [2546,"2024-04-16 01:00:00","20","manfredonia_liceo","21.71","1","33.74","1","0.0","1","null","6","null","6","null","6","1004.82","1","41.627894","15.907547"],
    [2547,"2024-04-16 02:00:00","20","manfredonia_liceo","21.94","1","33.53","1","0.0","1","null","6","null","6","null","6","1003.74","1","41.627894","15.907547"],
    [2548,"2024-04-16 03:00:00","20","manfredonia_liceo","22.69","1","31.14","1","0.0","1","null","6","null","6","null","6","1003.04","1","41.627894","15.907547"],
    [2549,"2024-04-16 04:00:00","20","manfredonia_liceo","21.9","1","33.15","1","0.0","1","null","6","null","6","null","6","1002.44","1","41.627894","15.907547"],
    [2550,"2024-04-16 05:00:00","20","manfredonia_liceo","20.93","1","35.5","1","0.0","1","null","6","null","6","null","6","1001.78","1","41.627894","15.907547"],
    [2551,"2024-04-16 06:00:00","20","manfredonia_liceo","21.02","1","35.75","1","0.0","1","null","6","null","6","null","6","1001.11","1","41.627894","15.907547"],
    [2552,"2024-04-16 07:00:00","20","manfredonia_liceo","20.73","1","37.83","1","0.0","1","null","6","null","6","null","6","1000.79","1","41.627894","15.907547"],
    [2553,"2024-04-16 08:00:00","20","manfredonia_liceo","22.44","1","35.35","1","0.0","1","null","6","null","6","null","6","999.96","1","41.627894","15.907547"],
    [2554,"2024-04-16 09:00:00","20","manfredonia_liceo","24.9","1","31.18","1","0.0","1","null","6","null","6","null","6","999.5","1","41.627894","15.907547"],
    [2555,"2024-04-16 10:00:00","20","manfredonia_liceo","26.91","1","26.36","1","0.0","1","null","6","null","6","null","6","999.69","1","41.627894","15.907547"],
    [2556,"2024-04-16 11:00:00","20","manfredonia_liceo","28.46","1","22.75","1","0.0","1","null","6","null","6","null","6","999.0","1","41.627894","15.907547"],
    [2557,"2024-04-16 12:00:00","20","manfredonia_liceo","29.56","1","21.16","1","0.0","1","null","6","null","6","null","6","998.64","1","41.627894","15.907547"],
    [2558,"2024-04-16 13:00:00","20","manfredonia_liceo","29.43","1","22.66","1","0.0","1","null","6","null","6","null","6","997.94","1","41.627894","15.907547"],
    [2559,"2024-04-16 14:00:00","20","manfredonia_liceo","28.16","1","27.41","1","0.0","1","null","6","null","6","null","6","997.5","1","41.627894","15.907547"],
    [2560,"2024-04-16 15:00:00","20","manfredonia_liceo","26.99","1","29.96","1","0.0","1","null","6","null","6","null","6","997.06","1","41.627894","15.907547"],
    [2561,"2024-04-16 16:00:00","20","manfredonia_liceo","25.86","1","32.94","1","0.0","1","null","6","null","6","null","6","996.19","1","41.627894","15.907547"],
    [2562,"2024-04-16 17:00:00","20","manfredonia_liceo","24.45","1","36.71","1","0.0","1","null","6","null","6","null","6","995.88","1","41.627894","15.907547"],
    [2563,"2024-04-16 18:00:00","20","manfredonia_liceo","24.13","1","39.94","1","0.0","1","null","6","null","6","null","6","995.61","1","41.627894","15.907547"],
    [2564,"2024-04-16 19:00:00","20","manfredonia_liceo","22.78","1","41.65","1","0.0","1","null","6","null","6","null","6","995.21","1","41.627894","15.907547"],
    [2565,"2024-04-16 20:00:00","20","manfredonia_liceo","21.37","1","44.72","1","0.0","1","null","6","null","6","null","6","995.03","1","41.627894","15.907547"],
    [2566,"2024-04-16 21:00:00","20","manfredonia_liceo","20.32","1","48.73","1","0.0","1","null","6","null","6","null","6","995.45","1","41.627894","15.907547"],
    [2567,"2024-04-16 22:00:00","20","manfredonia_liceo","19.02","1","53.22","1","0.0","1","null","6","null","6","null","6","995.46","1","41.627894","15.907547"],
    [2568,"2024-04-16 23:00:00","20","manfredonia_liceo","18.41","1","58.0","1","0.0","1","null","6","null","6","null","6","995.07","1","41.627894","15.907547"],
    [2569,"2024-04-17 00:00:00","20","manfredonia_liceo","17.64","1","62.74","1","0.0","1","null","6","null","6","null","6","994.67","1","41.627894","15.907547"],
    [2570,"2024-04-17 01:00:00","20","manfredonia_liceo","17.61","1","64.92","1","0.2","1","null","6","null","6","null","6","994.15","1","41.627894","15.907547"],
    [2571,"2024-04-17 02:00:00","20","manfredonia_liceo","17.74","1","65.7","1","0.0","1","null","6","null","6","null","6","993.88","1","41.627894","15.907547"],
    [2572,"2024-04-17 03:00:00","20","manfredonia_liceo","17.17","1","60.6","1","0.0","1","null","6","null","6","null","6","993.66","1","41.627894","15.907547"],
    [2573,"2024-04-17 04:00:00","20","manfredonia_liceo","17.1","1","55.48","1","0.0","1","null","6","null","6","null","6","993.42","1","41.627894","15.907547"],
    [2574,"2024-04-17 05:00:00","20","manfredonia_liceo","16.03","1","56.44","1","0.0","1","null","6","null","6","null","6","993.52","1","41.627894","15.907547"],
    [2575,"2024-04-17 06:00:00","20","manfredonia_liceo","15.3","1","54.16","1","0.0","1","null","6","null","6","null","6","994.04","1","41.627894","15.907547"],
    [2576,"2024-04-17 07:00:00","20","manfredonia_liceo","14.87","1","59.33","1","0.0","1","null","6","null","6","null","6","994.76","1","41.627894","15.907547"],
    [2577,"2024-04-17 08:00:00","20","manfredonia_liceo","16.8","1","55.59","1","0.0","1","null","6","null","6","null","6","995.2","1","41.627894","15.907547"],
    [2578,"2024-04-17 09:00:00","20","manfredonia_liceo","16.55","1","58.42","1","0.0","1","null","6","null","6","null","6","995.42","1","41.627894","15.907547"],
    [2579,"2024-04-17 10:00:00","20","manfredonia_liceo","17.71","1","52.4","1","0.0","1","null","6","null","6","null","6","995.86","1","41.627894","15.907547"],
    [2580,"2024-04-17 11:00:00","20","manfredonia_liceo","18.68","1","47.5","1","0.0","1","null","6","null","6","null","6","995.61","1","41.627894","15.907547"],
    [2581,"2024-04-17 12:00:00","20","manfredonia_liceo","19.06","1","40.45","1","0.0","1","null","6","null","6","null","6","995.94","1","41.627894","15.907547"],
    [2582,"2024-04-17 13:00:00","20","manfredonia_liceo","19.68","1","38.1","1","0.0","1","null","6","null","6","null","6","995.8","1","41.627894","15.907547"],
    [2583,"2024-04-17 14:00:00","20","manfredonia_liceo","19.79","1","38.52","1","0.0","1","null","6","null","6","null","6","996.11","1","41.627894","15.907547"],
    [2584,"2024-04-17 15:00:00","20","manfredonia_liceo","17.4","1","45.31","1","0.0","1","null","6","null","6","null","6","996.08","1","41.627894","15.907547"],
    [2585,"2024-04-17 16:00:00","20","manfredonia_liceo","15.73","1","48.89","1","0.0","1","null","6","null","6","null","6","996.07","1","41.627894","15.907547"],
    [2586,"2024-04-17 17:00:00","20","manfredonia_liceo","15.25","1","49.67","1","0.0","1","null","6","null","6","null","6","996.95","1","41.627894","15.907547"],
    [2587,"2024-04-17 18:00:00","20","manfredonia_liceo","15.07","1","50.04","1","0.0","1","null","6","null","6","null","6","997.66","1","41.627894","15.907547"],
    [2588,"2024-04-17 19:00:00","20","manfredonia_liceo","14.92","1","49.71","1","0.0","1","null","6","null","6","null","6","998.14","1","41.627894","15.907547"],
    [2589,"2024-04-17 20:00:00","20","manfredonia_liceo","14.61","1","51.72","1","0.0","1","null","6","null","6","null","6","998.65","1","41.627894","15.907547"],
    [2590,"2024-04-17 21:00:00","20","manfredonia_liceo","13.68","1","57.45","1","0.0","1","null","6","null","6","null","6","999.23","1","41.627894","15.907547"],
    [2591,"2024-04-17 22:00:00","20","manfredonia_liceo","12.25","1","64.9","1","0.0","1","null","6","null","6","null","6","999.27","1","41.627894","15.907547"],
    [2592,"2024-04-17 23:00:00","20","manfredonia_liceo","11.57","1","66.0","1","0.0","1","null","6","null","6","null","6","999.49","1","41.627894","15.907547"],
    [2593,"2024-04-18 00:00:00","20","manfredonia_liceo","11.41","1","65.7","1","0.0","1","null","6","null","6","null","6","999.56","1","41.627894","15.907547"],
    [2594,"2024-04-18 01:00:00","20","manfredonia_liceo","11.16","1","67.58","1","0.0","1","null","6","null","6","null","6","999.89","1","41.627894","15.907547"],
    [2595,"2024-04-18 02:00:00","20","manfredonia_liceo","11.32","1","67.09","1","0.0","1","null","6","null","6","null","6","999.63","1","41.627894","15.907547"],
    [2596,"2024-04-18 03:00:00","20","manfredonia_liceo","11.59","1","65.68","1","0.0","1","null","6","null","6","null","6","999.68","1","41.627894","15.907547"],
    [2597,"2024-04-18 04:00:00","20","manfredonia_liceo","10.24","1","70.04","1","0.0","1","null","6","null","6","null","6","1000.0","1","41.627894","15.907547"],
    [2598,"2024-04-18 05:00:00","20","manfredonia_liceo","9.38","1","72.67","1","0.0","1","null","6","null","6","null","6","999.66","1","41.627894","15.907547"],
    [2599,"2024-04-18 06:00:00","20","manfredonia_liceo","10.39","1","69.24","1","0.0","1","null","6","null","6","null","6","999.79","1","41.627894","15.907547"],
    [2600,"2024-04-18 07:00:00","20","manfredonia_liceo","10.39","1","70.27","1","0.0","1","null","6","null","6","null","6","1000.54","1","41.627894","15.907547"],
    [2601,"2024-04-18 08:00:00","20","manfredonia_liceo","13.22","1","59.7","1","0.0","1","null","6","null","6","null","6","1000.88","1","41.627894","15.907547"],
    [2602,"2024-04-18 09:00:00","20","manfredonia_liceo","15.56","1","51.2","1","0.0","1","null","6","null","6","null","6","1001.28","1","41.627894","15.907547"],
    [2603,"2024-04-18 10:00:00","20","manfredonia_liceo","17.33","1","45.04","1","0.0","1","null","6","null","6","null","6","1001.56","1","41.627894","15.907547"],
    [2604,"2024-04-18 11:00:00","20","manfredonia_liceo","17.77","1","48.99","1","0.0","1","null","6","null","6","null","6","1002.1","1","41.627894","15.907547"],
    [2605,"2024-04-18 12:00:00","20","manfredonia_liceo","15.26","1","58.16","1","0.6","1","null","6","null","6","null","6","1002.23","1","41.627894","15.907547"],
    [2606,"2024-04-18 13:00:00","20","manfredonia_liceo","19.0","1","41.35","1","0.0","1","null","6","null","6","null","6","1001.62","1","41.627894","15.907547"],
    [2607,"2024-04-18 14:00:00","20","manfredonia_liceo","19.0","1","40.48","1","0.0","1","null","6","null","6","null","6","1001.89","1","41.627894","15.907547"],
    [2608,"2024-04-18 15:00:00","20","manfredonia_liceo","16.32","1","49.08","1","0.0","1","null","6","null","6","null","6","1002.2","1","41.627894","15.907547"],
    [2609,"2024-04-18 16:00:00","20","manfredonia_liceo","15.38","1","52.87","1","0.0","1","null","6","null","6","null","6","1002.24","1","41.627894","15.907547"],
    [2610,"2024-04-18 17:00:00","20","manfredonia_liceo","13.94","1","59.72","1","0.8","1","null","6","null","6","null","6","1002.85","1","41.627894","15.907547"],
    [2611,"2024-04-18 18:00:00","20","manfredonia_liceo","12.46","1","73.05","1","0.6","1","null","6","null","6","null","6","1003.3","1","41.627894","15.907547"],
    [2612,"2024-04-18 19:00:00","20","manfredonia_liceo","12.06","1","73.19","1","0.0","1","null","6","null","6","null","6","1003.41","1","41.627894","15.907547"],
    [2613,"2024-04-18 20:00:00","20","manfredonia_liceo","11.95","1","70.32","1","0.0","1","null","6","null","6","null","6","1003.71","1","41.627894","15.907547"],
    [2614,"2024-04-18 21:00:00","20","manfredonia_liceo","11.59","1","72.15","1","0.0","1","null","6","null","6","null","6","1004.45","1","41.627894","15.907547"],
    [2615,"2024-04-18 22:00:00","20","manfredonia_liceo","11.65","1","69.03","1","0.0","1","null","6","null","6","null","6","1004.5","1","41.627894","15.907547"],
    [2616,"2024-04-18 23:00:00","20","manfredonia_liceo","11.94","1","67.97","1","0.0","1","null","6","null","6","null","6","1004.4","1","41.627894","15.907547"],
    [2617,"2024-04-19 00:00:00","20","manfredonia_liceo","11.48","1","74.16","1","0.0","1","null","6","null","6","null","6","1004.01","1","41.627894","15.907547"],
    [2618,"2024-04-19 01:00:00","20","manfredonia_liceo","10.75","1","81.62","1","0.0","1","null","6","null","6","null","6","1004.13","1","41.627894","15.907547"],
    [2619,"2024-04-19 02:00:00","20","manfredonia_liceo","10.0","1","84.14","1","0.0","1","null","6","null","6","null","6","1004.14","1","41.627894","15.907547"],
    [2620,"2024-04-19 03:00:00","20","manfredonia_liceo","9.94","1","81.66","1","0.0","1","null","6","null","6","null","6","1003.72","1","41.627894","15.907547"],
    [2621,"2024-04-19 04:00:00","20","manfredonia_liceo","10.15","1","81.77","1","0.0","1","null","6","null","6","null","6","1003.3","1","41.627894","15.907547"],
    [2622,"2024-04-19 05:00:00","20","manfredonia_liceo","10.65","1","73.85","1","0.0","1","null","6","null","6","null","6","1003.16","1","41.627894","15.907547"],
    [2623,"2024-04-19 06:00:00","20","manfredonia_liceo","9.63","1","85.47","1","0.0","1","null","6","null","6","null","6","1003.4","1","41.627894","15.907547"],
    [2624,"2024-04-19 07:00:00","20","manfredonia_liceo","9.42","1","91.63","1","0.0","1","null","6","null","6","null","6","1003.44","1","41.627894","15.907547"],
    [2625,"2024-04-19 08:00:00","20","manfredonia_liceo","9.81","1","94.29","1","2.0","1","null","6","null","6","null","6","1003.98","1","41.627894","15.907547"],
    [2626,"2024-04-19 09:00:00","20","manfredonia_liceo","10.06","1","98.3","1","3.4","1","null","6","null","6","null","6","1004.4","1","41.627894","15.907547"],
    [2627,"2024-04-19 10:00:00","20","manfredonia_liceo","10.37","1","98.49","1","1.6","1","null","6","null","6","null","6","1005.02","1","41.627894","15.907547"],
    [2628,"2024-04-19 11:00:00","20","manfredonia_liceo","10.72","1","92.76","1","1.0","1","null","6","null","6","null","6","1005.61","1","41.627894","15.907547"],
    [2629,"2024-04-19 12:00:00","20","manfredonia_liceo","12.06","1","80.87","1","0.2","1","null","6","null","6","null","6","1005.61","1","41.627894","15.907547"],
    [2630,"2024-04-19 13:00:00","20","manfredonia_liceo","14.94","1","68.35","1","0.0","1","null","6","null","6","null","6","1005.76","1","41.627894","15.907547"],
    [2631,"2024-04-19 14:00:00","20","manfredonia_liceo","15.69","1","61.15","1","0.2","1","null","6","null","6","null","6","1005.58","1","41.627894","15.907547"],
    [2632,"2024-04-19 15:00:00","20","manfredonia_liceo","15.82","1","53.6","1","0.0","1","null","6","null","6","null","6","1005.28","1","41.627894","15.907547"],
    [2633,"2024-04-19 16:00:00","20","manfredonia_liceo","18.36","1","41.19","1","0.0","1","null","6","null","6","null","6","1004.88","1","41.627894","15.907547"],
    [2634,"2024-04-19 17:00:00","20","manfredonia_liceo","17.59","1","40.92","1","0.0","1","null","6","null","6","null","6","1004.85","1","41.627894","15.907547"],
    [2635,"2024-04-19 18:00:00","20","manfredonia_liceo","16.24","1","39.61","1","0.0","1","null","6","null","6","null","6","1005.54","1","41.627894","15.907547"],
    [2636,"2024-04-19 19:00:00","20","manfredonia_liceo","13.93","1","43.44","1","0.0","1","null","6","null","6","null","6","1005.96","1","41.627894","15.907547"],
    [2637,"2024-04-19 20:00:00","20","manfredonia_liceo","12.65","1","46.08","1","0.0","1","null","6","null","6","null","6","1006.35","1","41.627894","15.907547"],
    [2638,"2024-04-19 21:00:00","20","manfredonia_liceo","12.39","1","44.92","1","0.0","1","null","6","null","6","null","6","1006.5","1","41.627894","15.907547"],
    [2639,"2024-04-19 22:00:00","20","manfredonia_liceo","11.01","1","52.9","1","0.0","1","null","6","null","6","null","6","1006.25","1","41.627894","15.907547"],
    [2640,"2024-04-19 23:00:00","20","manfredonia_liceo","9.69","1","61.07","1","0.0","1","null","6","null","6","null","6","1005.92","1","41.627894","15.907547"],
    [2641,"2024-04-20 00:00:00","20","manfredonia_liceo","8.96","1","68.11","1","0.0","1","null","6","null","6","null","6","1006.01","1","41.627894","15.907547"],
    [2642,"2024-04-20 01:00:00","20","manfredonia_liceo","7.95","1","77.07","1","0.0","1","null","6","null","6","null","6","1005.57","1","41.627894","15.907547"],
    [2643,"2024-04-20 02:00:00","20","manfredonia_liceo","7.01","1","80.56","1","0.0","1","null","6","null","6","null","6","1004.82","1","41.627894","15.907547"],
    [2644,"2024-04-20 03:00:00","20","manfredonia_liceo","6.13","1","84.39","1","0.0","1","null","6","null","6","null","6","1004.4","1","41.627894","15.907547"],
    [2645,"2024-04-20 04:00:00","20","manfredonia_liceo","5.49","1","85.32","1","0.0","1","null","6","null","6","null","6","1004.17","1","41.627894","15.907547"],
    [2646,"2024-04-20 05:00:00","20","manfredonia_liceo","5.58","1","80.79","1","0.0","1","null","6","null","6","null","6","1003.64","1","41.627894","15.907547"],
    [2647,"2024-04-20 06:00:00","20","manfredonia_liceo","5.82","1","72.68","1","0.0","1","null","6","null","6","null","6","1003.18","1","41.627894","15.907547"],
    [2648,"2024-04-20 07:00:00","20","manfredonia_liceo","7.12","1","70.26","1","0.0","1","null","6","null","6","null","6","1003.28","1","41.627894","15.907547"],
    [2649,"2024-04-20 08:00:00","20","manfredonia_liceo","13.57","1","48.5","1","0.0","1","null","6","null","6","null","6","1003.2","1","41.627894","15.907547"],
    [2650,"2024-04-20 09:00:00","20","manfredonia_liceo","16.24","1","39.77","1","0.0","1","null","6","null","6","null","6","1003.29","1","41.627894","15.907547"],
    [2651,"2024-04-20 10:00:00","20","manfredonia_liceo","17.07","1","37.55","1","0.0","1","null","6","null","6","null","6","1003.3","1","41.627894","15.907547"],
    [2652,"2024-04-20 11:00:00","20","manfredonia_liceo","18.63","1","33.85","1","0.0","1","null","6","null","6","null","6","1003.3","1","41.627894","15.907547"],
    [2653,"2024-04-20 12:00:00","20","manfredonia_liceo","20.15","1","35.88","1","0.0","1","null","6","null","6","null","6","1003.09","1","41.627894","15.907547"],
    [2654,"2024-04-20 13:00:00","20","manfredonia_liceo","20.11","1","39.83","1","0.0","1","null","6","null","6","null","6","1002.64","1","41.627894","15.907547"],
    [2655,"2024-04-20 14:00:00","20","manfredonia_liceo","19.8","1","43.27","1","0.0","1","null","6","null","6","null","6","1002.56","1","41.627894","15.907547"],
    [2656,"2024-04-20 15:00:00","20","manfredonia_liceo","16.73","1","53.17","1","0.0","1","null","6","null","6","null","6","1002.56","1","41.627894","15.907547"],
    [2657,"2024-04-20 16:00:00","20","manfredonia_liceo","14.77","1","62.97","1","0.0","1","null","6","null","6","null","6","1002.68","1","41.627894","15.907547"],
    [2658,"2024-04-20 17:00:00","20","manfredonia_liceo","14.51","1","65.53","1","0.8","1","null","6","null","6","null","6","1002.93","1","41.627894","15.907547"],
    [2659,"2024-04-20 18:00:00","20","manfredonia_liceo","12.25","1","91.99","1","0.8","1","null","6","null","6","null","6","1002.92","1","41.627894","15.907547"],
    [2660,"2024-04-20 19:00:00","20","manfredonia_liceo","12.22","1","92.78","1","0.2","1","null","6","null","6","null","6","1002.84","1","41.627894","15.907547"],
    [2661,"2024-04-20 20:00:00","20","manfredonia_liceo","12.26","1","90.26","1","0.6","1","null","6","null","6","null","6","1003.01","1","41.627894","15.907547"],
    [2662,"2024-04-20 21:00:00","20","manfredonia_liceo","11.55","1","93.81","1","4.0","1","null","6","null","6","null","6","1003.37","1","41.627894","15.907547"],
    [2663,"2024-04-20 22:00:00","20","manfredonia_liceo","11.06","1","99.15","1","2.6","1","null","6","null","6","null","6","1003.6","1","41.627894","15.907547"],
    [2664,"2024-04-20 23:00:00","20","manfredonia_liceo","10.66","1","100.0","1","0.4","1","null","6","null","6","null","6","1003.37","1","41.627894","15.907547"],
    [2665,"2024-04-21 00:00:00","20","manfredonia_liceo","9.69","1","100.0","1","1.4","1","null","6","null","6","null","6","1003.3","1","41.627894","15.907547"],
    [2666,"2024-04-21 01:00:00","20","manfredonia_liceo","8.93","1","100.0","1","0.0","1","null","6","null","6","null","6","1002.9","1","41.627894","15.907547"],
    [2667,"2024-04-21 02:00:00","20","manfredonia_liceo","8.28","1","100.0","1","0.0","1","null","6","null","6","null","6","1002.21","1","41.627894","15.907547"],
    [2668,"2024-04-21 03:00:00","20","manfredonia_liceo","8.06","1","100.0","1","0.0","1","null","6","null","6","null","6","1002.01","1","41.627894","15.907547"],
    [2669,"2024-04-21 04:00:00","20","manfredonia_liceo","7.71","1","99.98","1","0.0","1","null","6","null","6","null","6","1001.82","1","41.627894","15.907547"],
    [2670,"2024-04-21 05:00:00","20","manfredonia_liceo","7.81","1","98.98","1","1.2","1","null","6","null","6","null","6","1001.49","1","41.627894","15.907547"],
    [2671,"2024-04-21 06:00:00","20","manfredonia_liceo","7.89","1","100.0","1","0.8","1","null","6","null","6","null","6","1001.23","1","41.627894","15.907547"],
    [2672,"2024-04-21 07:00:00","20","manfredonia_liceo","8.46","1","99.11","1","0.0","1","null","6","null","6","null","6","1000.57","1","41.627894","15.907547"],
    [2673,"2024-04-21 08:00:00","20","manfredonia_liceo","10.0","1","88.05","1","0.2","1","null","6","null","6","null","6","1001.55","1","41.627894","15.907547"],
    [2674,"2024-04-21 09:00:00","20","manfredonia_liceo","10.88","1","87.59","1","1.8","1","null","6","null","6","null","6","1002.4","1","41.627894","15.907547"],
    [2675,"2024-04-21 10:00:00","20","manfredonia_liceo","11.85","1","74.65","1","0.0","1","null","6","null","6","null","6","1003.97","1","41.627894","15.907547"],
    [2676,"2024-04-21 11:00:00","20","manfredonia_liceo","13.39","1","66.28","1","0.0","1","null","6","null","6","null","6","1005.02","1","41.627894","15.907547"],
    [2677,"2024-04-21 12:00:00","20","manfredonia_liceo","15.2","1","60.23","1","0.0","1","null","6","null","6","null","6","1005.43","1","41.627894","15.907547"],
    [2678,"2024-04-21 13:00:00","20","manfredonia_liceo","16.69","1","52.69","1","0.0","1","null","6","null","6","null","6","1005.69","1","41.627894","15.907547"],
    [2679,"2024-04-21 14:00:00","20","manfredonia_liceo","16.46","1","48.16","1","0.0","1","null","6","null","6","null","6","1006.18","1","41.627894","15.907547"],
    [2680,"2024-04-21 15:00:00","20","manfredonia_liceo","18.66","1","42.56","1","0.0","1","null","6","null","6","null","6","1006.06","1","41.627894","15.907547"],
    [2681,"2024-04-21 16:00:00","20","manfredonia_liceo","18.81","1","41.55","1","0.0","1","null","6","null","6","null","6","1005.98","1","41.627894","15.907547"],
    [2682,"2024-04-21 17:00:00","20","manfredonia_liceo","18.35","1","38.83","1","0.0","1","null","6","null","6","null","6","1006.26","1","41.627894","15.907547"],
    [2683,"2024-04-21 18:00:00","20","manfredonia_liceo","17.7","1","39.13","1","0.0","1","null","6","null","6","null","6","1006.63","1","41.627894","15.907547"],
    [2684,"2024-04-21 19:00:00","20","manfredonia_liceo","14.48","1","46.16","1","0.0","1","null","6","null","6","null","6","1006.99","1","41.627894","15.907547"],
    [2685,"2024-04-21 20:00:00","20","manfredonia_liceo","12.1","1","53.45","1","0.0","1","null","6","null","6","null","6","1007.54","1","41.627894","15.907547"],
    [2686,"2024-04-21 21:00:00","20","manfredonia_liceo","10.94","1","57.74","1","0.0","1","null","6","null","6","null","6","1008.25","1","41.627894","15.907547"],
    [2687,"2024-04-21 22:00:00","20","manfredonia_liceo","9.63","1","63.75","1","0.0","1","null","6","null","6","null","6","1008.64","1","41.627894","15.907547"],
    [2688,"2024-04-21 23:00:00","20","manfredonia_liceo","9.65","1","61.35","1","0.0","1","null","6","null","6","null","6","1008.94","1","41.627894","15.907547"],
    [2689,"2024-04-22 00:00:00","20","manfredonia_liceo","9.12","1","67.31","1","0.0","1","null","6","null","6","null","6","1009.16","1","41.627894","15.907547"],
    [2690,"2024-04-22 01:00:00","20","manfredonia_liceo","9.37","1","68.34","1","0.0","1","null","6","null","6","null","6","1009.01","1","41.627894","15.907547"],
    [2691,"2024-04-22 02:00:00","20","manfredonia_liceo","9.34","1","71.03","1","0.0","1","null","6","null","6","null","6","1008.79","1","41.627894","15.907547"],
    [2692,"2024-04-22 03:00:00","20","manfredonia_liceo","6.89","1","87.22","1","0.0","1","null","6","null","6","null","6","1008.61","1","41.627894","15.907547"],
    [2693,"2024-04-22 04:00:00","20","manfredonia_liceo","6.24","1","88.79","1","0.0","1","null","6","null","6","null","6","1008.27","1","41.627894","15.907547"],
    [2694,"2024-04-22 05:00:00","20","manfredonia_liceo","6.28","1","84.39","1","0.0","1","null","6","null","6","null","6","1008.06","1","41.627894","15.907547"],
    [2695,"2024-04-22 06:00:00","20","manfredonia_liceo","6.37","1","85.82","1","0.0","1","null","6","null","6","null","6","1007.81","1","41.627894","15.907547"],
    [2696,"2024-04-22 07:00:00","20","manfredonia_liceo","8.64","1","78.21","1","0.0","1","null","6","null","6","null","6","1008.01","1","41.627894","15.907547"],
    [2697,"2024-04-22 08:00:00","20","manfredonia_liceo","15.05","1","52.83","1","0.0","1","null","6","null","6","null","6","1007.69","1","41.627894","15.907547"],
    [2698,"2024-04-22 09:00:00","20","manfredonia_liceo","16.67","1","50.16","1","0.0","1","null","6","null","6","null","6","1007.98","1","41.627894","15.907547"],
    [2699,"2024-04-22 10:00:00","20","manfredonia_liceo","17.96","1","47.29","1","0.0","1","null","6","null","6","null","6","1007.98","1","41.627894","15.907547"],
    [2700,"2024-04-22 11:00:00","20","manfredonia_liceo","19.14","1","46.98","1","0.0","1","null","6","null","6","null","6","1007.98","1","41.627894","15.907547"],
    [2701,"2024-04-22 12:00:00","20","manfredonia_liceo","19.31","1","47.18","1","0.0","1","null","6","null","6","null","6","1007.61","1","41.627894","15.907547"],
    [2702,"2024-04-22 13:00:00","20","manfredonia_liceo","19.4","1","49.95","1","0.0","1","null","6","null","6","null","6","1007.22","1","41.627894","15.907547"],
    [2703,"2024-04-22 14:00:00","20","manfredonia_liceo","20.41","1","48.37","1","0.0","1","null","6","null","6","null","6","1006.82","1","41.627894","15.907547"],
    [2704,"2024-04-22 15:00:00","20","manfredonia_liceo","19.23","1","53.62","1","0.0","1","null","6","null","6","null","6","1006.31","1","41.627894","15.907547"],
    [2705,"2024-04-22 16:00:00","20","manfredonia_liceo","18.29","1","57.12","1","0.0","1","null","6","null","6","null","6","1005.8","1","41.627894","15.907547"],
    [2706,"2024-04-22 17:00:00","20","manfredonia_liceo","18.98","1","56.93","1","0.0","1","null","6","null","6","null","6","1005.54","1","41.627894","15.907547"],
    [2707,"2024-04-22 18:00:00","20","manfredonia_liceo","16.96","1","64.0","1","0.0","1","null","6","null","6","null","6","1005.18","1","41.627894","15.907547"],
    [2708,"2024-04-22 19:00:00","20","manfredonia_liceo","15.49","1","69.45","1","0.0","1","null","6","null","6","null","6","1004.81","1","41.627894","15.907547"],
    [2709,"2024-04-22 20:00:00","20","manfredonia_liceo","14.97","1","72.51","1","0.0","1","null","6","null","6","null","6","1004.76","1","41.627894","15.907547"],
    [2710,"2024-04-22 21:00:00","20","manfredonia_liceo","14.95","1","77.34","1","0.0","1","null","6","null","6","null","6","1005.03","1","41.627894","15.907547"],
    [2711,"2024-04-22 22:00:00","20","manfredonia_liceo","15.14","1","81.98","1","0.0","1","null","6","null","6","null","6","1004.82","1","41.627894","15.907547"],
    [2712,"2024-04-22 23:00:00","20","manfredonia_liceo","14.81","1","78.05","1","0.0","1","null","6","null","6","null","6","1004.63","1","41.627894","15.907547"],
    [2713,"2024-04-23 00:00:00","20","manfredonia_liceo","13.96","1","82.12","1","0.0","1","null","6","null","6","null","6","1004.12","1","41.627894","15.907547"],
    [2714,"2024-04-23 01:00:00","20","manfredonia_liceo","12.89","1","83.95","1","0.0","1","null","6","null","6","null","6","1003.6","1","41.627894","15.907547"],
    [2715,"2024-04-23 02:00:00","20","manfredonia_liceo","11.25","1","82.95","1","0.0","1","null","6","null","6","null","6","1002.98","1","41.627894","15.907547"],
    [2716,"2024-04-23 03:00:00","20","manfredonia_liceo","10.11","1","86.7","1","0.0","1","null","6","null","6","null","6","1002.85","1","41.627894","15.907547"],
    [2717,"2024-04-23 04:00:00","20","manfredonia_liceo","9.25","1","88.77","1","0.0","1","null","6","null","6","null","6","1002.44","1","41.627894","15.907547"],
    [2718,"2024-04-23 05:00:00","20","manfredonia_liceo","9.0","1","88.22","1","0.0","1","null","6","null","6","null","6","1001.93","1","41.627894","15.907547"],
    [2719,"2024-04-23 06:00:00","20","manfredonia_liceo","8.75","1","85.64","1","0.0","1","null","6","null","6","null","6","1001.66","1","41.627894","15.907547"],
    [2720,"2024-04-23 07:00:00","20","manfredonia_liceo","9.22","1","83.66","1","0.0","1","null","6","null","6","null","6","1001.5","1","41.627894","15.907547"],
    [2721,"2024-04-23 08:00:00","20","manfredonia_liceo","13.09","1","69.61","1","0.0","1","null","6","null","6","null","6","1001.19","1","41.627894","15.907547"],
    [2722,"2024-04-23 09:00:00","20","manfredonia_liceo","16.69","1","52.41","1","0.0","1","null","6","null","6","null","6","1000.58","1","41.627894","15.907547"],
    [2723,"2024-04-23 10:00:00","20","manfredonia_liceo","18.47","1","47.11","1","0.0","1","null","6","null","6","null","6","1000.37","1","41.627894","15.907547"],
    [2724,"2024-04-23 11:00:00","20","manfredonia_liceo","21.35","1","33.93","1","0.0","1","null","6","null","6","null","6","1000.1","1","41.627894","15.907547"],
    [2725,"2024-04-23 12:00:00","20","manfredonia_liceo","22.26","1","34.31","1","0.0","1","null","6","null","6","null","6","999.85","1","41.627894","15.907547"],
    [2726,"2024-04-23 13:00:00","20","manfredonia_liceo","22.3","1","37.47","1","0.0","1","null","6","null","6","null","6","999.38","1","41.627894","15.907547"],
    [2727,"2024-04-23 14:00:00","20","manfredonia_liceo","20.12","1","45.12","1","0.0","1","null","6","null","6","null","6","999.09","1","41.627894","15.907547"],
    [2728,"2024-04-23 15:00:00","20","manfredonia_liceo","18.79","1","54.17","1","0.0","1","null","6","null","6","null","6","998.9","1","41.627894","15.907547"],
    [2729,"2024-04-23 16:00:00","20","manfredonia_liceo","18.0","1","63.22","1","0.0","1","null","6","null","6","null","6","998.76","1","41.627894","15.907547"],
    [2730,"2024-04-23 17:00:00","20","manfredonia_liceo","21.15","1","44.82","1","0.0","1","null","6","null","6","null","6","998.7","1","41.627894","15.907547"],
    [2731,"2024-04-23 18:00:00","20","manfredonia_liceo","19.39","1","30.76","1","0.0","1","null","6","null","6","null","6","999.18","1","41.627894","15.907547"],
    [2732,"2024-04-23 19:00:00","20","manfredonia_liceo","16.45","1","35.79","1","0.0","1","null","6","null","6","null","6","999.76","1","41.627894","15.907547"],
    [2733,"2024-04-23 20:00:00","20","manfredonia_liceo","14.06","1","46.16","1","0.0","1","null","6","null","6","null","6","1000.34","1","41.627894","15.907547"],
    [2734,"2024-04-23 21:00:00","20","manfredonia_liceo","12.62","1","54.93","1","0.0","1","null","6","null","6","null","6","1001.69","1","41.627894","15.907547"],
    [2735,"2024-04-23 22:00:00","20","manfredonia_liceo","11.9","1","58.58","1","0.0","1","null","6","null","6","null","6","1002.36","1","41.627894","15.907547"],
    [2736,"2024-04-23 23:00:00","20","manfredonia_liceo","11.52","1","59.08","1","0.0","1","null","6","null","6","null","6","1002.55","1","41.627894","15.907547"],
    [2737,"2024-04-24 00:00:00","20","manfredonia_liceo","10.73","1","59.4","1","0.0","1","null","6","null","6","null","6","1002.56","1","41.627894","15.907547"],
    [2738,"2024-04-24 01:00:00","20","manfredonia_liceo","10.57","1","55.97","1","0.0","1","null","6","null","6","null","6","1002.56","1","41.627894","15.907547"],
    [2739,"2024-04-24 02:00:00","20","manfredonia_liceo","9.16","1","59.57","1","0.0","1","null","6","null","6","null","6","1002.51","1","41.627894","15.907547"],
    [2740,"2024-04-24 03:00:00","20","manfredonia_liceo","7.92","1","62.51","1","0.0","1","null","6","null","6","null","6","1002.5","1","41.627894","15.907547"],
    [2741,"2024-04-24 04:00:00","20","manfredonia_liceo","7.59","1","63.23","1","0.0","1","null","6","null","6","null","6","1002.18","1","41.627894","15.907547"],
    [2742,"2024-04-24 05:00:00","20","manfredonia_liceo","6.71","1","68.38","1","0.0","1","null","6","null","6","null","6","1001.65","1","41.627894","15.907547"],
    [2743,"2024-04-24 06:00:00","20","manfredonia_liceo","7.0","1","70.25","1","0.0","1","null","6","null","6","null","6","1001.69","1","41.627894","15.907547"],
    [2744,"2024-04-24 07:00:00","20","manfredonia_liceo","9.11","1","66.53","1","0.0","1","null","6","null","6","null","6","1002.01","1","41.627894","15.907547"],
    [2745,"2024-04-24 08:00:00","20","manfredonia_liceo","9.84","1","73.5","1","0.8","1","null","6","null","6","null","6","1002.66","1","41.627894","15.907547"],
    [2746,"2024-04-24 09:00:00","20","manfredonia_liceo","11.56","1","74.65","1","0.4","1","null","6","null","6","null","6","1002.67","1","41.627894","15.907547"],
    [2747,"2024-04-24 10:00:00","20","manfredonia_liceo","13.33","1","65.55","1","0.0","1","null","6","null","6","null","6","1002.61","1","41.627894","15.907547"],
    [2748,"2024-04-24 11:00:00","20","manfredonia_liceo","15.57","1","60.61","1","0.0","1","null","6","null","6","null","6","1002.56","1","41.627894","15.907547"],
    [2749,"2024-04-24 12:00:00","20","manfredonia_liceo","16.38","1","54.62","1","0.0","1","null","6","null","6","null","6","1002.39","1","41.627894","15.907547"],
    [2750,"2024-04-24 13:00:00","20","manfredonia_liceo","16.57","1","48.58","1","0.0","1","null","6","null","6","null","6","1002.07","1","41.627894","15.907547"],
    [2751,"2024-04-24 14:00:00","20","manfredonia_liceo","16.45","1","66.6","1","1.8","1","null","6","null","6","null","6","1001.68","1","41.627894","15.907547"],
    [2752,"2024-04-24 15:00:00","20","manfredonia_liceo","17.68","1","44.78","1","0.0","1","null","6","null","6","null","6","1001.05","1","41.627894","15.907547"],
    [2753,"2024-04-24 16:00:00","20","manfredonia_liceo","18.71","1","36.69","1","0.0","1","null","6","null","6","null","6","1000.47","1","41.627894","15.907547"],
    [2754,"2024-04-24 17:00:00","20","manfredonia_liceo","18.57","1","35.97","1","0.0","1","null","6","null","6","null","6","1000.37","1","41.627894","15.907547"],
    [2755,"2024-04-24 18:00:00","20","manfredonia_liceo","17.36","1","38.1","1","0.0","1","null","6","null","6","null","6","1000.49","1","41.627894","15.907547"],
    [2756,"2024-04-24 19:00:00","20","manfredonia_liceo","15.97","1","41.1","1","0.0","1","null","6","null","6","null","6","1000.78","1","41.627894","15.907547"],
    [2757,"2024-04-24 20:00:00","20","manfredonia_liceo","13.66","1","48.77","1","0.0","1","null","6","null","6","null","6","1001.29","1","41.627894","15.907547"],
    [2758,"2024-04-24 21:00:00","20","manfredonia_liceo","12.18","1","55.4","1","0.0","1","null","6","null","6","null","6","1001.7","1","41.627894","15.907547"],
    [2759,"2024-04-24 22:00:00","20","manfredonia_liceo","11.64","1","58.21","1","0.0","1","null","6","null","6","null","6","1002.14","1","41.627894","15.907547"],
    [2760,"2024-04-24 23:00:00","20","manfredonia_liceo","10.84","1","62.49","1","0.0","1","null","6","null","6","null","6","1001.86","1","41.627894","15.907547"],
    [2761,"2024-04-25 00:00:00","20","manfredonia_liceo","9.5","1","67.48","1","0.0","1","null","6","null","6","null","6","1001.83","1","41.627894","15.907547"],
    [2762,"2024-04-25 01:00:00","20","manfredonia_liceo","9.3","1","65.18","1","0.0","1","null","6","null","6","null","6","1001.51","1","41.627894","15.907547"],
    [2763,"2024-04-25 02:00:00","20","manfredonia_liceo","9.02","1","64.39","1","0.0","1","null","6","null","6","null","6","1001.14","1","41.627894","15.907547"],
    [2764,"2024-04-25 03:00:00","20","manfredonia_liceo","8.12","1","70.18","1","0.0","1","null","6","null","6","null","6","1000.99","1","41.627894","15.907547"],
    [2765,"2024-04-25 04:00:00","20","manfredonia_liceo","7.22","1","77.18","1","0.0","1","null","6","null","6","null","6","1000.95","1","41.627894","15.907547"],
    [2766,"2024-04-25 05:00:00","20","manfredonia_liceo","7.18","1","76.04","1","0.0","1","null","6","null","6","null","6","1000.73","1","41.627894","15.907547"],
    [2767,"2024-04-25 06:00:00","20","manfredonia_liceo","8.65","1","67.73","1","0.0","1","null","6","null","6","null","6","1000.79","1","41.627894","15.907547"],
    [2768,"2024-04-25 07:00:00","20","manfredonia_liceo","9.85","1","65.95","1","0.0","1","null","6","null","6","null","6","1001.25","1","41.627894","15.907547"],
    [2769,"2024-04-25 08:00:00","20","manfredonia_liceo","12.81","1","60.76","1","0.0","1","null","6","null","6","null","6","1001.47","1","41.627894","15.907547"],
    [2770,"2024-04-25 09:00:00","20","manfredonia_liceo","15.43","1","52.96","1","0.0","1","null","6","null","6","null","6","1001.63","1","41.627894","15.907547"],
    [2771,"2024-04-25 10:00:00","20","manfredonia_liceo","17.89","1","43.99","1","0.0","1","null","6","null","6","null","6","1001.83","1","41.627894","15.907547"],
    [2772,"2024-04-25 11:00:00","20","manfredonia_liceo","19.75","1","40.85","1","0.0","1","null","6","null","6","null","6","1002.12","1","41.627894","15.907547"],
    [2773,"2024-04-25 12:00:00","20","manfredonia_liceo","20.35","1","41.43","1","0.0","1","null","6","null","6","null","6","1001.97","1","41.627894","15.907547"],
    [2774,"2024-04-25 13:00:00","20","manfredonia_liceo","19.75","1","43.05","1","0.0","1","null","6","null","6","null","6","1001.93","1","41.627894","15.907547"],
    [2775,"2024-04-25 14:00:00","20","manfredonia_liceo","18.04","1","52.24","1","0.0","1","null","6","null","6","null","6","1002.2","1","41.627894","15.907547"],
    [2776,"2024-04-25 15:00:00","20","manfredonia_liceo","17.3","1","53.51","1","0.0","1","null","6","null","6","null","6","1002.24","1","41.627894","15.907547"],
    [2777,"2024-04-25 16:00:00","20","manfredonia_liceo","17.46","1","51.73","1","0.0","1","null","6","null","6","null","6","1002.56","1","41.627894","15.907547"],
    [2778,"2024-04-25 17:00:00","20","manfredonia_liceo","16.99","1","54.11","1","0.0","1","null","6","null","6","null","6","1002.56","1","41.627894","15.907547"],
    [2779,"2024-04-25 18:00:00","20","manfredonia_liceo","16.42","1","58.63","1","0.0","1","null","6","null","6","null","6","1002.78","1","41.627894","15.907547"],
    [2780,"2024-04-25 19:00:00","20","manfredonia_liceo","15.32","1","62.99","1","0.0","1","null","6","null","6","null","6","1003.39","1","41.627894","15.907547"],
    [2781,"2024-04-25 20:00:00","20","manfredonia_liceo","14.97","1","61.55","1","0.0","1","null","6","null","6","null","6","1004.09","1","41.627894","15.907547"],
    [2782,"2024-04-25 21:00:00","20","manfredonia_liceo","14.01","1","59.91","1","0.0","1","null","6","null","6","null","6","1004.62","1","41.627894","15.907547"],
    [2783,"2024-04-25 22:00:00","20","manfredonia_liceo","12.45","1","69.58","1","0.0","1","null","6","null","6","null","6","1005.23","1","41.627894","15.907547"],
    [2784,"2024-04-25 23:00:00","20","manfredonia_liceo","11.1","1","77.77","1","0.0","1","null","6","null","6","null","6","1005.6","1","41.627894","15.907547"],
    [2785,"2024-04-26 00:00:00","20","manfredonia_liceo","10.37","1","84.6","1","0.0","1","null","6","null","6","null","6","1005.52","1","41.627894","15.907547"],
    [2786,"2024-04-26 01:00:00","20","manfredonia_liceo","9.74","1","85.2","1","0.0","1","null","6","null","6","null","6","1005.54","1","41.627894","15.907547"],
    [2787,"2024-04-26 02:00:00","20","manfredonia_liceo","8.89","1","86.37","1","0.0","1","null","6","null","6","null","6","1005.49","1","41.627894","15.907547"],
    [2788,"2024-04-26 03:00:00","20","manfredonia_liceo","8.44","1","86.61","1","0.0","1","null","6","null","6","null","6","1005.49","1","41.627894","15.907547"],
    [2789,"2024-04-26 04:00:00","20","manfredonia_liceo","8.16","1","81.1","1","0.0","1","null","6","null","6","null","6","1005.77","1","41.627894","15.907547"],
    [2790,"2024-04-26 05:00:00","20","manfredonia_liceo","7.18","1","84.08","1","0.0","1","null","6","null","6","null","6","1006.12","1","41.627894","15.907547"],
    [2791,"2024-04-26 06:00:00","20","manfredonia_liceo","7.14","1","85.86","1","0.0","1","null","6","null","6","null","6","1006.25","1","41.627894","15.907547"],
    [2792,"2024-04-26 07:00:00","20","manfredonia_liceo","10.64","1","77.23","1","0.0","1","null","6","null","6","null","6","1006.39","1","41.627894","15.907547"],
    [2793,"2024-04-26 08:00:00","20","manfredonia_liceo","14.35","1","58.55","1","0.0","1","null","6","null","6","null","6","1006.71","1","41.627894","15.907547"],
    [2794,"2024-04-26 09:00:00","20","manfredonia_liceo","15.92","1","54.09","1","0.0","1","null","6","null","6","null","6","1006.96","1","41.627894","15.907547"],
    [2795,"2024-04-26 10:00:00","20","manfredonia_liceo","16.7","1","53.16","1","0.0","1","null","6","null","6","null","6","1007.1","1","41.627894","15.907547"],
    [2796,"2024-04-26 11:00:00","20","manfredonia_liceo","18.55","1","48.08","1","0.0","1","null","6","null","6","null","6","1007.13","1","41.627894","15.907547"],
    [2797,"2024-04-26 12:00:00","20","manfredonia_liceo","19.47","1","47.45","1","0.0","1","null","6","null","6","null","6","1006.96","1","41.627894","15.907547"],
    [2798,"2024-04-26 13:00:00","20","manfredonia_liceo","19.07","1","49.43","1","0.0","1","null","6","null","6","null","6","1006.96","1","41.627894","15.907547"],
    [2799,"2024-04-26 14:00:00","20","manfredonia_liceo","18.04","1","55.7","1","0.0","1","null","6","null","6","null","6","1007.06","1","41.627894","15.907547"],
    [2800,"2024-04-26 15:00:00","20","manfredonia_liceo","18.22","1","56.94","1","0.0","1","null","6","null","6","null","6","1007.33","1","41.627894","15.907547"],
    [2801,"2024-04-26 16:00:00","20","manfredonia_liceo","17.66","1","59.93","1","0.0","1","null","6","null","6","null","6","1007.33","1","41.627894","15.907547"],
    [2802,"2024-04-26 17:00:00","20","manfredonia_liceo","18.41","1","51.51","1","0.0","1","null","6","null","6","null","6","1007.33","1","41.627894","15.907547"],
    [2803,"2024-04-26 18:00:00","20","manfredonia_liceo","19.1","1","52.58","1","0.0","1","null","6","null","6","null","6","1007.39","1","41.627894","15.907547"],
    [2804,"2024-04-26 19:00:00","20","manfredonia_liceo","17.18","1","61.06","1","0.0","1","null","6","null","6","null","6","1007.69","1","41.627894","15.907547"],
    [2805,"2024-04-26 20:00:00","20","manfredonia_liceo","15.03","1","68.79","1","0.0","1","null","6","null","6","null","6","1008.22","1","41.627894","15.907547"],
    [2806,"2024-04-26 21:00:00","20","manfredonia_liceo","14.62","1","71.27","1","0.0","1","null","6","null","6","null","6","1008.79","1","41.627894","15.907547"],
    [2807,"2024-04-26 22:00:00","20","manfredonia_liceo","13.66","1","76.53","1","0.0","1","null","6","null","6","null","6","1008.93","1","41.627894","15.907547"],
    [2808,"2024-04-26 23:00:00","20","manfredonia_liceo","12.52","1","73.32","1","0.0","1","null","6","null","6","null","6","1009.01","1","41.627894","15.907547"],
    [2809,"2024-04-27 00:00:00","20","manfredonia_liceo","11.99","1","72.11","1","0.0","1","null","6","null","6","null","6","1009.09","1","41.627894","15.907547"],
    [2810,"2024-04-27 01:00:00","20","manfredonia_liceo","11.92","1","72.27","1","0.0","1","null","6","null","6","null","6","1008.76","1","41.627894","15.907547"],
    [2811,"2024-04-27 02:00:00","20","manfredonia_liceo","11.52","1","75.5","1","0.0","1","null","6","null","6","null","6","1008.51","1","41.627894","15.907547"],
    [2812,"2024-04-27 03:00:00","20","manfredonia_liceo","11.39","1","76.69","1","0.0","1","null","6","null","6","null","6","1008.42","1","41.627894","15.907547"],
    [2813,"2024-04-27 04:00:00","20","manfredonia_liceo","10.93","1","77.31","1","0.0","1","null","6","null","6","null","6","1008.68","1","41.627894","15.907547"],
    [2814,"2024-04-27 05:00:00","20","manfredonia_liceo","9.8","1","84.12","1","0.0","1","null","6","null","6","null","6","1009.3","1","41.627894","15.907547"],
    [2815,"2024-04-27 06:00:00","20","manfredonia_liceo","9.88","1","84.97","1","0.0","1","null","6","null","6","null","6","1009.93","1","41.627894","15.907547"],
    [2816,"2024-04-27 07:00:00","20","manfredonia_liceo","12.97","1","76.56","1","0.0","1","null","6","null","6","null","6","1010.4","1","41.627894","15.907547"],
    [2817,"2024-04-27 08:00:00","20","manfredonia_liceo","17.05","1","63.84","1","0.0","1","null","6","null","6","null","6","1010.95","1","41.627894","15.907547"],
    [2818,"2024-04-27 09:00:00","20","manfredonia_liceo","18.23","1","64.62","1","0.0","1","null","6","null","6","null","6","1011.02","1","41.627894","15.907547"],
    [2819,"2024-04-27 10:00:00","20","manfredonia_liceo","20.01","1","61.63","1","0.0","1","null","6","null","6","null","6","1011.56","1","41.627894","15.907547"],
    [2820,"2024-04-27 11:00:00","20","manfredonia_liceo","19.83","1","60.29","1","0.0","1","null","6","null","6","null","6","1011.72","1","41.627894","15.907547"],
    [2821,"2024-04-27 12:00:00","20","manfredonia_liceo","21.03","1","57.41","1","0.0","1","null","6","null","6","null","6","1011.72","1","41.627894","15.907547"],
    [2822,"2024-04-27 13:00:00","20","manfredonia_liceo","21.92","1","54.94","1","0.0","1","null","6","null","6","null","6","1011.72","1","41.627894","15.907547"],
    [2823,"2024-04-27 14:00:00","20","manfredonia_liceo","22.2","1","54.62","1","0.0","1","null","6","null","6","null","6","1011.64","1","41.627894","15.907547"],
    [2824,"2024-04-27 15:00:00","20","manfredonia_liceo","22.9","1","55.39","1","0.0","1","null","6","null","6","null","6","1011.35","1","41.627894","15.907547"],
    [2825,"2024-04-27 16:00:00","20","manfredonia_liceo","22.78","1","56.49","1","0.0","1","null","6","null","6","null","6","1011.35","1","41.627894","15.907547"],
    [2826,"2024-04-27 17:00:00","20","manfredonia_liceo","21.92","1","55.78","1","0.0","1","null","6","null","6","null","6","1011.39","1","41.627894","15.907547"],
    [2827,"2024-04-27 18:00:00","20","manfredonia_liceo","20.89","1","59.38","1","0.0","1","null","6","null","6","null","6","1011.62","1","41.627894","15.907547"],
    [2828,"2024-04-27 19:00:00","20","manfredonia_liceo","18.29","1","66.89","1","0.0","1","null","6","null","6","null","6","1011.72","1","41.627894","15.907547"],
    [2829,"2024-04-27 20:00:00","20","manfredonia_liceo","16.55","1","69.76","1","0.0","1","null","6","null","6","null","6","1011.89","1","41.627894","15.907547"],
    [2830,"2024-04-27 21:00:00","20","manfredonia_liceo","16.19","1","58.07","1","0.0","1","null","6","null","6","null","6","1012.54","1","41.627894","15.907547"],
    [2831,"2024-04-27 22:00:00","20","manfredonia_liceo","14.58","1","59.26","1","0.0","1","null","6","null","6","null","6","1012.89","1","41.627894","15.907547"],
    [2832,"2024-04-27 23:00:00","20","manfredonia_liceo","13.15","1","60.23","1","0.0","1","null","6","null","6","null","6","1012.98","1","41.627894","15.907547"],
    [2833,"2024-04-28 00:00:00","20","manfredonia_liceo","12.81","1","58.33","1","0.0","1","null","6","null","6","null","6","1012.82","1","41.627894","15.907547"],
    [2834,"2024-04-28 01:00:00","20","manfredonia_liceo","12.83","1","56.55","1","0.0","1","null","6","null","6","null","6","1012.82","1","41.627894","15.907547"],
    [2835,"2024-04-28 02:00:00","20","manfredonia_liceo","12.29","1","58.75","1","0.0","1","null","6","null","6","null","6","1012.82","1","41.627894","15.907547"],
    [2836,"2024-04-28 03:00:00","20","manfredonia_liceo","11.69","1","62.28","1","0.0","1","null","6","null","6","null","6","1012.89","1","41.627894","15.907547"],
    [2837,"2024-04-28 04:00:00","20","manfredonia_liceo","11.38","1","64.77","1","0.0","1","null","6","null","6","null","6","1013.08","1","41.627894","15.907547"],
    [2838,"2024-04-28 05:00:00","20","manfredonia_liceo","11.53","1","63.45","1","0.0","1","null","6","null","6","null","6","1013.02","1","41.627894","15.907547"],
    [2839,"2024-04-28 06:00:00","20","manfredonia_liceo","11.4","1","64.7","1","0.0","1","null","6","null","6","null","6","1013.39","1","41.627894","15.907547"],
    [2840,"2024-04-28 07:00:00","20","manfredonia_liceo","14.11","1","63.4","1","0.0","1","null","6","null","6","null","6","1013.71","1","41.627894","15.907547"],
    [2841,"2024-04-28 08:00:00","20","manfredonia_liceo","19.12","1","58.94","1","0.0","1","null","6","null","6","null","6","1014.03","1","41.627894","15.907547"],
    [2842,"2024-04-28 09:00:00","20","manfredonia_liceo","19.58","1","63.32","1","0.0","1","null","6","null","6","null","6","1014.29","1","41.627894","15.907547"],
    [2843,"2024-04-28 10:00:00","20","manfredonia_liceo","20.46","1","67.49","1","0.0","1","null","6","null","6","null","6","1014.48","1","41.627894","15.907547"],
    [2844,"2024-04-28 11:00:00","20","manfredonia_liceo","22.41","1","55.11","1","0.0","1","null","6","null","6","null","6","1014.62","1","41.627894","15.907547"],
    [2845,"2024-04-28 12:00:00","20","manfredonia_liceo","23.76","1","40.9","1","0.0","1","null","6","null","6","null","6","1014.31","1","41.627894","15.907547"],
    [2846,"2024-04-28 13:00:00","20","manfredonia_liceo","24.0","1","39.19","1","0.0","1","null","6","null","6","null","6","1013.92","1","41.627894","15.907547"],
    [2847,"2024-04-28 14:00:00","20","manfredonia_liceo","23.69","1","41.41","1","0.0","1","null","6","null","6","null","6","1013.78","1","41.627894","15.907547"],
    [2848,"2024-04-28 15:00:00","20","manfredonia_liceo","24.91","1","34.67","1","0.0","1","null","6","null","6","null","6","1013.15","1","41.627894","15.907547"],
    [2849,"2024-04-28 16:00:00","20","manfredonia_liceo","24.27","1","43.26","1","0.0","1","null","6","null","6","null","6","1012.82","1","41.627894","15.907547"],
    [2850,"2024-04-28 17:00:00","20","manfredonia_liceo","23.33","1","51.54","1","0.0","1","null","6","null","6","null","6","1012.91","1","41.627894","15.907547"],
    [2851,"2024-04-28 18:00:00","20","manfredonia_liceo","23.14","1","47.02","1","0.0","1","null","6","null","6","null","6","1012.83","1","41.627894","15.907547"],
    [2852,"2024-04-28 19:00:00","20","manfredonia_liceo","20.19","1","45.16","1","0.0","1","null","6","null","6","null","6","1012.82","1","41.627894","15.907547"],
    [2853,"2024-04-28 20:00:00","20","manfredonia_liceo","18.1","1","43.53","1","0.0","1","null","6","null","6","null","6","1012.88","1","41.627894","15.907547"],
    [2854,"2024-04-28 21:00:00","20","manfredonia_liceo","16.57","1","43.28","1","0.0","1","null","6","null","6","null","6","1013.18","1","41.627894","15.907547"],
    [2855,"2024-04-28 22:00:00","20","manfredonia_liceo","15.48","1","46.27","1","0.0","1","null","6","null","6","null","6","1013.42","1","41.627894","15.907547"],
    [2856,"2024-04-28 23:00:00","20","manfredonia_liceo","14.6","1","48.53","1","0.0","1","null","6","null","6","null","6","1013.55","1","41.627894","15.907547"],
    [2857,"2024-04-29 00:00:00","20","manfredonia_liceo","14.0","1","49.18","1","0.0","1","null","6","null","6","null","6","1013.71","1","41.627894","15.907547"],
    [2858,"2024-04-29 01:00:00","20","manfredonia_liceo","13.32","1","52.55","1","0.0","1","null","6","null","6","null","6","1013.8","1","41.627894","15.907547"],
    [2859,"2024-04-29 02:00:00","20","manfredonia_liceo","12.98","1","53.3","1","0.0","1","null","6","null","6","null","6","1013.55","1","41.627894","15.907547"],
    [2860,"2024-04-29 03:00:00","20","manfredonia_liceo","12.88","1","56.78","1","0.0","1","null","6","null","6","null","6","1013.57","1","41.627894","15.907547"],
    [2861,"2024-04-29 04:00:00","20","manfredonia_liceo","12.25","1","62.15","1","0.0","1","null","6","null","6","null","6","1013.55","1","41.627894","15.907547"],
    [2862,"2024-04-29 05:00:00","20","manfredonia_liceo","11.09","1","67.92","1","0.0","1","null","6","null","6","null","6","1013.55","1","41.627894","15.907547"],
    [2863,"2024-04-29 06:00:00","20","manfredonia_liceo","11.85","1","65.01","1","0.0","1","null","6","null","6","null","6","1013.83","1","41.627894","15.907547"],
    [2864,"2024-04-29 07:00:00","20","manfredonia_liceo","15.02","1","57.23","1","0.0","1","null","6","null","6","null","6","1014.22","1","41.627894","15.907547"],
    [2865,"2024-04-29 08:00:00","20","manfredonia_liceo","20.8","1","49.54","1","0.0","1","null","6","null","6","null","6","1014.59","1","41.627894","15.907547"],
    [2866,"2024-04-29 09:00:00","20","manfredonia_liceo","22.32","1","50.26","1","0.0","1","null","6","null","6","null","6","1014.72","1","41.627894","15.907547"],
    [2867,"2024-04-29 10:00:00","20","manfredonia_liceo","23.82","1","42.09","1","0.0","1","null","6","null","6","null","6","1014.95","1","41.627894","15.907547"],
    [2868,"2024-04-29 11:00:00","20","manfredonia_liceo","24.07","1","40.56","1","0.0","1","null","6","null","6","null","6","1015.02","1","41.627894","15.907547"],
    [2869,"2024-04-29 12:00:00","20","manfredonia_liceo","23.66","1","42.04","1","0.0","1","null","6","null","6","null","6","1015.02","1","41.627894","15.907547"],
    [2870,"2024-04-29 13:00:00","20","manfredonia_liceo","23.17","1","47.76","1","0.0","1","null","6","null","6","null","6","1014.69","1","41.627894","15.907547"],
    [2871,"2024-04-29 14:00:00","20","manfredonia_liceo","24.03","1","45.81","1","0.0","1","null","6","null","6","null","6","1014.49","1","41.627894","15.907547"],
    [2872,"2024-04-29 15:00:00","20","manfredonia_liceo","25.18","1","46.51","1","0.0","1","null","6","null","6","null","6","1013.98","1","41.627894","15.907547"],
    [2873,"2024-04-29 16:00:00","20","manfredonia_liceo","26.07","1","39.02","1","0.0","1","null","6","null","6","null","6","1013.6","1","41.627894","15.907547"],
    [2874,"2024-04-29 17:00:00","20","manfredonia_liceo","26.55","1","33.83","1","0.0","1","null","6","null","6","null","6","1013.41","1","41.627894","15.907547"],
    [2875,"2024-04-29 18:00:00","20","manfredonia_liceo","25.81","1","38.98","1","0.0","1","null","6","null","6","null","6","1013.0","1","41.627894","15.907547"],
    [2876,"2024-04-29 19:00:00","20","manfredonia_liceo","22.84","1","44.58","1","0.0","1","null","6","null","6","null","6","1013.23","1","41.627894","15.907547"],
    [2877,"2024-04-29 20:00:00","20","manfredonia_liceo","20.61","1","34.65","1","0.0","1","null","6","null","6","null","6","1013.51","1","41.627894","15.907547"],
    [2878,"2024-04-29 21:00:00","20","manfredonia_liceo","19.41","1","38.12","1","0.0","1","null","6","null","6","null","6","1013.7","1","41.627894","15.907547"],
    [2879,"2024-04-29 22:00:00","20","manfredonia_liceo","16.43","1","50.04","1","0.0","1","null","6","null","6","null","6","1014.25","1","41.627894","15.907547"],
    [2880,"2024-04-29 23:00:00","20","manfredonia_liceo","14.85","1","55.16","1","0.0","1","null","6","null","6","null","6","1014.56","1","41.627894","15.907547"],
    [2881,"2024-04-30 00:00:00","20","manfredonia_liceo","14.2","1","58.67","1","0.0","1","null","6","null","6","null","6","1014.65","1","41.627894","15.907547"],
    [2882,"2024-04-30 01:00:00","20","manfredonia_liceo","13.74","1","60.16","1","0.0","1","null","6","null","6","null","6","1014.63","1","41.627894","15.907547"],
    [2883,"2024-04-30 02:00:00","20","manfredonia_liceo","13.48","1","58.65","1","0.0","1","null","6","null","6","null","6","1013.97","1","41.627894","15.907547"],
    [2884,"2024-04-30 03:00:00","20","manfredonia_liceo","13.05","1","60.44","1","0.0","1","null","6","null","6","null","6","1013.73","1","41.627894","15.907547"],
    [2885,"2024-04-30 04:00:00","20","manfredonia_liceo","12.65","1","61.52","1","0.0","1","null","6","null","6","null","6","1013.39","1","41.627894","15.907547"],
    [2886,"2024-04-30 05:00:00","20","manfredonia_liceo","12.2","1","63.46","1","0.0","1","null","6","null","6","null","6","1013.07","1","41.627894","15.907547"],
    [2887,"2024-04-30 06:00:00","20","manfredonia_liceo","12.22","1","67.89","1","0.0","1","null","6","null","6","null","6","1013.12","1","41.627894","15.907547"],
    [2888,"2024-04-30 07:00:00","20","manfredonia_liceo","15.52","1","61.84","1","0.0","1","null","6","null","6","null","6","1013.26","1","41.627894","15.907547"],
    [2889,"2024-04-30 08:00:00","20","manfredonia_liceo","20.62","1","57.17","1","0.0","1","null","6","null","6","null","6","1013.55","1","41.627894","15.907547"],
    [2890,"2024-04-30 09:00:00","20","manfredonia_liceo","20.91","1","59.26","1","0.0","1","null","6","null","6","null","6","1013.75","1","41.627894","15.907547"],
    [2891,"2024-04-30 10:00:00","20","manfredonia_liceo","22.75","1","52.61","1","0.0","1","null","6","null","6","null","6","1013.61","1","41.627894","15.907547"],
    [2892,"2024-04-30 11:00:00","20","manfredonia_liceo","22.75","1","47.14","1","0.0","1","null","6","null","6","null","6","1013.55","1","41.627894","15.907547"],
    [2893,"2024-04-30 12:00:00","20","manfredonia_liceo","23.55","1","45.54","1","0.0","1","null","6","null","6","null","6","1013.1","1","41.627894","15.907547"],
    [2894,"2024-04-30 13:00:00","20","manfredonia_liceo","24.49","1","48.63","1","0.0","1","null","6","null","6","null","6","1012.26","1","41.627894","15.907547"],
    [2895,"2024-04-30 14:00:00","20","manfredonia_liceo","24.58","1","52.86","1","0.0","1","null","6","null","6","null","6","1011.38","1","41.627894","15.907547"],
    [2896,"2024-04-30 15:00:00","20","manfredonia_liceo","24.42","1","50.17","1","0.0","1","null","6","null","6","null","6","1010.85","1","41.627894","15.907547"],
    [2897,"2024-04-30 16:00:00","20","manfredonia_liceo","24.46","1","49.25","1","0.0","1","null","6","null","6","null","6","1009.78","1","41.627894","15.907547"],
    [2898,"2024-04-30 17:00:00","20","manfredonia_liceo","23.69","1","47.92","1","0.0","1","null","6","null","6","null","6","1009.61","1","41.627894","15.907547"],
    [2899,"2024-04-30 18:00:00","20","manfredonia_liceo","21.73","1","45.34","1","0.0","1","null","6","null","6","null","6","1009.29","1","41.627894","15.907547"],
    [2900,"2024-04-30 19:00:00","20","manfredonia_liceo","20.57","1","50.07","1","0.0","1","null","6","null","6","null","6","1008.75","1","41.627894","15.907547"],
    [2901,"2024-04-30 20:00:00","20","manfredonia_liceo","20.38","1","48.29","1","0.0","1","null","6","null","6","null","6","1008.78","1","41.627894","15.907547"],
    [2902,"2024-04-30 21:00:00","20","manfredonia_liceo","20.13","1","46.62","1","0.0","1","null","6","null","6","null","6","1009.15","1","41.627894","15.907547"],
    [2903,"2024-04-30 22:00:00","20","manfredonia_liceo","20.57","1","44.41","1","0.0","1","null","6","null","6","null","6","1008.8","1","41.627894","15.907547"],
    [2904,"2024-04-30 23:00:00","20","manfredonia_liceo","19.92","1","56.1","1","0.0","1","null","6","null","6","null","6","1008.54","1","41.627894","15.907547"],
    [2905,"2024-05-01 00:00:00","20","manfredonia_liceo","19.22","1","null","3","0.0","1","null","6","null","6","null","6","1008.05","1","41.627894","15.907547"],
    [2906,"2024-05-01 01:00:00","20","manfredonia_liceo","18.6","1","null","3","0.0","1","null","6","null","6","null","6","1007.56","1","41.627894","15.907547"],
    [2907,"2024-05-01 02:00:00","20","manfredonia_liceo","18.3","1","null","3","0.0","1","null","6","null","6","null","6","1006.74","1","41.627894","15.907547"],
    [2908,"2024-05-01 03:00:00","20","manfredonia_liceo","18.47","1","null","3","0.0","1","null","6","null","6","null","6","1006.41","1","41.627894","15.907547"],
    [2909,"2024-05-01 04:00:00","20","manfredonia_liceo","17.77","1","null","3","0.0","1","null","6","null","6","null","6","1006.25","1","41.627894","15.907547"],
    [2910,"2024-05-01 05:00:00","20","manfredonia_liceo","17.32","1","null","3","0.0","1","null","6","null","6","null","6","1005.76","1","41.627894","15.907547"],
    [2911,"2024-05-01 06:00:00","20","manfredonia_liceo","17.92","1","null","3","0.0","1","null","6","null","6","null","6","1005.49","1","41.627894","15.907547"],
    [2912,"2024-05-01 07:00:00","20","manfredonia_liceo","19.26","1","null","3","0.0","1","null","6","null","6","null","6","1005.38","1","41.627894","15.907547"],
    [2913,"2024-05-01 08:00:00","20","manfredonia_liceo","18.83","1","null","3","0.2","1","null","6","null","6","null","6","1005.4","1","41.627894","15.907547"],
    [2914,"2024-05-01 09:00:00","20","manfredonia_liceo","19.8","1","null","3","0.0","1","null","6","null","6","null","6","1005.11","1","41.627894","15.907547"],
    [2915,"2024-05-01 10:00:00","20","manfredonia_liceo","22.37","1","null","3","0.0","1","null","6","null","6","null","6","1005.13","1","41.627894","15.907547"],
    [2916,"2024-05-01 11:00:00","20","manfredonia_liceo","23.71","1","null","3","0.0","1","null","6","null","6","null","6","1004.81","1","41.627894","15.907547"],
    [2917,"2024-05-01 12:00:00","20","manfredonia_liceo","24.28","1","null","3","0.0","1","null","6","null","6","null","6","1003.94","1","41.627894","15.907547"],
    [2918,"2024-05-01 13:00:00","20","manfredonia_liceo","24.58","1","null","3","0.0","1","null","6","null","6","null","6","1003.1","1","41.627894","15.907547"],
    [2919,"2024-05-01 14:00:00","20","manfredonia_liceo","20.27","1","null","3","6.4","1","null","6","null","6","null","6","1003.17","1","41.627894","15.907547"],
    [2920,"2024-05-01 15:00:00","20","manfredonia_liceo","21.54","1","null","3","0.0","1","null","6","null","6","null","6","1003.06","1","41.627894","15.907547"],
    [2921,"2024-05-01 16:00:00","20","manfredonia_liceo","23.23","1","null","3","1.2","1","null","6","null","6","null","6","1003.09","1","41.627894","15.907547"],
    [2922,"2024-05-01 17:00:00","20","manfredonia_liceo","21.63","1","null","3","0.0","1","null","6","null","6","null","6","1003.3","1","41.627894","15.907547"],
    [2923,"2024-05-01 18:00:00","20","manfredonia_liceo","20.98","1","null","3","0.0","1","null","6","null","6","null","6","1003.22","1","41.627894","15.907547"],
    [2924,"2024-05-01 19:00:00","20","manfredonia_liceo","21.16","1","null","3","0.0","1","null","6","null","6","null","6","1003.35","1","41.627894","15.907547"],
    [2925,"2024-05-01 20:00:00","20","manfredonia_liceo","19.81","1","null","3","0.0","1","null","6","null","6","null","6","1004.14","1","41.627894","15.907547"],
    [2926,"2024-05-01 21:00:00","20","manfredonia_liceo","18.75","1","null","3","0.0","1","null","6","null","6","null","6","1004.94","1","41.627894","15.907547"],
    [2927,"2024-05-01 22:00:00","20","manfredonia_liceo","17.1","1","null","3","0.0","1","null","6","null","6","null","6","1005.33","1","41.627894","15.907547"],
    [2928,"2024-05-01 23:00:00","20","manfredonia_liceo","16.06","1","null","3","0.0","1","null","6","null","6","null","6","1005.69","1","41.627894","15.907547"],
    [2929,"2024-05-02 00:00:00","20","manfredonia_liceo","15.58","1","null","3","0.0","1","null","6","null","6","null","6","1005.82","1","41.627894","15.907547"],
    [2930,"2024-05-02 01:00:00","20","manfredonia_liceo","15.37","1","null","3","0.0","1","null","6","null","6","null","6","1005.94","1","41.627894","15.907547"],
    [2931,"2024-05-02 02:00:00","20","manfredonia_liceo","14.59","1","null","3","0.0","1","null","6","null","6","null","6","1005.85","1","41.627894","15.907547"],
    [2932,"2024-05-02 03:00:00","20","manfredonia_liceo","14.09","1","null","3","0.0","1","null","6","null","6","null","6","1005.86","1","41.627894","15.907547"],
    [2933,"2024-05-02 04:00:00","20","manfredonia_liceo","13.52","1","null","3","0.0","1","null","6","null","6","null","6","1005.65","1","41.627894","15.907547"],
    [2934,"2024-05-02 05:00:00","20","manfredonia_liceo","14.61","1","null","3","0.0","1","null","6","null","6","null","6","1005.36","1","41.627894","15.907547"],
    [2935,"2024-05-02 06:00:00","20","manfredonia_liceo","14.96","1","null","3","0.0","1","null","6","null","6","null","6","1005.52","1","41.627894","15.907547"],
    [2936,"2024-05-02 07:00:00","20","manfredonia_liceo","16.66","1","null","3","0.0","1","null","6","null","6","null","6","1005.69","1","41.627894","15.907547"],
    [2937,"2024-05-02 08:00:00","20","manfredonia_liceo","19.03","1","null","3","0.0","1","null","6","null","6","null","6","1005.66","1","41.627894","15.907547"],
    [2938,"2024-05-02 09:00:00","20","manfredonia_liceo","20.12","1","null","3","0.0","1","null","6","null","6","null","6","1005.78","1","41.627894","15.907547"],
    [2939,"2024-05-02 10:00:00","20","manfredonia_liceo","22.55","1","null","3","0.0","1","null","6","null","6","null","6","1005.49","1","41.627894","15.907547"],
    [2940,"2024-05-02 11:00:00","20","manfredonia_liceo","24.24","1","null","3","0.0","1","null","6","null","6","null","6","1005.33","1","41.627894","15.907547"],
    [2941,"2024-05-02 12:00:00","20","manfredonia_liceo","25.38","1","null","3","0.0","1","null","6","null","6","null","6","1004.89","1","41.627894","15.907547"],
    [2942,"2024-05-02 13:00:00","20","manfredonia_liceo","26.03","1","null","3","0.0","1","null","6","null","6","null","6","1004.41","1","41.627894","15.907547"],
    [2943,"2024-05-02 14:00:00","20","manfredonia_liceo","24.15","1","null","3","0.0","1","null","6","null","6","null","6","1004.8","1","41.627894","15.907547"],
    [2944,"2024-05-02 15:00:00","20","manfredonia_liceo","21.24","1","null","3","0.0","1","null","6","null","6","null","6","1005.63","1","41.627894","15.907547"],
    [2945,"2024-05-02 16:00:00","20","manfredonia_liceo","15.91","1","null","3","3.0","1","null","6","null","6","null","6","1006.77","1","41.627894","15.907547"],
    [2946,"2024-05-02 17:00:00","20","manfredonia_liceo","15.65","1","null","3","0.2","1","null","6","null","6","null","6","1006.44","1","41.627894","15.907547"],
    [2947,"2024-05-02 18:00:00","20","manfredonia_liceo","15.24","1","null","3","1.0","1","null","6","null","6","null","6","1006.01","1","41.627894","15.907547"],
    [2948,"2024-05-02 19:00:00","20","manfredonia_liceo","14.87","1","null","3","0.0","1","null","6","null","6","null","6","1005.8","1","41.627894","15.907547"],
    [2949,"2024-05-02 20:00:00","20","manfredonia_liceo","14.57","1","null","3","0.0","1","null","6","null","6","null","6","1005.78","1","41.627894","15.907547"],
    [2950,"2024-05-02 21:00:00","20","manfredonia_liceo","13.96","1","null","3","0.0","1","null","6","null","6","null","6","1006.17","1","41.627894","15.907547"],
    [2951,"2024-05-02 22:00:00","20","manfredonia_liceo","14.35","1","null","3","0.0","1","null","6","null","6","null","6","1006.23","1","41.627894","15.907547"],
    [2952,"2024-05-02 23:00:00","20","manfredonia_liceo","14.08","1","null","3","0.0","1","null","6","null","6","null","6","1006.21","1","41.627894","15.907547"],
    [2953,"2024-05-03 00:00:00","20","manfredonia_liceo","13.28","1","null","3","0.0","1","null","6","null","6","null","6","1006.09","1","41.627894","15.907547"],
    [2954,"2024-05-03 01:00:00","20","manfredonia_liceo","12.53","1","null","3","0.0","1","null","6","null","6","null","6","1005.79","1","41.627894","15.907547"],
    [2955,"2024-05-03 02:00:00","20","manfredonia_liceo","12.68","1","null","3","0.0","1","null","6","null","6","null","6","1005.37","1","41.627894","15.907547"],
    [2956,"2024-05-03 03:00:00","20","manfredonia_liceo","12.01","1","null","3","0.0","1","null","6","null","6","null","6","1005.29","1","41.627894","15.907547"],
    [2957,"2024-05-03 04:00:00","20","manfredonia_liceo","11.14","1","null","3","0.0","1","null","6","null","6","null","6","1005.17","1","41.627894","15.907547"],
    [2958,"2024-05-03 05:00:00","20","manfredonia_liceo","10.7","1","null","3","0.0","1","null","6","null","6","null","6","1005.13","1","41.627894","15.907547"],
    [2959,"2024-05-03 06:00:00","20","manfredonia_liceo","10.82","1","null","3","0.0","1","null","6","null","6","null","6","1005.47","1","41.627894","15.907547"],
    [2960,"2024-05-03 07:00:00","20","manfredonia_liceo","13.44","1","null","3","0.0","1","null","6","null","6","null","6","1005.96","1","41.627894","15.907547"],
    [2961,"2024-05-03 08:00:00","20","manfredonia_liceo","16.5","1","null","3","0.0","1","null","6","null","6","null","6","1006.35","1","41.627894","15.907547"],
    [2962,"2024-05-03 09:00:00","20","manfredonia_liceo","17.56","1","null","3","0.0","1","null","6","null","6","null","6","1006.35","1","41.627894","15.907547"],
    [2963,"2024-05-03 10:00:00","20","manfredonia_liceo","18.31","1","null","3","0.0","1","null","6","null","6","null","6","1006.59","1","41.627894","15.907547"],
    [2964,"2024-05-03 11:00:00","20","manfredonia_liceo","19.5","1","null","3","0.0","1","null","6","null","6","null","6","1006.59","1","41.627894","15.907547"],
    [2965,"2024-05-03 12:00:00","20","manfredonia_liceo","20.48","1","null","3","0.0","1","null","6","null","6","null","6","1006.54","1","41.627894","15.907547"],
    [2966,"2024-05-03 13:00:00","20","manfredonia_liceo","20.79","1","null","3","0.0","1","null","6","null","6","null","6","1006.11","1","41.627894","15.907547"],
    [2967,"2024-05-03 14:00:00","20","manfredonia_liceo","19.84","1","null","3","0.0","1","null","6","null","6","null","6","1005.87","1","41.627894","15.907547"],
    [2968,"2024-05-03 15:00:00","20","manfredonia_liceo","17.59","1","null","3","0.0","1","null","6","null","6","null","6","1006.43","1","41.627894","15.907547"],
    [2969,"2024-05-03 16:00:00","20","manfredonia_liceo","17.65","1","null","3","0.0","1","null","6","null","6","null","6","1006.41","1","41.627894","15.907547"],
    [2970,"2024-05-03 17:00:00","20","manfredonia_liceo","19.27","1","null","3","0.0","1","null","6","null","6","null","6","1006.19","1","41.627894","15.907547"],
    [2971,"2024-05-03 18:00:00","20","manfredonia_liceo","17.95","1","null","3","0.0","1","null","6","null","6","null","6","1005.86","1","41.627894","15.907547"],
    [2972,"2024-05-03 19:00:00","20","manfredonia_liceo","17.92","1","null","3","0.0","1","null","6","null","6","null","6","1005.86","1","41.627894","15.907547"],
    [2973,"2024-05-03 20:00:00","20","manfredonia_liceo","16.42","1","null","3","0.0","1","null","6","null","6","null","6","1006.32","1","41.627894","15.907547"],
    [2974,"2024-05-03 21:00:00","20","manfredonia_liceo","15.11","1","null","3","0.0","1","null","6","null","6","null","6","1006.97","1","41.627894","15.907547"],
    [2975,"2024-05-03 22:00:00","20","manfredonia_liceo","14.07","1","null","3","0.0","1","null","6","null","6","null","6","1007.47","1","41.627894","15.907547"],
    [2976,"2024-05-03 23:00:00","20","manfredonia_liceo","13.33","1","null","3","0.0","1","null","6","null","6","null","6","1007.37","1","41.627894","15.907547"],
    [2977,"2024-05-04 00:00:00","20","manfredonia_liceo","12.71","1","null","3","0.0","1","null","6","null","6","null","6","1007.34","1","41.627894","15.907547"],
    [2978,"2024-05-04 01:00:00","20","manfredonia_liceo","12.18","1","null","3","0.0","1","null","6","null","6","null","6","1007.08","1","41.627894","15.907547"],
    [2979,"2024-05-04 02:00:00","20","manfredonia_liceo","11.44","1","null","3","0.0","1","null","6","null","6","null","6","1006.96","1","41.627894","15.907547"],
    [2980,"2024-05-04 03:00:00","20","manfredonia_liceo","11.61","1","null","3","0.0","1","null","6","null","6","null","6","1006.9","1","41.627894","15.907547"],
    [2981,"2024-05-04 04:00:00","20","manfredonia_liceo","11.18","1","null","3","0.0","1","null","6","null","6","null","6","1006.59","1","41.627894","15.907547"],
    [2982,"2024-05-04 05:00:00","20","manfredonia_liceo","10.7","1","null","3","0.0","1","null","6","null","6","null","6","1006.9","1","41.627894","15.907547"],
    [2983,"2024-05-04 06:00:00","20","manfredonia_liceo","10.87","1","null","3","0.0","1","null","6","null","6","null","6","1007.45","1","41.627894","15.907547"],
    [2984,"2024-05-04 07:00:00","20","manfredonia_liceo","13.31","1","null","3","0.0","1","null","6","null","6","null","6","1007.8","1","41.627894","15.907547"],
    [2985,"2024-05-04 08:00:00","20","manfredonia_liceo","18.12","1","null","3","0.0","1","null","6","null","6","null","6","1008.06","1","41.627894","15.907547"],
    [2986,"2024-05-04 09:00:00","20","manfredonia_liceo","19.93","1","null","3","0.0","1","null","6","null","6","null","6","1008.24","1","41.627894","15.907547"],
    [2987,"2024-05-04 10:00:00","20","manfredonia_liceo","21.04","1","null","3","0.0","1","null","6","null","6","null","6","1008.74","1","41.627894","15.907547"],
    [2988,"2024-05-04 11:00:00","20","manfredonia_liceo","21.45","1","null","3","0.0","1","null","6","null","6","null","6","1008.79","1","41.627894","15.907547"],
    [2989,"2024-05-04 12:00:00","20","manfredonia_liceo","21.06","1","null","3","0.0","1","null","6","null","6","null","6","1008.86","1","41.627894","15.907547"],
    [2990,"2024-05-04 13:00:00","20","manfredonia_liceo","21.28","1","null","3","0.0","1","null","6","null","6","null","6","1008.4","1","41.627894","15.907547"],
    [2991,"2024-05-04 14:00:00","20","manfredonia_liceo","22.44","1","null","3","0.0","1","null","6","null","6","null","6","1008.41","1","41.627894","15.907547"],
    [2992,"2024-05-04 15:00:00","20","manfredonia_liceo","22.7","1","null","3","0.0","1","null","6","null","6","null","6","1008.41","1","41.627894","15.907547"],
    [2993,"2024-05-04 16:00:00","20","manfredonia_liceo","22.61","1","null","3","0.0","1","null","6","null","6","null","6","1008.24","1","41.627894","15.907547"],
    [2994,"2024-05-04 17:00:00","20","manfredonia_liceo","22.83","1","null","3","0.0","1","null","6","null","6","null","6","1008.66","1","41.627894","15.907547"],
    [2995,"2024-05-04 18:00:00","20","manfredonia_liceo","20.78","1","null","3","0.0","1","null","6","null","6","null","6","1009.14","1","41.627894","15.907547"],
    [2996,"2024-05-04 19:00:00","20","manfredonia_liceo","19.0","1","null","3","0.0","1","null","6","null","6","null","6","1009.25","1","41.627894","15.907547"],
    [2997,"2024-05-04 20:00:00","20","manfredonia_liceo","17.87","1","null","3","0.0","1","null","6","null","6","null","6","1009.74","1","41.627894","15.907547"],
    [2998,"2024-05-04 21:00:00","20","manfredonia_liceo","16.92","1","null","3","0.0","1","null","6","null","6","null","6","1010.29","1","41.627894","15.907547"],
    [2999,"2024-05-04 22:00:00","20","manfredonia_liceo","15.56","1","null","3","0.0","1","null","6","null","6","null","6","1010.62","1","41.627894","15.907547"],
    [3000,"2024-05-04 23:00:00","20","manfredonia_liceo","14.66","1","null","3","0.0","1","null","6","null","6","null","6","1010.88","1","41.627894","15.907547"],
    [3001,"2024-05-05 00:00:00","20","manfredonia_liceo","14.43","1","null","3","0.0","1","null","6","null","6","null","6","1011.27","1","41.627894","15.907547"],
    [3002,"2024-05-05 01:00:00","20","manfredonia_liceo","13.42","1","null","3","0.0","1","null","6","null","6","null","6","1010.89","1","41.627894","15.907547"],
    [3003,"2024-05-05 02:00:00","20","manfredonia_liceo","13.3","1","null","3","0.0","1","null","6","null","6","null","6","1010.53","1","41.627894","15.907547"],
    [3004,"2024-05-05 03:00:00","20","manfredonia_liceo","13.08","1","null","3","0.0","1","null","6","null","6","null","6","1010.62","1","41.627894","15.907547"],
    [3005,"2024-05-05 04:00:00","20","manfredonia_liceo","12.62","1","null","3","0.0","1","null","6","null","6","null","6","1010.4","1","41.627894","15.907547"],
    [3006,"2024-05-05 05:00:00","20","manfredonia_liceo","13.14","1","null","3","0.0","1","null","6","null","6","null","6","1010.34","1","41.627894","15.907547"],
    [3007,"2024-05-05 06:00:00","20","manfredonia_liceo","12.48","1","null","3","0.0","1","null","6","null","6","null","6","1010.78","1","41.627894","15.907547"],
    [3008,"2024-05-05 07:00:00","20","manfredonia_liceo","15.73","1","null","3","0.0","1","null","6","null","6","null","6","1010.99","1","41.627894","15.907547"],
    [3009,"2024-05-05 08:00:00","20","manfredonia_liceo","20.16","1","null","3","0.0","1","null","6","null","6","null","6","1011.44","1","41.627894","15.907547"],
    [3010,"2024-05-05 09:00:00","20","manfredonia_liceo","20.82","1","null","3","0.0","1","null","6","null","6","null","6","1011.72","1","41.627894","15.907547"],
    [3011,"2024-05-05 10:00:00","20","manfredonia_liceo","22.32","1","null","3","0.0","1","null","6","null","6","null","6","1012.04","1","41.627894","15.907547"],
    [3012,"2024-05-05 11:00:00","20","manfredonia_liceo","23.29","1","null","3","0.0","1","null","6","null","6","null","6","1011.76","1","41.627894","15.907547"],
    [3013,"2024-05-05 12:00:00","20","manfredonia_liceo","23.16","1","null","3","0.0","1","null","6","null","6","null","6","1011.42","1","41.627894","15.907547"],
    [3014,"2024-05-05 13:00:00","20","manfredonia_liceo","23.44","1","null","3","0.0","1","null","6","null","6","null","6","1010.96","1","41.627894","15.907547"],
    [3015,"2024-05-05 14:00:00","20","manfredonia_liceo","23.88","1","null","3","0.0","1","null","6","null","6","null","6","1010.6","1","41.627894","15.907547"],
    [3016,"2024-05-05 15:00:00","20","manfredonia_liceo","23.71","1","null","3","0.0","1","null","6","null","6","null","6","1010.26","1","41.627894","15.907547"],
    [3017,"2024-05-05 16:00:00","20","manfredonia_liceo","24.15","1","null","3","0.0","1","null","6","null","6","null","6","1010.03","1","41.627894","15.907547"],
    [3018,"2024-05-05 17:00:00","20","manfredonia_liceo","23.62","1","null","3","0.0","1","null","6","null","6","null","6","1009.91","1","41.627894","15.907547"],
    [3019,"2024-05-05 18:00:00","20","manfredonia_liceo","22.55","1","null","3","0.0","1","null","6","null","6","null","6","1009.89","1","41.627894","15.907547"],
    [3020,"2024-05-05 19:00:00","20","manfredonia_liceo","20.27","1","null","3","0.0","1","null","6","null","6","null","6","1009.92","1","41.627894","15.907547"],
    [3021,"2024-05-05 20:00:00","20","manfredonia_liceo","17.74","1","null","3","0.0","1","null","6","null","6","null","6","1010.09","1","41.627894","15.907547"],
    [3022,"2024-05-05 21:00:00","20","manfredonia_liceo","17.18","1","null","3","0.0","1","null","6","null","6","null","6","1010.26","1","41.627894","15.907547"],
    [3023,"2024-05-05 22:00:00","20","manfredonia_liceo","17.22","1","null","3","0.0","1","null","6","null","6","null","6","1010.28","1","41.627894","15.907547"],
    [3024,"2024-05-05 23:00:00","20","manfredonia_liceo","16.82","1","null","3","0.0","1","null","6","null","6","null","6","1010.26","1","41.627894","15.907547"],
    [3025,"2024-05-06 00:00:00","20","manfredonia_liceo","15.95","1","null","3","0.0","1","null","6","null","6","null","6","1010.26","1","41.627894","15.907547"],
    [3026,"2024-05-06 01:00:00","20","manfredonia_liceo","15.36","1","null","3","0.0","1","null","6","null","6","null","6","1009.98","1","41.627894","15.907547"],
    [3027,"2024-05-06 02:00:00","20","manfredonia_liceo","15.56","1","null","3","0.0","1","null","6","null","6","null","6","1009.59","1","41.627894","15.907547"],
    [3028,"2024-05-06 03:00:00","20","manfredonia_liceo","16.02","1","null","3","0.0","1","null","6","null","6","null","6","1009.52","1","41.627894","15.907547"],
    [3029,"2024-05-06 04:00:00","20","manfredonia_liceo","15.47","1","null","3","0.0","1","null","6","null","6","null","6","1009.27","1","41.627894","15.907547"],
    [3030,"2024-05-06 05:00:00","20","manfredonia_liceo","14.34","1","null","3","0.0","1","null","6","null","6","null","6","1009.21","1","41.627894","15.907547"],
    [3031,"2024-05-06 06:00:00","20","manfredonia_liceo","13.33","1","null","3","0.0","1","null","6","null","6","null","6","1009.52","1","41.627894","15.907547"],
    [3032,"2024-05-06 07:00:00","20","manfredonia_liceo","16.21","1","null","3","0.0","1","null","6","null","6","null","6","1009.6","1","41.627894","15.907547"],
    [3033,"2024-05-06 08:00:00","20","manfredonia_liceo","19.53","1","null","3","0.0","1","null","6","null","6","null","6","1010.21","1","41.627894","15.907547"],
    [3034,"2024-05-06 09:00:00","20","manfredonia_liceo","20.49","1","null","3","0.0","1","null","6","null","6","null","6","1010.26","1","41.627894","15.907547"],
    [3035,"2024-05-06 10:00:00","20","manfredonia_liceo","20.93","1","null","3","0.0","1","null","6","null","6","null","6","1010.1","1","41.627894","15.907547"],
    [3036,"2024-05-06 11:00:00","20","manfredonia_liceo","23.52","1","null","3","0.0","1","null","6","null","6","null","6","1009.85","1","41.627894","15.907547"],
    [3037,"2024-05-06 12:00:00","20","manfredonia_liceo","26.44","1","null","3","0.0","1","null","6","null","6","null","6","1009.41","1","41.627894","15.907547"],
    [3038,"2024-05-06 13:00:00","20","manfredonia_liceo","24.98","1","null","3","0.0","1","null","6","null","6","null","6","1009.16","1","41.627894","15.907547"],
    [3039,"2024-05-06 14:00:00","20","manfredonia_liceo","24.04","1","null","3","0.0","1","null","6","null","6","null","6","1009.14","1","41.627894","15.907547"],
    [3040,"2024-05-06 15:00:00","20","manfredonia_liceo","24.75","1","null","3","0.0","1","null","6","null","6","null","6","1008.79","1","41.627894","15.907547"],
    [3041,"2024-05-06 16:00:00","20","manfredonia_liceo","24.98","1","null","3","0.0","1","null","6","null","6","null","6","1008.74","1","41.627894","15.907547"],
    [3042,"2024-05-06 17:00:00","20","manfredonia_liceo","25.52","1","null","3","0.0","1","null","6","null","6","null","6","1008.43","1","41.627894","15.907547"],
    [3043,"2024-05-06 18:00:00","20","manfredonia_liceo","24.27","1","null","3","0.0","1","null","6","null","6","null","6","1008.11","1","41.627894","15.907547"],
    [3044,"2024-05-06 19:00:00","20","manfredonia_liceo","22.01","1","null","3","0.0","1","null","6","null","6","null","6","1008.07","1","41.627894","15.907547"],
    [3045,"2024-05-06 20:00:00","20","manfredonia_liceo","20.7","1","null","3","0.0","1","null","6","null","6","null","6","1008.06","1","41.627894","15.907547"],
    [3046,"2024-05-06 21:00:00","20","manfredonia_liceo","19.95","1","null","3","0.0","1","null","6","null","6","null","6","1008.16","1","41.627894","15.907547"],
    [3047,"2024-05-06 22:00:00","20","manfredonia_liceo","18.61","1","null","3","0.0","1","null","6","null","6","null","6","1008.54","1","41.627894","15.907547"],
    [3048,"2024-05-06 23:00:00","20","manfredonia_liceo","17.78","1","null","3","0.0","1","null","6","null","6","null","6","1008.55","1","41.627894","15.907547"],
    [3049,"2024-05-07 00:00:00","20","manfredonia_liceo","17.22","1","null","3","0.0","1","null","6","null","6","null","6","1008.55","1","41.627894","15.907547"],
    [3050,"2024-05-07 01:00:00","20","manfredonia_liceo","16.5","1","null","3","0.0","1","null","6","null","6","null","6","1008.16","1","41.627894","15.907547"],
    [3051,"2024-05-07 02:00:00","20","manfredonia_liceo","16.46","1","null","3","0.0","1","null","6","null","6","null","6","1007.95","1","41.627894","15.907547"],
    [3052,"2024-05-07 03:00:00","20","manfredonia_liceo","16.05","1","null","3","0.0","1","null","6","null","6","null","6","1007.69","1","41.627894","15.907547"],
    [3053,"2024-05-07 04:00:00","20","manfredonia_liceo","15.36","1","null","3","0.0","1","null","6","null","6","null","6","1007.46","1","41.627894","15.907547"],
    [3054,"2024-05-07 05:00:00","20","manfredonia_liceo","15.21","1","null","3","0.0","1","null","6","null","6","null","6","1007.3","1","41.627894","15.907547"],
    [3055,"2024-05-07 06:00:00","20","manfredonia_liceo","15.61","1","null","3","0.0","1","null","6","null","6","null","6","1007.11","1","41.627894","15.907547"],
    [3056,"2024-05-07 07:00:00","20","manfredonia_liceo","16.85","1","null","3","0.0","1","null","6","null","6","null","6","1007.51","1","41.627894","15.907547"],
    [3057,"2024-05-07 08:00:00","20","manfredonia_liceo","19.98","1","null","3","0.0","1","null","6","null","6","null","6","1007.77","1","41.627894","15.907547"],
    [3058,"2024-05-07 09:00:00","20","manfredonia_liceo","22.35","1","null","3","0.0","1","null","6","null","6","null","6","1008.02","1","41.627894","15.907547"],
    [3059,"2024-05-07 10:00:00","20","manfredonia_liceo","23.29","1","null","3","0.0","1","null","6","null","6","null","6","1007.95","1","41.627894","15.907547"],
    [3060,"2024-05-07 11:00:00","20","manfredonia_liceo","25.16","1","null","3","0.0","1","null","6","null","6","null","6","1007.69","1","41.627894","15.907547"],
    [3061,"2024-05-07 12:00:00","20","manfredonia_liceo","25.83","1","null","3","0.0","1","null","6","null","6","null","6","1007.47","1","41.627894","15.907547"],
    [3062,"2024-05-07 13:00:00","20","manfredonia_liceo","27.65","1","null","3","0.0","1","null","6","null","6","null","6","1007.25","1","41.627894","15.907547"],
    [3063,"2024-05-07 14:00:00","20","manfredonia_liceo","27.53","1","null","3","0.0","1","null","6","null","6","null","6","1006.91","1","41.627894","15.907547"],
    [3064,"2024-05-07 15:00:00","20","manfredonia_liceo","25.7","1","null","3","0.0","1","null","6","null","6","null","6","1006.71","1","41.627894","15.907547"],
    [3065,"2024-05-07 16:00:00","20","manfredonia_liceo","24.37","1","null","3","0.0","1","null","6","null","6","null","6","1006.96","1","41.627894","15.907547"],
    [3066,"2024-05-07 17:00:00","20","manfredonia_liceo","23.26","1","null","3","0.0","1","null","6","null","6","null","6","1006.71","1","41.627894","15.907547"],
    [3067,"2024-05-07 18:00:00","20","manfredonia_liceo","23.24","1","null","3","0.0","1","null","6","null","6","null","6","1006.63","1","41.627894","15.907547"],
    [3068,"2024-05-07 19:00:00","20","manfredonia_liceo","22.45","1","null","3","0.0","1","null","6","null","6","null","6","1006.96","1","41.627894","15.907547"],
    [3069,"2024-05-07 20:00:00","20","manfredonia_liceo","21.67","1","null","3","0.0","1","null","6","null","6","null","6","1007.3","1","41.627894","15.907547"],
    [3070,"2024-05-07 21:00:00","20","manfredonia_liceo","21.58","1","null","3","0.0","1","null","6","null","6","null","6","1007.68","1","41.627894","15.907547"],
    [3071,"2024-05-07 22:00:00","20","manfredonia_liceo","20.66","1","null","3","0.0","1","null","6","null","6","null","6","1008.07","1","41.627894","15.907547"],
    [3072,"2024-05-07 23:00:00","20","manfredonia_liceo","20.0","1","null","3","0.0","1","null","6","null","6","null","6","1008.05","1","41.627894","15.907547"],
    [3073,"2024-05-08 00:00:00","20","manfredonia_liceo","18.68","1","null","3","0.0","1","null","6","null","6","null","6","1008.15","1","41.627894","15.907547"],
    [3074,"2024-05-08 01:00:00","20","manfredonia_liceo","17.39","1","null","3","0.0","1","null","6","null","6","null","6","1008.29","1","41.627894","15.907547"],
    [3075,"2024-05-08 02:00:00","20","manfredonia_liceo","15.98","1","null","3","0.0","1","null","6","null","6","null","6","1008.16","1","41.627894","15.907547"],
    [3076,"2024-05-08 03:00:00","20","manfredonia_liceo","14.49","1","null","3","0.0","1","null","6","null","6","null","6","1007.89","1","41.627894","15.907547"],
    [3077,"2024-05-08 04:00:00","20","manfredonia_liceo","13.99","1","null","3","0.0","1","null","6","null","6","null","6","1007.77","1","41.627894","15.907547"],
    [3078,"2024-05-08 05:00:00","20","manfredonia_liceo","13.84","1","null","3","0.0","1","null","6","null","6","null","6","1008.0","1","41.627894","15.907547"],
    [3079,"2024-05-08 06:00:00","20","manfredonia_liceo","13.76","1","null","3","0.0","1","null","6","null","6","null","6","1008.08","1","41.627894","15.907547"],
    [3080,"2024-05-08 07:00:00","20","manfredonia_liceo","18.04","1","null","3","0.0","1","null","6","null","6","null","6","1008.42","1","41.627894","15.907547"],
    [3081,"2024-05-08 08:00:00","20","manfredonia_liceo","20.88","1","null","3","0.0","1","null","6","null","6","null","6","1008.91","1","41.627894","15.907547"],
    [3082,"2024-05-08 09:00:00","20","manfredonia_liceo","21.06","1","null","3","0.0","1","null","6","null","6","null","6","1009.16","1","41.627894","15.907547"],
    [3083,"2024-05-08 10:00:00","20","manfredonia_liceo","21.42","1","null","3","0.0","1","null","6","null","6","null","6","1009.33","1","41.627894","15.907547"],
    [3084,"2024-05-08 11:00:00","20","manfredonia_liceo","22.73","1","null","3","0.0","1","null","6","null","6","null","6","1009.52","1","41.627894","15.907547"],
    [3085,"2024-05-08 12:00:00","20","manfredonia_liceo","24.56","1","null","3","0.0","1","null","6","null","6","null","6","1009.23","1","41.627894","15.907547"],
    [3086,"2024-05-08 13:00:00","20","manfredonia_liceo","25.42","1","null","3","0.0","1","null","6","null","6","null","6","1008.46","1","41.627894","15.907547"],
    [3087,"2024-05-08 14:00:00","20","manfredonia_liceo","24.05","1","null","3","0.0","1","null","6","null","6","null","6","1008.09","1","41.627894","15.907547"],
    [3088,"2024-05-08 15:00:00","20","manfredonia_liceo","22.99","1","null","3","0.0","1","null","6","null","6","null","6","1007.59","1","41.627894","15.907547"],
    [3089,"2024-05-08 16:00:00","20","manfredonia_liceo","22.89","1","null","3","0.0","1","null","6","null","6","null","6","1007.3","1","41.627894","15.907547"],
    [3090,"2024-05-08 17:00:00","20","manfredonia_liceo","22.55","1","null","3","0.0","1","null","6","null","6","null","6","1007.2","1","41.627894","15.907547"],
    [3091,"2024-05-08 18:00:00","20","manfredonia_liceo","21.45","1","null","3","0.0","1","null","6","null","6","null","6","1007.44","1","41.627894","15.907547"],
    [3092,"2024-05-08 19:00:00","20","manfredonia_liceo","20.24","1","null","3","0.0","1","null","6","null","6","null","6","1007.64","1","41.627894","15.907547"],
    [3093,"2024-05-08 20:00:00","20","manfredonia_liceo","19.71","1","null","3","0.0","1","null","6","null","6","null","6","1007.76","1","41.627894","15.907547"],
    [3094,"2024-05-08 21:00:00","20","manfredonia_liceo","19.45","1","null","3","0.0","1","null","6","null","6","null","6","1008.45","1","41.627894","15.907547"],
    [3095,"2024-05-08 22:00:00","20","manfredonia_liceo","19.34","1","null","3","0.0","1","null","6","null","6","null","6","1008.75","1","41.627894","15.907547"],
    [3096,"2024-05-08 23:00:00","20","manfredonia_liceo","18.83","1","null","3","0.0","1","null","6","null","6","null","6","1008.44","1","41.627894","15.907547"],
    [3097,"2024-05-09 00:00:00","20","manfredonia_liceo","18.43","1","null","3","0.0","1","null","6","null","6","null","6","1008.55","1","41.627894","15.907547"],
    [3098,"2024-05-09 01:00:00","20","manfredonia_liceo","18.49","1","null","3","0.0","1","null","6","null","6","null","6","1008.32","1","41.627894","15.907547"],
    [3099,"2024-05-09 02:00:00","20","manfredonia_liceo","18.53","1","null","3","0.0","1","null","6","null","6","null","6","1007.68","1","41.627894","15.907547"],
    [3100,"2024-05-09 03:00:00","20","manfredonia_liceo","18.5","1","null","3","0.0","1","null","6","null","6","null","6","1007.63","1","41.627894","15.907547"],
    [3101,"2024-05-09 04:00:00","20","manfredonia_liceo","18.36","1","null","3","0.0","1","null","6","null","6","null","6","1007.08","1","41.627894","15.907547"],
    [3102,"2024-05-09 05:00:00","20","manfredonia_liceo","18.18","1","null","3","0.0","1","null","6","null","6","null","6","1006.63","1","41.627894","15.907547"],
    [3103,"2024-05-09 06:00:00","20","manfredonia_liceo","18.32","1","null","3","0.0","1","null","6","null","6","null","6","1007.03","1","41.627894","15.907547"],
    [3104,"2024-05-09 07:00:00","20","manfredonia_liceo","19.29","1","null","3","0.0","1","null","6","null","6","null","6","1007.51","1","41.627894","15.907547"],
    [3105,"2024-05-09 08:00:00","20","manfredonia_liceo","22.34","1","null","3","0.0","1","null","6","null","6","null","6","1007.56","1","41.627894","15.907547"],
    [3106,"2024-05-09 09:00:00","20","manfredonia_liceo","23.91","1","null","3","0.0","1","null","6","null","6","null","6","1007.69","1","41.627894","15.907547"],
    [3107,"2024-05-09 10:00:00","20","manfredonia_liceo","25.34","1","null","3","0.0","1","null","6","null","6","null","6","1007.8","1","41.627894","15.907547"],
    [3108,"2024-05-09 11:00:00","20","manfredonia_liceo","26.62","1","null","3","0.0","1","null","6","null","6","null","6","1008.05","1","41.627894","15.907547"],
    [3109,"2024-05-09 12:00:00","20","manfredonia_liceo","28.44","1","null","3","0.0","1","null","6","null","6","null","6","1007.87","1","41.627894","15.907547"],
    [3110,"2024-05-09 13:00:00","20","manfredonia_liceo","28.24","1","null","3","0.0","1","null","6","null","6","null","6","1007.72","1","41.627894","15.907547"],
    [3111,"2024-05-09 14:00:00","20","manfredonia_liceo","27.31","1","null","3","0.0","1","null","6","null","6","null","6","1007.69","1","41.627894","15.907547"],
    [3112,"2024-05-09 15:00:00","20","manfredonia_liceo","27.59","1","null","3","0.0","1","null","6","null","6","null","6","1007.3","1","41.627894","15.907547"],
    [3113,"2024-05-09 16:00:00","20","manfredonia_liceo","27.08","1","null","3","0.0","1","null","6","null","6","null","6","1007.22","1","41.627894","15.907547"],
    [3114,"2024-05-09 17:00:00","20","manfredonia_liceo","25.2","1","null","3","0.0","1","null","6","null","6","null","6","1007.33","1","41.627894","15.907547"],
    [3115,"2024-05-09 18:00:00","20","manfredonia_liceo","24.28","1","null","3","0.0","1","null","6","null","6","null","6","1007.07","1","41.627894","15.907547"],
    [3116,"2024-05-09 19:00:00","20","manfredonia_liceo","21.81","1","null","3","0.0","1","null","6","null","6","null","6","1006.96","1","41.627894","15.907547"],
    [3117,"2024-05-09 20:00:00","20","manfredonia_liceo","21.56","1","null","3","0.0","1","null","6","null","6","null","6","1007.04","1","41.627894","15.907547"],
    [3118,"2024-05-09 21:00:00","20","manfredonia_liceo","21.65","1","null","3","0.0","1","null","6","null","6","null","6","1007.46","1","41.627894","15.907547"],
    [3119,"2024-05-09 22:00:00","20","manfredonia_liceo","20.79","1","null","3","0.0","1","null","6","null","6","null","6","1008.78","1","41.627894","15.907547"],
    [3120,"2024-05-09 23:00:00","20","manfredonia_liceo","20.14","1","null","3","0.0","1","null","6","null","6","null","6","1009.09","1","41.627894","15.907547"],
    [3121,"2024-05-10 00:00:00","20","manfredonia_liceo","20.07","1","null","3","0.0","1","null","6","null","6","null","6","1009.05","1","41.627894","15.907547"],
    [3122,"2024-05-10 01:00:00","20","manfredonia_liceo","20.58","1","null","3","0.0","1","null","6","null","6","null","6","1009.38","1","41.627894","15.907547"],
    [3123,"2024-05-10 02:00:00","20","manfredonia_liceo","20.06","1","null","3","0.0","1","null","6","null","6","null","6","1009.16","1","41.627894","15.907547"],
    [3124,"2024-05-10 03:00:00","20","manfredonia_liceo","19.23","1","null","3","0.0","1","null","6","null","6","null","6","1008.95","1","41.627894","15.907547"],
    [3125,"2024-05-10 04:00:00","20","manfredonia_liceo","18.62","1","null","3","0.0","1","null","6","null","6","null","6","1008.78","1","41.627894","15.907547"],
    [3126,"2024-05-10 05:00:00","20","manfredonia_liceo","18.29","1","null","3","0.0","1","null","6","null","6","null","6","1008.45","1","41.627894","15.907547"],
    [3127,"2024-05-10 06:00:00","20","manfredonia_liceo","18.54","1","null","3","0.0","1","null","6","null","6","null","6","1008.71","1","41.627894","15.907547"],
    [3128,"2024-05-10 07:00:00","20","manfredonia_liceo","20.31","1","null","3","0.0","1","null","6","null","6","null","6","1009.03","1","41.627894","15.907547"],
    [3129,"2024-05-10 08:00:00","20","manfredonia_liceo","22.3","1","null","3","0.0","1","null","6","null","6","null","6","1009.24","1","41.627894","15.907547"],
    [3130,"2024-05-10 09:00:00","20","manfredonia_liceo","22.82","1","null","3","0.0","1","null","6","null","6","null","6","1009.56","1","41.627894","15.907547"],
    [3131,"2024-05-10 10:00:00","20","manfredonia_liceo","23.6","1","null","3","0.0","1","null","6","null","6","null","6","1010.13","1","41.627894","15.907547"],
    [3132,"2024-05-10 11:00:00","20","manfredonia_liceo","24.8","1","null","3","0.0","1","null","6","null","6","null","6","1009.98","1","41.627894","15.907547"],
    [3133,"2024-05-10 12:00:00","20","manfredonia_liceo","25.58","1","null","3","0.0","1","null","6","null","6","null","6","1009.58","1","41.627894","15.907547"],
    [3134,"2024-05-10 13:00:00","20","manfredonia_liceo","27.44","1","null","3","0.0","1","null","6","null","6","null","6","1009.54","1","41.627894","15.907547"],
    [3135,"2024-05-10 14:00:00","20","manfredonia_liceo","27.74","1","null","3","0.0","1","null","6","null","6","null","6","1009.14","1","41.627894","15.907547"],
    [3136,"2024-05-10 15:00:00","20","manfredonia_liceo","26.61","1","null","3","0.0","1","null","6","null","6","null","6","1008.71","1","41.627894","15.907547"],
    [3137,"2024-05-10 16:00:00","20","manfredonia_liceo","25.63","1","null","3","0.0","1","null","6","null","6","null","6","1008.47","1","41.627894","15.907547"],
    [3138,"2024-05-10 17:00:00","20","manfredonia_liceo","23.12","1","null","3","0.0","1","null","6","null","6","null","6","1008.26","1","41.627894","15.907547"],
    [3139,"2024-05-10 18:00:00","20","manfredonia_liceo","23.4","1","null","3","0.0","1","null","6","null","6","null","6","1007.88","1","41.627894","15.907547"],
    [3140,"2024-05-10 19:00:00","20","manfredonia_liceo","21.94","1","null","3","0.0","1","null","6","null","6","null","6","1008.01","1","41.627894","15.907547"],
    [3141,"2024-05-10 20:00:00","20","manfredonia_liceo","20.2","1","null","3","0.0","1","null","6","null","6","null","6","1008.38","1","41.627894","15.907547"],
    [3142,"2024-05-10 21:00:00","20","manfredonia_liceo","19.67","1","null","3","0.0","1","null","6","null","6","null","6","1008.68","1","41.627894","15.907547"],
    [3143,"2024-05-10 22:00:00","20","manfredonia_liceo","19.52","1","null","3","0.0","1","null","6","null","6","null","6","1008.88","1","41.627894","15.907547"],
    [3144,"2024-05-10 23:00:00","20","manfredonia_liceo","19.76","1","null","3","0.0","1","null","6","null","6","null","6","1008.81","1","41.627894","15.907547"],
    [3145,"2024-05-11 00:00:00","20","manfredonia_liceo","19.54","1","null","3","0.0","1","null","6","null","6","null","6","1008.7","1","41.627894","15.907547"],
    [3146,"2024-05-11 01:00:00","20","manfredonia_liceo","19.04","1","null","3","0.0","1","null","6","null","6","null","6","1008.44","1","41.627894","15.907547"],
    [3147,"2024-05-11 02:00:00","20","manfredonia_liceo","18.93","1","null","3","0.0","1","null","6","null","6","null","6","1008.68","1","41.627894","15.907547"],
    [3148,"2024-05-11 03:00:00","20","manfredonia_liceo","18.19","1","null","3","0.0","1","null","6","null","6","null","6","1008.67","1","41.627894","15.907547"],
    [3149,"2024-05-11 04:00:00","20","manfredonia_liceo","17.34","1","null","3","0.0","1","null","6","null","6","null","6","1008.79","1","41.627894","15.907547"],
    [3150,"2024-05-11 05:00:00","20","manfredonia_liceo","17.28","1","null","3","0.0","1","null","6","null","6","null","6","1008.79","1","41.627894","15.907547"],
    [3151,"2024-05-11 06:00:00","20","manfredonia_liceo","17.82","1","null","3","0.0","1","null","6","null","6","null","6","1009.03","1","41.627894","15.907547"],
    [3152,"2024-05-11 07:00:00","20","manfredonia_liceo","19.93","1","null","3","0.0","1","null","6","null","6","null","6","1009.39","1","41.627894","15.907547"],
    [3153,"2024-05-11 08:00:00","20","manfredonia_liceo","23.25","1","null","3","0.0","1","null","6","null","6","null","6","1009.85","1","41.627894","15.907547"],
    [3154,"2024-05-11 09:00:00","20","manfredonia_liceo","25.19","1","null","3","0.0","1","null","6","null","6","null","6","1010.4","1","41.627894","15.907547"],
    [3155,"2024-05-11 10:00:00","20","manfredonia_liceo","25.48","1","null","3","0.0","1","null","6","null","6","null","6","1010.77","1","41.627894","15.907547"],
    [3156,"2024-05-11 11:00:00","20","manfredonia_liceo","26.17","1","null","3","0.0","1","null","6","null","6","null","6","1011.02","1","41.627894","15.907547"],
    [3157,"2024-05-11 12:00:00","20","manfredonia_liceo","26.86","1","null","3","0.0","1","null","6","null","6","null","6","1011.0","1","41.627894","15.907547"],
    [3158,"2024-05-11 13:00:00","20","manfredonia_liceo","27.15","1","null","3","0.0","1","null","6","null","6","null","6","1010.99","1","41.627894","15.907547"],
    [3159,"2024-05-11 14:00:00","20","manfredonia_liceo","28.2","1","null","3","0.0","1","null","6","null","6","null","6","1010.88","1","41.627894","15.907547"],
    [3160,"2024-05-11 15:00:00","20","manfredonia_liceo","28.01","1","null","3","0.0","1","null","6","null","6","null","6","1010.66","1","41.627894","15.907547"],
    [3161,"2024-05-11 16:00:00","20","manfredonia_liceo","27.17","1","null","3","0.0","1","null","6","null","6","null","6","1010.66","1","41.627894","15.907547"],
    [3162,"2024-05-11 17:00:00","20","manfredonia_liceo","26.73","1","null","3","0.0","1","null","6","null","6","null","6","1010.64","1","41.627894","15.907547"],
    [3163,"2024-05-11 18:00:00","20","manfredonia_liceo","26.14","1","null","3","0.0","1","null","6","null","6","null","6","1010.63","1","41.627894","15.907547"],
    [3164,"2024-05-11 19:00:00","20","manfredonia_liceo","24.17","1","null","3","0.0","1","null","6","null","6","null","6","1010.7","1","41.627894","15.907547"],
    [3165,"2024-05-11 20:00:00","20","manfredonia_liceo","20.39","1","null","3","0.0","1","null","6","null","6","null","6","1010.97","1","41.627894","15.907547"],
    [3166,"2024-05-11 21:00:00","20","manfredonia_liceo","19.19","1","null","3","0.0","1","null","6","null","6","null","6","1011.48","1","41.627894","15.907547"],
    [3167,"2024-05-11 22:00:00","20","manfredonia_liceo","18.94","1","null","3","0.0","1","null","6","null","6","null","6","1012.0","1","41.627894","15.907547"],
    [3168,"2024-05-11 23:00:00","20","manfredonia_liceo","18.53","1","null","3","0.0","1","null","6","null","6","null","6","1012.09","1","41.627894","15.907547"],
    [3169,"2024-05-12 00:00:00","20","manfredonia_liceo","18.07","1","null","3","0.0","1","null","6","null","6","null","6","1012.09","1","41.627894","15.907547"],
    [3170,"2024-05-12 01:00:00","20","manfredonia_liceo","16.82","1","null","3","0.0","1","null","6","null","6","null","6","1012.09","1","41.627894","15.907547"],
    [3171,"2024-05-12 02:00:00","20","manfredonia_liceo","15.9","1","null","3","0.0","1","null","6","null","6","null","6","1011.88","1","41.627894","15.907547"],
    [3172,"2024-05-12 03:00:00","20","manfredonia_liceo","15.11","1","null","3","0.0","1","null","6","null","6","null","6","1011.85","1","41.627894","15.907547"],
    [3173,"2024-05-12 04:00:00","20","manfredonia_liceo","14.24","1","null","3","0.0","1","null","6","null","6","null","6","1011.72","1","41.627894","15.907547"],
    [3174,"2024-05-12 05:00:00","20","manfredonia_liceo","13.04","1","null","3","0.0","1","null","6","null","6","null","6","1011.72","1","41.627894","15.907547"],
    [3175,"2024-05-12 06:00:00","20","manfredonia_liceo","14.26","1","null","3","0.0","1","null","6","null","6","null","6","1011.72","1","41.627894","15.907547"],
    [3176,"2024-05-12 07:00:00","20","manfredonia_liceo","16.82","1","null","3","0.0","1","null","6","null","6","null","6","1011.72","1","41.627894","15.907547"],
    [3177,"2024-05-12 08:00:00","20","manfredonia_liceo","21.72","1","null","3","0.0","1","null","6","null","6","null","6","1011.75","1","41.627894","15.907547"],
    [3178,"2024-05-12 09:00:00","20","manfredonia_liceo","23.59","1","null","3","0.0","1","null","6","null","6","null","6","1011.72","1","41.627894","15.907547"],
    [3179,"2024-05-12 10:00:00","20","manfredonia_liceo","25.48","1","null","3","0.0","1","null","6","null","6","null","6","1012.02","1","41.627894","15.907547"],
    [3180,"2024-05-12 11:00:00","20","manfredonia_liceo","28.63","1","null","3","0.0","1","null","6","null","6","null","6","1011.76","1","41.627894","15.907547"],
    [3181,"2024-05-12 12:00:00","20","manfredonia_liceo","27.6","1","null","3","0.0","1","null","6","null","6","null","6","1011.92","1","41.627894","15.907547"],
    [3182,"2024-05-12 13:00:00","20","manfredonia_liceo","24.83","1","null","3","0.0","1","null","6","null","6","null","6","1011.74","1","41.627894","15.907547"],
    [3183,"2024-05-12 14:00:00","20","manfredonia_liceo","25.54","1","null","3","0.0","1","null","6","null","6","null","6","1011.5","1","41.627894","15.907547"],
    [3184,"2024-05-12 15:00:00","20","manfredonia_liceo","26.56","1","null","3","0.0","1","null","6","null","6","null","6","1011.01","1","41.627894","15.907547"],
    [3185,"2024-05-12 16:00:00","20","manfredonia_liceo","26.62","1","null","3","0.0","1","null","6","null","6","null","6","1010.77","1","41.627894","15.907547"],
    [3186,"2024-05-12 17:00:00","20","manfredonia_liceo","25.36","1","null","3","0.0","1","null","6","null","6","null","6","1010.62","1","41.627894","15.907547"],
    [3187,"2024-05-12 18:00:00","20","manfredonia_liceo","24.55","1","null","3","0.0","1","null","6","null","6","null","6","1010.62","1","41.627894","15.907547"],
    [3188,"2024-05-12 19:00:00","20","manfredonia_liceo","22.9","1","null","3","0.0","1","null","6","null","6","null","6","1010.89","1","41.627894","15.907547"],
    [3189,"2024-05-12 20:00:00","20","manfredonia_liceo","20.05","1","null","3","0.0","1","null","6","null","6","null","6","1011.03","1","41.627894","15.907547"],
    [3190,"2024-05-12 21:00:00","20","manfredonia_liceo","19.03","1","null","3","0.0","1","null","6","null","6","null","6","1011.61","1","41.627894","15.907547"],
    [3191,"2024-05-12 22:00:00","20","manfredonia_liceo","18.12","1","null","3","0.0","1","null","6","null","6","null","6","1011.84","1","41.627894","15.907547"],
    [3192,"2024-05-12 23:00:00","20","manfredonia_liceo","17.31","1","null","3","0.0","1","null","6","null","6","null","6","1011.76","1","41.627894","15.907547"],
    [3193,"2024-05-13 00:00:00","20","manfredonia_liceo","16.87","1","null","3","0.0","1","null","6","null","6","null","6","1011.49","1","41.627894","15.907547"],
    [3194,"2024-05-13 01:00:00","20","manfredonia_liceo","16.49","1","null","3","0.0","1","null","6","null","6","null","6","1011.17","1","41.627894","15.907547"],
    [3195,"2024-05-13 02:00:00","20","manfredonia_liceo","15.87","1","null","3","0.0","1","null","6","null","6","null","6","1010.69","1","41.627894","15.907547"],
    [3196,"2024-05-13 03:00:00","20","manfredonia_liceo","15.49","1","null","3","0.0","1","null","6","null","6","null","6","1010.64","1","41.627894","15.907547"],
    [3197,"2024-05-13 04:00:00","20","manfredonia_liceo","15.49","1","null","3","0.0","1","null","6","null","6","null","6","1010.72","1","41.627894","15.907547"],
    [3198,"2024-05-13 05:00:00","20","manfredonia_liceo","15.88","1","null","3","0.0","1","null","6","null","6","null","6","1010.4","1","41.627894","15.907547"],
    [3199,"2024-05-13 06:00:00","20","manfredonia_liceo","16.38","1","null","3","0.0","1","null","6","null","6","null","6","1010.45","1","41.627894","15.907547"],
    [3200,"2024-05-13 07:00:00","20","manfredonia_liceo","18.74","1","null","3","0.0","1","null","6","null","6","null","6","1010.75","1","41.627894","15.907547"],
    [3201,"2024-05-13 08:00:00","20","manfredonia_liceo","21.95","1","null","3","0.0","1","null","6","null","6","null","6","1010.99","1","41.627894","15.907547"],
    [3202,"2024-05-13 09:00:00","20","manfredonia_liceo","22.41","1","null","3","0.0","1","null","6","null","6","null","6","1010.99","1","41.627894","15.907547"],
    [3203,"2024-05-13 10:00:00","20","manfredonia_liceo","21.93","1","null","3","0.0","1","null","6","null","6","null","6","1010.99","1","41.627894","15.907547"],
    [3204,"2024-05-13 11:00:00","20","manfredonia_liceo","22.99","1","null","3","0.0","1","null","6","null","6","null","6","1010.75","1","41.627894","15.907547"],
    [3205,"2024-05-13 12:00:00","20","manfredonia_liceo","23.87","1","null","3","0.0","1","null","6","null","6","null","6","1010.49","1","41.627894","15.907547"],
    [3206,"2024-05-13 13:00:00","20","manfredonia_liceo","24.88","1","null","3","0.0","1","null","6","null","6","null","6","1009.98","1","41.627894","15.907547"],
    [3207,"2024-05-13 14:00:00","20","manfredonia_liceo","25.26","1","null","3","0.0","1","null","6","null","6","null","6","1009.2","1","41.627894","15.907547"],
    [3208,"2024-05-13 15:00:00","20","manfredonia_liceo","25.77","1","null","3","0.0","1","null","6","null","6","null","6","1008.81","1","41.627894","15.907547"],
    [3209,"2024-05-13 16:00:00","20","manfredonia_liceo","23.81","1","null","3","0.0","1","null","6","null","6","null","6","1008.59","1","41.627894","15.907547"],
    [3210,"2024-05-13 17:00:00","20","manfredonia_liceo","22.81","1","null","3","0.0","1","null","6","null","6","null","6","1008.42","1","41.627894","15.907547"],
    [3211,"2024-05-13 18:00:00","20","manfredonia_liceo","23.19","1","null","3","0.0","1","null","6","null","6","null","6","1008.0","1","41.627894","15.907547"],
    [3212,"2024-05-13 19:00:00","20","manfredonia_liceo","21.97","1","null","3","0.0","1","null","6","null","6","null","6","1007.83","1","41.627894","15.907547"],
    [3213,"2024-05-13 20:00:00","20","manfredonia_liceo","20.59","1","null","3","0.0","1","null","6","null","6","null","6","1007.9","1","41.627894","15.907547"],
    [3214,"2024-05-13 21:00:00","20","manfredonia_liceo","19.64","1","null","3","0.0","1","null","6","null","6","null","6","1007.75","1","41.627894","15.907547"],
    [3215,"2024-05-13 22:00:00","20","manfredonia_liceo","19.57","1","null","3","0.0","1","null","6","null","6","null","6","1007.58","1","41.627894","15.907547"],
    [3216,"2024-05-13 23:00:00","20","manfredonia_liceo","19.58","1","null","3","0.0","1","null","6","null","6","null","6","1007.07","1","41.627894","15.907547"],
    [3217,"2024-05-14 00:00:00","20","manfredonia_liceo","19.58","1","null","3","0.0","1","null","6","null","6","null","6","1006.96","1","41.627894","15.907547"],
    [3218,"2024-05-14 01:00:00","20","manfredonia_liceo","19.08","1","null","3","0.0","1","null","6","null","6","null","6","1006.8","1","41.627894","15.907547"],
    [3219,"2024-05-14 02:00:00","20","manfredonia_liceo","18.8","1","null","3","0.0","1","null","6","null","6","null","6","1006.22","1","41.627894","15.907547"],
    [3220,"2024-05-14 03:00:00","20","manfredonia_liceo","18.5","1","null","3","0.0","1","null","6","null","6","null","6","1005.54","1","41.627894","15.907547"],
    [3221,"2024-05-14 04:00:00","20","manfredonia_liceo","17.59","1","null","3","0.0","1","null","6","null","6","null","6","1005.34","1","41.627894","15.907547"],
    [3222,"2024-05-14 05:00:00","20","manfredonia_liceo","17.1","1","null","3","0.0","1","null","6","null","6","null","6","1005.13","1","41.627894","15.907547"],
    [3223,"2024-05-14 06:00:00","20","manfredonia_liceo","17.12","1","null","3","0.0","1","null","6","null","6","null","6","1005.13","1","41.627894","15.907547"],
    [3224,"2024-05-14 07:00:00","20","manfredonia_liceo","18.97","1","null","3","0.0","1","null","6","null","6","null","6","1005.36","1","41.627894","15.907547"],
    [3225,"2024-05-14 08:00:00","20","manfredonia_liceo","20.35","1","null","3","0.0","1","null","6","null","6","null","6","1005.65","1","41.627894","15.907547"],
    [3226,"2024-05-14 09:00:00","20","manfredonia_liceo","22.03","1","null","3","0.0","1","null","6","null","6","null","6","1005.63","1","41.627894","15.907547"],
    [3227,"2024-05-14 10:00:00","20","manfredonia_liceo","25.35","1","null","3","0.0","1","null","6","null","6","null","6","1005.49","1","41.627894","15.907547"],
    [3228,"2024-05-14 11:00:00","20","manfredonia_liceo","25.74","1","null","3","0.0","1","null","6","null","6","null","6","1005.49","1","41.627894","15.907547"],
    [3229,"2024-05-14 12:00:00","20","manfredonia_liceo","25.25","1","null","3","0.0","1","null","6","null","6","null","6","1005.49","1","41.627894","15.907547"],
    [3230,"2024-05-14 13:00:00","20","manfredonia_liceo","24.65","1","null","3","0.0","1","null","6","null","6","null","6","1005.18","1","41.627894","15.907547"],
    [3231,"2024-05-14 14:00:00","20","manfredonia_liceo","24.64","1","null","3","0.0","1","null","6","null","6","null","6","1004.67","1","41.627894","15.907547"],
    [3232,"2024-05-14 15:00:00","20","manfredonia_liceo","24.78","1","null","3","0.0","1","null","6","null","6","null","6","1004.32","1","41.627894","15.907547"],
    [3233,"2024-05-14 16:00:00","20","manfredonia_liceo","24.49","1","null","3","0.0","1","null","6","null","6","null","6","1004.03","1","41.627894","15.907547"],
    [3234,"2024-05-14 17:00:00","20","manfredonia_liceo","23.91","1","null","3","0.0","1","null","6","null","6","null","6","1003.82","1","41.627894","15.907547"],
    [3235,"2024-05-14 18:00:00","20","manfredonia_liceo","22.68","1","null","3","0.0","1","null","6","null","6","null","6","1003.69","1","41.627894","15.907547"],
    [3236,"2024-05-14 19:00:00","20","manfredonia_liceo","21.43","1","null","3","0.0","1","null","6","null","6","null","6","1003.87","1","41.627894","15.907547"],
    [3237,"2024-05-14 20:00:00","20","manfredonia_liceo","20.4","1","null","3","0.0","1","null","6","null","6","null","6","1004.13","1","41.627894","15.907547"],
    [3238,"2024-05-14 21:00:00","20","manfredonia_liceo","19.72","1","null","3","0.0","1","null","6","null","6","null","6","1004.64","1","41.627894","15.907547"],
    [3239,"2024-05-14 22:00:00","20","manfredonia_liceo","20.25","1","null","3","0.0","1","null","6","null","6","null","6","1005.13","1","41.627894","15.907547"],
    [3240,"2024-05-14 23:00:00","20","manfredonia_liceo","19.97","1","null","3","0.0","1","null","6","null","6","null","6","1005.25","1","41.627894","15.907547"],
    [3241,"2024-05-15 00:00:00","20","manfredonia_liceo","18.6","1","null","3","0.0","1","null","6","null","6","null","6","1005.13","1","41.627894","15.907547"],
    [3242,"2024-05-15 01:00:00","20","manfredonia_liceo","17.89","1","null","3","0.0","1","null","6","null","6","null","6","1005.0","1","41.627894","15.907547"],
    [3243,"2024-05-15 02:00:00","20","manfredonia_liceo","17.87","1","null","3","0.0","1","null","6","null","6","null","6","1004.73","1","41.627894","15.907547"],
    [3244,"2024-05-15 03:00:00","20","manfredonia_liceo","18.55","1","null","3","0.0","1","null","6","null","6","null","6","1004.4","1","41.627894","15.907547"],
    [3245,"2024-05-15 04:00:00","20","manfredonia_liceo","18.21","1","null","3","0.0","1","null","6","null","6","null","6","1004.19","1","41.627894","15.907547"],
    [3246,"2024-05-15 05:00:00","20","manfredonia_liceo","17.97","1","null","3","0.0","1","null","6","null","6","null","6","1004.03","1","41.627894","15.907547"],
    [3247,"2024-05-15 06:00:00","20","manfredonia_liceo","18.79","1","null","3","0.0","1","null","6","null","6","null","6","1004.32","1","41.627894","15.907547"],
    [3248,"2024-05-15 07:00:00","20","manfredonia_liceo","19.9","1","null","3","0.0","1","null","6","null","6","null","6","1004.64","1","41.627894","15.907547"],
    [3249,"2024-05-15 08:00:00","20","manfredonia_liceo","22.24","1","null","3","0.0","1","null","6","null","6","null","6","1005.12","1","41.627894","15.907547"],
    [3250,"2024-05-15 09:00:00","20","manfredonia_liceo","23.11","1","null","3","0.0","1","null","6","null","6","null","6","1005.19","1","41.627894","15.907547"],
    [3251,"2024-05-15 10:00:00","20","manfredonia_liceo","23.44","1","null","3","0.0","1","null","6","null","6","null","6","1005.13","1","41.627894","15.907547"],
    [3252,"2024-05-15 11:00:00","20","manfredonia_liceo","23.52","1","null","3","0.0","1","null","6","null","6","null","6","1005.07","1","41.627894","15.907547"],
    [3253,"2024-05-15 12:00:00","20","manfredonia_liceo","24.34","1","null","3","0.0","1","null","6","null","6","null","6","1005.05","1","41.627894","15.907547"],
    [3254,"2024-05-15 13:00:00","20","manfredonia_liceo","24.85","1","null","3","0.0","1","null","6","null","6","null","6","1004.68","1","41.627894","15.907547"],
    [3255,"2024-05-15 14:00:00","20","manfredonia_liceo","25.16","1","null","3","0.0","1","null","6","null","6","null","6","1004.34","1","41.627894","15.907547"],
    [3256,"2024-05-15 15:00:00","20","manfredonia_liceo","25.41","1","null","3","0.0","1","null","6","null","6","null","6","1003.86","1","41.627894","15.907547"],
    [3257,"2024-05-15 16:00:00","20","manfredonia_liceo","24.99","1","null","3","0.0","1","null","6","null","6","null","6","1003.7","1","41.627894","15.907547"],
    [3258,"2024-05-15 17:00:00","20","manfredonia_liceo","24.36","1","null","3","0.0","1","null","6","null","6","null","6","1003.59","1","41.627894","15.907547"],
    [3259,"2024-05-15 18:00:00","20","manfredonia_liceo","23.1","1","null","3","0.0","1","null","6","null","6","null","6","1003.65","1","41.627894","15.907547"],
    [3260,"2024-05-15 19:00:00","20","manfredonia_liceo","22.23","1","null","3","0.0","1","null","6","null","6","null","6","1003.64","1","41.627894","15.907547"],
    [3261,"2024-05-15 20:00:00","20","manfredonia_liceo","21.21","1","null","3","0.0","1","null","6","null","6","null","6","1003.69","1","41.627894","15.907547"],
    [3262,"2024-05-15 21:00:00","20","manfredonia_liceo","20.79","1","null","3","0.0","1","null","6","null","6","null","6","1004.17","1","41.627894","15.907547"],
    [3263,"2024-05-15 22:00:00","20","manfredonia_liceo","20.47","1","null","3","0.0","1","null","6","null","6","null","6","1004.4","1","41.627894","15.907547"],
    [3264,"2024-05-15 23:00:00","20","manfredonia_liceo","20.3","1","null","3","0.0","1","null","6","null","6","null","6","1004.26","1","41.627894","15.907547"],
    [3265,"2024-05-16 00:00:00","20","manfredonia_liceo","20.18","1","null","3","0.0","1","null","6","null","6","null","6","1004.2","1","41.627894","15.907547"],
    [3266,"2024-05-16 01:00:00","20","manfredonia_liceo","19.96","1","null","3","0.0","1","null","6","null","6","null","6","1003.82","1","41.627894","15.907547"],
    [3267,"2024-05-16 02:00:00","20","manfredonia_liceo","19.73","1","null","3","0.0","1","null","6","null","6","null","6","1003.62","1","41.627894","15.907547"],
    [3268,"2024-05-16 03:00:00","20","manfredonia_liceo","19.5","1","null","3","0.2","1","null","6","null","6","null","6","1003.31","1","41.627894","15.907547"],
    [3269,"2024-05-16 04:00:00","20","manfredonia_liceo","19.3","1","null","3","0.0","1","null","6","null","6","null","6","1002.79","1","41.627894","15.907547"],
    [3270,"2024-05-16 05:00:00","20","manfredonia_liceo","19.34","1","null","3","0.0","1","null","6","null","6","null","6","1002.92","1","41.627894","15.907547"],
    [3271,"2024-05-16 06:00:00","20","manfredonia_liceo","19.47","1","null","3","0.0","1","null","6","null","6","null","6","1002.66","1","41.627894","15.907547"],
    [3272,"2024-05-16 07:00:00","20","manfredonia_liceo","20.02","1","null","3","0.0","1","null","6","null","6","null","6","1002.54","1","41.627894","15.907547"],
    [3273,"2024-05-16 08:00:00","20","manfredonia_liceo","20.15","1","null","3","0.0","1","null","6","null","6","null","6","1002.56","1","41.627894","15.907547"],
    [3274,"2024-05-16 09:00:00","20","manfredonia_liceo","20.87","1","null","3","0.0","1","null","6","null","6","null","6","1002.28","1","41.627894","15.907547"],
    [3275,"2024-05-16 10:00:00","20","manfredonia_liceo","22.2","1","null","3","0.0","1","null","6","null","6","null","6","1002.21","1","41.627894","15.907547"],
    [3276,"2024-05-16 11:00:00","20","manfredonia_liceo","23.2","1","null","3","0.0","1","null","6","null","6","null","6","1001.98","1","41.627894","15.907547"],
    [3277,"2024-05-16 12:00:00","20","manfredonia_liceo","24.42","1","null","3","0.0","1","null","6","null","6","null","6","1001.38","1","41.627894","15.907547"],
    [3278,"2024-05-16 13:00:00","20","manfredonia_liceo","25.26","1","null","3","0.0","1","null","6","null","6","null","6","1000.85","1","41.627894","15.907547"],
    [3279,"2024-05-16 14:00:00","20","manfredonia_liceo","26.64","1","null","3","0.0","1","null","6","null","6","null","6","1000.04","1","41.627894","15.907547"],
    [3280,"2024-05-16 15:00:00","20","manfredonia_liceo","27.19","1","null","3","0.0","1","null","6","null","6","null","6","999.48","1","41.627894","15.907547"],
    [3281,"2024-05-16 16:00:00","20","manfredonia_liceo","26.93","1","null","3","0.0","1","null","6","null","6","null","6","998.96","1","41.627894","15.907547"],
    [3282,"2024-05-16 17:00:00","20","manfredonia_liceo","26.4","1","null","3","0.0","1","null","6","null","6","null","6","998.19","1","41.627894","15.907547"],
    [3283,"2024-05-16 18:00:00","20","manfredonia_liceo","26.27","1","null","3","0.0","1","null","6","null","6","null","6","998.17","1","41.627894","15.907547"],
    [3284,"2024-05-16 19:00:00","20","manfredonia_liceo","25.4","1","null","3","0.0","1","null","6","null","6","null","6","998.59","1","41.627894","15.907547"],
    [3285,"2024-05-16 20:00:00","20","manfredonia_liceo","23.96","1","null","3","0.0","1","null","6","null","6","null","6","999.1","1","41.627894","15.907547"],
    [3286,"2024-05-16 21:00:00","20","manfredonia_liceo","22.65","1","null","3","0.0","1","null","6","null","6","null","6","999.75","1","41.627894","15.907547"],
    [3287,"2024-05-16 22:00:00","20","manfredonia_liceo","21.56","1","null","3","0.0","1","null","6","null","6","null","6","1000.8","1","41.627894","15.907547"],
    [3288,"2024-05-16 23:00:00","20","manfredonia_liceo","20.36","1","null","3","0.0","1","null","6","null","6","null","6","1001.25","1","41.627894","15.907547"],
    [3289,"2024-05-17 00:00:00","20","manfredonia_liceo","19.77","1","null","3","0.0","1","null","6","null","6","null","6","1001.61","1","41.627894","15.907547"],
    [3290,"2024-05-17 01:00:00","20","manfredonia_liceo","19.23","1","null","3","0.0","1","null","6","null","6","null","6","1002.36","1","41.627894","15.907547"],
    [3291,"2024-05-17 02:00:00","20","manfredonia_liceo","20.24","1","null","3","0.0","1","null","6","null","6","null","6","1002.87","1","41.627894","15.907547"],
    [3292,"2024-05-17 03:00:00","20","manfredonia_liceo","20.11","1","null","3","0.0","1","null","6","null","6","null","6","1003.6","1","41.627894","15.907547"],
    [3293,"2024-05-17 04:00:00","20","manfredonia_liceo","18.93","1","null","3","0.0","1","null","6","null","6","null","6","1003.99","1","41.627894","15.907547"],
    [3294,"2024-05-17 05:00:00","20","manfredonia_liceo","17.09","1","null","3","0.0","1","null","6","null","6","null","6","1004.19","1","41.627894","15.907547"],
    [3295,"2024-05-17 06:00:00","20","manfredonia_liceo","17.36","1","null","3","0.0","1","null","6","null","6","null","6","1004.72","1","41.627894","15.907547"],
    [3296,"2024-05-17 07:00:00","20","manfredonia_liceo","20.05","1","null","3","0.0","1","null","6","null","6","null","6","1005.12","1","41.627894","15.907547"],
    [3297,"2024-05-17 08:00:00","20","manfredonia_liceo","22.78","1","null","3","0.0","1","null","6","null","6","null","6","1005.5","1","41.627894","15.907547"],
    [3298,"2024-05-17 09:00:00","20","manfredonia_liceo","25.3","1","null","3","0.0","1","null","6","null","6","null","6","1005.78","1","41.627894","15.907547"],
    [3299,"2024-05-17 10:00:00","20","manfredonia_liceo","27.2","1","null","3","0.0","1","null","6","null","6","null","6","1006.15","1","41.627894","15.907547"],
    [3300,"2024-05-17 11:00:00","20","manfredonia_liceo","28.45","1","null","3","0.0","1","null","6","null","6","null","6","1006.23","1","41.627894","15.907547"],
    [3301,"2024-05-17 12:00:00","20","manfredonia_liceo","29.27","1","null","3","0.0","1","null","6","null","6","null","6","1006.21","1","41.627894","15.907547"],
    [3302,"2024-05-17 13:00:00","20","manfredonia_liceo","30.43","1","null","3","0.0","1","null","6","null","6","null","6","1006.01","1","41.627894","15.907547"],
    [3303,"2024-05-17 14:00:00","20","manfredonia_liceo","30.44","1","null","3","0.0","1","null","6","null","6","null","6","1006.02","1","41.627894","15.907547"],
    [3304,"2024-05-17 15:00:00","20","manfredonia_liceo","29.32","1","null","3","0.0","1","null","6","null","6","null","6","1006.12","1","41.627894","15.907547"],
    [3305,"2024-05-17 16:00:00","20","manfredonia_liceo","28.07","1","null","3","0.0","1","null","6","null","6","null","6","1006.38","1","41.627894","15.907547"],
    [3306,"2024-05-17 17:00:00","20","manfredonia_liceo","26.61","1","null","3","0.0","1","null","6","null","6","null","6","1006.59","1","41.627894","15.907547"],
    [3307,"2024-05-17 18:00:00","20","manfredonia_liceo","26.03","1","null","3","0.0","1","null","6","null","6","null","6","1006.91","1","41.627894","15.907547"],
    [3308,"2024-05-17 19:00:00","20","manfredonia_liceo","24.27","1","null","3","0.0","1","null","6","null","6","null","6","1007.37","1","41.627894","15.907547"],
    [3309,"2024-05-17 20:00:00","20","manfredonia_liceo","21.51","1","null","3","0.0","1","null","6","null","6","null","6","1007.81","1","41.627894","15.907547"],
    [3310,"2024-05-17 21:00:00","20","manfredonia_liceo","20.48","1","null","3","0.0","1","null","6","null","6","null","6","1008.06","1","41.627894","15.907547"],
    [3311,"2024-05-17 22:00:00","20","manfredonia_liceo","20.0","1","null","3","0.0","1","null","6","null","6","null","6","1008.37","1","41.627894","15.907547"],
    [3312,"2024-05-17 23:00:00","20","manfredonia_liceo","19.47","1","null","3","0.0","1","null","6","null","6","null","6","1008.18","1","41.627894","15.907547"],
    [3313,"2024-05-18 00:00:00","20","manfredonia_liceo","18.82","1","null","3","0.0","1","null","6","null","6","null","6","1007.94","1","41.627894","15.907547"],
    [3314,"2024-05-18 01:00:00","20","manfredonia_liceo","18.32","1","null","3","0.0","1","null","6","null","6","null","6","1007.69","1","41.627894","15.907547"],
    [3315,"2024-05-18 02:00:00","20","manfredonia_liceo","17.38","1","null","3","0.0","1","null","6","null","6","null","6","1007.42","1","41.627894","15.907547"],
    [3316,"2024-05-18 03:00:00","20","manfredonia_liceo","17.03","1","null","3","0.0","1","null","6","null","6","null","6","1007.26","1","41.627894","15.907547"],
    [3317,"2024-05-18 04:00:00","20","manfredonia_liceo","16.17","1","null","3","0.0","1","null","6","null","6","null","6","1007.3","1","41.627894","15.907547"],
    [3318,"2024-05-18 05:00:00","20","manfredonia_liceo","15.89","1","null","3","0.0","1","null","6","null","6","null","6","1007.78","1","41.627894","15.907547"],
    [3319,"2024-05-18 06:00:00","20","manfredonia_liceo","16.44","1","null","3","0.0","1","null","6","null","6","null","6","1008.06","1","41.627894","15.907547"],
    [3320,"2024-05-18 07:00:00","20","manfredonia_liceo","18.89","1","null","3","0.0","1","null","6","null","6","null","6","1007.89","1","41.627894","15.907547"],
    [3321,"2024-05-18 08:00:00","20","manfredonia_liceo","21.62","1","null","3","0.0","1","null","6","null","6","null","6","1008.05","1","41.627894","15.907547"],
    [3322,"2024-05-18 09:00:00","20","manfredonia_liceo","22.57","1","null","3","0.0","1","null","6","null","6","null","6","1008.68","1","41.627894","15.907547"],
    [3323,"2024-05-18 10:00:00","20","manfredonia_liceo","22.99","1","null","3","0.0","1","null","6","null","6","null","6","1008.79","1","41.627894","15.907547"],
    [3324,"2024-05-18 11:00:00","20","manfredonia_liceo","23.39","1","null","3","0.0","1","null","6","null","6","null","6","1009.17","1","41.627894","15.907547"],
    [3325,"2024-05-18 12:00:00","20","manfredonia_liceo","23.19","1","null","3","0.0","1","null","6","null","6","null","6","1008.97","1","41.627894","15.907547"],
    [3326,"2024-05-18 13:00:00","20","manfredonia_liceo","21.0","1","null","3","0.8","1","null","6","null","6","null","6","1007.54","1","41.627894","15.907547"],
    [3327,"2024-05-18 14:00:00","20","manfredonia_liceo","20.0","1","null","3","0.0","1","null","6","null","6","null","6","1008.32","1","41.627894","15.907547"],
    [3328,"2024-05-18 15:00:00","20","manfredonia_liceo","20.39","1","null","3","3.2","1","null","6","null","6","null","6","1008.77","1","41.627894","15.907547"],
    [3329,"2024-05-18 16:00:00","20","manfredonia_liceo","19.65","1","null","3","2.4","1","null","6","null","6","null","6","1009.15","1","41.627894","15.907547"],
    [3330,"2024-05-18 17:00:00","20","manfredonia_liceo","19.35","1","null","3","1.0","1","null","6","null","6","null","6","1007.81","1","41.627894","15.907547"],
    [3331,"2024-05-18 18:00:00","20","manfredonia_liceo","19.48","1","null","3","0.0","1","null","6","null","6","null","6","1007.92","1","41.627894","15.907547"],
    [3332,"2024-05-18 19:00:00","20","manfredonia_liceo","19.24","1","null","3","0.0","1","null","6","null","6","null","6","1007.99","1","41.627894","15.907547"],
    [3333,"2024-05-18 20:00:00","20","manfredonia_liceo","19.21","1","null","3","0.0","1","null","6","null","6","null","6","1007.86","1","41.627894","15.907547"],
    [3334,"2024-05-18 21:00:00","20","manfredonia_liceo","19.09","1","null","3","0.0","1","null","6","null","6","null","6","1008.16","1","41.627894","15.907547"],
    [3335,"2024-05-18 22:00:00","20","manfredonia_liceo","18.84","1","null","3","0.0","1","null","6","null","6","null","6","1008.23","1","41.627894","15.907547"],
    [3336,"2024-05-18 23:00:00","20","manfredonia_liceo","18.52","1","null","3","0.0","1","null","6","null","6","null","6","1007.83","1","41.627894","15.907547"],
    [3337,"2024-05-19 00:00:00","20","manfredonia_liceo","17.97","1","null","3","0.0","1","null","6","null","6","null","6","1007.74","1","41.627894","15.907547"],
    [3338,"2024-05-19 01:00:00","20","manfredonia_liceo","17.23","1","null","3","0.0","1","null","6","null","6","null","6","1006.84","1","41.627894","15.907547"],
    [3339,"2024-05-19 02:00:00","20","manfredonia_liceo","16.38","1","null","3","0.0","1","null","6","null","6","null","6","1006.27","1","41.627894","15.907547"],
    [3340,"2024-05-19 03:00:00","20","manfredonia_liceo","15.83","1","null","3","0.0","1","null","6","null","6","null","6","1005.93","1","41.627894","15.907547"],
    [3341,"2024-05-19 04:00:00","20","manfredonia_liceo","15.57","1","null","3","0.0","1","null","6","null","6","null","6","1005.68","1","41.627894","15.907547"],
    [3342,"2024-05-19 05:00:00","20","manfredonia_liceo","14.88","1","null","3","0.0","1","null","6","null","6","null","6","1005.92","1","41.627894","15.907547"],
    [3343,"2024-05-19 06:00:00","20","manfredonia_liceo","15.31","1","null","3","0.0","1","null","6","null","6","null","6","1006.45","1","41.627894","15.907547"],
    [3344,"2024-05-19 07:00:00","20","manfredonia_liceo","17.8","1","null","3","0.0","1","null","6","null","6","null","6","1007.15","1","41.627894","15.907547"],
    [3345,"2024-05-19 08:00:00","20","manfredonia_liceo","20.86","1","null","3","0.0","1","null","6","null","6","null","6","1007.64","1","41.627894","15.907547"],
    [3346,"2024-05-19 09:00:00","20","manfredonia_liceo","23.17","1","null","3","0.0","1","null","6","null","6","null","6","1007.38","1","41.627894","15.907547"],
    [3347,"2024-05-19 10:00:00","20","manfredonia_liceo","22.74","1","null","3","0.0","1","null","6","null","6","null","6","1007.84","1","41.627894","15.907547"],
    [3348,"2024-05-19 11:00:00","20","manfredonia_liceo","23.42","1","null","3","0.0","1","null","6","null","6","null","6","1007.49","1","41.627894","15.907547"],
    [3349,"2024-05-19 12:00:00","20","manfredonia_liceo","24.24","1","null","3","0.0","1","null","6","null","6","null","6","1007.08","1","41.627894","15.907547"],
    [3350,"2024-05-19 13:00:00","20","manfredonia_liceo","25.01","1","null","3","0.0","1","null","6","null","6","null","6","1006.91","1","41.627894","15.907547"],
    [3351,"2024-05-19 14:00:00","20","manfredonia_liceo","25.46","1","null","3","0.0","1","null","6","null","6","null","6","1006.52","1","41.627894","15.907547"],
    [3352,"2024-05-19 15:00:00","20","manfredonia_liceo","24.34","1","null","3","0.0","1","null","6","null","6","null","6","1005.12","1","41.627894","15.907547"],
    [3353,"2024-05-19 16:00:00","20","manfredonia_liceo","23.0","1","null","3","0.6","1","null","6","null","6","null","6","1005.24","1","41.627894","15.907547"],
    [3354,"2024-05-19 17:00:00","20","manfredonia_liceo","20.64","1","null","3","1.8","1","null","6","null","6","null","6","1005.44","1","41.627894","15.907547"],
    [3355,"2024-05-19 18:00:00","20","manfredonia_liceo","20.11","1","null","3","1.0","1","null","6","null","6","null","6","1005.58","1","41.627894","15.907547"],
    [3356,"2024-05-19 19:00:00","20","manfredonia_liceo","20.05","1","null","3","0.0","1","null","6","null","6","null","6","1005.62","1","41.627894","15.907547"],
    [3357,"2024-05-19 20:00:00","20","manfredonia_liceo","20.16","1","null","3","0.0","1","null","6","null","6","null","6","1005.3","1","41.627894","15.907547"],
    [3358,"2024-05-19 21:00:00","20","manfredonia_liceo","20.12","1","null","3","0.0","1","null","6","null","6","null","6","1005.5","1","41.627894","15.907547"],
    [3359,"2024-05-19 22:00:00","20","manfredonia_liceo","20.04","1","null","3","0.0","1","null","6","null","6","null","6","1005.82","1","41.627894","15.907547"],
    [3360,"2024-05-19 23:00:00","20","manfredonia_liceo","19.55","1","null","3","0.0","1","null","6","null","6","null","6","1005.86","1","41.627894","15.907547"],
    [3361,"2024-05-20 00:00:00","20","manfredonia_liceo","19.16","1","null","3","0.0","1","null","6","null","6","null","6","1005.8","1","41.627894","15.907547"],
    [3362,"2024-05-20 01:00:00","20","manfredonia_liceo","18.18","1","null","3","0.0","1","null","6","null","6","null","6","1005.43","1","41.627894","15.907547"],
    [3363,"2024-05-20 02:00:00","20","manfredonia_liceo","17.28","1","null","3","0.0","1","null","6","null","6","null","6","1005.13","1","41.627894","15.907547"],
    [3364,"2024-05-20 03:00:00","20","manfredonia_liceo","16.96","1","null","3","0.0","1","null","6","null","6","null","6","1005.13","1","41.627894","15.907547"],
    [3365,"2024-05-20 04:00:00","20","manfredonia_liceo","17.4","1","null","3","0.0","1","null","6","null","6","null","6","1005.4","1","41.627894","15.907547"],
    [3366,"2024-05-20 05:00:00","20","manfredonia_liceo","17.76","1","null","3","0.0","1","null","6","null","6","null","6","1005.7","1","41.627894","15.907547"],
    [3367,"2024-05-20 06:00:00","20","manfredonia_liceo","18.24","1","null","3","0.0","1","null","6","null","6","null","6","1005.84","1","41.627894","15.907547"],
    [3368,"2024-05-20 07:00:00","20","manfredonia_liceo","21.51","1","null","3","0.0","1","null","6","null","6","null","6","1005.83","1","41.627894","15.907547"],
    [3369,"2024-05-20 08:00:00","20","manfredonia_liceo","23.91","1","null","3","0.0","1","null","6","null","6","null","6","1006.07","1","41.627894","15.907547"],
    [3370,"2024-05-20 09:00:00","20","manfredonia_liceo","24.34","1","null","3","0.0","1","null","6","null","6","null","6","1006.23","1","41.627894","15.907547"],
    [3371,"2024-05-20 10:00:00","20","manfredonia_liceo","24.65","1","null","3","0.0","1","null","6","null","6","null","6","1006.01","1","41.627894","15.907547"],
    [3372,"2024-05-20 11:00:00","20","manfredonia_liceo","25.2","1","null","3","0.0","1","null","6","null","6","null","6","1005.86","1","41.627894","15.907547"],
    [3373,"2024-05-20 12:00:00","20","manfredonia_liceo","25.76","1","null","3","0.0","1","null","6","null","6","null","6","1005.67","1","41.627894","15.907547"],
    [3374,"2024-05-20 13:00:00","20","manfredonia_liceo","25.2","1","null","3","0.0","1","null","6","null","6","null","6","1005.44","1","41.627894","15.907547"],
    [3375,"2024-05-20 14:00:00","20","manfredonia_liceo","24.86","1","null","3","0.0","1","null","6","null","6","null","6","1005.53","1","41.627894","15.907547"],
    [3376,"2024-05-20 15:00:00","20","manfredonia_liceo","24.49","1","null","3","0.0","1","null","6","null","6","null","6","1005.07","1","41.627894","15.907547"],
    [3377,"2024-05-20 16:00:00","20","manfredonia_liceo","25.36","1","null","3","0.0","1","null","6","null","6","null","6","1004.36","1","41.627894","15.907547"],
    [3378,"2024-05-20 17:00:00","20","manfredonia_liceo","25.47","1","null","3","0.0","1","null","6","null","6","null","6","1003.79","1","41.627894","15.907547"],
    [3379,"2024-05-20 18:00:00","20","manfredonia_liceo","24.71","1","null","3","0.0","1","null","6","null","6","null","6","1003.22","1","41.627894","15.907547"],
    [3380,"2024-05-20 19:00:00","20","manfredonia_liceo","23.72","1","null","3","0.0","1","null","6","null","6","null","6","1002.86","1","41.627894","15.907547"],
    [3381,"2024-05-20 20:00:00","20","manfredonia_liceo","22.21","1","null","3","0.0","1","null","6","null","6","null","6","1002.78","1","41.627894","15.907547"],
    [3382,"2024-05-20 21:00:00","20","manfredonia_liceo","21.88","1","null","3","0.0","1","null","6","null","6","null","6","1002.88","1","41.627894","15.907547"],
    [3383,"2024-05-20 22:00:00","20","manfredonia_liceo","21.76","1","null","3","0.0","1","null","6","null","6","null","6","1002.79","1","41.627894","15.907547"],
    [3384,"2024-05-20 23:00:00","20","manfredonia_liceo","21.44","1","null","3","0.0","1","null","6","null","6","null","6","1002.41","1","41.627894","15.907547"],
    [3385,"2024-05-21 00:00:00","20","manfredonia_liceo","21.29","1","null","3","0.0","1","null","6","null","6","null","6","1002.01","1","41.627894","15.907547"],
    [3386,"2024-05-21 01:00:00","20","manfredonia_liceo","21.25","1","null","3","0.0","1","null","6","null","6","null","6","1001.22","1","41.627894","15.907547"],
    [3387,"2024-05-21 02:00:00","20","manfredonia_liceo","20.88","1","null","3","0.0","1","null","6","null","6","null","6","1000.79","1","41.627894","15.907547"],
    [3388,"2024-05-21 03:00:00","20","manfredonia_liceo","20.62","1","null","3","0.0","1","null","6","null","6","null","6","1000.5","1","41.627894","15.907547"],
    [3389,"2024-05-21 04:00:00","20","manfredonia_liceo","20.18","1","null","3","0.0","1","null","6","null","6","null","6","1000.08","1","41.627894","15.907547"],
    [3390,"2024-05-21 05:00:00","20","manfredonia_liceo","19.47","1","null","3","0.0","1","null","6","null","6","null","6","999.81","1","41.627894","15.907547"],
    [3391,"2024-05-21 06:00:00","20","manfredonia_liceo","19.05","1","null","3","0.0","1","null","6","null","6","null","6","1000.01","1","41.627894","15.907547"],
    [3392,"2024-05-21 07:00:00","20","manfredonia_liceo","20.75","1","null","3","0.0","1","null","6","null","6","null","6","1000.48","1","41.627894","15.907547"],
    [3393,"2024-05-21 08:00:00","20","manfredonia_liceo","23.79","1","null","3","0.0","1","null","6","null","6","null","6","1000.99","1","41.627894","15.907547"],
    [3394,"2024-05-21 09:00:00","20","manfredonia_liceo","25.95","1","null","3","0.0","1","null","6","null","6","null","6","1001.11","1","41.627894","15.907547"],
    [3395,"2024-05-21 10:00:00","20","manfredonia_liceo","27.21","1","null","3","0.0","1","null","6","null","6","null","6","1001.41","1","41.627894","15.907547"],
    [3396,"2024-05-21 11:00:00","20","manfredonia_liceo","27.66","1","null","3","0.0","1","null","6","null","6","null","6","1001.58","1","41.627894","15.907547"],
    [3397,"2024-05-21 12:00:00","20","manfredonia_liceo","28.38","1","null","3","0.0","1","null","6","null","6","null","6","1002.25","1","41.627894","15.907547"],
    [3398,"2024-05-21 13:00:00","20","manfredonia_liceo","28.74","1","null","3","0.0","1","null","6","null","6","null","6","1002.56","1","41.627894","15.907547"],
    [3399,"2024-05-21 14:00:00","20","manfredonia_liceo","29.21","1","null","3","0.0","1","null","6","null","6","null","6","1002.59","1","41.627894","15.907547"],
    [3400,"2024-05-21 15:00:00","20","manfredonia_liceo","29.66","1","null","3","0.0","1","null","6","null","6","null","6","1002.5","1","41.627894","15.907547"],
    [3401,"2024-05-21 16:00:00","20","manfredonia_liceo","29.04","1","null","3","0.0","1","null","6","null","6","null","6","1002.52","1","41.627894","15.907547"],
    [3402,"2024-05-21 17:00:00","20","manfredonia_liceo","28.42","1","null","3","0.0","1","null","6","null","6","null","6","1002.56","1","41.627894","15.907547"],
    [3403,"2024-05-21 18:00:00","20","manfredonia_liceo","28.0","1","null","3","0.0","1","null","6","null","6","null","6","1002.72","1","41.627894","15.907547"],
    [3404,"2024-05-21 19:00:00","20","manfredonia_liceo","26.56","1","null","3","0.0","1","null","6","null","6","null","6","1003.58","1","41.627894","15.907547"],
    [3405,"2024-05-21 20:00:00","20","manfredonia_liceo","24.01","1","null","3","0.0","1","null","6","null","6","null","6","1004.49","1","41.627894","15.907547"],
    [3406,"2024-05-21 21:00:00","20","manfredonia_liceo","22.3","1","null","3","0.0","1","null","6","null","6","null","6","1005.14","1","41.627894","15.907547"],
    [3407,"2024-05-21 22:00:00","20","manfredonia_liceo","21.1","1","null","3","0.0","1","null","6","null","6","null","6","1006.13","1","41.627894","15.907547"],
    [3408,"2024-05-21 23:00:00","20","manfredonia_liceo","19.94","1","null","3","0.0","1","null","6","null","6","null","6","1006.61","1","41.627894","15.907547"],
    [3409,"2024-05-22 00:00:00","20","manfredonia_liceo","18.88","1","null","3","0.0","1","null","6","null","6","null","6","1006.86","1","41.627894","15.907547"],
    [3410,"2024-05-22 01:00:00","20","manfredonia_liceo","18.17","1","null","3","0.0","1","null","6","null","6","null","6","1006.74","1","41.627894","15.907547"],
    [3411,"2024-05-22 02:00:00","20","manfredonia_liceo","17.41","1","null","3","0.0","1","null","6","null","6","null","6","1006.38","1","41.627894","15.907547"],
    [3412,"2024-05-22 03:00:00","20","manfredonia_liceo","16.9","1","null","3","0.0","1","null","6","null","6","null","6","1006.26","1","41.627894","15.907547"],
    [3413,"2024-05-22 04:00:00","20","manfredonia_liceo","15.55","1","null","3","0.0","1","null","6","null","6","null","6","1006.23","1","41.627894","15.907547"],
    [3414,"2024-05-22 05:00:00","20","manfredonia_liceo","16.47","1","null","3","0.0","1","null","6","null","6","null","6","1005.97","1","41.627894","15.907547"],
    [3415,"2024-05-22 06:00:00","20","manfredonia_liceo","17.92","1","null","3","0.0","1","null","6","null","6","null","6","1006.23","1","41.627894","15.907547"],
    [3416,"2024-05-22 07:00:00","20","manfredonia_liceo","20.4","1","null","3","0.0","1","null","6","null","6","null","6","1006.41","1","41.627894","15.907547"],
    [3417,"2024-05-22 08:00:00","20","manfredonia_liceo","22.6","1","null","3","0.0","1","null","6","null","6","null","6","1006.89","1","41.627894","15.907547"],
    [3418,"2024-05-22 09:00:00","20","manfredonia_liceo","24.07","1","null","3","0.0","1","null","6","null","6","null","6","1007.3","1","41.627894","15.907547"],
    [3419,"2024-05-22 10:00:00","20","manfredonia_liceo","25.7","1","null","3","0.0","1","null","6","null","6","null","6","1007.33","1","41.627894","15.907547"],
    [3420,"2024-05-22 11:00:00","20","manfredonia_liceo","25.18","1","null","3","0.0","1","null","6","null","6","null","6","1007.69","1","41.627894","15.907547"],
    [3421,"2024-05-22 12:00:00","20","manfredonia_liceo","24.8","1","null","3","0.0","1","null","6","null","6","null","6","1007.95","1","41.627894","15.907547"],
    [3422,"2024-05-22 13:00:00","20","manfredonia_liceo","26.04","1","null","3","0.0","1","null","6","null","6","null","6","1007.69","1","41.627894","15.907547"],
    [3423,"2024-05-22 14:00:00","20","manfredonia_liceo","26.26","1","null","3","0.0","1","null","6","null","6","null","6","1007.35","1","41.627894","15.907547"],
    [3424,"2024-05-22 15:00:00","20","manfredonia_liceo","26.36","1","null","3","0.0","1","null","6","null","6","null","6","1007.03","1","41.627894","15.907547"],
    [3425,"2024-05-22 16:00:00","20","manfredonia_liceo","24.28","1","null","3","0.0","1","null","6","null","6","null","6","1006.96","1","41.627894","15.907547"],
    [3426,"2024-05-22 17:00:00","20","manfredonia_liceo","20.48","1","null","3","4.4","1","null","6","null","6","null","6","1007.83","1","41.627894","15.907547"],
    [3427,"2024-05-22 18:00:00","20","manfredonia_liceo","18.41","1","null","3","0.0","1","null","6","null","6","null","6","1007.96","1","41.627894","15.907547"],
    [3428,"2024-05-22 19:00:00","20","manfredonia_liceo","19.49","1","null","3","0.0","1","null","6","null","6","null","6","1007.89","1","41.627894","15.907547"],
    [3429,"2024-05-22 20:00:00","20","manfredonia_liceo","19.45","1","null","3","0.0","1","null","6","null","6","null","6","1008.37","1","41.627894","15.907547"],
    [3430,"2024-05-22 21:00:00","20","manfredonia_liceo","18.68","1","null","3","0.0","1","null","6","null","6","null","6","1008.55","1","41.627894","15.907547"],
    [3431,"2024-05-22 22:00:00","20","manfredonia_liceo","18.34","1","null","3","0.0","1","null","6","null","6","null","6","1009.06","1","41.627894","15.907547"],
    [3432,"2024-05-22 23:00:00","20","manfredonia_liceo","18.39","1","null","3","0.0","1","null","6","null","6","null","6","1009.29","1","41.627894","15.907547"],
    [3433,"2024-05-23 00:00:00","20","manfredonia_liceo","18.33","1","null","3","0.0","1","null","6","null","6","null","6","1009.52","1","41.627894","15.907547"],
    [3434,"2024-05-23 01:00:00","20","manfredonia_liceo","16.78","1","null","3","0.0","1","null","6","null","6","null","6","1009.5","1","41.627894","15.907547"],
    [3435,"2024-05-23 02:00:00","20","manfredonia_liceo","16.78","1","null","3","0.0","1","null","6","null","6","null","6","1009.16","1","41.627894","15.907547"],
    [3436,"2024-05-23 03:00:00","20","manfredonia_liceo","17.54","1","null","3","0.0","1","null","6","null","6","null","6","1009.54","1","41.627894","15.907547"],
    [3437,"2024-05-23 04:00:00","20","manfredonia_liceo","17.29","1","null","3","0.0","1","null","6","null","6","null","6","1010.03","1","41.627894","15.907547"],
    [3438,"2024-05-23 05:00:00","20","manfredonia_liceo","16.14","1","null","3","0.0","1","null","6","null","6","null","6","1010.41","1","41.627894","15.907547"],
    [3439,"2024-05-23 06:00:00","20","manfredonia_liceo","16.63","1","null","3","0.0","1","null","6","null","6","null","6","1010.63","1","41.627894","15.907547"],
    [3440,"2024-05-23 07:00:00","20","manfredonia_liceo","18.89","1","null","3","0.0","1","null","6","null","6","null","6","1010.99","1","41.627894","15.907547"],
    [3441,"2024-05-23 08:00:00","20","manfredonia_liceo","23.32","1","null","3","0.0","1","null","6","null","6","null","6","1010.99","1","41.627894","15.907547"],
    [3442,"2024-05-23 09:00:00","20","manfredonia_liceo","26.41","1","null","3","0.0","1","null","6","null","6","null","6","1011.1","1","41.627894","15.907547"],
    [3443,"2024-05-23 10:00:00","20","manfredonia_liceo","26.51","1","null","3","0.0","1","null","6","null","6","null","6","1011.3","1","41.627894","15.907547"],
    [3444,"2024-05-23 11:00:00","20","manfredonia_liceo","25.82","1","null","3","0.0","1","null","6","null","6","null","6","1011.37","1","41.627894","15.907547"],
    [3445,"2024-05-23 12:00:00","20","manfredonia_liceo","26.42","1","null","3","0.0","1","null","6","null","6","null","6","1011.68","1","41.627894","15.907547"],
    [3446,"2024-05-23 13:00:00","20","manfredonia_liceo","26.31","1","null","3","0.0","1","null","6","null","6","null","6","1011.59","1","41.627894","15.907547"],
    [3447,"2024-05-23 14:00:00","20","manfredonia_liceo","26.63","1","null","3","0.0","1","null","6","null","6","null","6","1011.22","1","41.627894","15.907547"],
    [3448,"2024-05-23 15:00:00","20","manfredonia_liceo","26.31","1","null","3","0.0","1","null","6","null","6","null","6","1010.99","1","41.627894","15.907547"],
    [3449,"2024-05-23 16:00:00","20","manfredonia_liceo","26.2","1","null","3","0.0","1","null","6","null","6","null","6","1010.78","1","41.627894","15.907547"],
    [3450,"2024-05-23 17:00:00","20","manfredonia_liceo","26.13","1","null","3","0.0","1","null","6","null","6","null","6","1010.65","1","41.627894","15.907547"],
    [3451,"2024-05-23 18:00:00","20","manfredonia_liceo","25.23","1","null","3","0.0","1","null","6","null","6","null","6","1010.67","1","41.627894","15.907547"],
    [3452,"2024-05-23 19:00:00","20","manfredonia_liceo","23.61","1","null","3","0.0","1","null","6","null","6","null","6","1010.98","1","41.627894","15.907547"],
    [3453,"2024-05-23 20:00:00","20","manfredonia_liceo","20.95","1","null","3","0.0","1","null","6","null","6","null","6","1011.11","1","41.627894","15.907547"],
    [3454,"2024-05-23 21:00:00","20","manfredonia_liceo","19.46","1","null","3","0.0","1","null","6","null","6","null","6","1011.58","1","41.627894","15.907547"],
    [3455,"2024-05-23 22:00:00","20","manfredonia_liceo","18.59","1","null","3","0.0","1","null","6","null","6","null","6","1012.06","1","41.627894","15.907547"],
    [3456,"2024-05-23 23:00:00","20","manfredonia_liceo","18.14","1","null","3","0.0","1","null","6","null","6","null","6","1012.09","1","41.627894","15.907547"],
    [3457,"2024-05-24 00:00:00","20","manfredonia_liceo","17.78","1","null","3","0.0","1","null","6","null","6","null","6","1012.09","1","41.627894","15.907547"],
    [3458,"2024-05-24 01:00:00","20","manfredonia_liceo","17.72","1","null","3","0.0","1","null","6","null","6","null","6","1011.82","1","41.627894","15.907547"],
    [3459,"2024-05-24 02:00:00","20","manfredonia_liceo","16.38","1","null","3","0.0","1","null","6","null","6","null","6","1011.72","1","41.627894","15.907547"],
    [3460,"2024-05-24 03:00:00","20","manfredonia_liceo","16.49","1","null","3","0.0","1","null","6","null","6","null","6","1011.72","1","41.627894","15.907547"],
    [3461,"2024-05-24 04:00:00","20","manfredonia_liceo","15.34","1","null","3","0.0","1","null","6","null","6","null","6","1011.57","1","41.627894","15.907547"],
    [3462,"2024-05-24 05:00:00","20","manfredonia_liceo","15.49","1","null","3","0.0","1","null","6","null","6","null","6","1011.6","1","41.627894","15.907547"],
    [3463,"2024-05-24 06:00:00","20","manfredonia_liceo","15.59","1","null","3","0.0","1","null","6","null","6","null","6","1012.04","1","41.627894","15.907547"],
    [3464,"2024-05-24 07:00:00","20","manfredonia_liceo","19.0","1","null","3","0.0","1","null","6","null","6","null","6","1012.3","1","41.627894","15.907547"],
    [3465,"2024-05-24 08:00:00","20","manfredonia_liceo","23.61","1","null","3","0.0","1","null","6","null","6","null","6","1012.82","1","41.627894","15.907547"],
    [3466,"2024-05-24 09:00:00","20","manfredonia_liceo","24.97","1","null","3","0.0","1","null","6","null","6","null","6","1013.19","1","41.627894","15.907547"],
    [3467,"2024-05-24 10:00:00","20","manfredonia_liceo","24.39","1","null","3","0.0","1","null","6","null","6","null","6","1013.54","1","41.627894","15.907547"],
    [3468,"2024-05-24 11:00:00","20","manfredonia_liceo","26.01","1","null","3","0.0","1","null","6","null","6","null","6","1013.59","1","41.627894","15.907547"],
    [3469,"2024-05-24 12:00:00","20","manfredonia_liceo","25.7","1","null","3","0.0","1","null","6","null","6","null","6","1013.43","1","41.627894","15.907547"],
    [3470,"2024-05-24 13:00:00","20","manfredonia_liceo","26.16","1","null","3","0.0","1","null","6","null","6","null","6","1013.13","1","41.627894","15.907547"],
    [3471,"2024-05-24 14:00:00","20","manfredonia_liceo","26.58","1","null","3","0.0","1","null","6","null","6","null","6","1012.64","1","41.627894","15.907547"],
    [3472,"2024-05-24 15:00:00","20","manfredonia_liceo","27.14","1","null","3","0.0","1","null","6","null","6","null","6","1012.45","1","41.627894","15.907547"],
    [3473,"2024-05-24 16:00:00","20","manfredonia_liceo","26.92","1","null","3","0.0","1","null","6","null","6","null","6","1012.18","1","41.627894","15.907547"],
    [3474,"2024-05-24 17:00:00","20","manfredonia_liceo","25.92","1","null","3","0.0","1","null","6","null","6","null","6","1012.09","1","41.627894","15.907547"],
    [3475,"2024-05-24 18:00:00","20","manfredonia_liceo","23.99","1","null","3","0.0","1","null","6","null","6","null","6","1012.01","1","41.627894","15.907547"],
    [3476,"2024-05-24 19:00:00","20","manfredonia_liceo","22.38","1","null","3","0.0","1","null","6","null","6","null","6","1012.21","1","41.627894","15.907547"],
    [3477,"2024-05-24 20:00:00","20","manfredonia_liceo","21.08","1","null","3","0.0","1","null","6","null","6","null","6","1012.21","1","41.627894","15.907547"],
    [3478,"2024-05-24 21:00:00","20","manfredonia_liceo","20.53","1","null","3","0.0","1","null","6","null","6","null","6","1012.53","1","41.627894","15.907547"],
    [3479,"2024-05-24 22:00:00","20","manfredonia_liceo","19.85","1","null","3","0.0","1","null","6","null","6","null","6","1012.72","1","41.627894","15.907547"],
    [3480,"2024-05-24 23:00:00","20","manfredonia_liceo","19.0","1","null","3","0.0","1","null","6","null","6","null","6","1012.45","1","41.627894","15.907547"],
    [3481,"2024-05-25 00:00:00","20","manfredonia_liceo","19.17","1","null","3","0.0","1","null","6","null","6","null","6","1012.22","1","41.627894","15.907547"],
    [3482,"2024-05-25 01:00:00","20","manfredonia_liceo","18.82","1","null","3","0.0","1","null","6","null","6","null","6","1011.88","1","41.627894","15.907547"],
    [3483,"2024-05-25 02:00:00","20","manfredonia_liceo","18.12","1","null","3","0.0","1","null","6","null","6","null","6","1011.7","1","41.627894","15.907547"],
    [3484,"2024-05-25 03:00:00","20","manfredonia_liceo","17.77","1","null","3","0.0","1","null","6","null","6","null","6","1011.35","1","41.627894","15.907547"],
    [3485,"2024-05-25 04:00:00","20","manfredonia_liceo","17.2","1","null","3","0.0","1","null","6","null","6","null","6","1011.1","1","41.627894","15.907547"],
    [3486,"2024-05-25 05:00:00","20","manfredonia_liceo","16.68","1","null","3","0.0","1","null","6","null","6","null","6","1010.99","1","41.627894","15.907547"],
    [3487,"2024-05-25 06:00:00","20","manfredonia_liceo","17.46","1","null","3","0.0","1","null","6","null","6","null","6","1010.79","1","41.627894","15.907547"],
    [3488,"2024-05-25 07:00:00","20","manfredonia_liceo","21.15","1","null","3","0.0","1","null","6","null","6","null","6","1010.62","1","41.627894","15.907547"],
    [3489,"2024-05-25 08:00:00","20","manfredonia_liceo","22.45","1","null","3","0.0","1","null","6","null","6","null","6","1010.76","1","41.627894","15.907547"],
    [3490,"2024-05-25 09:00:00","20","manfredonia_liceo","22.3","1","null","3","0.0","1","null","6","null","6","null","6","1010.72","1","41.627894","15.907547"],
    [3491,"2024-05-25 10:00:00","20","manfredonia_liceo","22.4","1","null","3","0.0","1","null","6","null","6","null","6","1010.53","1","41.627894","15.907547"],
    [3492,"2024-05-25 11:00:00","20","manfredonia_liceo","22.52","1","null","3","0.0","1","null","6","null","6","null","6","1010.3","1","41.627894","15.907547"],
    [3493,"2024-05-25 12:00:00","20","manfredonia_liceo","22.91","1","null","3","0.0","1","null","6","null","6","null","6","1010.08","1","41.627894","15.907547"],
    [3494,"2024-05-25 13:00:00","20","manfredonia_liceo","23.07","1","null","3","0.0","1","null","6","null","6","null","6","1009.89","1","41.627894","15.907547"],
    [3495,"2024-05-25 14:00:00","20","manfredonia_liceo","23.14","1","null","3","0.0","1","null","6","null","6","null","6","1009.55","1","41.627894","15.907547"],
    [3496,"2024-05-25 15:00:00","20","manfredonia_liceo","23.22","1","null","3","0.0","1","null","6","null","6","null","6","1009.4","1","41.627894","15.907547"],
    [3497,"2024-05-25 16:00:00","20","manfredonia_liceo","22.97","1","null","3","0.0","1","null","6","null","6","null","6","1009.16","1","41.627894","15.907547"],
    [3498,"2024-05-25 17:00:00","20","manfredonia_liceo","22.76","1","null","3","0.0","1","null","6","null","6","null","6","1009.16","1","41.627894","15.907547"],
    [3499,"2024-05-25 18:00:00","20","manfredonia_liceo","21.75","1","null","3","0.0","1","null","6","null","6","null","6","1008.94","1","41.627894","15.907547"],
    [3500,"2024-05-25 19:00:00","20","manfredonia_liceo","21.38","1","null","3","0.0","1","null","6","null","6","null","6","1008.79","1","41.627894","15.907547"],
    [3501,"2024-05-25 20:00:00","20","manfredonia_liceo","21.35","1","null","3","0.0","1","null","6","null","6","null","6","1009.23","1","41.627894","15.907547"],
    [3502,"2024-05-25 21:00:00","20","manfredonia_liceo","20.94","1","null","3","0.0","1","null","6","null","6","null","6","1009.88","1","41.627894","15.907547"],
    [3503,"2024-05-25 22:00:00","20","manfredonia_liceo","20.31","1","null","3","0.0","1","null","6","null","6","null","6","1010.44","1","41.627894","15.907547"],
    [3504,"2024-05-25 23:00:00","20","manfredonia_liceo","19.74","1","null","3","0.0","1","null","6","null","6","null","6","1010.31","1","41.627894","15.907547"],
    [3505,"2024-05-26 00:00:00","20","manfredonia_liceo","19.77","1","null","3","0.0","1","null","6","null","6","null","6","1009.88","1","41.627894","15.907547"],
    [3506,"2024-05-26 01:00:00","20","manfredonia_liceo","19.88","1","null","3","0.0","1","null","6","null","6","null","6","1009.24","1","41.627894","15.907547"],
    [3507,"2024-05-26 02:00:00","20","manfredonia_liceo","20.1","1","null","3","0.0","1","null","6","null","6","null","6","1009.16","1","41.627894","15.907547"],
    [3508,"2024-05-26 03:00:00","20","manfredonia_liceo","20.31","1","null","3","0.0","1","null","6","null","6","null","6","1009.12","1","41.627894","15.907547"],
    [3509,"2024-05-26 04:00:00","20","manfredonia_liceo","20.44","1","null","3","0.0","1","null","6","null","6","null","6","1008.84","1","41.627894","15.907547"],
    [3510,"2024-05-26 05:00:00","20","manfredonia_liceo","20.29","1","null","3","0.0","1","null","6","null","6","null","6","1009.12","1","41.627894","15.907547"],
    [3511,"2024-05-26 06:00:00","20","manfredonia_liceo","19.91","1","null","3","0.0","1","null","6","null","6","null","6","1009.16","1","41.627894","15.907547"],
    [3512,"2024-05-26 07:00:00","20","manfredonia_liceo","20.66","1","null","3","0.0","1","null","6","null","6","null","6","1009.48","1","41.627894","15.907547"],
    [3513,"2024-05-26 08:00:00","20","manfredonia_liceo","23.22","1","null","3","0.0","1","null","6","null","6","null","6","1009.99","1","41.627894","15.907547"],
    [3514,"2024-05-26 09:00:00","20","manfredonia_liceo","24.94","1","null","3","0.0","1","null","6","null","6","null","6","1010.26","1","41.627894","15.907547"],
    [3515,"2024-05-26 10:00:00","20","manfredonia_liceo","24.63","1","null","3","0.0","1","null","6","null","6","null","6","1010.65","1","41.627894","15.907547"],
    [3516,"2024-05-26 11:00:00","20","manfredonia_liceo","23.65","1","null","3","0.0","1","null","6","null","6","null","6","1011.23","1","41.627894","15.907547"],
    [3517,"2024-05-26 12:00:00","20","manfredonia_liceo","25.72","1","null","3","0.0","1","null","6","null","6","null","6","1011.39","1","41.627894","15.907547"],
    [3518,"2024-05-26 13:00:00","20","manfredonia_liceo","27.79","1","null","3","0.0","1","null","6","null","6","null","6","1011.31","1","41.627894","15.907547"],
    [3519,"2024-05-26 14:00:00","20","manfredonia_liceo","26.87","1","null","3","0.0","1","null","6","null","6","null","6","1011.25","1","41.627894","15.907547"],
    [3520,"2024-05-26 15:00:00","20","manfredonia_liceo","27.22","1","null","3","0.0","1","null","6","null","6","null","6","1011.23","1","41.627894","15.907547"],
    [3521,"2024-05-26 16:00:00","20","manfredonia_liceo","25.78","1","null","3","0.0","1","null","6","null","6","null","6","1011.09","1","41.627894","15.907547"],
    [3522,"2024-05-26 17:00:00","20","manfredonia_liceo","25.87","1","null","3","0.0","1","null","6","null","6","null","6","1010.92","1","41.627894","15.907547"],
    [3523,"2024-05-26 18:00:00","20","manfredonia_liceo","23.73","1","null","3","0.0","1","null","6","null","6","null","6","1010.94","1","41.627894","15.907547"],
    [3524,"2024-05-26 19:00:00","20","manfredonia_liceo","23.03","1","null","3","0.0","1","null","6","null","6","null","6","1011.29","1","41.627894","15.907547"],
    [3525,"2024-05-26 20:00:00","20","manfredonia_liceo","20.84","1","null","3","0.0","1","null","6","null","6","null","6","1011.72","1","41.627894","15.907547"],
    [3526,"2024-05-26 21:00:00","20","manfredonia_liceo","19.74","1","null","3","0.0","1","null","6","null","6","null","6","1012.12","1","41.627894","15.907547"],
    [3527,"2024-05-26 22:00:00","20","manfredonia_liceo","19.3","1","null","3","0.0","1","null","6","null","6","null","6","1012.65","1","41.627894","15.907547"],
    [3528,"2024-05-26 23:00:00","20","manfredonia_liceo","18.74","1","null","3","0.0","1","null","6","null","6","null","6","1012.6","1","41.627894","15.907547"],
    [3529,"2024-05-27 00:00:00","20","manfredonia_liceo","17.99","1","null","3","0.0","1","null","6","null","6","null","6","1012.6","1","41.627894","15.907547"],
    [3530,"2024-05-27 01:00:00","20","manfredonia_liceo","17.39","1","null","3","0.0","1","null","6","null","6","null","6","1012.42","1","41.627894","15.907547"],
    [3531,"2024-05-27 02:00:00","20","manfredonia_liceo","17.94","1","null","3","0.0","1","null","6","null","6","null","6","1012.09","1","41.627894","15.907547"],
    [3532,"2024-05-27 03:00:00","20","manfredonia_liceo","17.44","1","null","3","0.0","1","null","6","null","6","null","6","1011.88","1","41.627894","15.907547"],
    [3533,"2024-05-27 04:00:00","20","manfredonia_liceo","17.41","1","null","3","0.0","1","null","6","null","6","null","6","1011.72","1","41.627894","15.907547"],
    [3534,"2024-05-27 05:00:00","20","manfredonia_liceo","17.36","1","null","3","0.0","1","null","6","null","6","null","6","1011.72","1","41.627894","15.907547"],
    [3535,"2024-05-27 06:00:00","20","manfredonia_liceo","18.23","1","null","3","0.0","1","null","6","null","6","null","6","1011.81","1","41.627894","15.907547"],
    [3536,"2024-05-27 07:00:00","20","manfredonia_liceo","19.65","1","null","3","0.0","1","null","6","null","6","null","6","1012.09","1","41.627894","15.907547"],
    [3537,"2024-05-27 08:00:00","20","manfredonia_liceo","22.88","1","null","3","0.0","1","null","6","null","6","null","6","1012.56","1","41.627894","15.907547"],
    [3538,"2024-05-27 09:00:00","20","manfredonia_liceo","22.58","1","null","3","0.0","1","null","6","null","6","null","6","1012.82","1","41.627894","15.907547"],
    [3539,"2024-05-27 10:00:00","20","manfredonia_liceo","24.44","1","null","3","0.0","1","null","6","null","6","null","6","1012.55","1","41.627894","15.907547"],
    [3540,"2024-05-27 11:00:00","20","manfredonia_liceo","24.83","1","null","3","0.0","1","null","6","null","6","null","6","1012.82","1","41.627894","15.907547"],
    [3541,"2024-05-27 12:00:00","20","manfredonia_liceo","25.82","1","null","3","0.0","1","null","6","null","6","null","6","1012.82","1","41.627894","15.907547"],
    [3542,"2024-05-27 13:00:00","20","manfredonia_liceo","25.65","1","null","3","0.0","1","null","6","null","6","null","6","1012.46","1","41.627894","15.907547"],
    [3543,"2024-05-27 14:00:00","20","manfredonia_liceo","24.62","1","null","3","0.0","1","null","6","null","6","null","6","1012.21","1","41.627894","15.907547"],
    [3544,"2024-05-27 15:00:00","20","manfredonia_liceo","25.67","1","null","3","0.0","1","null","6","null","6","null","6","1011.94","1","41.627894","15.907547"],
    [3545,"2024-05-27 16:00:00","20","manfredonia_liceo","24.48","1","null","3","0.0","1","null","6","null","6","null","6","1011.25","1","41.627894","15.907547"],
    [3546,"2024-05-27 17:00:00","20","manfredonia_liceo","23.79","1","null","3","0.0","1","null","6","null","6","null","6","1010.99","1","41.627894","15.907547"],
    [3547,"2024-05-27 18:00:00","20","manfredonia_liceo","23.23","1","null","3","0.0","1","null","6","null","6","null","6","1010.9","1","41.627894","15.907547"],
    [3548,"2024-05-27 19:00:00","20","manfredonia_liceo","23.02","1","null","3","0.0","1","null","6","null","6","null","6","1010.98","1","41.627894","15.907547"],
    [3549,"2024-05-27 20:00:00","20","manfredonia_liceo","21.07","1","null","3","0.0","1","null","6","null","6","null","6","1010.99","1","41.627894","15.907547"],
    [3550,"2024-05-27 21:00:00","20","manfredonia_liceo","19.91","1","null","3","0.0","1","null","6","null","6","null","6","1011.2","1","41.627894","15.907547"],
    [3551,"2024-05-27 22:00:00","20","manfredonia_liceo","18.75","1","null","3","0.0","1","null","6","null","6","null","6","1011.35","1","41.627894","15.907547"],
    [3552,"2024-05-27 23:00:00","20","manfredonia_liceo","18.07","1","null","3","0.0","1","null","6","null","6","null","6","1011.32","1","41.627894","15.907547"],
    [3553,"2024-05-28 00:00:00","20","manfredonia_liceo","17.65","1","null","3","0.0","1","null","6","null","6","null","6","1010.99","1","41.627894","15.907547"],
    [3554,"2024-05-28 01:00:00","20","manfredonia_liceo","17.45","1","null","3","0.0","1","null","6","null","6","null","6","1010.62","1","41.627894","15.907547"],
    [3555,"2024-05-28 02:00:00","20","manfredonia_liceo","17.17","1","null","3","0.0","1","null","6","null","6","null","6","1010.08","1","41.627894","15.907547"],
    [3556,"2024-05-28 03:00:00","20","manfredonia_liceo","16.98","1","null","3","0.0","1","null","6","null","6","null","6","1009.7","1","41.627894","15.907547"],
    [3557,"2024-05-28 04:00:00","20","manfredonia_liceo","16.63","1","null","3","0.0","1","null","6","null","6","null","6","1009.22","1","41.627894","15.907547"],
    [3558,"2024-05-28 05:00:00","20","manfredonia_liceo","16.28","1","null","3","0.0","1","null","6","null","6","null","6","1009.16","1","41.627894","15.907547"],
    [3559,"2024-05-28 06:00:00","20","manfredonia_liceo","17.23","1","null","3","0.0","1","null","6","null","6","null","6","1009.16","1","41.627894","15.907547"],
    [3560,"2024-05-28 07:00:00","20","manfredonia_liceo","20.86","1","null","3","0.0","1","null","6","null","6","null","6","1009.28","1","41.627894","15.907547"],
    [3561,"2024-05-28 08:00:00","20","manfredonia_liceo","22.93","1","null","3","0.0","1","null","6","null","6","null","6","1009.32","1","41.627894","15.907547"],
    [3562,"2024-05-28 09:00:00","20","manfredonia_liceo","24.47","1","null","3","0.0","1","null","6","null","6","null","6","1009.52","1","41.627894","15.907547"],
    [3563,"2024-05-28 10:00:00","20","manfredonia_liceo","23.15","1","null","3","0.0","1","null","6","null","6","null","6","1009.46","1","41.627894","15.907547"],
    [3564,"2024-05-28 11:00:00","20","manfredonia_liceo","24.79","1","null","3","0.0","1","null","6","null","6","null","6","1009.24","1","41.627894","15.907547"],
    [3565,"2024-05-28 12:00:00","20","manfredonia_liceo","25.08","1","null","3","0.0","1","null","6","null","6","null","6","1008.95","1","41.627894","15.907547"],
    [3566,"2024-05-28 13:00:00","20","manfredonia_liceo","25.75","1","null","3","0.0","1","null","6","null","6","null","6","1008.42","1","41.627894","15.907547"],
    [3567,"2024-05-28 14:00:00","20","manfredonia_liceo","26.37","1","null","3","0.0","1","null","6","null","6","null","6","1007.98","1","41.627894","15.907547"],
    [3568,"2024-05-28 15:00:00","20","manfredonia_liceo","26.93","1","null","3","0.0","1","null","6","null","6","null","6","1007.69","1","41.627894","15.907547"],
    [3569,"2024-05-28 16:00:00","20","manfredonia_liceo","26.6","1","null","3","0.0","1","null","6","null","6","null","6","1007.84","1","41.627894","15.907547"],
    [3570,"2024-05-28 17:00:00","20","manfredonia_liceo","26.46","1","null","3","0.0","1","null","6","null","6","null","6","1008.08","1","41.627894","15.907547"],
    [3571,"2024-05-28 18:00:00","20","manfredonia_liceo","25.76","1","null","3","0.0","1","null","6","null","6","null","6","1008.42","1","41.627894","15.907547"],
    [3572,"2024-05-28 19:00:00","20","manfredonia_liceo","24.08","1","null","3","0.0","1","null","6","null","6","null","6","1008.42","1","41.627894","15.907547"],
    [3573,"2024-05-28 20:00:00","20","manfredonia_liceo","21.32","1","null","3","0.0","1","null","6","null","6","null","6","1008.42","1","41.627894","15.907547"],
    [3574,"2024-05-28 21:00:00","20","manfredonia_liceo","20.46","1","null","3","0.0","1","null","6","null","6","null","6","1008.44","1","41.627894","15.907547"],
    [3575,"2024-05-28 22:00:00","20","manfredonia_liceo","20.13","1","null","3","0.0","1","null","6","null","6","null","6","1008.98","1","41.627894","15.907547"],
    [3576,"2024-05-28 23:00:00","20","manfredonia_liceo","19.02","1","null","3","0.0","1","null","6","null","6","null","6","1008.94","1","41.627894","15.907547"],
    [3577,"2024-05-29 00:00:00","20","manfredonia_liceo","18.46","1","null","3","0.0","1","null","6","null","6","null","6","1009.15","1","41.627894","15.907547"],
    [3578,"2024-05-29 01:00:00","20","manfredonia_liceo","17.74","1","null","3","0.0","1","null","6","null","6","null","6","1009.11","1","41.627894","15.907547"],
    [3579,"2024-05-29 02:00:00","20","manfredonia_liceo","17.39","1","null","3","0.0","1","null","6","null","6","null","6","1008.79","1","41.627894","15.907547"],
    [3580,"2024-05-29 03:00:00","20","manfredonia_liceo","18.13","1","null","3","0.0","1","null","6","null","6","null","6","1008.63","1","41.627894","15.907547"],
    [3581,"2024-05-29 04:00:00","20","manfredonia_liceo","18.49","1","null","3","0.0","1","null","6","null","6","null","6","1008.42","1","41.627894","15.907547"],
    [3582,"2024-05-29 05:00:00","20","manfredonia_liceo","18.68","1","null","3","0.0","1","null","6","null","6","null","6","1008.32","1","41.627894","15.907547"],
    [3583,"2024-05-29 06:00:00","20","manfredonia_liceo","19.04","1","null","3","0.0","1","null","6","null","6","null","6","1008.42","1","41.627894","15.907547"],
    [3584,"2024-05-29 07:00:00","20","manfredonia_liceo","20.38","1","null","3","0.0","1","null","6","null","6","null","6","1008.42","1","41.627894","15.907547"],
    [3585,"2024-05-29 08:00:00","20","manfredonia_liceo","23.48","1","null","3","0.0","1","null","6","null","6","null","6","1008.66","1","41.627894","15.907547"],
    [3586,"2024-05-29 09:00:00","20","manfredonia_liceo","24.87","1","null","3","0.0","1","null","6","null","6","null","6","1008.83","1","41.627894","15.907547"],
    [3587,"2024-05-29 10:00:00","20","manfredonia_liceo","25.01","1","null","3","0.0","1","null","6","null","6","null","6","1008.79","1","41.627894","15.907547"],
    [3588,"2024-05-29 11:00:00","20","manfredonia_liceo","25.2","1","null","3","0.0","1","null","6","null","6","null","6","1008.77","1","41.627894","15.907547"],
    [3589,"2024-05-29 12:00:00","20","manfredonia_liceo","26.08","1","null","3","0.0","1","null","6","null","6","null","6","1008.39","1","41.627894","15.907547"],
    [3590,"2024-05-29 13:00:00","20","manfredonia_liceo","26.13","1","null","3","0.0","1","null","6","null","6","null","6","1007.82","1","41.627894","15.907547"],
    [3591,"2024-05-29 14:00:00","20","manfredonia_liceo","24.88","1","null","3","0.0","1","null","6","null","6","null","6","1007.45","1","41.627894","15.907547"],
    [3592,"2024-05-29 15:00:00","20","manfredonia_liceo","23.49","1","null","3","0.0","1","null","6","null","6","null","6","1007.34","1","41.627894","15.907547"],
    [3593,"2024-05-29 16:00:00","20","manfredonia_liceo","24.05","1","null","3","0.0","1","null","6","null","6","null","6","1006.75","1","41.627894","15.907547"],
    [3594,"2024-05-29 17:00:00","20","manfredonia_liceo","26.25","1","null","3","0.0","1","null","6","null","6","null","6","1006.23","1","41.627894","15.907547"],
    [3595,"2024-05-29 18:00:00","20","manfredonia_liceo","25.55","1","null","3","0.0","1","null","6","null","6","null","6","1006.23","1","41.627894","15.907547"],
    [3596,"2024-05-29 19:00:00","20","manfredonia_liceo","24.48","1","null","3","0.0","1","null","6","null","6","null","6","1006.37","1","41.627894","15.907547"],
    [3597,"2024-05-29 20:00:00","20","manfredonia_liceo","21.91","1","null","3","0.0","1","null","6","null","6","null","6","1006.6","1","41.627894","15.907547"],
    [3598,"2024-05-29 21:00:00","20","manfredonia_liceo","20.62","1","null","3","0.0","1","null","6","null","6","null","6","1006.59","1","41.627894","15.907547"],
    [3599,"2024-05-29 22:00:00","20","manfredonia_liceo","19.67","1","null","3","0.0","1","null","6","null","6","null","6","1006.58","1","41.627894","15.907547"],
    [3600,"2024-05-29 23:00:00","20","manfredonia_liceo","18.99","1","null","3","0.0","1","null","6","null","6","null","6","1006.23","1","41.627894","15.907547"],
    [3601,"2024-05-30 00:00:00","20","manfredonia_liceo","17.99","1","null","3","0.0","1","null","6","null","6","null","6","1006.23","1","41.627894","15.907547"],
    [3602,"2024-05-30 01:00:00","20","manfredonia_liceo","17.77","1","null","3","0.0","1","null","6","null","6","null","6","1005.83","1","41.627894","15.907547"],
    [3603,"2024-05-30 02:00:00","20","manfredonia_liceo","17.74","1","null","3","0.0","1","null","6","null","6","null","6","1005.18","1","41.627894","15.907547"],
    [3604,"2024-05-30 03:00:00","20","manfredonia_liceo","18.07","1","null","3","0.0","1","null","6","null","6","null","6","1005.07","1","41.627894","15.907547"],
    [3605,"2024-05-30 04:00:00","20","manfredonia_liceo","18.58","1","null","3","0.0","1","null","6","null","6","null","6","1004.65","1","41.627894","15.907547"],
    [3606,"2024-05-30 05:00:00","20","manfredonia_liceo","18.33","1","null","3","0.0","1","null","6","null","6","null","6","1004.4","1","41.627894","15.907547"],
    [3607,"2024-05-30 06:00:00","20","manfredonia_liceo","18.47","1","null","3","0.0","1","null","6","null","6","null","6","1004.4","1","41.627894","15.907547"],
    [3608,"2024-05-30 07:00:00","20","manfredonia_liceo","21.31","1","null","3","0.0","1","null","6","null","6","null","6","1004.4","1","41.627894","15.907547"],
    [3609,"2024-05-30 08:00:00","20","manfredonia_liceo","23.67","1","null","3","0.0","1","null","6","null","6","null","6","1004.41","1","41.627894","15.907547"],
    [3610,"2024-05-30 09:00:00","20","manfredonia_liceo","24.92","1","null","3","0.0","1","null","6","null","6","null","6","1004.41","1","41.627894","15.907547"],
    [3611,"2024-05-30 10:00:00","20","manfredonia_liceo","23.56","1","null","3","0.0","1","null","6","null","6","null","6","1004.4","1","41.627894","15.907547"],
    [3612,"2024-05-30 11:00:00","20","manfredonia_liceo","25.65","1","null","3","0.0","1","null","6","null","6","null","6","1004.15","1","41.627894","15.907547"],
    [3613,"2024-05-30 12:00:00","20","manfredonia_liceo","27.23","1","null","3","0.0","1","null","6","null","6","null","6","1003.84","1","41.627894","15.907547"],
    [3614,"2024-05-30 13:00:00","20","manfredonia_liceo","27.3","1","null","3","0.0","1","null","6","null","6","null","6","1003.3","1","41.627894","15.907547"],
    [3615,"2024-05-30 14:00:00","20","manfredonia_liceo","27.78","1","null","3","0.0","1","null","6","null","6","null","6","1003.02","1","41.627894","15.907547"],
    [3616,"2024-05-30 15:00:00","20","manfredonia_liceo","27.97","1","null","3","0.0","1","null","6","null","6","null","6","1002.64","1","41.627894","15.907547"],
    [3617,"2024-05-30 16:00:00","20","manfredonia_liceo","26.22","1","null","3","0.0","1","null","6","null","6","null","6","1002.5","1","41.627894","15.907547"],
    [3618,"2024-05-30 17:00:00","20","manfredonia_liceo","25.14","1","null","3","0.0","1","null","6","null","6","null","6","1002.35","1","41.627894","15.907547"],
    [3619,"2024-05-30 18:00:00","20","manfredonia_liceo","25.48","1","null","3","0.0","1","null","6","null","6","null","6","1001.83","1","41.627894","15.907547"],
    [3620,"2024-05-30 19:00:00","20","manfredonia_liceo","23.84","1","null","3","0.0","1","null","6","null","6","null","6","1001.83","1","41.627894","15.907547"],
    [3621,"2024-05-30 20:00:00","20","manfredonia_liceo","22.9","1","null","3","0.0","1","null","6","null","6","null","6","1001.83","1","41.627894","15.907547"],
    [3622,"2024-05-30 21:00:00","20","manfredonia_liceo","23.01","1","null","3","0.0","1","null","6","null","6","null","6","1001.92","1","41.627894","15.907547"],
    [3623,"2024-05-30 22:00:00","20","manfredonia_liceo","23.13","1","null","3","0.0","1","null","6","null","6","null","6","1002.32","1","41.627894","15.907547"],
    [3624,"2024-05-30 23:00:00","20","manfredonia_liceo","22.37","1","null","3","0.0","1","null","6","null","6","null","6","1002.36","1","41.627894","15.907547"],
    [3625,"2024-05-31 00:00:00","20","manfredonia_liceo","22.11","1","null","3","0.0","1","null","6","null","6","null","6","1002.53","1","41.627894","15.907547"],
    [3626,"2024-05-31 01:00:00","20","manfredonia_liceo","21.66","1","null","3","0.0","1","null","6","null","6","null","6","1002.01","1","41.627894","15.907547"],
    [3627,"2024-05-31 02:00:00","20","manfredonia_liceo","20.78","1","null","3","0.0","1","null","6","null","6","null","6","1001.45","1","41.627894","15.907547"],
    [3628,"2024-05-31 03:00:00","20","manfredonia_liceo","20.02","1","null","3","0.0","1","null","6","null","6","null","6","1001.11","1","41.627894","15.907547"],
    [3629,"2024-05-31 04:00:00","20","manfredonia_liceo","20.1","1","null","3","0.0","1","null","6","null","6","null","6","1001.1","1","41.627894","15.907547"],
    [3630,"2024-05-31 05:00:00","20","manfredonia_liceo","20.47","1","null","3","0.0","1","null","6","null","6","null","6","1001.13","1","41.627894","15.907547"],
    [3631,"2024-05-31 06:00:00","20","manfredonia_liceo","20.49","1","null","3","0.0","1","null","6","null","6","null","6","1001.29","1","41.627894","15.907547"],
    [3632,"2024-05-31 07:00:00","20","manfredonia_liceo","21.9","1","null","3","0.0","1","null","6","null","6","null","6","1001.22","1","41.627894","15.907547"],
    [3633,"2024-05-31 08:00:00","20","manfredonia_liceo","25.36","1","null","3","0.0","1","null","6","null","6","null","6","1001.19","1","41.627894","15.907547"],
    [3634,"2024-05-31 09:00:00","20","manfredonia_liceo","26.92","1","null","3","0.0","1","null","6","null","6","null","6","1001.53","1","41.627894","15.907547"],
    [3635,"2024-05-31 10:00:00","20","manfredonia_liceo","26.88","1","null","3","0.0","1","null","6","null","6","null","6","1001.81","1","41.627894","15.907547"],
    [3636,"2024-05-31 11:00:00","20","manfredonia_liceo","27.86","1","null","3","0.0","1","null","6","null","6","null","6","1001.93","1","41.627894","15.907547"],
    [3637,"2024-05-31 12:00:00","20","manfredonia_liceo","27.17","1","null","3","0.0","1","null","6","null","6","null","6","1001.95","1","41.627894","15.907547"],
    [3638,"2024-05-31 13:00:00","20","manfredonia_liceo","26.49","1","null","3","0.0","1","null","6","null","6","null","6","1002.13","1","41.627894","15.907547"],
    [3639,"2024-05-31 14:00:00","20","manfredonia_liceo","26.04","1","null","3","0.0","1","null","6","null","6","null","6","1002.32","1","41.627894","15.907547"],
    [3640,"2024-05-31 15:00:00","20","manfredonia_liceo","25.08","1","null","3","0.4","1","null","6","null","6","null","6","1002.76","1","41.627894","15.907547"],
    [3641,"2024-05-31 16:00:00","20","manfredonia_liceo","22.13","1","null","3","0.2","1","null","6","null","6","null","6","1002.93","1","41.627894","15.907547"],
    [3642,"2024-05-31 17:00:00","20","manfredonia_liceo","24.34","1","null","3","0.0","1","null","6","null","6","null","6","1002.81","1","41.627894","15.907547"],
    [3643,"2024-05-31 18:00:00","20","manfredonia_liceo","24.97","1","null","3","0.0","1","null","6","null","6","null","6","1002.63","1","41.627894","15.907547"],
    [3644,"2024-05-31 19:00:00","20","manfredonia_liceo","25.15","1","null","3","0.0","1","null","6","null","6","null","6","1002.83","1","41.627894","15.907547"],
    [3645,"2024-05-31 20:00:00","20","manfredonia_liceo","24.21","1","null","3","0.0","1","null","6","null","6","null","6","1003.46","1","41.627894","15.907547"],
    [3646,"2024-05-31 21:00:00","20","manfredonia_liceo","23.07","1","null","3","0.0","1","null","6","null","6","null","6","1003.98","1","41.627894","15.907547"],
    [3647,"2024-05-31 22:00:00","20","manfredonia_liceo","22.58","1","null","3","0.0","1","null","6","null","6","null","6","1004.67","1","41.627894","15.907547"],
    [3648,"2024-05-31 23:00:00","20","manfredonia_liceo","21.7","1","null","3","0.0","1","null","6","null","6","null","6","1005.07","1","41.627894","15.907547\t"]
]}
